<?xml version='1.0' encoding='UTF-8'?><gpx version="1.1" creator="JPX - https://github.com/jenetics/jpx" xmlns="http://www.topografix.com/GPX/1/1"><trk><trkseg><trkpt lat="44.17027537534899" lon="11.631880684789039"><ele>412.99999999999994</ele><time>2026-05-03T07:32:20.999Z</time></trkpt><trkpt lat="44.17031340932026" lon="11.63196310798883"><ele>413.0</ele><time>2026-05-03T07:32:49.999Z</time></trkpt><trkpt lat="44.1702506723993" lon="11.631941613108035"><ele>413.0</ele><time>2026-05-03T07:34:48.999Z</time></trkpt><trkpt lat="44.170157032223116" lon="11.631985468468192"><ele>413.0</ele><time>2026-05-03T07:34:49.999Z</time></trkpt><trkpt lat="44.170065571372795" lon="11.632055807093087"><ele>412.99999999999994</ele><time>2026-05-03T07:34:50.999Z</time></trkpt><trkpt lat="44.16999410176053" lon="11.632126290792812"><ele>413.0</ele><time>2026-05-03T07:34:51.999Z</time></trkpt><trkpt lat="44.16991448459269" lon="11.632184437739848"><ele>410.8333333333333</ele><time>2026-05-03T07:34:52.999Z</time></trkpt><trkpt lat="44.16983095774949" lon="11.632185981375597"><ele>408.66666666666663</ele><time>2026-05-03T07:34:53.999Z</time></trkpt><trkpt lat="44.169750821068746" lon="11.632166727162797"><ele>406.5</ele><time>2026-05-03T07:34:54.999Z</time></trkpt><trkpt lat="44.16967496196278" lon="11.632145017546852"><ele>404.33333333333337</ele><time>2026-05-03T07:34:55.999Z</time></trkpt><trkpt lat="44.169599622567596" lon="11.63212047953955"><ele>402.1666666666667</ele><time>2026-05-03T07:34:56.998Z</time></trkpt><trkpt lat="44.169531235484904" lon="11.632091270519169"><ele>400.0</ele><time>2026-05-03T07:34:57.998Z</time></trkpt><trkpt lat="44.16946325416686" lon="11.631955065865032"><ele>400.0</ele><time>2026-05-03T07:34:59.998Z</time></trkpt><trkpt lat="44.16945292468779" lon="11.63185155826196"><ele>400.0</ele><time>2026-05-03T07:35:00.998Z</time></trkpt><trkpt lat="44.16944932213116" lon="11.631734700841294"><ele>400.0</ele><time>2026-05-03T07:35:01.998Z</time></trkpt><trkpt lat="44.169451398524586" lon="11.631594267995995"><ele>400.0</ele><time>2026-05-03T07:35:02.998Z</time></trkpt><trkpt lat="44.169453753381845" lon="11.631442376351472"><ele>400.0</ele><time>2026-05-03T07:35:03.998Z</time></trkpt><trkpt lat="44.16945067982791" lon="11.631289152019955"><ele>400.0</ele><time>2026-05-03T07:35:04.998Z</time></trkpt><trkpt lat="44.16945104443874" lon="11.631148262499018"><ele>400.0</ele><time>2026-05-03T07:35:05.998Z</time></trkpt><trkpt lat="44.16944578875183" lon="11.631017306020304"><ele>400.0</ele><time>2026-05-03T07:35:06.998Z</time></trkpt><trkpt lat="44.16944243624829" lon="11.630891520052797"><ele>400.0</ele><time>2026-05-03T07:35:07.998Z</time></trkpt><trkpt lat="44.16944429862163" lon="11.630762711130615"><ele>400.0</ele><time>2026-05-03T07:35:08.998Z</time></trkpt><trkpt lat="44.16943537937088" lon="11.630609561318995"><ele>399.6666666666667</ele><time>2026-05-03T07:35:10Z</time></trkpt><trkpt lat="44.16943064972836" lon="11.630453189881516"><ele>399.33333333333337</ele><time>2026-05-03T07:35:11Z</time></trkpt><trkpt lat="44.1694237114123" lon="11.630329808231103"><ele>399.0</ele><time>2026-05-03T07:35:12Z</time></trkpt><trkpt lat="44.16940898528365" lon="11.630228940870442"><ele>398.66666666666663</ele><time>2026-05-03T07:35:13Z</time></trkpt><trkpt lat="44.16938185133417" lon="11.630139607264086"><ele>398.3333333333333</ele><time>2026-05-03T07:35:14Z</time></trkpt><trkpt lat="44.169327071370795" lon="11.630071445452002"><ele>398.0</ele><time>2026-05-03T07:35:15Z</time></trkpt><trkpt lat="44.16925268844675" lon="11.630025387829273"><ele>400.25</ele><time>2026-05-03T07:35:16Z</time></trkpt><trkpt lat="44.16914831569007" lon="11.62999663781905"><ele>402.5</ele><time>2026-05-03T07:35:17Z</time></trkpt><trkpt lat="44.1690222709479" lon="11.630000856890685"><ele>404.75</ele><time>2026-05-03T07:35:18Z</time></trkpt><trkpt lat="44.168900383847415" lon="11.629983677186472"><ele>407.0</ele><time>2026-05-03T07:35:19Z</time></trkpt><trkpt lat="44.16878800452066" lon="11.629958099535427"><ele>407.0</ele><time>2026-05-03T07:35:20Z</time></trkpt><trkpt lat="44.168669714202494" lon="11.629943996137396"><ele>407.0</ele><time>2026-05-03T07:35:21Z</time></trkpt><trkpt lat="44.16855017943512" lon="11.62993019247431"><ele>407.0</ele><time>2026-05-03T07:35:22Z</time></trkpt><trkpt lat="44.16842741431453" lon="11.629931675911445"><ele>407.0</ele><time>2026-05-03T07:35:23Z</time></trkpt><trkpt lat="44.16829696895526" lon="11.629956246479379"><ele>407.8</ele><time>2026-05-03T07:35:24Z</time></trkpt><trkpt lat="44.16816409488337" lon="11.629983218825709"><ele>408.6</ele><time>2026-05-03T07:35:25Z</time></trkpt><trkpt lat="44.168062752892645" lon="11.63000208075861"><ele>409.40000000000003</ele><time>2026-05-03T07:35:26Z</time></trkpt><trkpt lat="44.16796546190656" lon="11.630005099136202"><ele>410.20000000000005</ele><time>2026-05-03T07:35:27Z</time></trkpt><trkpt lat="44.16785399601543" lon="11.630004937810158"><ele>411.0</ele><time>2026-05-03T07:35:28Z</time></trkpt><trkpt lat="44.167737697286704" lon="11.630000725262471"><ele>411.0</ele><time>2026-05-03T07:35:29Z</time></trkpt><trkpt lat="44.16762722828887" lon="11.629975269457221"><ele>411.0</ele><time>2026-05-03T07:35:30Z</time></trkpt><trkpt lat="44.16751406333018" lon="11.629926030871315"><ele>411.0</ele><time>2026-05-03T07:35:31Z</time></trkpt><trkpt lat="44.1673993830601" lon="11.629890450307089"><ele>411.0</ele><time>2026-05-03T07:35:32Z</time></trkpt><trkpt lat="44.16729434159218" lon="11.629862653008663"><ele>412.6</ele><time>2026-05-03T07:35:33Z</time></trkpt><trkpt lat="44.16718448840495" lon="11.62984029542715"><ele>414.20000000000005</ele><time>2026-05-03T07:35:34Z</time></trkpt><trkpt lat="44.167086803457835" lon="11.629779221233656"><ele>415.79999999999995</ele><time>2026-05-03T07:35:35Z</time></trkpt><trkpt lat="44.16699636496535" lon="11.62970180034816"><ele>417.4</ele><time>2026-05-03T07:35:36Z</time></trkpt><trkpt lat="44.166912332516496" lon="11.629607455787555"><ele>419.0</ele><time>2026-05-03T07:35:37Z</time></trkpt><trkpt lat="44.16682547620193" lon="11.629507808508356"><ele>418.0</ele><time>2026-05-03T07:35:38Z</time></trkpt><trkpt lat="44.16674208281209" lon="11.62940363692293"><ele>417.0</ele><time>2026-05-03T07:35:39Z</time></trkpt><trkpt lat="44.166661021448796" lon="11.629284158434453"><ele>416.0</ele><time>2026-05-03T07:35:40Z</time></trkpt><trkpt lat="44.16659073250012" lon="11.62918629996175"><ele>415.0</ele><time>2026-05-03T07:35:41Z</time></trkpt><trkpt lat="44.16653598865313" lon="11.62909742353805"><ele>414.0</ele><time>2026-05-03T07:35:42Z</time></trkpt><trkpt lat="44.16648422309461" lon="11.628994518033892"><ele>414.0</ele><time>2026-05-03T07:35:43Z</time></trkpt><trkpt lat="44.166455628146124" lon="11.628875663495986"><ele>414.0</ele><time>2026-05-03T07:35:44Z</time></trkpt><trkpt lat="44.16646150494585" lon="11.628744147784753"><ele>414.0</ele><time>2026-05-03T07:35:45Z</time></trkpt><trkpt lat="44.16650060797771" lon="11.62860943548781"><ele>414.0</ele><time>2026-05-03T07:35:46Z</time></trkpt><trkpt lat="44.16655427679562" lon="11.628474438444671"><ele>414.0</ele><time>2026-05-03T07:35:47Z</time></trkpt><trkpt lat="44.16661693345204" lon="11.628326155718478"><ele>414.0</ele><time>2026-05-03T07:35:48Z</time></trkpt><trkpt lat="44.16668350853156" lon="11.62815593944023"><ele>414.0</ele><time>2026-05-03T07:35:49Z</time></trkpt><trkpt lat="44.166744107743405" lon="11.627997778736091"><ele>414.0</ele><time>2026-05-03T07:35:50Z</time></trkpt><trkpt lat="44.166787032069834" lon="11.627858018667473"><ele>414.0</ele><time>2026-05-03T07:35:51Z</time></trkpt><trkpt lat="44.16682679055768" lon="11.627732917517877"><ele>414.0</ele><time>2026-05-03T07:35:52Z</time></trkpt><trkpt lat="44.1668610392179" lon="11.627629982067468"><ele>414.0</ele><time>2026-05-03T07:35:53Z</time></trkpt><trkpt lat="44.16689661298492" lon="11.627530429899808"><ele>414.0</ele><time>2026-05-03T07:35:54Z</time></trkpt><trkpt lat="44.16690521246892" lon="11.627424523861823"><ele>414.0</ele><time>2026-05-03T07:35:55Z</time></trkpt><trkpt lat="44.16689249625837" lon="11.6273097225676"><ele>414.0</ele><time>2026-05-03T07:35:56Z</time></trkpt><trkpt lat="44.16683784622197" lon="11.627205757556089"><ele>414.0</ele><time>2026-05-03T07:35:56.999Z</time></trkpt><trkpt lat="44.166750531288976" lon="11.627119725035653"><ele>414.0</ele><time>2026-05-03T07:35:57.999Z</time></trkpt><trkpt lat="44.166646623542256" lon="11.6270313882879"><ele>414.0</ele><time>2026-05-03T07:35:58.999Z</time></trkpt><trkpt lat="44.16654605905619" lon="11.62693576108253"><ele>414.0</ele><time>2026-05-03T07:35:59.999Z</time></trkpt><trkpt lat="44.16645571548684" lon="11.626824159686576"><ele>414.0</ele><time>2026-05-03T07:36:00.999Z</time></trkpt><trkpt lat="44.166369954083486" lon="11.626725252826278"><ele>416.0</ele><time>2026-05-03T07:36:01.999Z</time></trkpt><trkpt lat="44.16628395494196" lon="11.626621461360251"><ele>418.0</ele><time>2026-05-03T07:36:02.999Z</time></trkpt><trkpt lat="44.166185226624016" lon="11.626516199022213"><ele>420.0</ele><time>2026-05-03T07:36:03.999Z</time></trkpt><trkpt lat="44.1661091253628" lon="11.626426163046753"><ele>422.0</ele><time>2026-05-03T07:36:04.999Z</time></trkpt><trkpt lat="44.16604359836758" lon="11.626352067001672"><ele>424.0</ele><time>2026-05-03T07:36:05.999Z</time></trkpt><trkpt lat="44.16599297144499" lon="11.62629550428919"><ele>424.00000000000006</ele><time>2026-05-03T07:36:06.999Z</time></trkpt><trkpt lat="44.16592153127393" lon="11.626207178993877"><ele>424.0</ele><time>2026-05-03T07:36:08.999Z</time></trkpt><trkpt lat="44.165823301523396" lon="11.62621903842947"><ele>424.0</ele><time>2026-05-03T07:36:10.999Z</time></trkpt><trkpt lat="44.16575836515656" lon="11.626288529712813"><ele>424.0</ele><time>2026-05-03T07:36:11.999Z</time></trkpt><trkpt lat="44.165718894048446" lon="11.626390400835744"><ele>424.00000000000006</ele><time>2026-05-03T07:36:12.999Z</time></trkpt><trkpt lat="44.165683343945894" lon="11.626484491643094"><ele>424.0</ele><time>2026-05-03T07:36:13.999Z</time></trkpt><trkpt lat="44.165649511755994" lon="11.62656133123792"><ele>424.0</ele><time>2026-05-03T07:36:14.999Z</time></trkpt><trkpt lat="44.16561107111793" lon="11.62665057958828"><ele>424.0</ele><time>2026-05-03T07:36:15.999Z</time></trkpt><trkpt lat="44.16556481615269" lon="11.626754457345758"><ele>424.0</ele><time>2026-05-03T07:36:16.999Z</time></trkpt><trkpt lat="44.1655204619876" lon="11.626845625237326"><ele>424.0</ele><time>2026-05-03T07:36:17.999Z</time></trkpt><trkpt lat="44.16548907296699" lon="11.626924886178287"><ele>424.0</ele><time>2026-05-03T07:36:18.999Z</time></trkpt><trkpt lat="44.16545636007104" lon="11.627000132146442"><ele>424.0</ele><time>2026-05-03T07:36:19.999Z</time></trkpt><trkpt lat="44.165440850772654" lon="11.627092765490804"><ele>424.0</ele><time>2026-05-03T07:36:20.999Z</time></trkpt><trkpt lat="44.165435059690125" lon="11.62719617376561"><ele>425.00000000000006</ele><time>2026-05-03T07:36:21.999Z</time></trkpt><trkpt lat="44.165436833886794" lon="11.627293127698984"><ele>426.0</ele><time>2026-05-03T07:36:22.999Z</time></trkpt><trkpt lat="44.16544537668929" lon="11.627382832328173"><ele>427.0</ele><time>2026-05-03T07:36:23.999Z</time></trkpt><trkpt lat="44.16546260673081" lon="11.627469945736863"><ele>428.0</ele><time>2026-05-03T07:36:24.999Z</time></trkpt><trkpt lat="44.16550902173355" lon="11.627576073182428"><ele>429.00000000000006</ele><time>2026-05-03T07:36:26.999Z</time></trkpt><trkpt lat="44.16547106193423" lon="11.627664877004761"><ele>430.0</ele><time>2026-05-03T07:36:29.999Z</time></trkpt><trkpt lat="44.16542787152366" lon="11.627776427890721"><ele>432.00000000000006</ele><time>2026-05-03T07:36:32.999Z</time></trkpt><trkpt lat="44.16538668796935" lon="11.627876633375209"><ele>434.0</ele><time>2026-05-03T07:36:34.999Z</time></trkpt><trkpt lat="44.16531408851636" lon="11.62795810055759"><ele>436.0</ele><time>2026-05-03T07:36:37.999Z</time></trkpt><trkpt lat="44.16524478367896" lon="11.628016458858934"><ele>438.0</ele><time>2026-05-03T07:36:39.999Z</time></trkpt><trkpt lat="44.165178045191475" lon="11.628074275188755"><ele>440.00000000000006</ele><time>2026-05-03T07:36:41.999Z</time></trkpt><trkpt lat="44.16510337275896" lon="11.628135746677854"><ele>442.0</ele><time>2026-05-03T07:36:52.999Z</time></trkpt><trkpt lat="44.16505843964437" lon="11.628234126471494"><ele>442.00000000000006</ele><time>2026-05-03T07:36:55.999Z</time></trkpt><trkpt lat="44.1650432040188" lon="11.628324444235398"><ele>442.0</ele><time>2026-05-03T07:37:01.999Z</time></trkpt><trkpt lat="44.16512713455804" lon="11.628388609399176"><ele>442.0</ele><time>2026-05-03T07:37:29Z</time></trkpt><trkpt lat="44.16519475548143" lon="11.62837732496337"><ele>442.0</ele><time>2026-05-03T07:37:31Z</time></trkpt><trkpt lat="44.16527371877751" lon="11.628446952760065"><ele>442.00000000000006</ele><time>2026-05-03T07:37:41Z</time></trkpt><trkpt lat="44.165272987454145" lon="11.628582033865541"><ele>442.0</ele><time>2026-05-03T07:37:43Z</time></trkpt><trkpt lat="44.16518664095063" lon="11.628623603852505"><ele>445.6</ele><time>2026-05-03T07:37:45Z</time></trkpt><trkpt lat="44.165088798912954" lon="11.62866698395891"><ele>449.20000000000005</ele><time>2026-05-03T07:37:48Z</time></trkpt><trkpt lat="44.16504289228677" lon="11.628796603912772"><ele>452.8</ele><time>2026-05-03T07:37:50Z</time></trkpt><trkpt lat="44.165068933697874" lon="11.628879138853083"><ele>456.4</ele><time>2026-05-03T07:38:50.999Z</time></trkpt><trkpt lat="44.16510058182384" lon="11.628990447429622"><ele>460.0</ele><time>2026-05-03T07:38:56.999Z</time></trkpt><trkpt lat="44.16516728116182" lon="11.629132165201492"><ele>460.00000000000006</ele><time>2026-05-03T07:38:58.999Z</time></trkpt><trkpt lat="44.1652146630517" lon="11.62922649344852"><ele>460.0</ele><time>2026-05-03T07:39:00.999Z</time></trkpt><trkpt lat="44.16520799014292" lon="11.629353312182952"><ele>460.0</ele><time>2026-05-03T07:39:03.999Z</time></trkpt><trkpt lat="44.16519828297293" lon="11.629443682431042"><ele>460.0</ele><time>2026-05-03T07:39:05.999Z</time></trkpt><trkpt lat="44.16519169396006" lon="11.629544492770707"><ele>460.00000000000006</ele><time>2026-05-03T07:39:17.998Z</time></trkpt><trkpt lat="44.16516031257175" lon="11.629665503783134"><ele>460.0</ele><time>2026-05-03T07:39:19.998Z</time></trkpt><trkpt lat="44.16512343121926" lon="11.629780971897329"><ele>462.8571428571428</ele><time>2026-05-03T07:39:22Z</time></trkpt><trkpt lat="44.165093074221204" lon="11.629858821645898"><ele>465.71428571428567</ele><time>2026-05-03T07:39:50Z</time></trkpt><trkpt lat="44.1650615080224" lon="11.629987744232954"><ele>468.57142857142856</ele><time>2026-05-03T07:39:53Z</time></trkpt><trkpt lat="44.165053949721695" lon="11.630075876594809"><ele>471.4285714285714</ele><time>2026-05-03T07:39:55Z</time></trkpt><trkpt lat="44.16502943100629" lon="11.630162497080725"><ele>474.2857142857142</ele><time>2026-05-03T07:39:57Z</time></trkpt><trkpt lat="44.16503583497945" lon="11.630264045036446"><ele>477.14285714285717</ele><time>2026-05-03T07:40:37.999Z</time></trkpt><trkpt lat="44.16502149106218" lon="11.630378765328107"><ele>480.0</ele><time>2026-05-03T07:41:24.998Z</time></trkpt><trkpt lat="44.164987038773326" lon="11.630482218759065"><ele>480.0</ele><time>2026-05-03T07:41:31Z</time></trkpt><trkpt lat="44.16495511233418" lon="11.630622194380106"><ele>480.0</ele><time>2026-05-03T07:41:34Z</time></trkpt><trkpt lat="44.164924924651146" lon="11.630733454866558"><ele>480.0</ele><time>2026-05-03T07:41:37Z</time></trkpt><trkpt lat="44.16488478108838" lon="11.630828680744354"><ele>480.0</ele><time>2026-05-03T07:41:39Z</time></trkpt><trkpt lat="44.164853879386726" lon="11.630925913588875"><ele>480.0</ele><time>2026-05-03T07:41:41Z</time></trkpt><trkpt lat="44.164842382865125" lon="11.631025761895236"><ele>480.0</ele><time>2026-05-03T07:41:43Z</time></trkpt><trkpt lat="44.164783060858746" lon="11.631115958601525"><ele>483.3333333333333</ele><time>2026-05-03T07:41:45Z</time></trkpt><trkpt lat="44.16476488881861" lon="11.631211847079129"><ele>486.66666666666663</ele><time>2026-05-03T07:41:48Z</time></trkpt><trkpt lat="44.16473661623028" lon="11.631320205923748"><ele>490.0</ele><time>2026-05-03T07:41:50Z</time></trkpt><trkpt lat="44.16473305297567" lon="11.631445606944963"><ele>493.3333333333333</ele><time>2026-05-03T07:41:52Z</time></trkpt><trkpt lat="44.16483430261306" lon="11.631470599843022"><ele>496.66666666666663</ele><time>2026-05-03T07:41:54Z</time></trkpt><trkpt lat="44.164900077717476" lon="11.63152937754772"><ele>500.0</ele><time>2026-05-03T07:41:56Z</time></trkpt><trkpt lat="44.164944713745996" lon="11.631622449161938"><ele>505.4</ele><time>2026-05-03T07:41:58Z</time></trkpt><trkpt lat="44.16498527831853" lon="11.631759628212222"><ele>510.8</ele><time>2026-05-03T07:42:02Z</time></trkpt><trkpt lat="44.1649710385407" lon="11.631918971668822"><ele>516.2</ele><time>2026-05-03T07:42:05Z</time></trkpt><trkpt lat="44.16496477543244" lon="11.632028396327357"><ele>521.6</ele><time>2026-05-03T07:42:08Z</time></trkpt><trkpt lat="44.16497589482265" lon="11.632149699652766"><ele>527.0</ele><time>2026-05-03T07:42:10Z</time></trkpt><trkpt lat="44.16496523799731" lon="11.632242396401786"><ele>532.6666666666666</ele><time>2026-05-03T07:42:13Z</time></trkpt><trkpt lat="44.16496902029042" lon="11.632339256243645"><ele>538.3333333333334</ele><time>2026-05-03T07:42:14Z</time></trkpt><trkpt lat="44.165071788903255" lon="11.632765644899596"><ele>544.0</ele><time>2026-05-03T07:42:15.999Z</time></trkpt><trkpt lat="44.16510881840507" lon="11.632882521470398"><ele>546.1666666666667</ele><time>2026-05-03T07:42:17.999Z</time></trkpt><trkpt lat="44.16516209821212" lon="11.633007693717328"><ele>548.3333333333334</ele><time>2026-05-03T07:42:19.999Z</time></trkpt><trkpt lat="44.16519323188007" lon="11.633085860926544"><ele>550.5</ele><time>2026-05-03T07:42:20.999Z</time></trkpt><trkpt lat="44.165236476193265" lon="11.633186746633026"><ele>552.6666666666666</ele><time>2026-05-03T07:42:22.999Z</time></trkpt><trkpt lat="44.16528672878392" lon="11.633278460997513"><ele>554.8333333333333</ele><time>2026-05-03T07:42:25.999Z</time></trkpt><trkpt lat="44.16532482161937" lon="11.633348619987029"><ele>557.0</ele><time>2026-05-03T07:42:26.999Z</time></trkpt><trkpt lat="44.165368415800124" lon="11.633463350685709"><ele>557.0</ele><time>2026-05-03T07:42:28.999Z</time></trkpt><trkpt lat="44.16532702409361" lon="11.63355459498143"><ele>557.0</ele><time>2026-05-03T07:43:26.998Z</time></trkpt><trkpt lat="44.165305791922215" lon="11.63364539455866"><ele>557.0</ele><time>2026-05-03T07:43:27.998Z</time></trkpt><trkpt lat="44.165247983323354" lon="11.633783265199806"><ele>557.0</ele><time>2026-05-03T07:43:29.998Z</time></trkpt><trkpt lat="44.16522660015818" lon="11.633876512563875"><ele>557.0</ele><time>2026-05-03T07:43:30.998Z</time></trkpt><trkpt lat="44.165195396413075" lon="11.633976350923895"><ele>557.0</ele><time>2026-05-03T07:43:31.998Z</time></trkpt><trkpt lat="44.16518305859471" lon="11.634079375796595"><ele>558.0</ele><time>2026-05-03T07:43:32.998Z</time></trkpt><trkpt lat="44.16517354361835" lon="11.634244370948695"><ele>559.0</ele><time>2026-05-03T07:43:35Z</time></trkpt><trkpt lat="44.16515761684229" lon="11.634334704564342"><ele>560.0</ele><time>2026-05-03T07:43:36Z</time></trkpt><trkpt lat="44.1650965204114" lon="11.634471485587307"><ele>561.0</ele><time>2026-05-03T07:43:38Z</time></trkpt><trkpt lat="44.1650603316786" lon="11.634568599177092"><ele>562.0</ele><time>2026-05-03T07:43:39Z</time></trkpt><trkpt lat="44.165038547716335" lon="11.634666573923171"><ele>562.1666666666667</ele><time>2026-05-03T07:43:40Z</time></trkpt><trkpt lat="44.164993551704015" lon="11.634768806704491"><ele>562.3333333333334</ele><time>2026-05-03T07:43:41Z</time></trkpt><trkpt lat="44.16495259997741" lon="11.634849235736935"><ele>562.5</ele><time>2026-05-03T07:43:42Z</time></trkpt><trkpt lat="44.16490585964909" lon="11.634921622489998"><ele>562.6666666666666</ele><time>2026-05-03T07:43:43Z</time></trkpt><trkpt lat="44.164873200649616" lon="11.635005574008831"><ele>562.8333333333333</ele><time>2026-05-03T07:43:44Z</time></trkpt><trkpt lat="44.16482716001365" lon="11.63508170423345"><ele>563.0</ele><time>2026-05-03T07:43:45Z</time></trkpt><trkpt lat="44.164762530525444" lon="11.635241134873679"><ele>565.4285714285714</ele><time>2026-05-03T07:43:47Z</time></trkpt><trkpt lat="44.16472642297721" lon="11.635328196362368"><ele>567.8571428571429</ele><time>2026-05-03T07:43:48Z</time></trkpt><trkpt lat="44.164691696510765" lon="11.635413917915896"><ele>570.2857142857143</ele><time>2026-05-03T07:43:49Z</time></trkpt><trkpt lat="44.16464855448316" lon="11.635512833566361"><ele>572.7142857142858</ele><time>2026-05-03T07:43:50Z</time></trkpt><trkpt lat="44.16461432941557" lon="11.635595378243657"><ele>575.1428571428572</ele><time>2026-05-03T07:43:51Z</time></trkpt><trkpt lat="44.16456550504868" lon="11.635675717277158"><ele>577.5714285714286</ele><time>2026-05-03T07:43:52Z</time></trkpt><trkpt lat="44.1645357284015" lon="11.635760951923606"><ele>580.0</ele><time>2026-05-03T07:43:53Z</time></trkpt><trkpt lat="44.16449092706341" lon="11.635856860965491"><ele>580.0</ele><time>2026-05-03T07:43:54Z</time></trkpt><trkpt lat="44.16443330743632" lon="11.63591920383695"><ele>580.0</ele><time>2026-05-03T07:43:55Z</time></trkpt><trkpt lat="44.164371838329124" lon="11.635944828197255"><ele>580.0</ele><time>2026-05-03T07:43:56Z</time></trkpt><trkpt lat="44.16430498920443" lon="11.635936995312152"><ele>580.0</ele><time>2026-05-03T07:43:57Z</time></trkpt><trkpt lat="44.1642377693293" lon="11.635927095158792"><ele>580.0</ele><time>2026-05-03T07:43:58Z</time></trkpt><trkpt lat="44.164148760206785" lon="11.636058898680298"><ele>580.0</ele><time>2026-05-03T07:44:00Z</time></trkpt><trkpt lat="44.164090435073696" lon="11.636141492884816"><ele>582.2</ele><time>2026-05-03T07:44:01Z</time></trkpt><trkpt lat="44.16400682449935" lon="11.636199972874136"><ele>584.4</ele><time>2026-05-03T07:44:02Z</time></trkpt><trkpt lat="44.16392150344979" lon="11.636236239041493"><ele>586.6</ele><time>2026-05-03T07:44:03Z</time></trkpt><trkpt lat="44.163834211297925" lon="11.636294651618826"><ele>588.8</ele><time>2026-05-03T07:44:04Z</time></trkpt><trkpt lat="44.163749444255494" lon="11.636369317765977"><ele>591.0</ele><time>2026-05-03T07:44:05Z</time></trkpt><trkpt lat="44.163665121102916" lon="11.63642999954289"><ele>591.0</ele><time>2026-05-03T07:44:06Z</time></trkpt><trkpt lat="44.16358310521086" lon="11.636481877810953"><ele>591.0</ele><time>2026-05-03T07:44:07Z</time></trkpt><trkpt lat="44.16351132725272" lon="11.636551027680625"><ele>591.0</ele><time>2026-05-03T07:44:08Z</time></trkpt><trkpt lat="44.16341960107593" lon="11.636612653635398"><ele>591.0</ele><time>2026-05-03T07:44:09Z</time></trkpt><trkpt lat="44.16332626448522" lon="11.63665923257819"><ele>591.0</ele><time>2026-05-03T07:44:10Z</time></trkpt><trkpt lat="44.16324376766411" lon="11.636680489578037"><ele>589.0</ele><time>2026-05-03T07:44:11Z</time></trkpt><trkpt lat="44.16315668858967" lon="11.636716436257705"><ele>587.0</ele><time>2026-05-03T07:44:13Z</time></trkpt><trkpt lat="44.16311400838438" lon="11.636801342441062"><ele>585.0</ele><time>2026-05-03T07:44:14Z</time></trkpt><trkpt lat="44.16306841912383" lon="11.63689564336915"><ele>583.0</ele><time>2026-05-03T07:44:15Z</time></trkpt><trkpt lat="44.16301801613849" lon="11.636970981361966"><ele>581.0</ele><time>2026-05-03T07:44:16Z</time></trkpt><trkpt lat="44.1629442161316" lon="11.63707161048852"><ele>579.0</ele><time>2026-05-03T07:44:18Z</time></trkpt><trkpt lat="44.16288548676878" lon="11.637240211224084"><ele>582.9999999999999</ele><time>2026-05-03T07:44:20Z</time></trkpt><trkpt lat="44.16287250512449" lon="11.637363548969827"><ele>587.0</ele><time>2026-05-03T07:44:21Z</time></trkpt><trkpt lat="44.162827769637076" lon="11.637432098654442"><ele>591.0</ele><time>2026-05-03T07:44:21.999Z</time></trkpt><trkpt lat="44.162756030339104" lon="11.637462413361515"><ele>595.0</ele><time>2026-05-03T07:44:22.999Z</time></trkpt><trkpt lat="44.16269221819231" lon="11.63745992821137"><ele>599.0</ele><time>2026-05-03T07:44:23.999Z</time></trkpt><trkpt lat="44.16261993316352" lon="11.637433301871502"><ele>602.9999999999999</ele><time>2026-05-03T07:44:24.999Z</time></trkpt><trkpt lat="44.162543712255136" lon="11.637453654004862"><ele>607.0</ele><time>2026-05-03T07:44:25.999Z</time></trkpt><trkpt lat="44.16247263177833" lon="11.637554740771185"><ele>607.0</ele><time>2026-05-03T07:44:27.999Z</time></trkpt><trkpt lat="44.16247801221323" lon="11.637714012837277"><ele>607.0</ele><time>2026-05-03T07:44:29.999Z</time></trkpt><trkpt lat="44.16248599829683" lon="11.63781766334277"><ele>607.0</ele><time>2026-05-03T07:44:30.999Z</time></trkpt><trkpt lat="44.16246903393811" lon="11.637905938799491"><ele>607.0</ele><time>2026-05-03T07:44:31.999Z</time></trkpt><trkpt lat="44.16242056370793" lon="11.637988642676383"><ele>607.0</ele><time>2026-05-03T07:44:33.999Z</time></trkpt><trkpt lat="44.16231097373705" lon="11.638057283931776"><ele>608.8333333333334</ele><time>2026-05-03T07:44:35.999Z</time></trkpt><trkpt lat="44.16223277396719" lon="11.638055747713855"><ele>610.6666666666667</ele><time>2026-05-03T07:44:36.999Z</time></trkpt><trkpt lat="44.162158095145664" lon="11.638089199745146"><ele>612.5</ele><time>2026-05-03T07:44:37.999Z</time></trkpt><trkpt lat="44.16208033614608" lon="11.638150653487113"><ele>614.3333333333334</ele><time>2026-05-03T07:44:38.999Z</time></trkpt><trkpt lat="44.16201270244982" lon="11.638241470557297"><ele>616.1666666666666</ele><time>2026-05-03T07:44:39.999Z</time></trkpt><trkpt lat="44.16198386891477" lon="11.638349497118364"><ele>618.0</ele><time>2026-05-03T07:44:40.999Z</time></trkpt><trkpt lat="44.16197057263026" lon="11.638467801731997"><ele>618.0</ele><time>2026-05-03T07:44:41.999Z</time></trkpt><trkpt lat="44.16196118390719" lon="11.63860265383214"><ele>618.0</ele><time>2026-05-03T07:44:42.999Z</time></trkpt><trkpt lat="44.16194225058428" lon="11.638736075815848"><ele>618.0</ele><time>2026-05-03T07:44:43.999Z</time></trkpt><trkpt lat="44.161914541115685" lon="11.638853507157009"><ele>618.0</ele><time>2026-05-03T07:44:44.999Z</time></trkpt><trkpt lat="44.16188633178025" lon="11.638962733749976"><ele>618.0</ele><time>2026-05-03T07:44:45.999Z</time></trkpt><trkpt lat="44.16186873967711" lon="11.63907801402755"><ele>621.5</ele><time>2026-05-03T07:44:46.999Z</time></trkpt><trkpt lat="44.16183664011624" lon="11.639172746423357"><ele>625.0</ele><time>2026-05-03T07:44:47.999Z</time></trkpt><trkpt lat="44.161803175324614" lon="11.639271378276549"><ele>628.5</ele><time>2026-05-03T07:44:48.999Z</time></trkpt><trkpt lat="44.16173830214023" lon="11.63937245981613"><ele>632.0</ele><time>2026-05-03T07:44:49.999Z</time></trkpt><trkpt lat="44.16167741523548" lon="11.639469793355358"><ele>635.5</ele><time>2026-05-03T07:44:50.999Z</time></trkpt><trkpt lat="44.16162093873326" lon="11.639582353525585"><ele>639.0</ele><time>2026-05-03T07:44:51.999Z</time></trkpt><trkpt lat="44.1615671480613" lon="11.639662146203904"><ele>640.3333333333334</ele><time>2026-05-03T07:44:52.999Z</time></trkpt><trkpt lat="44.161509897248656" lon="11.639747706135553"><ele>641.6666666666666</ele><time>2026-05-03T07:44:53.999Z</time></trkpt><trkpt lat="44.1614425722937" lon="11.639845630386137"><ele>643.0</ele><time>2026-05-03T07:44:54.999Z</time></trkpt><trkpt lat="44.16138758502474" lon="11.639946322497797"><ele>644.3333333333333</ele><time>2026-05-03T07:44:55.999Z</time></trkpt><trkpt lat="44.16136729972953" lon="11.640043159432624"><ele>645.6666666666666</ele><time>2026-05-03T07:44:56.999Z</time></trkpt><trkpt lat="44.16136477276947" lon="11.640159679423034"><ele>647.0</ele><time>2026-05-03T07:44:57.999Z</time></trkpt><trkpt lat="44.16135948030749" lon="11.640269874022522"><ele>652.6</ele><time>2026-05-03T07:44:58.999Z</time></trkpt><trkpt lat="44.16136475882874" lon="11.6404237852886"><ele>658.2</ele><time>2026-05-03T07:44:59.999Z</time></trkpt><trkpt lat="44.161353746624165" lon="11.640575763650391"><ele>663.8</ele><time>2026-05-03T07:45:00.999Z</time></trkpt><trkpt lat="44.16132759233977" lon="11.640721718962673"><ele>669.4</ele><time>2026-05-03T07:45:01.999Z</time></trkpt><trkpt lat="44.16128618189374" lon="11.640879623645034"><ele>675.0</ele><time>2026-05-03T07:45:02.999Z</time></trkpt><trkpt lat="44.16123512317792" lon="11.64104719090405"><ele>678.6</ele><time>2026-05-03T07:45:03.999Z</time></trkpt><trkpt lat="44.1611882858141" lon="11.641190289231547"><ele>682.2</ele><time>2026-05-03T07:45:04.999Z</time></trkpt><trkpt lat="44.1611442138014" lon="11.641327515493138"><ele>685.8</ele><time>2026-05-03T07:45:05.999Z</time></trkpt><trkpt lat="44.161095491693935" lon="11.64145408366936"><ele>689.4</ele><time>2026-05-03T07:45:06.999Z</time></trkpt><trkpt lat="44.16104767854797" lon="11.641584998098555"><ele>693.0</ele><time>2026-05-03T07:45:07.999Z</time></trkpt><trkpt lat="44.1610359232716" lon="11.641727711344917"><ele>693.0</ele><time>2026-05-03T07:45:08.999Z</time></trkpt><trkpt lat="44.16101337492591" lon="11.64186308297743"><ele>693.0</ele><time>2026-05-03T07:45:09.999Z</time></trkpt><trkpt lat="44.161014344599366" lon="11.641990613931576"><ele>693.0</ele><time>2026-05-03T07:45:10.999Z</time></trkpt><trkpt lat="44.160984872963446" lon="11.642117988678377"><ele>693.0</ele><time>2026-05-03T07:45:11.999Z</time></trkpt><trkpt lat="44.16098506187483" lon="11.642234561303423"><ele>693.0</ele><time>2026-05-03T07:45:12.999Z</time></trkpt><trkpt lat="44.16096836468255" lon="11.642323717123201"><ele>693.0</ele><time>2026-05-03T07:45:13.999Z</time></trkpt><trkpt lat="44.16096621535189" lon="11.642521774010955"><ele>693.8</ele><time>2026-05-03T07:45:15.999Z</time></trkpt><trkpt lat="44.16098691599755" lon="11.64266378487521"><ele>694.5999999999999</ele><time>2026-05-03T07:45:16.999Z</time></trkpt><trkpt lat="44.160985946277094" lon="11.642815820710396"><ele>695.4000000000001</ele><time>2026-05-03T07:45:17.999Z</time></trkpt><trkpt lat="44.16096880875426" lon="11.642964313976655"><ele>696.2</ele><time>2026-05-03T07:45:18.999Z</time></trkpt><trkpt lat="44.16095087235627" lon="11.643112865819445"><ele>697.0</ele><time>2026-05-03T07:45:19.999Z</time></trkpt><trkpt lat="44.1609434483994" lon="11.643224218918792"><ele>697.3333333333334</ele><time>2026-05-03T07:45:20.999Z</time></trkpt><trkpt lat="44.160918336584494" lon="11.643321961338195"><ele>697.6666666666667</ele><time>2026-05-03T07:45:21.999Z</time></trkpt><trkpt lat="44.160877784252406" lon="11.643422858624534"><ele>698.0</ele><time>2026-05-03T07:45:22.999Z</time></trkpt><trkpt lat="44.16082664520953" lon="11.643515360005361"><ele>698.3333333333334</ele><time>2026-05-03T07:45:23.999Z</time></trkpt><trkpt lat="44.160787391936225" lon="11.64360335190256"><ele>698.6666666666666</ele><time>2026-05-03T07:45:24.999Z</time></trkpt><trkpt lat="44.160734708819284" lon="11.64367739132514"><ele>699.0</ele><time>2026-05-03T07:45:26.999Z</time></trkpt><trkpt lat="44.160659660780624" lon="11.643696898669837"><ele>697.0</ele><time>2026-05-03T07:45:28.999Z</time></trkpt><trkpt lat="44.16058209806475" lon="11.643627174487081"><ele>695.0</ele><time>2026-05-03T07:45:30.999Z</time></trkpt><trkpt lat="44.160504580555234" lon="11.643522468024402"><ele>693.0</ele><time>2026-05-03T07:45:32.998Z</time></trkpt><trkpt lat="44.16040840300498" lon="11.643430509044398"><ele>691.0</ele><time>2026-05-03T07:45:34.998Z</time></trkpt><trkpt lat="44.160349513650395" lon="11.643374803135211"><ele>689.0</ele><time>2026-05-03T07:45:35.998Z</time></trkpt><trkpt lat="44.16030063580171" lon="11.643305960514674"><ele>689.0</ele><time>2026-05-03T07:45:36.998Z</time></trkpt><trkpt lat="44.160234693281254" lon="11.64313670948433"><ele>689.0</ele><time>2026-05-03T07:45:38.998Z</time></trkpt><trkpt lat="44.160178927721404" lon="11.643055883646449"><ele>689.0</ele><time>2026-05-03T07:45:40Z</time></trkpt><trkpt lat="44.16010573041002" lon="11.642979720096"><ele>689.0</ele><time>2026-05-03T07:45:41Z</time></trkpt><trkpt lat="44.160013219929304" lon="11.642915028492343"><ele>689.0</ele><time>2026-05-03T07:45:42Z</time></trkpt><trkpt lat="44.15991504818753" lon="11.64281548678343"><ele>688.25</ele><time>2026-05-03T07:45:43Z</time></trkpt><trkpt lat="44.159813798873444" lon="11.642704762371205"><ele>687.5</ele><time>2026-05-03T07:45:44Z</time></trkpt><trkpt lat="44.1597220462196" lon="11.642562996700887"><ele>686.75</ele><time>2026-05-03T07:45:45Z</time></trkpt><trkpt lat="44.15962873959095" lon="11.64240700220636"><ele>686.0</ele><time>2026-05-03T07:45:46Z</time></trkpt><trkpt lat="44.15954850449961" lon="11.64226158847735"><ele>686.0</ele><time>2026-05-03T07:45:47Z</time></trkpt><trkpt lat="44.15947440216045" lon="11.64212839851451"><ele>686.0</ele><time>2026-05-03T07:45:48Z</time></trkpt><trkpt lat="44.1593946905143" lon="11.642029699143466"><ele>686.0</ele><time>2026-05-03T07:45:49Z</time></trkpt><trkpt lat="44.15928660680939" lon="11.641971192325157"><ele>686.0</ele><time>2026-05-03T07:45:50Z</time></trkpt><trkpt lat="44.159169511603544" lon="11.641954248270016"><ele>686.0</ele><time>2026-05-03T07:45:51Z</time></trkpt><trkpt lat="44.15906266593735" lon="11.6419676790948"><ele>686.0</ele><time>2026-05-03T07:45:52Z</time></trkpt><trkpt lat="44.15895930455905" lon="11.641983095644921"><ele>686.0</ele><time>2026-05-03T07:45:53Z</time></trkpt><trkpt lat="44.158865864350275" lon="11.641846122571067"><ele>686.0</ele><time>2026-05-03T07:45:54Z</time></trkpt><trkpt lat="44.158797166072986" lon="11.641836697209477"><ele>686.0</ele><time>2026-05-03T07:45:55Z</time></trkpt><trkpt lat="44.1586935805044" lon="11.64175013995982"><ele>688.8</ele><time>2026-05-03T07:45:57Z</time></trkpt><trkpt lat="44.15863250881264" lon="11.641674201824669"><ele>691.5999999999999</ele><time>2026-05-03T07:45:58Z</time></trkpt><trkpt lat="44.1585844403584" lon="11.64158910330652"><ele>694.4</ele><time>2026-05-03T07:45:59Z</time></trkpt><trkpt lat="44.158523098392564" lon="11.64148640863388"><ele>697.2</ele><time>2026-05-03T07:46:00Z</time></trkpt><trkpt lat="44.15845731339854" lon="11.641376216876724"><ele>700.0</ele><time>2026-05-03T07:46:01Z</time></trkpt><trkpt lat="44.15837466868501" lon="11.641262324783902"><ele>700.0</ele><time>2026-05-03T07:46:02Z</time></trkpt><trkpt lat="44.158267567687766" lon="11.641174298230961"><ele>700.0</ele><time>2026-05-03T07:46:03Z</time></trkpt><trkpt lat="44.15814779285908" lon="11.641120131415343"><ele>700.0</ele><time>2026-05-03T07:46:04Z</time></trkpt><trkpt lat="44.158025547546906" lon="11.641133940037669"><ele>700.0</ele><time>2026-05-03T07:46:05Z</time></trkpt><trkpt lat="44.15794900857046" lon="11.641119663319023"><ele>699.8333333333334</ele><time>2026-05-03T07:46:06Z</time></trkpt><trkpt lat="44.15787804574189" lon="11.641096581444675"><ele>699.6666666666667</ele><time>2026-05-03T07:46:08Z</time></trkpt><trkpt lat="44.157793813238925" lon="11.641065319675088"><ele>699.5</ele><time>2026-05-03T07:46:12Z</time></trkpt><trkpt lat="44.15783064837982" lon="11.641246577053057"><ele>699.3333333333334</ele><time>2026-05-03T07:46:16Z</time></trkpt><trkpt lat="44.15789429165429" lon="11.641211699814859"><ele>699.1666666666666</ele><time>2026-05-03T07:46:18Z</time></trkpt><trkpt lat="44.157876632114274" lon="11.641126482073526"><ele>699.0</ele><time>2026-05-03T07:46:20Z</time></trkpt><trkpt lat="44.15782435286902" lon="11.641015710197026"><ele>701.0</ele><time>2026-05-03T07:46:22Z</time></trkpt><trkpt lat="44.15775004951598" lon="11.640968202957357"><ele>703.0</ele><time>2026-05-03T07:46:24Z</time></trkpt><trkpt lat="44.15768557688875" lon="11.640957420413931"><ele>705.0</ele><time>2026-05-03T07:46:26Z</time></trkpt><trkpt lat="44.15757332304812" lon="11.640947774819209"><ele>707.0</ele><time>2026-05-03T07:46:28Z</time></trkpt><trkpt lat="44.157476535965436" lon="11.640876643649767"><ele>709.0</ele><time>2026-05-03T07:46:29.999Z</time></trkpt><trkpt lat="44.157431287818184" lon="11.640790957477707"><ele>711.0</ele><time>2026-05-03T07:46:30.999Z</time></trkpt><trkpt lat="44.157361970436234" lon="11.640727157724028"><ele>713.3333333333334</ele><time>2026-05-03T07:46:31.999Z</time></trkpt><trkpt lat="44.15729356090689" lon="11.640664254387316"><ele>715.6666666666666</ele><time>2026-05-03T07:46:32.999Z</time></trkpt><trkpt lat="44.1572308817991" lon="11.640589877365143"><ele>718.0</ele><time>2026-05-03T07:46:33.999Z</time></trkpt><trkpt lat="44.15717357559325" lon="11.640488356724907"><ele>720.3333333333333</ele><time>2026-05-03T07:46:34.999Z</time></trkpt><trkpt lat="44.157111928763136" lon="11.640403223523673"><ele>722.6666666666666</ele><time>2026-05-03T07:46:35.999Z</time></trkpt><trkpt lat="44.15705291575681" lon="11.640337871312845"><ele>725.0</ele><time>2026-05-03T07:46:36.999Z</time></trkpt><trkpt lat="44.156974747944496" lon="11.640226895633553"><ele>725.0</ele><time>2026-05-03T07:46:38.999Z</time></trkpt><trkpt lat="44.156915333293206" lon="11.640104456565789"><ele>725.0</ele><time>2026-05-03T07:46:40.999Z</time></trkpt><trkpt lat="44.15687756344097" lon="11.63998182279317"><ele>725.0</ele><time>2026-05-03T07:46:42.999Z</time></trkpt><trkpt lat="44.15685194061702" lon="11.639840709793654"><ele>725.0</ele><time>2026-05-03T07:46:44.999Z</time></trkpt><trkpt lat="44.1568323760618" lon="11.639717038197968"><ele>725.0</ele><time>2026-05-03T07:46:46.999Z</time></trkpt><trkpt lat="44.156787351542896" lon="11.639588896546137"><ele>725.0</ele><time>2026-05-03T07:46:48.999Z</time></trkpt><trkpt lat="44.15674963809233" lon="11.639476950686777"><ele>725.0</ele><time>2026-05-03T07:46:50.999Z</time></trkpt><trkpt lat="44.156700247191175" lon="11.639374279062059"><ele>725.0</ele><time>2026-05-03T07:46:52.999Z</time></trkpt><trkpt lat="44.156650404423345" lon="11.639250786200542"><ele>725.0</ele><time>2026-05-03T07:46:54.999Z</time></trkpt><trkpt lat="44.1565868018538" lon="11.639227623546304"><ele>725.0</ele><time>2026-05-03T07:46:56.999Z</time></trkpt><trkpt lat="44.156519597425124" lon="11.639221493569028"><ele>725.0</ele><time>2026-05-03T07:46:58.999Z</time></trkpt><trkpt lat="44.156452185757715" lon="11.639169882479017"><ele>725.1666666666666</ele><time>2026-05-03T07:47:00.999Z</time></trkpt><trkpt lat="44.15637284215185" lon="11.63917399223701"><ele>725.3333333333333</ele><time>2026-05-03T07:47:04.999Z</time></trkpt><trkpt lat="44.156281731974" lon="11.639214341644728"><ele>725.5</ele><time>2026-05-03T07:47:06.999Z</time></trkpt><trkpt lat="44.15620641796829" lon="11.63918668049656"><ele>725.6666666666666</ele><time>2026-05-03T07:47:08.999Z</time></trkpt><trkpt lat="44.156158969359645" lon="11.63908046242316"><ele>725.8333333333334</ele><time>2026-05-03T07:47:10.999Z</time></trkpt><trkpt lat="44.15616253539503" lon="11.638960269151198"><ele>726.0</ele><time>2026-05-03T07:47:12.999Z</time></trkpt><trkpt lat="44.15616107720995" lon="11.638818958209658"><ele>726.0</ele><time>2026-05-03T07:47:14.999Z</time></trkpt><trkpt lat="44.15610159386853" lon="11.638708430313343"><ele>726.0</ele><time>2026-05-03T07:47:16.999Z</time></trkpt><trkpt lat="44.15606646786009" lon="11.638601028623706"><ele>726.0</ele><time>2026-05-03T07:47:18.999Z</time></trkpt><trkpt lat="44.15596353699177" lon="11.638474898162759"><ele>726.0</ele><time>2026-05-03T07:47:20.999Z</time></trkpt><trkpt lat="44.155916721830216" lon="11.638364002394587"><ele>726.0</ele><time>2026-05-03T07:47:22.999Z</time></trkpt><trkpt lat="44.15587644447342" lon="11.638226055747367"><ele>725.1666666666666</ele><time>2026-05-03T07:47:24.999Z</time></trkpt><trkpt lat="44.15583729161272" lon="11.638130506294658"><ele>724.3333333333334</ele><time>2026-05-03T07:47:26.999Z</time></trkpt><trkpt lat="44.15579550528118" lon="11.638061921819796"><ele>723.5</ele><time>2026-05-03T07:47:27.999Z</time></trkpt><trkpt lat="44.15573467495377" lon="11.637947475294178"><ele>722.6666666666667</ele><time>2026-05-03T07:47:30.999Z</time></trkpt><trkpt lat="44.15569811336697" lon="11.637848768414617"><ele>721.8333333333334</ele><time>2026-05-03T07:47:32.999Z</time></trkpt><trkpt lat="44.155763095052244" lon="11.63772039658797"><ele>721.0</ele><time>2026-05-03T07:47:38.998Z</time></trkpt><trkpt lat="44.155825149073095" lon="11.637624156393152"><ele>720.2857142857143</ele><time>2026-05-03T07:47:40.998Z</time></trkpt><trkpt lat="44.15587802363991" lon="11.637551964369846"><ele>719.5714285714286</ele><time>2026-05-03T07:47:42.998Z</time></trkpt><trkpt lat="44.15591991817709" lon="11.637447552762959"><ele>718.8571428571429</ele><time>2026-05-03T07:47:44.998Z</time></trkpt><trkpt lat="44.15595196806225" lon="11.637346179333893"><ele>718.1428571428571</ele><time>2026-05-03T07:47:47Z</time></trkpt><trkpt lat="44.15594931217134" lon="11.63725380468381"><ele>717.4285714285714</ele><time>2026-05-03T07:47:49Z</time></trkpt><trkpt lat="44.15596493179538" lon="11.637165326342043"><ele>716.7142857142858</ele><time>2026-05-03T07:47:51Z</time></trkpt><trkpt lat="44.15596375731232" lon="11.637077123905465"><ele>716.0</ele><time>2026-05-03T07:47:57Z</time></trkpt><trkpt lat="44.15598465945019" lon="11.636993772473886"><ele>716.8333333333333</ele><time>2026-05-03T07:48:00Z</time></trkpt><trkpt lat="44.15601600635901" lon="11.636878254859022"><ele>717.6666666666666</ele><time>2026-05-03T07:48:03Z</time></trkpt><trkpt lat="44.156031186987505" lon="11.63674423599258"><ele>718.5</ele><time>2026-05-03T07:48:06Z</time></trkpt><trkpt lat="44.15603447399671" lon="11.63662162354406"><ele>719.3333333333334</ele><time>2026-05-03T07:48:09Z</time></trkpt><trkpt lat="44.156035360041386" lon="11.636525709567605"><ele>720.1666666666667</ele><time>2026-05-03T07:48:12Z</time></trkpt><trkpt lat="44.15603649623578" lon="11.636402716604374"><ele>721.0</ele><time>2026-05-03T07:48:15Z</time></trkpt><trkpt lat="44.156028395599975" lon="11.635848556714127"><ele>721.0</ele><time>2026-05-03T07:48:16Z</time></trkpt><trkpt lat="44.15601357247277" lon="11.635746358030405"><ele>721.0</ele><time>2026-05-03T07:48:17Z</time></trkpt><trkpt lat="44.15598095310718" lon="11.635616934246544"><ele>721.0</ele><time>2026-05-03T07:48:19Z</time></trkpt><trkpt lat="44.15597703947003" lon="11.635501541740954"><ele>721.0</ele><time>2026-05-03T07:48:21Z</time></trkpt><trkpt lat="44.156006465581655" lon="11.635355391548499"><ele>721.0</ele><time>2026-05-03T07:48:23Z</time></trkpt><trkpt lat="44.15604863781725" lon="11.635200240884618"><ele>719.5</ele><time>2026-05-03T07:48:25Z</time></trkpt><trkpt lat="44.15608768747323" lon="11.635059634755173"><ele>718.0</ele><time>2026-05-03T07:48:27Z</time></trkpt><trkpt lat="44.15611564520724" lon="11.634977380608921"><ele>716.5</ele><time>2026-05-03T07:48:28Z</time></trkpt><trkpt lat="44.156099105442856" lon="11.63487841159355"><ele>715.0</ele><time>2026-05-03T07:48:29Z</time></trkpt><trkpt lat="44.15615750828765" lon="11.634717787615518"><ele>713.5</ele><time>2026-05-03T07:48:31Z</time></trkpt><trkpt lat="44.15621035465037" lon="11.6346691271167"><ele>712.0</ele><time>2026-05-03T07:48:32Z</time></trkpt><trkpt lat="44.15622727490015" lon="11.634575704994136"><ele>712.0</ele><time>2026-05-03T07:48:34Z</time></trkpt><trkpt lat="44.15623689372674" lon="11.634477801067806"><ele>712.0</ele><time>2026-05-03T07:48:34.999Z</time></trkpt><trkpt lat="44.15618979390599" lon="11.634345107360739"><ele>712.0</ele><time>2026-05-03T07:48:37.999Z</time></trkpt><trkpt lat="44.15615193448131" lon="11.634203840123481"><ele>712.0</ele><time>2026-05-03T07:48:39.999Z</time></trkpt><trkpt lat="44.156124417248805" lon="11.634093697156821"><ele>712.0</ele><time>2026-05-03T07:48:41.999Z</time></trkpt><trkpt lat="44.156153993644104" lon="11.63401287145776"><ele>712.0</ele><time>2026-05-03T07:48:42.999Z</time></trkpt><trkpt lat="44.156187785859466" lon="11.63389202803832"><ele>709.8333333333334</ele><time>2026-05-03T07:48:44.999Z</time></trkpt><trkpt lat="44.15615402436258" lon="11.633803520670178"><ele>707.6666666666667</ele><time>2026-05-03T07:48:47.999Z</time></trkpt><trkpt lat="44.15618303018702" lon="11.633660323696578"><ele>705.5</ele><time>2026-05-03T07:48:50.999Z</time></trkpt><trkpt lat="44.15614551766058" lon="11.633556076577873"><ele>703.3333333333334</ele><time>2026-05-03T07:48:53.999Z</time></trkpt><trkpt lat="44.156099449162355" lon="11.63347103469436"><ele>701.1666666666666</ele><time>2026-05-03T07:48:56.999Z</time></trkpt><trkpt lat="44.15603511677657" lon="11.633378103100062"><ele>699.0</ele><time>2026-05-03T07:48:59.999Z</time></trkpt><trkpt lat="44.15600145811576" lon="11.633268348126695"><ele>696.8571428571428</ele><time>2026-05-03T07:49:02.999Z</time></trkpt><trkpt lat="44.15599577400737" lon="11.63315802389134"><ele>694.7142857142858</ele><time>2026-05-03T07:49:04.999Z</time></trkpt><trkpt lat="44.15595362071355" lon="11.63306395876648"><ele>692.5714285714286</ele><time>2026-05-03T07:49:08.999Z</time></trkpt><trkpt lat="44.15595641333911" lon="11.632958594080103"><ele>690.4285714285713</ele><time>2026-05-03T07:49:10.999Z</time></trkpt><trkpt lat="44.155974197173244" lon="11.63286951767774"><ele>688.2857142857142</ele><time>2026-05-03T07:49:12.999Z</time></trkpt><trkpt lat="44.15596295147696" lon="11.632779340776759"><ele>686.1428571428571</ele><time>2026-05-03T07:49:15.999Z</time></trkpt><trkpt lat="44.15596809028065" lon="11.63266577284246"><ele>684.0</ele><time>2026-05-03T07:49:18.999Z</time></trkpt><trkpt lat="44.15592830972399" lon="11.632587368553397"><ele>683.5</ele><time>2026-05-03T07:49:21.999Z</time></trkpt><trkpt lat="44.15590013802479" lon="11.63250477116375"><ele>683.0</ele><time>2026-05-03T07:49:24.999Z</time></trkpt><trkpt lat="44.15588161820073" lon="11.632387844258258"><ele>682.5</ele><time>2026-05-03T07:49:27.999Z</time></trkpt><trkpt lat="44.15583724894035" lon="11.63228731835996"><ele>682.0</ele><time>2026-05-03T07:49:30.999Z</time></trkpt><trkpt lat="44.15579193281606" lon="11.632212518694327"><ele>681.5</ele><time>2026-05-03T07:49:33.999Z</time></trkpt><trkpt lat="44.15574535389514" lon="11.632102139085807"><ele>681.0</ele><time>2026-05-03T07:49:35.999Z</time></trkpt><trkpt lat="44.155698450799505" lon="11.632032213930012"><ele>681.3333333333334</ele><time>2026-05-03T07:49:38.999Z</time></trkpt><trkpt lat="44.15566481471165" lon="11.631919669887866"><ele>681.6666666666666</ele><time>2026-05-03T07:49:41.998Z</time></trkpt><trkpt lat="44.15564805294904" lon="11.631801548655208"><ele>682.0</ele><time>2026-05-03T07:49:44.998Z</time></trkpt><trkpt lat="44.15565319934323" lon="11.631675490005504"><ele>682.3333333333333</ele><time>2026-05-03T07:49:47.998Z</time></trkpt><trkpt lat="44.15571102210441" lon="11.63162304831605"><ele>682.6666666666666</ele><time>2026-05-03T07:49:49.998Z</time></trkpt><trkpt lat="44.15579601800686" lon="11.63152084336992"><ele>683.0</ele><time>2026-05-03T07:49:52Z</time></trkpt><trkpt lat="44.155877737464685" lon="11.631413617200534"><ele>683.0</ele><time>2026-05-03T07:49:54Z</time></trkpt><trkpt lat="44.15593891565299" lon="11.631281079909831"><ele>683.0</ele><time>2026-05-03T07:49:56Z</time></trkpt><trkpt lat="44.15601998825758" lon="11.631216104655856"><ele>683.0</ele><time>2026-05-03T07:49:58Z</time></trkpt><trkpt lat="44.15607282455276" lon="11.631090399975195"><ele>683.0</ele><time>2026-05-03T07:50:00Z</time></trkpt><trkpt lat="44.156156039840944" lon="11.630982703987632"><ele>683.0</ele><time>2026-05-03T07:50:03Z</time></trkpt><trkpt lat="44.15621798152795" lon="11.630926245515969"><ele>679.7142857142858</ele><time>2026-05-03T07:50:05Z</time></trkpt><trkpt lat="44.156204025731604" lon="11.630839671528799"><ele>676.4285714285714</ele><time>2026-05-03T07:50:07Z</time></trkpt><trkpt lat="44.15618545893661" lon="11.630731102363473"><ele>673.1428571428571</ele><time>2026-05-03T07:50:09Z</time></trkpt><trkpt lat="44.15618345476481" lon="11.63062960110383"><ele>669.8571428571429</ele><time>2026-05-03T07:50:12Z</time></trkpt><trkpt lat="44.15618340565865" lon="11.630522068336385"><ele>666.5714285714286</ele><time>2026-05-03T07:50:16Z</time></trkpt><trkpt lat="44.156173786875925" lon="11.630415618486618"><ele>663.2857142857143</ele><time>2026-05-03T07:50:19Z</time></trkpt><trkpt lat="44.156183240313304" lon="11.630323793830344"><ele>660.0</ele><time>2026-05-03T07:50:21Z</time></trkpt><trkpt lat="44.15618178355697" lon="11.63020088001977"><ele>657.75</ele><time>2026-05-03T07:50:24Z</time></trkpt><trkpt lat="44.156129656779655" lon="11.630121007350155"><ele>655.5</ele><time>2026-05-03T07:50:27Z</time></trkpt><trkpt lat="44.15612874820061" lon="11.62989379016223"><ele>653.25</ele><time>2026-05-03T07:50:30Z</time></trkpt><trkpt lat="44.15609400585355" lon="11.629608048258364"><ele>651.0</ele><time>2026-05-03T07:50:31Z</time></trkpt><trkpt lat="44.15614840505221" lon="11.629491945281025"><ele>651.3333333333334</ele><time>2026-05-03T07:50:33Z</time></trkpt><trkpt lat="44.15614774583956" lon="11.62937784904612"><ele>651.6666666666666</ele><time>2026-05-03T07:50:35Z</time></trkpt><trkpt lat="44.156123744052216" lon="11.629265656319637"><ele>652.0</ele><time>2026-05-03T07:50:37Z</time></trkpt><trkpt lat="44.156085052032736" lon="11.629181052105901"><ele>652.3333333333333</ele><time>2026-05-03T07:50:39Z</time></trkpt><trkpt lat="44.15600529022291" lon="11.629105867364919"><ele>652.6666666666666</ele><time>2026-05-03T07:50:40.999Z</time></trkpt><trkpt lat="44.155894105436595" lon="11.629066583645782"><ele>653.0</ele><time>2026-05-03T07:50:42.999Z</time></trkpt><trkpt lat="44.1558233531203" lon="11.629058956621325"><ele>653.0</ele><time>2026-05-03T07:50:43.999Z</time></trkpt><trkpt lat="44.155760106755515" lon="11.629051848736111"><ele>653.0</ele><time>2026-05-03T07:50:45.999Z</time></trkpt><trkpt lat="44.15576393827512" lon="11.628961549920218"><ele>653.0</ele><time>2026-05-03T07:50:49.999Z</time></trkpt><trkpt lat="44.15578026744789" lon="11.628840131177494"><ele>653.0</ele><time>2026-05-03T07:50:52.999Z</time></trkpt><trkpt lat="44.1557922666644" lon="11.628722082344163"><ele>653.0</ele><time>2026-05-03T07:50:55.999Z</time></trkpt><trkpt lat="44.15576221013476" lon="11.628572758878096"><ele>653.0</ele><time>2026-05-03T07:50:57.999Z</time></trkpt><trkpt lat="44.155713599925896" lon="11.628503436870831"><ele>651.8333333333333</ele><time>2026-05-03T07:50:59.999Z</time></trkpt><trkpt lat="44.15569242208272" lon="11.628396869972981"><ele>650.6666666666666</ele><time>2026-05-03T07:51:01.999Z</time></trkpt><trkpt lat="44.15564752836623" lon="11.62828697316998"><ele>649.5</ele><time>2026-05-03T07:51:04.999Z</time></trkpt><trkpt lat="44.155567731131725" lon="11.62823283215932"><ele>648.3333333333334</ele><time>2026-05-03T07:51:06.999Z</time></trkpt><trkpt lat="44.15550041464137" lon="11.628144186101599"><ele>647.1666666666667</ele><time>2026-05-03T07:51:07.999Z</time></trkpt><trkpt lat="44.15546991809092" lon="11.628040546798239"><ele>646.0</ele><time>2026-05-03T07:51:10.999Z</time></trkpt><trkpt lat="44.15542302184826" lon="11.627878416323972"><ele>650.4</ele><time>2026-05-03T07:51:12.999Z</time></trkpt><trkpt lat="44.155402947486785" lon="11.627720826481136"><ele>654.8</ele><time>2026-05-03T07:51:14.999Z</time></trkpt><trkpt lat="44.15537422802881" lon="11.62757138247568"><ele>659.1999999999999</ele><time>2026-05-03T07:51:16.999Z</time></trkpt><trkpt lat="44.155333658717616" lon="11.627465652916634"><ele>663.5999999999999</ele><time>2026-05-03T07:51:17.999Z</time></trkpt><trkpt lat="44.15536384623378" lon="11.627385660021513"><ele>668.0</ele><time>2026-05-03T07:51:18.999Z</time></trkpt><trkpt lat="44.155318708334704" lon="11.62727494191805"><ele>668.0</ele><time>2026-05-03T07:51:20.999Z</time></trkpt><trkpt lat="44.155282235703396" lon="11.62720201433536"><ele>668.0</ele><time>2026-05-03T07:51:21.999Z</time></trkpt><trkpt lat="44.15524380527401" lon="11.627131238810394"><ele>668.0</ele><time>2026-05-03T07:51:22.999Z</time></trkpt><trkpt lat="44.155201635253604" lon="11.627061275807373"><ele>668.0</ele><time>2026-05-03T07:51:23.999Z</time></trkpt><trkpt lat="44.15512143057467" lon="11.626951368735073"><ele>668.0</ele><time>2026-05-03T07:51:25.999Z</time></trkpt><trkpt lat="44.15515949682816" lon="11.626861382087984"><ele>668.0</ele><time>2026-05-03T07:51:28.999Z</time></trkpt><trkpt lat="44.15508735497782" lon="11.626682526964688"><ele>671.5</ele><time>2026-05-03T07:51:29.999Z</time></trkpt><trkpt lat="44.15513428572534" lon="11.626610847246747"><ele>675.0</ele><time>2026-05-03T07:51:30.999Z</time></trkpt><trkpt lat="44.15516371968481" lon="11.626506007078369"><ele>678.5</ele><time>2026-05-03T07:51:31.999Z</time></trkpt><trkpt lat="44.15518508624756" lon="11.626404494084825"><ele>682.0</ele><time>2026-05-03T07:51:32.999Z</time></trkpt><trkpt lat="44.15523690796008" lon="11.62624690743485"><ele>685.5</ele><time>2026-05-03T07:51:34.999Z</time></trkpt><trkpt lat="44.15526013400893" lon="11.626163229227227"><ele>689.0</ele><time>2026-05-03T07:51:35.999Z</time></trkpt><trkpt lat="44.15530068157496" lon="11.626063622475709"><ele>691.5</ele><time>2026-05-03T07:51:42.999Z</time></trkpt><trkpt lat="44.15533816161083" lon="11.625968602085253"><ele>694.0</ele><time>2026-05-03T07:51:45.999Z</time></trkpt><trkpt lat="44.155387168047994" lon="11.625895316108368"><ele>696.5</ele><time>2026-05-03T07:51:47.998Z</time></trkpt><trkpt lat="44.15543756674065" lon="11.625812586473605"><ele>699.0</ele><time>2026-05-03T07:51:48.998Z</time></trkpt><trkpt lat="44.155495589717695" lon="11.625707793007514"><ele>701.5</ele><time>2026-05-03T07:51:50.998Z</time></trkpt><trkpt lat="44.1555664122608" lon="11.625594658247723"><ele>704.0</ele><time>2026-05-03T07:51:52.998Z</time></trkpt><trkpt lat="44.15558659927643" lon="11.625502359959663"><ele>704.0</ele><time>2026-05-03T07:51:58Z</time></trkpt><trkpt lat="44.15564427982727" lon="11.625428025895427"><ele>704.0</ele><time>2026-05-03T07:51:59Z</time></trkpt><trkpt lat="44.15568461343293" lon="11.625339743378824"><ele>704.0</ele><time>2026-05-03T07:52:01Z</time></trkpt><trkpt lat="44.155720728033124" lon="11.625228408326597"><ele>704.0</ele><time>2026-05-03T07:52:03Z</time></trkpt><trkpt lat="44.15570203407904" lon="11.62513703239056"><ele>704.0</ele><time>2026-05-03T07:52:06Z</time></trkpt><trkpt lat="44.155822910695" lon="11.624417221979346"><ele>703.2</ele><time>2026-05-03T07:52:07Z</time></trkpt><trkpt lat="44.15578458698981" lon="11.624303917362706"><ele>702.4000000000001</ele><time>2026-05-03T07:52:08Z</time></trkpt><trkpt lat="44.15572104875488" lon="11.62423955783191"><ele>701.6</ele><time>2026-05-03T07:52:09Z</time></trkpt><trkpt lat="44.15563557278176" lon="11.624075531618063"><ele>700.8</ele><time>2026-05-03T07:52:10Z</time></trkpt><trkpt lat="44.15565980039863" lon="11.623977292497937"><ele>700.0</ele><time>2026-05-03T07:52:11Z</time></trkpt><trkpt lat="44.155617863702844" lon="11.623873868639214"><ele>700.0</ele><time>2026-05-03T07:52:12Z</time></trkpt><trkpt lat="44.15560933727112" lon="11.623754200959905"><ele>700.0</ele><time>2026-05-03T07:52:13Z</time></trkpt><trkpt lat="44.155583620385684" lon="11.623599468941446"><ele>700.0</ele><time>2026-05-03T07:52:15Z</time></trkpt><trkpt lat="44.15556084784934" lon="11.623503514468952"><ele>700.0</ele><time>2026-05-03T07:52:16Z</time></trkpt><trkpt lat="44.155570149258054" lon="11.623377946987569"><ele>700.0</ele><time>2026-05-03T07:52:17Z</time></trkpt><trkpt lat="44.15554143458336" lon="11.623255799320113"><ele>696.6666666666667</ele><time>2026-05-03T07:52:18Z</time></trkpt><trkpt lat="44.15551637762152" lon="11.623153868823486"><ele>693.3333333333334</ele><time>2026-05-03T07:52:19Z</time></trkpt><trkpt lat="44.15545525879688" lon="11.623085879073855"><ele>690.0</ele><time>2026-05-03T07:52:20Z</time></trkpt><trkpt lat="44.155411720032426" lon="11.622996161655461"><ele>686.6666666666666</ele><time>2026-05-03T07:52:21Z</time></trkpt><trkpt lat="44.1553845559725" lon="11.62288759984379"><ele>683.3333333333333</ele><time>2026-05-03T07:52:22Z</time></trkpt><trkpt lat="44.15533638109597" lon="11.622766798858985"><ele>680.0</ele><time>2026-05-03T07:52:23Z</time></trkpt><trkpt lat="44.15528136376813" lon="11.622678779926588"><ele>680.0</ele><time>2026-05-03T07:52:24Z</time></trkpt><trkpt lat="44.155221406717416" lon="11.62260940137028"><ele>680.0</ele><time>2026-05-03T07:52:25Z</time></trkpt><trkpt lat="44.15515437515371" lon="11.622620646289757"><ele>680.0</ele><time>2026-05-03T07:52:26Z</time></trkpt><trkpt lat="44.15505024886742" lon="11.622684183764376"><ele>680.0</ele><time>2026-05-03T07:52:28Z</time></trkpt><trkpt lat="44.1550121486304" lon="11.622853417641844"><ele>680.0</ele><time>2026-05-03T07:52:29Z</time></trkpt><trkpt lat="44.15492132228665" lon="11.622926558681524"><ele>679.4</ele><time>2026-05-03T07:52:31Z</time></trkpt><trkpt lat="44.15481738637916" lon="11.622856243124978"><ele>678.8</ele><time>2026-05-03T07:52:32Z</time></trkpt><trkpt lat="44.15469894136419" lon="11.622795282175664"><ele>678.2</ele><time>2026-05-03T07:52:33Z</time></trkpt><trkpt lat="44.15461401680607" lon="11.622749910691637"><ele>677.6</ele><time>2026-05-03T07:52:34Z</time></trkpt><trkpt lat="44.154515612393645" lon="11.622736834335923"><ele>677.0</ele><time>2026-05-03T07:52:35Z</time></trkpt><trkpt lat="44.15445559173058" lon="11.622801492813693"><ele>677.0</ele><time>2026-05-03T07:52:36Z</time></trkpt><trkpt lat="44.154387663633784" lon="11.622816916564448"><ele>677.0</ele><time>2026-05-03T07:52:37Z</time></trkpt><trkpt lat="44.1543037359168" lon="11.62279934892891"><ele>677.0</ele><time>2026-05-03T07:52:38Z</time></trkpt><trkpt lat="44.15421714022179" lon="11.622796534099745"><ele>677.0</ele><time>2026-05-03T07:52:39Z</time></trkpt><trkpt lat="44.154138415716595" lon="11.622808402109033"><ele>677.0</ele><time>2026-05-03T07:52:40Z</time></trkpt><trkpt lat="44.154057052073306" lon="11.622822120849296"><ele>677.0</ele><time>2026-05-03T07:52:41Z</time></trkpt><trkpt lat="44.15397733405894" lon="11.622847550096402"><ele>672.3333333333333</ele><time>2026-05-03T07:52:42Z</time></trkpt><trkpt lat="44.153885038809506" lon="11.622884672817056"><ele>667.6666666666666</ele><time>2026-05-03T07:52:43Z</time></trkpt><trkpt lat="44.15379838927061" lon="11.622913539816095"><ele>663.0</ele><time>2026-05-03T07:52:44Z</time></trkpt><trkpt lat="44.15371334667811" lon="11.622934037195463"><ele>658.3333333333334</ele><time>2026-05-03T07:52:45Z</time></trkpt><trkpt lat="44.15364023495505" lon="11.622963648231803"><ele>653.6666666666667</ele><time>2026-05-03T07:52:46Z</time></trkpt><trkpt lat="44.15353952083146" lon="11.622970608019704"><ele>649.0</ele><time>2026-05-03T07:52:47.999Z</time></trkpt><trkpt lat="44.15349299069145" lon="11.622792101610708"><ele>648.9999999999999</ele><time>2026-05-03T07:52:49.999Z</time></trkpt><trkpt lat="44.1534867166641" lon="11.62269509084135"><ele>649.0</ele><time>2026-05-03T07:52:50.999Z</time></trkpt><trkpt lat="44.15348080368413" lon="11.622601081943573"><ele>649.0</ele><time>2026-05-03T07:52:51.999Z</time></trkpt><trkpt lat="44.15349273434541" lon="11.622467745944924"><ele>649.0</ele><time>2026-05-03T07:52:53.999Z</time></trkpt><trkpt lat="44.153437616566066" lon="11.622523921793787"><ele>649.0</ele><time>2026-05-03T07:52:55.999Z</time></trkpt><trkpt lat="44.15342177384072" lon="11.62260888520159"><ele>648.9999999999999</ele><time>2026-05-03T07:52:57.999Z</time></trkpt><trkpt lat="44.15341660847716" lon="11.622697601564726"><ele>649.0</ele><time>2026-05-03T07:52:59.999Z</time></trkpt><trkpt lat="44.15333527523172" lon="11.622832146013762"><ele>649.0</ele><time>2026-05-03T07:53:01.999Z</time></trkpt><trkpt lat="44.15328729080537" lon="11.622890751813399"><ele>649.0</ele><time>2026-05-03T07:53:02.999Z</time></trkpt><trkpt lat="44.15323084746849" lon="11.622998282561387"><ele>649.0</ele><time>2026-05-03T07:53:04.999Z</time></trkpt><trkpt lat="44.15316502696384" lon="11.623068781294844"><ele>649.0</ele><time>2026-05-03T07:53:06.999Z</time></trkpt><trkpt lat="44.15315527523834" lon="11.62317038107591"><ele>649.0</ele><time>2026-05-03T07:53:07.999Z</time></trkpt><trkpt lat="44.153095994436434" lon="11.623305886599013"><ele>649.0</ele><time>2026-05-03T07:53:09.999Z</time></trkpt><trkpt lat="44.15304837275766" lon="11.623423531130932"><ele>645.0</ele><time>2026-05-03T07:53:11.999Z</time></trkpt><trkpt lat="44.15300571508011" lon="11.623488334114663"><ele>641.0</ele><time>2026-05-03T07:53:13.999Z</time></trkpt><trkpt lat="44.152976412136645" lon="11.623578053659902"><ele>637.0</ele><time>2026-05-03T07:53:14.999Z</time></trkpt><trkpt lat="44.15292890863256" lon="11.623665919880061"><ele>633.0</ele><time>2026-05-03T07:53:16.999Z</time></trkpt><trkpt lat="44.15283503858192" lon="11.62368508818914"><ele>629.0</ele><time>2026-05-03T07:53:18.999Z</time></trkpt><trkpt lat="44.15276149195963" lon="11.623548629590887"><ele>625.0</ele><time>2026-05-03T07:53:20.999Z</time></trkpt><trkpt lat="44.15276449292687" lon="11.6233933482902"><ele>624.3333333333334</ele><time>2026-05-03T07:53:22.999Z</time></trkpt><trkpt lat="44.15281052973325" lon="11.623312945612353"><ele>623.6666666666667</ele><time>2026-05-03T07:53:23.999Z</time></trkpt><trkpt lat="44.15285569948977" lon="11.623231376897081"><ele>623.0</ele><time>2026-05-03T07:53:24.999Z</time></trkpt><trkpt lat="44.15282592480544" lon="11.623069444788609"><ele>622.3333333333334</ele><time>2026-05-03T07:53:25.999Z</time></trkpt><trkpt lat="44.15286773416651" lon="11.6229963918459"><ele>621.6666666666666</ele><time>2026-05-03T07:53:26.999Z</time></trkpt><trkpt lat="44.152940835508154" lon="11.622878955742078"><ele>621.0</ele><time>2026-05-03T07:53:28.999Z</time></trkpt><trkpt lat="44.15287394001599" lon="11.622932400831168"><ele>621.0</ele><time>2026-05-03T07:53:33.999Z</time></trkpt><trkpt lat="44.15281809865494" lon="11.62304065592707"><ele>621.0</ele><time>2026-05-03T07:53:34.999Z</time></trkpt><trkpt lat="44.1527654761354" lon="11.623149739823363"><ele>621.0</ele><time>2026-05-03T07:53:35.999Z</time></trkpt><trkpt lat="44.15269902989586" lon="11.6232503708289"><ele>621.0</ele><time>2026-05-03T07:53:36.999Z</time></trkpt><trkpt lat="44.152607799517426" lon="11.623312502391855"><ele>621.0</ele><time>2026-05-03T07:53:37.999Z</time></trkpt><trkpt lat="44.15253429938048" lon="11.62341697215922"><ele>621.0</ele><time>2026-05-03T07:53:38.999Z</time></trkpt><trkpt lat="44.152467479463034" lon="11.623527699152982"><ele>621.0</ele><time>2026-05-03T07:53:39.999Z</time></trkpt><trkpt lat="44.15242813169326" lon="11.62363419109699"><ele>621.0</ele><time>2026-05-03T07:53:40.999Z</time></trkpt><trkpt lat="44.152378392960415" lon="11.62372052299606"><ele>621.0</ele><time>2026-05-03T07:53:41.999Z</time></trkpt><trkpt lat="44.15229032062156" lon="11.623851053363246"><ele>621.0</ele><time>2026-05-03T07:53:43.999Z</time></trkpt><trkpt lat="44.15222705562075" lon="11.624012332052994"><ele>617.0</ele><time>2026-05-03T07:53:45.999Z</time></trkpt><trkpt lat="44.15219861086501" lon="11.624098643989884"><ele>613.0</ele><time>2026-05-03T07:53:46.999Z</time></trkpt><trkpt lat="44.15214213001661" lon="11.624255038411361"><ele>609.0</ele><time>2026-05-03T07:53:48.999Z</time></trkpt><trkpt lat="44.15212959438397" lon="11.624396799764938"><ele>605.0</ele><time>2026-05-03T07:53:49.999Z</time></trkpt><trkpt lat="44.15211176632109" lon="11.62454223319758"><ele>601.0</ele><time>2026-05-03T07:53:50.999Z</time></trkpt><trkpt lat="44.152080554020664" lon="11.624680677005173"><ele>601.0</ele><time>2026-05-03T07:53:51.999Z</time></trkpt><trkpt lat="44.15204580711477" lon="11.624821648694168"><ele>601.0</ele><time>2026-05-03T07:53:52.999Z</time></trkpt><trkpt lat="44.15200778622353" lon="11.624951830047442"><ele>601.0</ele><time>2026-05-03T07:53:53.998Z</time></trkpt><trkpt lat="44.15196241786403" lon="11.625089863732107"><ele>601.0</ele><time>2026-05-03T07:53:54.998Z</time></trkpt><trkpt lat="44.151926389885205" lon="11.625203636427548"><ele>601.0</ele><time>2026-05-03T07:53:55.998Z</time></trkpt><trkpt lat="44.15189730492719" lon="11.625316097319065"><ele>600.1666666666667</ele><time>2026-05-03T07:53:56.998Z</time></trkpt><trkpt lat="44.151888151456006" lon="11.62542508949166"><ele>599.3333333333334</ele><time>2026-05-03T07:53:57.998Z</time></trkpt><trkpt lat="44.15188064677108" lon="11.625535134255577"><ele>598.5</ele><time>2026-05-03T07:53:58.998Z</time></trkpt><trkpt lat="44.15185963120086" lon="11.625652862154395"><ele>597.6666666666666</ele><time>2026-05-03T07:53:59.998Z</time></trkpt><trkpt lat="44.151856864762934" lon="11.625762597358445"><ele>596.8333333333333</ele><time>2026-05-03T07:54:00.998Z</time></trkpt><trkpt lat="44.151854496178586" lon="11.625853446415249"><ele>596.0</ele><time>2026-05-03T07:54:01.998Z</time></trkpt><trkpt lat="44.15185684352391" lon="11.625946794979296"><ele>596.0</ele><time>2026-05-03T07:54:02.998Z</time></trkpt><trkpt lat="44.15187387424073" lon="11.626036183030818"><ele>596.0</ele><time>2026-05-03T07:54:04Z</time></trkpt><trkpt lat="44.15191647240407" lon="11.626125904462981"><ele>596.0</ele><time>2026-05-03T07:54:05Z</time></trkpt><trkpt lat="44.15202043414555" lon="11.626190729625554"><ele>596.0</ele><time>2026-05-03T07:54:06Z</time></trkpt><trkpt lat="44.1520957978749" lon="11.62624029852004"><ele>596.0</ele><time>2026-05-03T07:54:07Z</time></trkpt><trkpt lat="44.15215286873063" lon="11.626279440643218"><ele>596.0</ele><time>2026-05-03T07:54:08Z</time></trkpt><trkpt lat="44.15225263511161" lon="11.62634058638069"><ele>595.1666666666666</ele><time>2026-05-03T07:54:09Z</time></trkpt><trkpt lat="44.152349314287974" lon="11.626385081408607"><ele>594.3333333333333</ele><time>2026-05-03T07:54:10Z</time></trkpt><trkpt lat="44.15244721912532" lon="11.626404895802619"><ele>593.5</ele><time>2026-05-03T07:54:11Z</time></trkpt><trkpt lat="44.152518696535566" lon="11.626441308637265"><ele>592.6666666666666</ele><time>2026-05-03T07:54:12Z</time></trkpt><trkpt lat="44.1525836559456" lon="11.626503170311869"><ele>591.8333333333334</ele><time>2026-05-03T07:54:13Z</time></trkpt><trkpt lat="44.152645084278" lon="11.626580774710641"><ele>591.0</ele><time>2026-05-03T07:54:14Z</time></trkpt><trkpt lat="44.152714202243395" lon="11.626684386320653"><ele>591.0</ele><time>2026-05-03T07:54:15Z</time></trkpt><trkpt lat="44.15275731392602" lon="11.626795855447638"><ele>591.0</ele><time>2026-05-03T07:54:16Z</time></trkpt><trkpt lat="44.15277798686244" lon="11.626919673393562"><ele>591.0</ele><time>2026-05-03T07:54:17Z</time></trkpt><trkpt lat="44.15279173897037" lon="11.627060592112144"><ele>591.0</ele><time>2026-05-03T07:54:18Z</time></trkpt><trkpt lat="44.15277093799952" lon="11.627197139153944"><ele>591.0</ele><time>2026-05-03T07:54:19Z</time></trkpt><trkpt lat="44.152725555744595" lon="11.627322106507433"><ele>589.6666666666666</ele><time>2026-05-03T07:54:20Z</time></trkpt><trkpt lat="44.15266428891632" lon="11.627426725447362"><ele>588.3333333333334</ele><time>2026-05-03T07:54:21Z</time></trkpt><trkpt lat="44.15260306974683" lon="11.627524488086607"><ele>587.0</ele><time>2026-05-03T07:54:22Z</time></trkpt><trkpt lat="44.152566673714205" lon="11.627615371107606"><ele>585.6666666666667</ele><time>2026-05-03T07:54:23Z</time></trkpt><trkpt lat="44.15255356508258" lon="11.627744645192724"><ele>584.3333333333334</ele><time>2026-05-03T07:54:24Z</time></trkpt><trkpt lat="44.15255768552476" lon="11.627862894517211"><ele>583.0</ele><time>2026-05-03T07:54:25Z</time></trkpt><trkpt lat="44.152545304210776" lon="11.627977508091238"><ele>582.3333333333334</ele><time>2026-05-03T07:54:26Z</time></trkpt><trkpt lat="44.15255506504701" lon="11.6280743563493"><ele>581.6666666666667</ele><time>2026-05-03T07:54:27Z</time></trkpt><trkpt lat="44.15260326309739" lon="11.628161427705077"><ele>581.0</ele><time>2026-05-03T07:54:28Z</time></trkpt><trkpt lat="44.15264035798249" lon="11.628257409096362"><ele>580.3333333333334</ele><time>2026-05-03T07:54:29Z</time></trkpt><trkpt lat="44.15269538185812" lon="11.628354900131523"><ele>579.6666666666666</ele><time>2026-05-03T07:54:30Z</time></trkpt><trkpt lat="44.15273988256585" lon="11.62844306607994"><ele>579.0</ele><time>2026-05-03T07:54:31Z</time></trkpt><trkpt lat="44.15278713129161" lon="11.628521317618416"><ele>580.3333333333334</ele><time>2026-05-03T07:54:32Z</time></trkpt><trkpt lat="44.152735759723555" lon="11.628701713183109"><ele>581.6666666666666</ele><time>2026-05-03T07:54:34Z</time></trkpt><trkpt lat="44.15268008832107" lon="11.628768030064252"><ele>583.0</ele><time>2026-05-03T07:54:35Z</time></trkpt><trkpt lat="44.152599160950196" lon="11.628800928497725"><ele>584.3333333333333</ele><time>2026-05-03T07:54:36Z</time></trkpt><trkpt lat="44.152520603776075" lon="11.628802539514032"><ele>585.6666666666666</ele><time>2026-05-03T07:54:37Z</time></trkpt><trkpt lat="44.15246596374173" lon="11.62885466587401"><ele>587.0</ele><time>2026-05-03T07:54:38Z</time></trkpt><trkpt lat="44.152411164266226" lon="11.628928628515999"><ele>587.0</ele><time>2026-05-03T07:54:39Z</time></trkpt><trkpt lat="44.152395734385856" lon="11.62902048037979"><ele>587.0</ele><time>2026-05-03T07:54:40Z</time></trkpt><trkpt lat="44.152375863872" lon="11.62913774295563"><ele>587.0</ele><time>2026-05-03T07:54:41Z</time></trkpt><trkpt lat="44.15236110843196" lon="11.62922830775983"><ele>587.0</ele><time>2026-05-03T07:54:42Z</time></trkpt><trkpt lat="44.15230782968712" lon="11.629330887109287"><ele>587.0</ele><time>2026-05-03T07:54:44Z</time></trkpt><trkpt lat="44.152151754014604" lon="11.629235348304228"><ele>587.25</ele><time>2026-05-03T07:54:46Z</time></trkpt><trkpt lat="44.152037247353555" lon="11.629147660611938"><ele>587.5</ele><time>2026-05-03T07:54:47Z</time></trkpt><trkpt lat="44.151918668955815" lon="11.629065015047342"><ele>587.75</ele><time>2026-05-03T07:54:48Z</time></trkpt><trkpt lat="44.15182979920975" lon="11.629003075509464"><ele>588.0</ele><time>2026-05-03T07:54:49Z</time></trkpt><trkpt lat="44.151773662436725" lon="11.628852470564697"><ele>588.0</ele><time>2026-05-03T07:54:50Z</time></trkpt><trkpt lat="44.151677454692255" lon="11.628831281670758"><ele>588.0</ele><time>2026-05-03T07:54:51Z</time></trkpt><trkpt lat="44.15155356813833" lon="11.628798775069233"><ele>588.0</ele><time>2026-05-03T07:54:51.999Z</time></trkpt><trkpt lat="44.15143546472949" lon="11.62876665637337"><ele>588.0</ele><time>2026-05-03T07:54:52.999Z</time></trkpt><trkpt lat="44.15131968184609" lon="11.628734379700278"><ele>589.0</ele><time>2026-05-03T07:54:53.999Z</time></trkpt><trkpt lat="44.1512140938885" lon="11.628686411735327"><ele>590.0</ele><time>2026-05-03T07:54:54.999Z</time></trkpt><trkpt lat="44.15112619383799" lon="11.62858470489194"><ele>591.0</ele><time>2026-05-03T07:54:55.999Z</time></trkpt><trkpt lat="44.15104574360692" lon="11.62845451026202"><ele>592.0</ele><time>2026-05-03T07:54:56.999Z</time></trkpt><trkpt lat="44.150965106601454" lon="11.628359307329163"><ele>592.0</ele><time>2026-05-03T07:54:57.999Z</time></trkpt><trkpt lat="44.15088823979972" lon="11.62826250846537"><ele>592.0</ele><time>2026-05-03T07:54:58.999Z</time></trkpt><trkpt lat="44.15080968433237" lon="11.628212526626726"><ele>592.0</ele><time>2026-05-03T07:54:59.999Z</time></trkpt><trkpt lat="44.15072050577878" lon="11.62818423421543"><ele>592.0</ele><time>2026-05-03T07:55:00.999Z</time></trkpt><trkpt lat="44.15062549958381" lon="11.628195331870824"><ele>592.0</ele><time>2026-05-03T07:55:01.999Z</time></trkpt><trkpt lat="44.15051313222023" lon="11.628195242506827"><ele>597.5</ele><time>2026-05-03T07:55:02.999Z</time></trkpt><trkpt lat="44.15038176217524" lon="11.628193968639113"><ele>603.0</ele><time>2026-05-03T07:55:03.999Z</time></trkpt><trkpt lat="44.1502602719259" lon="11.628182799853949"><ele>608.5</ele><time>2026-05-03T07:55:04.999Z</time></trkpt><trkpt lat="44.15014122322108" lon="11.628161324345026"><ele>614.0</ele><time>2026-05-03T07:55:05.999Z</time></trkpt><trkpt lat="44.150050822322974" lon="11.628131726986597"><ele>614.0</ele><time>2026-05-03T07:55:06.999Z</time></trkpt><trkpt lat="44.14997564653575" lon="11.628074894626167"><ele>614.0</ele><time>2026-05-03T07:55:07.999Z</time></trkpt><trkpt lat="44.14990371959051" lon="11.628024195253717"><ele>614.0</ele><time>2026-05-03T07:55:08.999Z</time></trkpt><trkpt lat="44.14981856343583" lon="11.628009661230152"><ele>614.0</ele><time>2026-05-03T07:55:09.999Z</time></trkpt><trkpt lat="44.14973407819964" lon="11.628041909396492"><ele>614.0</ele><time>2026-05-03T07:55:10.999Z</time></trkpt><trkpt lat="44.14964367704324" lon="11.628084940783436"><ele>614.0</ele><time>2026-05-03T07:55:11.999Z</time></trkpt><trkpt lat="44.14956204017747" lon="11.62813683773814"><ele>613.0</ele><time>2026-05-03T07:55:12.999Z</time></trkpt><trkpt lat="44.149484635862365" lon="11.62824652021761"><ele>612.0</ele><time>2026-05-03T07:55:13.999Z</time></trkpt><trkpt lat="44.149419341410564" lon="11.628366881843187"><ele>611.0</ele><time>2026-05-03T07:55:14.999Z</time></trkpt><trkpt lat="44.14937222517149" lon="11.628484197645733"><ele>610.0</ele><time>2026-05-03T07:55:15.999Z</time></trkpt><trkpt lat="44.14933677470786" lon="11.628619464794145"><ele>609.0</ele><time>2026-05-03T07:55:16.999Z</time></trkpt><trkpt lat="44.149289452332916" lon="11.628735698879204"><ele>614.2</ele><time>2026-05-03T07:55:17.999Z</time></trkpt><trkpt lat="44.14922189618488" lon="11.628830890705567"><ele>619.4</ele><time>2026-05-03T07:55:18.999Z</time></trkpt><trkpt lat="44.14915810794731" lon="11.628925625110316"><ele>624.6</ele><time>2026-05-03T07:55:19.999Z</time></trkpt><trkpt lat="44.14908653636642" lon="11.629020795244992"><ele>629.8</ele><time>2026-05-03T07:55:20.999Z</time></trkpt><trkpt lat="44.1490118369099" lon="11.62911186043119"><ele>635.0</ele><time>2026-05-03T07:55:21.999Z</time></trkpt><trkpt lat="44.148943864592844" lon="11.6291886109186"><ele>635.0</ele><time>2026-05-03T07:55:22.999Z</time></trkpt><trkpt lat="44.14888234944932" lon="11.629236106838201"><ele>635.0</ele><time>2026-05-03T07:55:23.999Z</time></trkpt><trkpt lat="44.14883279376363" lon="11.629336992220507"><ele>635.0</ele><time>2026-05-03T07:55:25.999Z</time></trkpt><trkpt lat="44.14893472783761" lon="11.629423644928382"><ele>635.0</ele><time>2026-05-03T07:55:27.999Z</time></trkpt><trkpt lat="44.1490050479169" lon="11.6293610069275"><ele>635.0</ele><time>2026-05-03T07:55:28.999Z</time></trkpt><trkpt lat="44.14907031532742" lon="11.629231529093515"><ele>635.0</ele><time>2026-05-03T07:55:29.999Z</time></trkpt><trkpt lat="44.14918725797049" lon="11.629102178402158"><ele>635.0</ele><time>2026-05-03T07:55:30.999Z</time></trkpt><trkpt lat="44.149301891825985" lon="11.629017744701311"><ele>635.0</ele><time>2026-05-03T07:55:31.999Z</time></trkpt><trkpt lat="44.14939856600052" lon="11.628970647611153"><ele>635.0</ele><time>2026-05-03T07:55:32.999Z</time></trkpt><trkpt lat="44.14950226433333" lon="11.628929625158294"><ele>635.0</ele><time>2026-05-03T07:55:33.999Z</time></trkpt><trkpt lat="44.149579139040526" lon="11.628912924659438"><ele>635.0</ele><time>2026-05-03T07:55:34.999Z</time></trkpt><trkpt lat="44.149674966683364" lon="11.62893989278694"><ele>635.0</ele><time>2026-05-03T07:55:36.999Z</time></trkpt><trkpt lat="44.14972103673057" lon="11.629018971024669"><ele>635.0</ele><time>2026-05-03T07:55:37.999Z</time></trkpt><trkpt lat="44.14977217227017" lon="11.629133503342945"><ele>635.0</ele><time>2026-05-03T07:55:38.999Z</time></trkpt><trkpt lat="44.14986032353274" lon="11.62922886377041"><ele>635.6666666666666</ele><time>2026-05-03T07:55:39.999Z</time></trkpt><trkpt lat="44.14993981659512" lon="11.62931767776229"><ele>636.3333333333333</ele><time>2026-05-03T07:55:40.999Z</time></trkpt><trkpt lat="44.150010911563975" lon="11.629365547510421"><ele>637.0</ele><time>2026-05-03T07:55:41.999Z</time></trkpt><trkpt lat="44.15008238435722" lon="11.629373517734804"><ele>637.6666666666666</ele><time>2026-05-03T07:55:42.999Z</time></trkpt><trkpt lat="44.15011685293041" lon="11.62948526226568"><ele>638.3333333333334</ele><time>2026-05-03T07:55:44.999Z</time></trkpt><trkpt lat="44.150068473965206" lon="11.629560545349012"><ele>639.0</ele><time>2026-05-03T07:55:45.999Z</time></trkpt><trkpt lat="44.14999111039712" lon="11.6295762908725"><ele>638.2</ele><time>2026-05-03T07:55:46.999Z</time></trkpt><trkpt lat="44.14989667131147" lon="11.629515921113668"><ele>637.4</ele><time>2026-05-03T07:55:47.999Z</time></trkpt><trkpt lat="44.149805580284045" lon="11.629457461161229"><ele>636.6</ele><time>2026-05-03T07:55:48.999Z</time></trkpt><trkpt lat="44.14971758571554" lon="11.629389274587178"><ele>635.8</ele><time>2026-05-03T07:55:49.999Z</time></trkpt><trkpt lat="44.14964124790204" lon="11.6293667654579"><ele>635.0</ele><time>2026-05-03T07:55:50.999Z</time></trkpt><trkpt lat="44.14952089471917" lon="11.629471663453916"><ele>641.0</ele><time>2026-05-03T07:55:52.999Z</time></trkpt><trkpt lat="44.149437366121845" lon="11.629587474675734"><ele>647.0</ele><time>2026-05-03T07:55:53.999Z</time></trkpt><trkpt lat="44.149375699075094" lon="11.62973426249771"><ele>653.0</ele><time>2026-05-03T07:55:54.999Z</time></trkpt><trkpt lat="44.14931710374553" lon="11.629865697414797"><ele>659.0</ele><time>2026-05-03T07:55:55.999Z</time></trkpt><trkpt lat="44.149277981763085" lon="11.629949472206459"><ele>665.0</ele><time>2026-05-03T07:55:56.999Z</time></trkpt><trkpt lat="44.14921059973392" lon="11.630003919527576"><ele>665.0</ele><time>2026-05-03T07:55:57.999Z</time></trkpt><trkpt lat="44.14909805588464" lon="11.630038496212313"><ele>665.0</ele><time>2026-05-03T07:55:58.998Z</time></trkpt><trkpt lat="44.14899313607354" lon="11.63007374492683"><ele>665.0</ele><time>2026-05-03T07:55:59.998Z</time></trkpt><trkpt lat="44.14891215704007" lon="11.630139080265117"><ele>665.0</ele><time>2026-05-03T07:56:00.998Z</time></trkpt><trkpt lat="44.14883159069888" lon="11.63022868108333"><ele>665.0</ele><time>2026-05-03T07:56:01.998Z</time></trkpt><trkpt lat="44.148745442124884" lon="11.630351836994068"><ele>671.6</ele><time>2026-05-03T07:56:02.998Z</time></trkpt><trkpt lat="44.148667917062504" lon="11.630461966928275"><ele>678.2</ele><time>2026-05-03T07:56:03.998Z</time></trkpt><trkpt lat="44.14860440518955" lon="11.630523233953207"><ele>684.8</ele><time>2026-05-03T07:56:04.998Z</time></trkpt><trkpt lat="44.14851230591494" lon="11.630512913155489"><ele>691.4</ele><time>2026-05-03T07:56:05.998Z</time></trkpt><trkpt lat="44.148427216553316" lon="11.630485270454566"><ele>698.0</ele><time>2026-05-03T07:56:06.998Z</time></trkpt><trkpt lat="44.14834521294756" lon="11.630432355088061"><ele>698.0</ele><time>2026-05-03T07:56:07.998Z</time></trkpt><trkpt lat="44.14828699985324" lon="11.63034934008009"><ele>698.0</ele><time>2026-05-03T07:56:08.998Z</time></trkpt><trkpt lat="44.148239313584035" lon="11.630225199161574"><ele>698.0</ele><time>2026-05-03T07:56:10Z</time></trkpt><trkpt lat="44.14817836421075" lon="11.630071266249201"><ele>698.0</ele><time>2026-05-03T07:56:11Z</time></trkpt><trkpt lat="44.148101334129116" lon="11.62993417501586"><ele>698.0</ele><time>2026-05-03T07:56:12Z</time></trkpt><trkpt lat="44.14805415427064" lon="11.629832552706102"><ele>697.5999999999999</ele><time>2026-05-03T07:56:13Z</time></trkpt><trkpt lat="44.14799727828723" lon="11.629774679964347"><ele>697.1999999999999</ele><time>2026-05-03T07:56:14Z</time></trkpt><trkpt lat="44.14792575454362" lon="11.62974984301839"><ele>696.8</ele><time>2026-05-03T07:56:15Z</time></trkpt><trkpt lat="44.14783750485283" lon="11.629759136279908"><ele>696.4</ele><time>2026-05-03T07:56:16Z</time></trkpt><trkpt lat="44.14772463972518" lon="11.629802403894617"><ele>696.0</ele><time>2026-05-03T07:56:17Z</time></trkpt><trkpt lat="44.1476187878347" lon="11.629807362977619"><ele>696.0</ele><time>2026-05-03T07:56:18Z</time></trkpt><trkpt lat="44.1475281773557" lon="11.62978365746225"><ele>696.0</ele><time>2026-05-03T07:56:19Z</time></trkpt><trkpt lat="44.14744559850368" lon="11.629724462273732"><ele>696.0</ele><time>2026-05-03T07:56:20Z</time></trkpt><trkpt lat="44.147351114867114" lon="11.629688634106476"><ele>696.0</ele><time>2026-05-03T07:56:21Z</time></trkpt><trkpt lat="44.14725512199878" lon="11.62969249919896"><ele>696.0</ele><time>2026-05-03T07:56:22Z</time></trkpt><trkpt lat="44.147151563815164" lon="11.62965526734994"><ele>693.5999999999999</ele><time>2026-05-03T07:56:23Z</time></trkpt><trkpt lat="44.1470902010603" lon="11.629547427856885"><ele>691.2</ele><time>2026-05-03T07:56:24Z</time></trkpt><trkpt lat="44.14703694196724" lon="11.629406230735865"><ele>688.8</ele><time>2026-05-03T07:56:25Z</time></trkpt><trkpt lat="44.14700785966877" lon="11.629317300885939"><ele>686.4000000000001</ele><time>2026-05-03T07:56:26Z</time></trkpt><trkpt lat="44.14694536843844" lon="11.629228853657294"><ele>684.0</ele><time>2026-05-03T07:56:28Z</time></trkpt><trkpt lat="44.14691016096869" lon="11.629115516344187"><ele>684.0</ele><time>2026-05-03T07:57:09.999Z</time></trkpt><trkpt lat="44.14685126588254" lon="11.628957445759317"><ele>684.0</ele><time>2026-05-03T07:57:11.999Z</time></trkpt><trkpt lat="44.1468146130211" lon="11.628847261041454"><ele>684.0</ele><time>2026-05-03T07:57:13.999Z</time></trkpt><trkpt lat="44.14679507721639" lon="11.628695785568896"><ele>684.0</ele><time>2026-05-03T07:57:15.999Z</time></trkpt><trkpt lat="44.14678996337808" lon="11.628575719916448"><ele>684.0</ele><time>2026-05-03T07:57:16.999Z</time></trkpt><trkpt lat="44.146775143780296" lon="11.62847071522874"><ele>685.1666666666666</ele><time>2026-05-03T07:57:17.999Z</time></trkpt><trkpt lat="44.146751616178676" lon="11.628358432284891"><ele>686.3333333333334</ele><time>2026-05-03T07:57:18.999Z</time></trkpt><trkpt lat="44.14670299289166" lon="11.628250844922087"><ele>687.5</ele><time>2026-05-03T07:57:19.999Z</time></trkpt><trkpt lat="44.14665696774171" lon="11.628178544863355"><ele>688.6666666666667</ele><time>2026-05-03T07:57:20.999Z</time></trkpt><trkpt lat="44.14660200599195" lon="11.628088197508857"><ele>689.8333333333334</ele><time>2026-05-03T07:57:22.999Z</time></trkpt><trkpt lat="44.14655852491305" lon="11.62801037255401"><ele>691.0</ele><time>2026-05-03T07:57:23.999Z</time></trkpt><trkpt lat="44.14650299845468" lon="11.627903763530309"><ele>690.0</ele><time>2026-05-03T07:57:25.999Z</time></trkpt><trkpt lat="44.1464527424456" lon="11.627830625334537"><ele>689.0</ele><time>2026-05-03T07:57:33.999Z</time></trkpt><trkpt lat="44.14637833392602" lon="11.627756127524664"><ele>688.0</ele><time>2026-05-03T07:57:39.999Z</time></trkpt><trkpt lat="44.146341535525565" lon="11.627674766319265"><ele>687.0</ele><time>2026-05-03T07:57:41.999Z</time></trkpt><trkpt lat="44.1462860891817" lon="11.627524253762417"><ele>686.0</ele><time>2026-05-03T07:57:43.999Z</time></trkpt><trkpt lat="44.14627310058845" lon="11.627437834997776"><ele>685.0</ele><time>2026-05-03T07:57:44.999Z</time></trkpt><trkpt lat="44.14622723006017" lon="11.627281394890963"><ele>685.0</ele><time>2026-05-03T07:57:46.999Z</time></trkpt><trkpt lat="44.146193731571074" lon="11.62716074486654"><ele>685.0</ele><time>2026-05-03T07:57:47.999Z</time></trkpt><trkpt lat="44.1461508389192" lon="11.627078273286315"><ele>685.0</ele><time>2026-05-03T07:57:48.999Z</time></trkpt><trkpt lat="44.14613693483318" lon="11.626981245763186"><ele>685.0</ele><time>2026-05-03T07:57:49.999Z</time></trkpt><trkpt lat="44.14612276502608" lon="11.62689351806409"><ele>685.0</ele><time>2026-05-03T07:57:50.999Z</time></trkpt><trkpt lat="44.146109475099166" lon="11.626789513739936"><ele>685.0</ele><time>2026-05-03T07:57:52.999Z</time></trkpt><trkpt lat="44.14608395596935" lon="11.626661019042043"><ele>685.8333333333334</ele><time>2026-05-03T07:57:54.999Z</time></trkpt><trkpt lat="44.146055638001116" lon="11.626580975892887"><ele>686.6666666666667</ele><time>2026-05-03T07:57:56.999Z</time></trkpt><trkpt lat="44.14604043066407" lon="11.626477126256592"><ele>687.5</ele><time>2026-05-03T07:57:59.999Z</time></trkpt><trkpt lat="44.14601684466976" lon="11.626360874677497"><ele>688.3333333333334</ele><time>2026-05-03T07:58:02.999Z</time></trkpt><trkpt lat="44.14598770892646" lon="11.626177757751162"><ele>689.1666666666666</ele><time>2026-05-03T07:58:04.998Z</time></trkpt><trkpt lat="44.14595586690567" lon="11.626080425178618"><ele>690.0</ele><time>2026-05-03T07:58:05.998Z</time></trkpt><trkpt lat="44.1459064404677" lon="11.625964345898126"><ele>690.0</ele><time>2026-05-03T07:58:07.998Z</time></trkpt><trkpt lat="44.145888581376916" lon="11.62586529653397"><ele>690.0</ele><time>2026-05-03T07:58:09.998Z</time></trkpt><trkpt lat="44.145869207113655" lon="11.625767386061115"><ele>690.0</ele><time>2026-05-03T07:58:10.998Z</time></trkpt><trkpt lat="44.145842671864536" lon="11.6256780610724"><ele>690.0</ele><time>2026-05-03T07:58:11.998Z</time></trkpt><trkpt lat="44.14582419778461" lon="11.625593826437418"><ele>690.0</ele><time>2026-05-03T07:58:12.998Z</time></trkpt><trkpt lat="44.14580078534369" lon="11.625476127931591"><ele>690.0</ele><time>2026-05-03T07:58:14.998Z</time></trkpt><trkpt lat="44.145744076250494" lon="11.625387676882971"><ele>690.5714285714286</ele><time>2026-05-03T07:58:17Z</time></trkpt><trkpt lat="44.1457204827709" lon="11.625280369726857"><ele>691.1428571428571</ele><time>2026-05-03T07:58:19Z</time></trkpt><trkpt lat="44.1457181529295" lon="11.625183650960986"><ele>691.7142857142858</ele><time>2026-05-03T07:58:22Z</time></trkpt><trkpt lat="44.145699078444565" lon="11.625085156829442"><ele>692.2857142857142</ele><time>2026-05-03T07:58:24Z</time></trkpt><trkpt lat="44.145661880188335" lon="11.624997615886878"><ele>692.8571428571428</ele><time>2026-05-03T07:58:27Z</time></trkpt><trkpt lat="44.145609401794324" lon="11.624938003065367"><ele>693.4285714285714</ele><time>2026-05-03T07:58:33Z</time></trkpt><trkpt lat="44.14554425545372" lon="11.624890716617209"><ele>694.0</ele><time>2026-05-03T07:58:39Z</time></trkpt><trkpt lat="44.145473327913145" lon="11.624909309344952"><ele>690.6666666666667</ele><time>2026-05-03T07:58:43Z</time></trkpt><trkpt lat="44.14541413731613" lon="11.624955981832636"><ele>687.3333333333334</ele><time>2026-05-03T07:58:46Z</time></trkpt><trkpt lat="44.14534698011734" lon="11.625024387075069"><ele>684.0</ele><time>2026-05-03T07:58:50Z</time></trkpt><trkpt lat="44.14522908800119" lon="11.624975230428502"><ele>680.6666666666666</ele><time>2026-05-03T07:58:53Z</time></trkpt><trkpt lat="44.14513274546162" lon="11.624955683698802"><ele>677.3333333333333</ele><time>2026-05-03T07:58:55Z</time></trkpt><trkpt lat="44.14506367333684" lon="11.624912021917353"><ele>674.0</ele><time>2026-05-03T07:58:57Z</time></trkpt><trkpt lat="44.14498280389972" lon="11.624886651953913"><ele>674.0000000000001</ele><time>2026-05-03T07:59:00Z</time></trkpt><trkpt lat="44.14491958361373" lon="11.62482684394792"><ele>674.0</ele><time>2026-05-03T07:59:02Z</time></trkpt><trkpt lat="44.14485346123038" lon="11.624827191844133"><ele>674.0</ele><time>2026-05-03T07:59:03.999Z</time></trkpt><trkpt lat="44.14479105632322" lon="11.624785236641106"><ele>674.0</ele><time>2026-05-03T07:59:05.999Z</time></trkpt><trkpt lat="44.14472069556104" lon="11.624779772386711"><ele>674.0</ele><time>2026-05-03T07:59:08.999Z</time></trkpt><trkpt lat="44.14464816969882" lon="11.624735968731153"><ele>674.0000000000001</ele><time>2026-05-03T07:59:11.999Z</time></trkpt><trkpt lat="44.1445741115021" lon="11.624716035135746"><ele>674.0</ele><time>2026-05-03T07:59:14.999Z</time></trkpt><trkpt lat="44.144517831662455" lon="11.624782407196747"><ele>668.6666666666666</ele><time>2026-05-03T07:59:17.999Z</time></trkpt><trkpt lat="44.144469465200466" lon="11.62484097991548"><ele>663.3333333333333</ele><time>2026-05-03T07:59:20.999Z</time></trkpt><trkpt lat="44.144399486194544" lon="11.624905598907741"><ele>658.0</ele><time>2026-05-03T07:59:23.999Z</time></trkpt><trkpt lat="44.14432189824813" lon="11.624954888846231"><ele>652.6666666666666</ele><time>2026-05-03T07:59:26.999Z</time></trkpt><trkpt lat="44.14425172300392" lon="11.624988311363598"><ele>647.3333333333334</ele><time>2026-05-03T07:59:29.999Z</time></trkpt><trkpt lat="44.14417452119009" lon="11.624960815777047"><ele>642.0</ele><time>2026-05-03T07:59:32.999Z</time></trkpt><trkpt lat="44.1440964180881" lon="11.624923509631765"><ele>636.1666666666666</ele><time>2026-05-03T07:59:35.999Z</time></trkpt><trkpt lat="44.14402967464819" lon="11.62490196445046"><ele>630.3333333333334</ele><time>2026-05-03T07:59:38.999Z</time></trkpt><trkpt lat="44.14395157677277" lon="11.62487150000024"><ele>624.5</ele><time>2026-05-03T07:59:44.999Z</time></trkpt><trkpt lat="44.14387906613929" lon="11.624851260138751"><ele>618.6666666666667</ele><time>2026-05-03T07:59:51.999Z</time></trkpt><trkpt lat="44.14379229611024" lon="11.624794884639776"><ele>612.8333333333334</ele><time>2026-05-03T07:59:54.999Z</time></trkpt><trkpt lat="44.143733419887965" lon="11.624731477786797"><ele>607.0</ele><time>2026-05-03T07:59:56.999Z</time></trkpt><trkpt lat="44.14368310003253" lon="11.624675833298953"><ele>606.9999999999999</ele><time>2026-05-03T07:59:58.999Z</time></trkpt><trkpt lat="44.143612080627335" lon="11.624602848622029"><ele>607.0</ele><time>2026-05-03T08:00:01.999Z</time></trkpt><trkpt lat="44.143555859883435" lon="11.624556611200205"><ele>607.0</ele><time>2026-05-03T08:00:04.999Z</time></trkpt><trkpt lat="44.14350104645342" lon="11.624504730520082"><ele>607.0</ele><time>2026-05-03T08:00:06.999Z</time></trkpt><trkpt lat="44.14347476651491" lon="11.624412233846899"><ele>607.0</ele><time>2026-05-03T08:00:10.999Z</time></trkpt><trkpt lat="44.14345718113848" lon="11.624297427616893"><ele>606.9999999999999</ele><time>2026-05-03T08:00:13.998Z</time></trkpt><trkpt lat="44.14341032657597" lon="11.624226780484488"><ele>607.0</ele><time>2026-05-03T08:00:15.998Z</time></trkpt><trkpt lat="44.1432107509076" lon="11.624028039150007"><ele>603.3333333333334</ele><time>2026-05-03T08:00:18.998Z</time></trkpt><trkpt lat="44.143097184003615" lon="11.624002195801717"><ele>599.6666666666667</ele><time>2026-05-03T08:00:20.998Z</time></trkpt><trkpt lat="44.14301890441985" lon="11.623975449930882"><ele>596.0</ele><time>2026-05-03T08:00:23Z</time></trkpt><trkpt lat="44.14294939838833" lon="11.623944619286915"><ele>592.3333333333334</ele><time>2026-05-03T08:00:25Z</time></trkpt><trkpt lat="44.14289673023089" lon="11.623865761163923"><ele>588.6666666666666</ele><time>2026-05-03T08:00:27Z</time></trkpt><trkpt lat="44.14285991431834" lon="11.623738475593258"><ele>585.0</ele><time>2026-05-03T08:00:29Z</time></trkpt><trkpt lat="44.14281466897835" lon="11.623595210560213"><ele>585.0</ele><time>2026-05-03T08:00:31Z</time></trkpt><trkpt lat="44.14278862052694" lon="11.623501427112688"><ele>585.0</ele><time>2026-05-03T08:00:33Z</time></trkpt><trkpt lat="44.14273975433607" lon="11.623430104815228"><ele>585.0</ele><time>2026-05-03T08:00:36Z</time></trkpt><trkpt lat="44.14267296983703" lon="11.6234411139392"><ele>585.0</ele><time>2026-05-03T08:00:40Z</time></trkpt><trkpt lat="44.14260567855437" lon="11.623490984004873"><ele>585.0</ele><time>2026-05-03T08:00:43Z</time></trkpt><trkpt lat="44.14250355173215" lon="11.623491564519203"><ele>585.0</ele><time>2026-05-03T08:00:46Z</time></trkpt><trkpt lat="44.14242319445165" lon="11.623498425283595"><ele>580.8</ele><time>2026-05-03T08:00:47Z</time></trkpt><trkpt lat="44.142364945938915" lon="11.623566678719694"><ele>576.6</ele><time>2026-05-03T08:00:50Z</time></trkpt><trkpt lat="44.142295319442574" lon="11.623573370589721"><ele>572.4</ele><time>2026-05-03T08:00:52Z</time></trkpt><trkpt lat="44.14219515056014" lon="11.623566204517125"><ele>568.2</ele><time>2026-05-03T08:00:54Z</time></trkpt><trkpt lat="44.142104998444104" lon="11.623495021142945"><ele>564.0</ele><time>2026-05-03T08:00:56Z</time></trkpt><trkpt lat="44.14201900708981" lon="11.623420919595118"><ele>564.0</ele><time>2026-05-03T08:00:58Z</time></trkpt><trkpt lat="44.141989937679895" lon="11.623338687210914"><ele>564.0</ele><time>2026-05-03T08:01:00Z</time></trkpt><trkpt lat="44.141897821036686" lon="11.623368978209706"><ele>564.0</ele><time>2026-05-03T08:01:05Z</time></trkpt><trkpt lat="44.14183646896367" lon="11.623404529601578"><ele>564.0</ele><time>2026-05-03T08:01:07Z</time></trkpt><trkpt lat="44.14179276482355" lon="11.623507614917045"><ele>564.0</ele><time>2026-05-03T08:01:09Z</time></trkpt><trkpt lat="44.14175823599439" lon="11.623593181493101"><ele>564.0</ele><time>2026-05-03T08:01:12.999Z</time></trkpt><trkpt lat="44.141776262313186" lon="11.623707728479733"><ele>564.6666666666666</ele><time>2026-05-03T08:01:14.999Z</time></trkpt><trkpt lat="44.14184595976636" lon="11.623809865628528"><ele>565.3333333333334</ele><time>2026-05-03T08:01:16.999Z</time></trkpt><trkpt lat="44.14180777489027" lon="11.623895062998848"><ele>566.0</ele><time>2026-05-03T08:01:20.999Z</time></trkpt><trkpt lat="44.14174469053325" lon="11.623905190410008"><ele>566.6666666666667</ele><time>2026-05-03T08:01:22.999Z</time></trkpt><trkpt lat="44.141679335361836" lon="11.623871010340618"><ele>567.3333333333334</ele><time>2026-05-03T08:01:25.999Z</time></trkpt><trkpt lat="44.14161545862306" lon="11.623838775582705"><ele>568.0</ele><time>2026-05-03T08:01:27.999Z</time></trkpt><trkpt lat="44.14151262506601" lon="11.623818145927638"><ele>569.8</ele><time>2026-05-03T08:01:30.999Z</time></trkpt><trkpt lat="44.14147411848074" lon="11.623707730112761"><ele>571.5999999999999</ele><time>2026-05-03T08:01:31.999Z</time></trkpt><trkpt lat="44.1414626427614" lon="11.623533058424341"><ele>573.4000000000001</ele><time>2026-05-03T08:01:32.999Z</time></trkpt><trkpt lat="44.141439335126094" lon="11.623411021408247"><ele>575.2</ele><time>2026-05-03T08:01:33.999Z</time></trkpt><trkpt lat="44.14144206562443" lon="11.62324662030744"><ele>577.0</ele><time>2026-05-03T08:01:35.999Z</time></trkpt><trkpt lat="44.14145249680198" lon="11.622913976101257"><ele>577.0</ele><time>2026-05-03T08:01:37.999Z</time></trkpt><trkpt lat="44.14136856807884" lon="11.622925215243235"><ele>577.0</ele><time>2026-05-03T08:01:38.999Z</time></trkpt><trkpt lat="44.141335333179384" lon="11.622827569583292"><ele>577.0</ele><time>2026-05-03T08:01:39.999Z</time></trkpt><trkpt lat="44.14133722807142" lon="11.622701477939046"><ele>577.0</ele><time>2026-05-03T08:01:41.999Z</time></trkpt><trkpt lat="44.141376129773356" lon="11.622632233911212"><ele>577.0</ele><time>2026-05-03T08:01:42.999Z</time></trkpt><trkpt lat="44.14145995084847" lon="11.622534290618514"><ele>577.0</ele><time>2026-05-03T08:01:44.999Z</time></trkpt><trkpt lat="44.14149069463358" lon="11.622445525286905"><ele>575.8333333333334</ele><time>2026-05-03T08:01:46.999Z</time></trkpt><trkpt lat="44.141435917558745" lon="11.622293494934146"><ele>574.6666666666667</ele><time>2026-05-03T08:01:48.999Z</time></trkpt><trkpt lat="44.141400553419984" lon="11.622203018246147"><ele>573.5</ele><time>2026-05-03T08:01:49.999Z</time></trkpt><trkpt lat="44.141395753056166" lon="11.622115474688623"><ele>572.3333333333334</ele><time>2026-05-03T08:01:50.999Z</time></trkpt><trkpt lat="44.141423319132585" lon="11.622010765932256"><ele>571.1666666666666</ele><time>2026-05-03T08:01:51.999Z</time></trkpt><trkpt lat="44.141457797860376" lon="11.621888312146478"><ele>570.0</ele><time>2026-05-03T08:01:53.999Z</time></trkpt><trkpt lat="44.14148009313588" lon="11.62170492668674"><ele>569.6666666666666</ele><time>2026-05-03T08:01:55.999Z</time></trkpt><trkpt lat="44.14151271299947" lon="11.621558500868426"><ele>569.3333333333334</ele><time>2026-05-03T08:01:57.999Z</time></trkpt><trkpt lat="44.14153631219202" lon="11.621442450096982"><ele>569.0</ele><time>2026-05-03T08:01:58.999Z</time></trkpt><trkpt lat="44.14155925719799" lon="11.621340686950024"><ele>568.6666666666667</ele><time>2026-05-03T08:01:59.999Z</time></trkpt><trkpt lat="44.14157393720029" lon="11.621235408767921"><ele>568.3333333333334</ele><time>2026-05-03T08:02:00.999Z</time></trkpt><trkpt lat="44.14157744611504" lon="11.621147709562496"><ele>568.0</ele><time>2026-05-03T08:02:01.999Z</time></trkpt><trkpt lat="44.14160888135025" lon="11.62099018689839"><ele>563.6666666666667</ele><time>2026-05-03T08:02:03.999Z</time></trkpt><trkpt lat="44.141661859053514" lon="11.620938541123632"><ele>559.3333333333334</ele><time>2026-05-03T08:02:04.999Z</time></trkpt><trkpt lat="44.141637680296505" lon="11.620838531643301"><ele>555.0</ele><time>2026-05-03T08:02:08.999Z</time></trkpt><trkpt lat="44.14159408313875" lon="11.620769746327928"><ele>550.6666666666666</ele><time>2026-05-03T08:02:09.999Z</time></trkpt><trkpt lat="44.14159963104397" lon="11.62067433737486"><ele>546.3333333333333</ele><time>2026-05-03T08:02:10.999Z</time></trkpt><trkpt lat="44.141654778496914" lon="11.620518248460002"><ele>542.0</ele><time>2026-05-03T08:02:12.999Z</time></trkpt><trkpt lat="44.14169229868558" lon="11.620417088766809"><ele>541.5</ele><time>2026-05-03T08:02:13.999Z</time></trkpt><trkpt lat="44.14171927821648" lon="11.620305670204324"><ele>541.0</ele><time>2026-05-03T08:02:14.999Z</time></trkpt><trkpt lat="44.14177929315394" lon="11.620220024877709"><ele>540.5</ele><time>2026-05-03T08:02:16.998Z</time></trkpt><trkpt lat="44.14178377498797" lon="11.620131877235117"><ele>540.0</ele><time>2026-05-03T08:02:21.998Z</time></trkpt><trkpt lat="44.141699028842595" lon="11.620164107909565"><ele>539.5</ele><time>2026-05-03T08:02:40Z</time></trkpt><trkpt lat="44.14161540069684" lon="11.62018096615981"><ele>539.0</ele><time>2026-05-03T08:02:41Z</time></trkpt><trkpt lat="44.14152945215744" lon="11.620166669585965"><ele>539.0</ele><time>2026-05-03T08:02:42Z</time></trkpt><trkpt lat="44.14145483875787" lon="11.620143690686515"><ele>539.0</ele><time>2026-05-03T08:02:43Z</time></trkpt><trkpt lat="44.14136843871491" lon="11.620095323618012"><ele>539.0</ele><time>2026-05-03T08:02:44Z</time></trkpt><trkpt lat="44.14126838562233" lon="11.62005000086039"><ele>539.0</ele><time>2026-05-03T08:02:45Z</time></trkpt><trkpt lat="44.14117641213281" lon="11.619991413838878"><ele>539.0</ele><time>2026-05-03T08:02:46Z</time></trkpt><trkpt lat="44.14107908531023" lon="11.619932104595268"><ele>539.0</ele><time>2026-05-03T08:02:47Z</time></trkpt><trkpt lat="44.14098151660155" lon="11.61992303436408"><ele>539.0</ele><time>2026-05-03T08:02:48Z</time></trkpt><trkpt lat="44.14086804803351" lon="11.619894180734212"><ele>539.0</ele><time>2026-05-03T08:02:49Z</time></trkpt><trkpt lat="44.14073675432348" lon="11.619863076485574"><ele>539.0</ele><time>2026-05-03T08:02:50Z</time></trkpt><trkpt lat="44.1406204713955" lon="11.619823466796678"><ele>538.8</ele><time>2026-05-03T08:02:51Z</time></trkpt><trkpt lat="44.14052024971866" lon="11.61979473733693"><ele>538.5999999999999</ele><time>2026-05-03T08:02:52Z</time></trkpt><trkpt lat="44.14043916304975" lon="11.619745883242016"><ele>538.4</ele><time>2026-05-03T08:02:53Z</time></trkpt><trkpt lat="44.1403491350044" lon="11.619698521184077"><ele>538.1999999999999</ele><time>2026-05-03T08:02:54Z</time></trkpt><trkpt lat="44.14026174490896" lon="11.61964134902591"><ele>538.0</ele><time>2026-05-03T08:02:55Z</time></trkpt><trkpt lat="44.14017282375478" lon="11.619591316246257"><ele>538.8</ele><time>2026-05-03T08:02:56Z</time></trkpt><trkpt lat="44.1400941990363" lon="11.619478912757788"><ele>539.5999999999999</ele><time>2026-05-03T08:02:57Z</time></trkpt><trkpt lat="44.14001839863208" lon="11.619388323919324"><ele>540.4000000000001</ele><time>2026-05-03T08:02:58Z</time></trkpt><trkpt lat="44.13995149134974" lon="11.619321852880336"><ele>541.2</ele><time>2026-05-03T08:02:59Z</time></trkpt><trkpt lat="44.13987827693872" lon="11.619274676534133"><ele>542.0</ele><time>2026-05-03T08:03:00Z</time></trkpt><trkpt lat="44.139806972122116" lon="11.619232603604047"><ele>542.4</ele><time>2026-05-03T08:03:01Z</time></trkpt><trkpt lat="44.139746043690344" lon="11.619206286344895"><ele>542.8000000000001</ele><time>2026-05-03T08:03:02Z</time></trkpt><trkpt lat="44.13964663270245" lon="11.619242332313297"><ele>543.2</ele><time>2026-05-03T08:03:04Z</time></trkpt><trkpt lat="44.139541894573945" lon="11.619174645664081"><ele>543.6</ele><time>2026-05-03T08:03:07Z</time></trkpt><trkpt lat="44.13945853972404" lon="11.619160488819073"><ele>544.0</ele><time>2026-05-03T08:03:09Z</time></trkpt><trkpt lat="44.13942790260048" lon="11.61903817786676"><ele>544.0</ele><time>2026-05-03T08:03:12Z</time></trkpt><trkpt lat="44.13936547833498" lon="11.61897622500843"><ele>544.0</ele><time>2026-05-03T08:03:14Z</time></trkpt><trkpt lat="44.13928233195554" lon="11.618893240328566"><ele>544.0</ele><time>2026-05-03T08:03:16.999Z</time></trkpt><trkpt lat="44.1391945344336" lon="11.618839785490797"><ele>544.0</ele><time>2026-05-03T08:03:18.999Z</time></trkpt><trkpt lat="44.13911085550687" lon="11.618809422246176"><ele>544.0</ele><time>2026-05-03T08:03:20.999Z</time></trkpt><trkpt lat="44.13903939153053" lon="11.61873671733974"><ele>545.8333333333334</ele><time>2026-05-03T08:03:22.999Z</time></trkpt><trkpt lat="44.13893210261769" lon="11.618681400775158"><ele>547.6666666666667</ele><time>2026-05-03T08:03:24.999Z</time></trkpt><trkpt lat="44.1388577681346" lon="11.618645260199294"><ele>549.5</ele><time>2026-05-03T08:03:25.999Z</time></trkpt><trkpt lat="44.138784662136935" lon="11.61860275664079"><ele>551.3333333333334</ele><time>2026-05-03T08:03:26.999Z</time></trkpt><trkpt lat="44.138725572929374" lon="11.618568630099302"><ele>553.1666666666666</ele><time>2026-05-03T08:03:27.999Z</time></trkpt><trkpt lat="44.13862312151762" lon="11.618518100419145"><ele>555.0</ele><time>2026-05-03T08:03:29.999Z</time></trkpt><trkpt lat="44.1385777604618" lon="11.61845689336237"><ele>555.0</ele><time>2026-05-03T08:03:30.999Z</time></trkpt><trkpt lat="44.13847124078525" lon="11.618379889474896"><ele>555.0</ele><time>2026-05-03T08:03:32.999Z</time></trkpt><trkpt lat="44.138406280669855" lon="11.618336942681626"><ele>555.0</ele><time>2026-05-03T08:03:33.999Z</time></trkpt><trkpt lat="44.13833279932688" lon="11.61828680185567"><ele>555.0</ele><time>2026-05-03T08:03:34.999Z</time></trkpt><trkpt lat="44.13824538196409" lon="11.618249201008174"><ele>555.0</ele><time>2026-05-03T08:03:35.999Z</time></trkpt><trkpt lat="44.1381742126755" lon="11.61821025407296"><ele>555.0</ele><time>2026-05-03T08:03:36.999Z</time></trkpt><trkpt lat="44.13811073048477" lon="11.61816777909167"><ele>555.3333333333334</ele><time>2026-05-03T08:03:37.999Z</time></trkpt><trkpt lat="44.138050252761246" lon="11.618115636731211"><ele>555.6666666666666</ele><time>2026-05-03T08:03:38.999Z</time></trkpt><trkpt lat="44.13797982047963" lon="11.618070048651584"><ele>556.0</ele><time>2026-05-03T08:03:39.999Z</time></trkpt><trkpt lat="44.137910532469476" lon="11.618036300471427"><ele>556.3333333333333</ele><time>2026-05-03T08:03:40.999Z</time></trkpt><trkpt lat="44.137842271669804" lon="11.61800440219432"><ele>556.6666666666666</ele><time>2026-05-03T08:03:41.999Z</time></trkpt><trkpt lat="44.13776488863245" lon="11.617973838534162"><ele>557.0</ele><time>2026-05-03T08:03:42.999Z</time></trkpt><trkpt lat="44.13767631099428" lon="11.617938411086303"><ele>557.0</ele><time>2026-05-03T08:03:43.999Z</time></trkpt><trkpt lat="44.137603059581146" lon="11.617885507587577"><ele>557.0</ele><time>2026-05-03T08:03:44.999Z</time></trkpt><trkpt lat="44.13753449421941" lon="11.617856168764936"><ele>557.0</ele><time>2026-05-03T08:03:45.999Z</time></trkpt><trkpt lat="44.13746078064021" lon="11.617817992144925"><ele>557.0</ele><time>2026-05-03T08:03:46.999Z</time></trkpt><trkpt lat="44.13738143477103" lon="11.617767481182385"><ele>557.0</ele><time>2026-05-03T08:03:47.999Z</time></trkpt><trkpt lat="44.13732264132028" lon="11.61773316185702"><ele>557.0</ele><time>2026-05-03T08:03:48.999Z</time></trkpt><trkpt lat="44.13725148473062" lon="11.617697556112507"><ele>559.0</ele><time>2026-05-03T08:03:49.999Z</time></trkpt><trkpt lat="44.13715798943072" lon="11.617668870073588"><ele>561.0</ele><time>2026-05-03T08:03:50.999Z</time></trkpt><trkpt lat="44.137082909913794" lon="11.617696700201076"><ele>563.0</ele><time>2026-05-03T08:03:51.999Z</time></trkpt><trkpt lat="44.13699848921729" lon="11.617688594244536"><ele>565.0</ele><time>2026-05-03T08:03:52.999Z</time></trkpt><trkpt lat="44.136907742441636" lon="11.617699378572842"><ele>567.0</ele><time>2026-05-03T08:03:53.999Z</time></trkpt><trkpt lat="44.13682629881531" lon="11.617693078563828"><ele>569.0</ele><time>2026-05-03T08:03:54.999Z</time></trkpt><trkpt lat="44.136762203657376" lon="11.617691906342282"><ele>569.0</ele><time>2026-05-03T08:03:55.999Z</time></trkpt><trkpt lat="44.1366301646907" lon="11.617679789582148"><ele>569.0</ele><time>2026-05-03T08:03:57.999Z</time></trkpt><trkpt lat="44.13652374276369" lon="11.617660313991058"><ele>569.0</ele><time>2026-05-03T08:03:59.999Z</time></trkpt><trkpt lat="44.13643070141002" lon="11.61764224566659"><ele>569.0</ele><time>2026-05-03T08:04:01.999Z</time></trkpt><trkpt lat="44.1363509067806" lon="11.61759537071592"><ele>569.0</ele><time>2026-05-03T08:04:03.999Z</time></trkpt><trkpt lat="44.13632276813917" lon="11.617477589883539"><ele>567.3333333333333</ele><time>2026-05-03T08:04:05.999Z</time></trkpt><trkpt lat="44.1362789999174" lon="11.617391802330848"><ele>565.6666666666666</ele><time>2026-05-03T08:04:08.999Z</time></trkpt><trkpt lat="44.136210215661436" lon="11.617354344862651"><ele>564.0</ele><time>2026-05-03T08:04:12.999Z</time></trkpt><trkpt lat="44.1361002286039" lon="11.61734591231966"><ele>562.3333333333334</ele><time>2026-05-03T08:04:14.999Z</time></trkpt><trkpt lat="44.13604023323388" lon="11.617294396468546"><ele>560.6666666666667</ele><time>2026-05-03T08:04:15.999Z</time></trkpt><trkpt lat="44.1359541777603" lon="11.617266162083734"><ele>559.0</ele><time>2026-05-03T08:04:16.999Z</time></trkpt><trkpt lat="44.135893167306016" lon="11.617204428623939"><ele>559.0</ele><time>2026-05-03T08:04:17.999Z</time></trkpt><trkpt lat="44.13581787474477" lon="11.617151185479608"><ele>559.0</ele><time>2026-05-03T08:04:18.999Z</time></trkpt><trkpt lat="44.135758187977245" lon="11.617105311492667"><ele>559.0</ele><time>2026-05-03T08:04:19.999Z</time></trkpt><trkpt lat="44.13561955873929" lon="11.617078830524111"><ele>559.0</ele><time>2026-05-03T08:04:21.998Z</time></trkpt><trkpt lat="44.135505172016764" lon="11.617038108873988"><ele>559.0</ele><time>2026-05-03T08:04:23.998Z</time></trkpt><trkpt lat="44.13539501401383" lon="11.616985132169175"><ele>562.5</ele><time>2026-05-03T08:04:25.998Z</time></trkpt><trkpt lat="44.1353227990553" lon="11.616932535503974"><ele>566.0</ele><time>2026-05-03T08:04:27.998Z</time></trkpt><trkpt lat="44.135272945035524" lon="11.616868605043079"><ele>569.5</ele><time>2026-05-03T08:04:30.998Z</time></trkpt><trkpt lat="44.135222634962936" lon="11.61679267001814"><ele>573.0</ele><time>2026-05-03T08:04:35Z</time></trkpt><trkpt lat="44.13519991685499" lon="11.616686450436404"><ele>576.5</ele><time>2026-05-03T08:04:37Z</time></trkpt><trkpt lat="44.13522872349004" lon="11.616587669417614"><ele>580.0</ele><time>2026-05-03T08:04:39Z</time></trkpt><trkpt lat="44.13525573537466" lon="11.616464387477496"><ele>580.0</ele><time>2026-05-03T08:04:41Z</time></trkpt><trkpt lat="44.13526229444673" lon="11.61634278151586"><ele>580.0</ele><time>2026-05-03T08:04:44Z</time></trkpt><trkpt lat="44.13521295523043" lon="11.616270230140987"><ele>580.0</ele><time>2026-05-03T08:04:47Z</time></trkpt><trkpt lat="44.13519244516971" lon="11.616182677282282"><ele>580.0</ele><time>2026-05-03T08:04:49Z</time></trkpt><trkpt lat="44.13510427827035" lon="11.616190313883537"><ele>580.0</ele><time>2026-05-03T08:04:52Z</time></trkpt><trkpt lat="44.13499202979699" lon="11.616152370723078"><ele>580.0</ele><time>2026-05-03T08:04:54Z</time></trkpt><trkpt lat="44.13490101290571" lon="11.616094509410154"><ele>582.6666666666667</ele><time>2026-05-03T08:04:56Z</time></trkpt><trkpt lat="44.13485765760392" lon="11.616158646078912"><ele>585.3333333333334</ele><time>2026-05-03T08:04:58Z</time></trkpt><trkpt lat="44.134796192787974" lon="11.616185507290337"><ele>588.0</ele><time>2026-05-03T08:05:00Z</time></trkpt><trkpt lat="44.134687096454805" lon="11.616163392749066"><ele>590.6666666666666</ele><time>2026-05-03T08:05:02Z</time></trkpt><trkpt lat="44.13461475205967" lon="11.616162106777095"><ele>593.3333333333333</ele><time>2026-05-03T08:05:03Z</time></trkpt><trkpt lat="44.13452407723543" lon="11.616171742042352"><ele>596.0</ele><time>2026-05-03T08:05:05Z</time></trkpt><trkpt lat="44.13444969005541" lon="11.616283288361979"><ele>596.0</ele><time>2026-05-03T08:05:07Z</time></trkpt><trkpt lat="44.13442508180789" lon="11.61640968745211"><ele>596.0</ele><time>2026-05-03T08:05:09Z</time></trkpt><trkpt lat="44.13435852971119" lon="11.616459367765849"><ele>596.0</ele><time>2026-05-03T08:05:11Z</time></trkpt><trkpt lat="44.134294906399646" lon="11.616442907088697"><ele>596.0</ele><time>2026-05-03T08:05:13Z</time></trkpt><trkpt lat="44.13423321803119" lon="11.616397476753551"><ele>596.0</ele><time>2026-05-03T08:05:14Z</time></trkpt><trkpt lat="44.134172260090466" lon="11.61636787010202"><ele>596.0</ele><time>2026-05-03T08:05:15Z</time></trkpt><trkpt lat="44.13410439010651" lon="11.61631376725309"><ele>596.0</ele><time>2026-05-03T08:05:16Z</time></trkpt><trkpt lat="44.13403254391089" lon="11.616247312339748"><ele>596.6</ele><time>2026-05-03T08:05:17Z</time></trkpt><trkpt lat="44.13394223220254" lon="11.616183685660332"><ele>597.2</ele><time>2026-05-03T08:05:18Z</time></trkpt><trkpt lat="44.133839227005126" lon="11.616150694880393"><ele>597.8</ele><time>2026-05-03T08:05:19Z</time></trkpt><trkpt lat="44.133742712490296" lon="11.616121719878596"><ele>598.4</ele><time>2026-05-03T08:05:20Z</time></trkpt><trkpt lat="44.133642889816265" lon="11.616109995610163"><ele>599.0</ele><time>2026-05-03T08:05:20.999Z</time></trkpt><trkpt lat="44.13355595497355" lon="11.616100154023503"><ele>603.0</ele><time>2026-05-03T08:05:21.999Z</time></trkpt><trkpt lat="44.133488490209594" lon="11.616083787287542"><ele>607.0</ele><time>2026-05-03T08:05:22.999Z</time></trkpt><trkpt lat="44.13335878514652" lon="11.616064551697201"><ele>611.0</ele><time>2026-05-03T08:05:24.999Z</time></trkpt><trkpt lat="44.13328254525042" lon="11.616068155629234"><ele>615.0</ele><time>2026-05-03T08:05:25.999Z</time></trkpt><trkpt lat="44.13319310438383" lon="11.616079815692073"><ele>619.0</ele><time>2026-05-03T08:05:26.999Z</time></trkpt><trkpt lat="44.13310378317525" lon="11.616103020849197"><ele>618.3333333333334</ele><time>2026-05-03T08:05:27.999Z</time></trkpt><trkpt lat="44.13301841333963" lon="11.616126638186017"><ele>617.6666666666667</ele><time>2026-05-03T08:05:28.999Z</time></trkpt><trkpt lat="44.132941442340645" lon="11.616161918905357"><ele>617.0</ele><time>2026-05-03T08:05:29.999Z</time></trkpt><trkpt lat="44.13286733670163" lon="11.616257929521591"><ele>616.3333333333334</ele><time>2026-05-03T08:05:31.999Z</time></trkpt><trkpt lat="44.13284626585197" lon="11.616348007011917"><ele>615.6666666666666</ele><time>2026-05-03T08:05:32.999Z</time></trkpt><trkpt lat="44.13281644043103" lon="11.616433020843147"><ele>615.0</ele><time>2026-05-03T08:05:33.999Z</time></trkpt><trkpt lat="44.1327039308904" lon="11.616491940648709"><ele>615.0</ele><time>2026-05-03T08:05:35.999Z</time></trkpt><trkpt lat="44.13263325831198" lon="11.616510734216936"><ele>615.0</ele><time>2026-05-03T08:05:36.999Z</time></trkpt><trkpt lat="44.13254537073471" lon="11.616505032556788"><ele>615.0</ele><time>2026-05-03T08:05:37.999Z</time></trkpt><trkpt lat="44.1324562787905" lon="11.616476846400648"><ele>615.0</ele><time>2026-05-03T08:05:38.999Z</time></trkpt><trkpt lat="44.132382630849875" lon="11.61648383699511"><ele>615.0</ele><time>2026-05-03T08:05:39.999Z</time></trkpt><trkpt lat="44.13230025475675" lon="11.616537594950707"><ele>615.0</ele><time>2026-05-03T08:05:40.999Z</time></trkpt><trkpt lat="44.132238328009926" lon="11.616601796463616"><ele>614.6</ele><time>2026-05-03T08:05:41.999Z</time></trkpt><trkpt lat="44.13218460487413" lon="11.616711833577417"><ele>614.2</ele><time>2026-05-03T08:05:43.999Z</time></trkpt><trkpt lat="44.13210085156989" lon="11.616707169529665"><ele>613.8</ele><time>2026-05-03T08:05:45.999Z</time></trkpt><trkpt lat="44.13205697983547" lon="11.616613275042708"><ele>613.4</ele><time>2026-05-03T08:05:46.999Z</time></trkpt><trkpt lat="44.132022155944796" lon="11.616449853871169"><ele>613.0</ele><time>2026-05-03T08:05:47.999Z</time></trkpt><trkpt lat="44.1319810953537" lon="11.616297716073083"><ele>613.0</ele><time>2026-05-03T08:05:48.999Z</time></trkpt><trkpt lat="44.13193346681004" lon="11.616176682037999"><ele>613.0</ele><time>2026-05-03T08:05:49.999Z</time></trkpt><trkpt lat="44.13188857982006" lon="11.616073233816019"><ele>613.0</ele><time>2026-05-03T08:05:50.999Z</time></trkpt><trkpt lat="44.13182569349162" lon="11.615993078454672"><ele>613.0</ele><time>2026-05-03T08:05:51.999Z</time></trkpt><trkpt lat="44.131759535318956" lon="11.615930428874831"><ele>613.0</ele><time>2026-05-03T08:05:52.999Z</time></trkpt><trkpt lat="44.131700820108065" lon="11.615887342683488"><ele>613.0</ele><time>2026-05-03T08:05:53.999Z</time></trkpt><trkpt lat="44.13159392647104" lon="11.615828130404969"><ele>612.3333333333334</ele><time>2026-05-03T08:05:55.999Z</time></trkpt><trkpt lat="44.13147181377796" lon="11.61578085280491"><ele>611.6666666666667</ele><time>2026-05-03T08:05:57.999Z</time></trkpt><trkpt lat="44.13140814601758" lon="11.615767024575053"><ele>611.0</ele><time>2026-05-03T08:05:58.999Z</time></trkpt><trkpt lat="44.131304166427455" lon="11.615777951299588"><ele>610.3333333333334</ele><time>2026-05-03T08:06:00.999Z</time></trkpt><trkpt lat="44.13123706781887" lon="11.615767044654024"><ele>609.6666666666666</ele><time>2026-05-03T08:06:06.999Z</time></trkpt><trkpt lat="44.13116187699319" lon="11.615754063917786"><ele>609.0</ele><time>2026-05-03T08:06:08.999Z</time></trkpt><trkpt lat="44.131096885279604" lon="11.615755198387156"><ele>609.0</ele><time>2026-05-03T08:06:10.999Z</time></trkpt><trkpt lat="44.131067603886414" lon="11.61566618178435"><ele>609.0</ele><time>2026-05-03T08:06:12.999Z</time></trkpt><trkpt lat="44.13104056810628" lon="11.615547071829512"><ele>609.0</ele><time>2026-05-03T08:06:14.999Z</time></trkpt><trkpt lat="44.13101686108371" lon="11.615429762309372"><ele>609.0</ele><time>2026-05-03T08:06:16.999Z</time></trkpt><trkpt lat="44.13097560531492" lon="11.615345130582316"><ele>609.0</ele><time>2026-05-03T08:06:18.999Z</time></trkpt><trkpt lat="44.130929232061575" lon="11.61526538950309"><ele>609.0</ele><time>2026-05-03T08:06:20.999Z</time></trkpt><trkpt lat="44.13085480666758" lon="11.615172132810645"><ele>608.8</ele><time>2026-05-03T08:06:22.999Z</time></trkpt><trkpt lat="44.1307905258797" lon="11.615120531206635"><ele>608.5999999999999</ele><time>2026-05-03T08:06:24.999Z</time></trkpt><trkpt lat="44.13070262077825" lon="11.615033350269227"><ele>608.4</ele><time>2026-05-03T08:06:26.999Z</time></trkpt><trkpt lat="44.13061166001484" lon="11.614970097814982"><ele>608.1999999999999</ele><time>2026-05-03T08:06:28.998Z</time></trkpt><trkpt lat="44.130541218459555" lon="11.614920446277624"><ele>608.0</ele><time>2026-05-03T08:06:30.998Z</time></trkpt><trkpt lat="44.13045159825012" lon="11.614921403856076"><ele>608.0</ele><time>2026-05-03T08:06:33.998Z</time></trkpt><trkpt lat="44.13037938881519" lon="11.614924978122037"><ele>608.0</ele><time>2026-05-03T08:06:36.998Z</time></trkpt><trkpt lat="44.130472082562946" lon="11.614867109535053"><ele>608.0</ele><time>2026-05-03T08:06:54Z</time></trkpt><trkpt lat="44.130549948319334" lon="11.61488414927684"><ele>608.0</ele><time>2026-05-03T08:06:55Z</time></trkpt><trkpt lat="44.13062712775452" lon="11.614912080562943"><ele>608.0</ele><time>2026-05-03T08:06:56Z</time></trkpt><trkpt lat="44.13071065225454" lon="11.614998841276089"><ele>608.0</ele><time>2026-05-03T08:06:57Z</time></trkpt><trkpt lat="44.13079122965774" lon="11.615098185082593"><ele>608.1999999999999</ele><time>2026-05-03T08:06:58Z</time></trkpt><trkpt lat="44.1308767912042" lon="11.615205312704799"><ele>608.4</ele><time>2026-05-03T08:06:59Z</time></trkpt><trkpt lat="44.130960106220854" lon="11.61531828016832"><ele>608.5999999999999</ele><time>2026-05-03T08:07:00Z</time></trkpt><trkpt lat="44.13101572768893" lon="11.61541849536062"><ele>608.8</ele><time>2026-05-03T08:07:01Z</time></trkpt><trkpt lat="44.131043743177855" lon="11.615521458390758"><ele>609.0</ele><time>2026-05-03T08:07:02Z</time></trkpt><trkpt lat="44.13105979993604" lon="11.615618655049992"><ele>609.0</ele><time>2026-05-03T08:07:03Z</time></trkpt><trkpt lat="44.1310842249426" lon="11.615707244309508"><ele>609.0</ele><time>2026-05-03T08:07:04Z</time></trkpt><trkpt lat="44.13113855171888" lon="11.615781680625501"><ele>609.0</ele><time>2026-05-03T08:07:06Z</time></trkpt><trkpt lat="44.13121851107641" lon="11.615728239114903"><ele>609.0</ele><time>2026-05-03T08:07:08Z</time></trkpt><trkpt lat="44.13121982129017" lon="11.615567473181871"><ele>609.0</ele><time>2026-05-03T08:07:10Z</time></trkpt><trkpt lat="44.131185507949596" lon="11.615476592957254"><ele>609.0</ele><time>2026-05-03T08:07:11Z</time></trkpt><trkpt lat="44.13116071861957" lon="11.615374193086804"><ele>611.8</ele><time>2026-05-03T08:07:12Z</time></trkpt><trkpt lat="44.13114331282089" lon="11.615238686099703"><ele>614.5999999999999</ele><time>2026-05-03T08:07:13Z</time></trkpt><trkpt lat="44.13112827852168" lon="11.615102679946519"><ele>617.4</ele><time>2026-05-03T08:07:14Z</time></trkpt><trkpt lat="44.131095694434514" lon="11.614976097883645"><ele>620.1999999999999</ele><time>2026-05-03T08:07:15Z</time></trkpt><trkpt lat="44.13105615858416" lon="11.614869584808199"><ele>623.0</ele><time>2026-05-03T08:07:16Z</time></trkpt><trkpt lat="44.1310068096852" lon="11.614787415800906"><ele>623.0</ele><time>2026-05-03T08:07:17Z</time></trkpt><trkpt lat="44.13093622805037" lon="11.614733992000575"><ele>623.0</ele><time>2026-05-03T08:07:18Z</time></trkpt><trkpt lat="44.13085806838036" lon="11.614675769760751"><ele>623.0</ele><time>2026-05-03T08:07:19Z</time></trkpt><trkpt lat="44.130789558432525" lon="11.614628108374278"><ele>623.0</ele><time>2026-05-03T08:07:20Z</time></trkpt><trkpt lat="44.130726518165616" lon="11.6145831342672"><ele>623.0</ele><time>2026-05-03T08:07:21Z</time></trkpt><trkpt lat="44.1306642568733" lon="11.614540722835105"><ele>623.0</ele><time>2026-05-03T08:07:22Z</time></trkpt><trkpt lat="44.13059776082703" lon="11.614512186460939"><ele>624.3333333333333</ele><time>2026-05-03T08:07:23Z</time></trkpt><trkpt lat="44.13053395102722" lon="11.614473541719484"><ele>625.6666666666666</ele><time>2026-05-03T08:07:24Z</time></trkpt><trkpt lat="44.13046401621154" lon="11.61443518733591"><ele>627.0</ele><time>2026-05-03T08:07:25Z</time></trkpt><trkpt lat="44.13039061192391" lon="11.614385992464426"><ele>628.3333333333334</ele><time>2026-05-03T08:07:26Z</time></trkpt><trkpt lat="44.1303288078846" lon="11.614323418893278"><ele>629.6666666666667</ele><time>2026-05-03T08:07:27Z</time></trkpt><trkpt lat="44.13027693988954" lon="11.614256241141373"><ele>631.0</ele><time>2026-05-03T08:07:28Z</time></trkpt><trkpt lat="44.13023330045243" lon="11.614124060334458"><ele>631.0</ele><time>2026-05-03T08:07:29.999Z</time></trkpt><trkpt lat="44.13026085256415" lon="11.613942090696064"><ele>631.0</ele><time>2026-05-03T08:07:31.999Z</time></trkpt><trkpt lat="44.130270401150426" lon="11.613846250552584"><ele>631.0</ele><time>2026-05-03T08:07:32.999Z</time></trkpt><trkpt lat="44.130273241120925" lon="11.613741617525697"><ele>631.0</ele><time>2026-05-03T08:07:33.999Z</time></trkpt><trkpt lat="44.13026458515054" lon="11.61362966912922"><ele>631.0</ele><time>2026-05-03T08:07:34.999Z</time></trkpt><trkpt lat="44.130238131621496" lon="11.613522651606823"><ele>631.0</ele><time>2026-05-03T08:07:35.999Z</time></trkpt><trkpt lat="44.13019837225977" lon="11.6134213669057"><ele>630.2</ele><time>2026-05-03T08:07:36.999Z</time></trkpt><trkpt lat="44.13015301284368" lon="11.613326514369575"><ele>629.4000000000001</ele><time>2026-05-03T08:07:37.999Z</time></trkpt><trkpt lat="44.130088900816446" lon="11.613251184775397"><ele>628.6</ele><time>2026-05-03T08:07:38.999Z</time></trkpt><trkpt lat="44.13000234875845" lon="11.613198969111043"><ele>627.8000000000001</ele><time>2026-05-03T08:07:39.999Z</time></trkpt><trkpt lat="44.12989121939983" lon="11.613161998897395"><ele>627.0</ele><time>2026-05-03T08:07:40.999Z</time></trkpt><trkpt lat="44.12976005901557" lon="11.613108611160193"><ele>627.0</ele><time>2026-05-03T08:07:41.999Z</time></trkpt><trkpt lat="44.12963680007729" lon="11.613049029721347"><ele>627.0</ele><time>2026-05-03T08:07:42.999Z</time></trkpt><trkpt lat="44.129526916481844" lon="11.613003203411878"><ele>627.0</ele><time>2026-05-03T08:07:43.999Z</time></trkpt><trkpt lat="44.12941886796194" lon="11.61296901700479"><ele>627.0</ele><time>2026-05-03T08:07:44.999Z</time></trkpt><trkpt lat="44.129329727971566" lon="11.612935549040364"><ele>627.0</ele><time>2026-05-03T08:07:45.999Z</time></trkpt><trkpt lat="44.12923571607703" lon="11.612911986450367"><ele>627.0</ele><time>2026-05-03T08:07:46.999Z</time></trkpt><trkpt lat="44.129149487264094" lon="11.612916044456092"><ele>627.0</ele><time>2026-05-03T08:07:47.999Z</time></trkpt><trkpt lat="44.12907221130718" lon="11.612927475330343"><ele>627.0</ele><time>2026-05-03T08:07:48.999Z</time></trkpt><trkpt lat="44.1289898808377" lon="11.612939632342592"><ele>627.0</ele><time>2026-05-03T08:07:50.999Z</time></trkpt><trkpt lat="44.12892012413536" lon="11.612945734994597"><ele>627.0</ele><time>2026-05-03T08:07:52.999Z</time></trkpt><trkpt lat="44.12879256819355" lon="11.612936312763603"><ele>627.0</ele><time>2026-05-03T08:07:54.999Z</time></trkpt><trkpt lat="44.12867384131763" lon="11.612949843220196"><ele>627.5</ele><time>2026-05-03T08:07:56.999Z</time></trkpt><trkpt lat="44.128595826374436" lon="11.612946929871791"><ele>628.0</ele><time>2026-05-03T08:07:58.999Z</time></trkpt><trkpt lat="44.128531618161404" lon="11.612934428952808"><ele>628.5</ele><time>2026-05-03T08:08:02.999Z</time></trkpt><trkpt lat="44.12849183649225" lon="11.612827987141316"><ele>629.0</ele><time>2026-05-03T08:08:10.999Z</time></trkpt><trkpt lat="44.128468541533856" lon="11.612711712069421"><ele>629.5</ele><time>2026-05-03T08:08:12.999Z</time></trkpt><trkpt lat="44.12847960310583" lon="11.612613111688779"><ele>630.0</ele><time>2026-05-03T08:08:13.999Z</time></trkpt><trkpt lat="44.128486998847016" lon="11.612467066473439"><ele>630.0</ele><time>2026-05-03T08:08:15.999Z</time></trkpt><trkpt lat="44.12849562456136" lon="11.612326473588865"><ele>630.0</ele><time>2026-05-03T08:08:17.999Z</time></trkpt><trkpt lat="44.12848944997908" lon="11.61222031478479"><ele>630.0</ele><time>2026-05-03T08:08:19.999Z</time></trkpt><trkpt lat="44.128434847968606" lon="11.612119081580948"><ele>630.0</ele><time>2026-05-03T08:08:21.999Z</time></trkpt><trkpt lat="44.12834120488586" lon="11.612039584754143"><ele>630.0</ele><time>2026-05-03T08:08:23.999Z</time></trkpt><trkpt lat="44.12823363111589" lon="11.612010426285703"><ele>627.5</ele><time>2026-05-03T08:08:25.999Z</time></trkpt><trkpt lat="44.12817051288092" lon="11.612003104445291"><ele>625.0</ele><time>2026-05-03T08:08:26.999Z</time></trkpt><trkpt lat="44.128107828306355" lon="11.61199169977689"><ele>622.5</ele><time>2026-05-03T08:08:27.999Z</time></trkpt><trkpt lat="44.128036446628855" lon="11.611999217521761"><ele>620.0</ele><time>2026-05-03T08:08:28.999Z</time></trkpt><trkpt lat="44.12797029192459" lon="11.61199742288023"><ele>617.5</ele><time>2026-05-03T08:08:29.999Z</time></trkpt><trkpt lat="44.12786991663239" lon="11.612055679506815"><ele>615.0</ele><time>2026-05-03T08:08:31.999Z</time></trkpt><trkpt lat="44.127783659977226" lon="11.612064643165883"><ele>615.0</ele><time>2026-05-03T08:08:33.999Z</time></trkpt><trkpt lat="44.12771014560808" lon="11.61205826142282"><ele>615.0</ele><time>2026-05-03T08:08:49Z</time></trkpt><trkpt lat="44.12764680400851" lon="11.612096144039166"><ele>615.0</ele><time>2026-05-03T08:08:51Z</time></trkpt><trkpt lat="44.1275484218549" lon="11.612032020775144"><ele>615.0</ele><time>2026-05-03T08:08:53Z</time></trkpt><trkpt lat="44.12747527530437" lon="11.612017349451566"><ele>615.0</ele><time>2026-05-03T08:08:54Z</time></trkpt><trkpt lat="44.127370944306655" lon="11.612031702355534"><ele>615.0</ele><time>2026-05-03T08:08:56Z</time></trkpt><trkpt lat="44.127301707245465" lon="11.612006998061997"><ele>614.8</ele><time>2026-05-03T08:08:57Z</time></trkpt><trkpt lat="44.1271874255061" lon="11.612051166656652"><ele>614.6</ele><time>2026-05-03T08:08:59Z</time></trkpt><trkpt lat="44.12713810308487" lon="11.612176376903808"><ele>614.4</ele><time>2026-05-03T08:09:01Z</time></trkpt><trkpt lat="44.12703818599473" lon="11.612111573483753"><ele>614.2</ele><time>2026-05-03T08:09:03Z</time></trkpt><trkpt lat="44.126974901028305" lon="11.612023959683565"><ele>614.0</ele><time>2026-05-03T08:09:04Z</time></trkpt><trkpt lat="44.12688924505111" lon="11.611954245268649"><ele>614.5</ele><time>2026-05-03T08:09:05Z</time></trkpt><trkpt lat="44.126803884679326" lon="11.61191478002535"><ele>615.0</ele><time>2026-05-03T08:09:06Z</time></trkpt><trkpt lat="44.126713924127785" lon="11.611899164708394"><ele>615.5</ele><time>2026-05-03T08:09:07Z</time></trkpt><trkpt lat="44.12664849456116" lon="11.611904432413263"><ele>616.0</ele><time>2026-05-03T08:09:08Z</time></trkpt><trkpt lat="44.12658287426207" lon="11.6118930804425"><ele>616.5</ele><time>2026-05-03T08:09:09Z</time></trkpt><trkpt lat="44.12649197957327" lon="11.611800793797489"><ele>617.0</ele><time>2026-05-03T08:09:11Z</time></trkpt><trkpt lat="44.126419628989005" lon="11.611743211274723"><ele>617.0</ele><time>2026-05-03T08:09:12Z</time></trkpt><trkpt lat="44.126347584090816" lon="11.611648869865325"><ele>617.0</ele><time>2026-05-03T08:09:13Z</time></trkpt><trkpt lat="44.1262893896302" lon="11.611587322517238"><ele>617.0</ele><time>2026-05-03T08:09:14Z</time></trkpt><trkpt lat="44.126270978270306" lon="11.611446887149071"><ele>617.0</ele><time>2026-05-03T08:09:16Z</time></trkpt><trkpt lat="44.12626907020562" lon="11.611339904534697"><ele>617.0</ele><time>2026-05-03T08:09:17Z</time></trkpt><trkpt lat="44.12627513659084" lon="11.611234558528764"><ele>617.0</ele><time>2026-05-03T08:09:18Z</time></trkpt><trkpt lat="44.12627971215789" lon="11.611127499165322"><ele>619.0</ele><time>2026-05-03T08:09:19Z</time></trkpt><trkpt lat="44.1262930088256" lon="11.611024927736473"><ele>621.0</ele><time>2026-05-03T08:09:20Z</time></trkpt><trkpt lat="44.12631441752767" lon="11.610936947813705"><ele>623.0</ele><time>2026-05-03T08:09:21Z</time></trkpt><trkpt lat="44.12631000906189" lon="11.610828920216644"><ele>625.0</ele><time>2026-05-03T08:09:22Z</time></trkpt><trkpt lat="44.12629957863142" lon="11.610695944670121"><ele>627.0</ele><time>2026-05-03T08:09:23Z</time></trkpt><trkpt lat="44.12628463843244" lon="11.610569832534395"><ele>629.0</ele><time>2026-05-03T08:09:24Z</time></trkpt><trkpt lat="44.12629530858094" lon="11.610461002228956"><ele>632.6</ele><time>2026-05-03T08:09:25Z</time></trkpt><trkpt lat="44.12627151797854" lon="11.61028525927863"><ele>636.2</ele><time>2026-05-03T08:09:27Z</time></trkpt><trkpt lat="44.1261983968762" lon="11.610132191507432"><ele>639.8000000000001</ele><time>2026-05-03T08:09:29Z</time></trkpt><trkpt lat="44.12616081545055" lon="11.610058527258412"><ele>643.4</ele><time>2026-05-03T08:09:30Z</time></trkpt><trkpt lat="44.12614611703621" lon="11.609906356810187"><ele>647.0</ele><time>2026-05-03T08:09:32Z</time></trkpt><trkpt lat="44.12609716397816" lon="11.609970150066479"><ele>647.0</ele><time>2026-05-03T08:09:34.999Z</time></trkpt><trkpt lat="44.126054286692295" lon="11.6100626480393"><ele>647.0</ele><time>2026-05-03T08:09:43.999Z</time></trkpt><trkpt lat="44.12601669933496" lon="11.610201339594997"><ele>647.0</ele><time>2026-05-03T08:09:45.999Z</time></trkpt><trkpt lat="44.12600808910086" lon="11.610295775588016"><ele>647.0</ele><time>2026-05-03T08:09:46.999Z</time></trkpt><trkpt lat="44.125960585974205" lon="11.610456621161752"><ele>647.0</ele><time>2026-05-03T08:09:48.999Z</time></trkpt><trkpt lat="44.125913628486295" lon="11.610520003776987"><ele>647.0</ele><time>2026-05-03T08:09:49.999Z</time></trkpt><trkpt lat="44.12585546463625" lon="11.610565236764295"><ele>644.0</ele><time>2026-05-03T08:09:50.999Z</time></trkpt><trkpt lat="44.12575353364199" lon="11.610625564243207"><ele>641.0</ele><time>2026-05-03T08:09:52.999Z</time></trkpt><trkpt lat="44.12568696323195" lon="11.610644738468679"><ele>638.0</ele><time>2026-05-03T08:09:55.999Z</time></trkpt><trkpt lat="44.12562549983039" lon="11.610684203602858"><ele>635.0</ele><time>2026-05-03T08:09:57.999Z</time></trkpt><trkpt lat="44.12557451065937" lon="11.610622963490865"><ele>632.0</ele><time>2026-05-03T08:10:00.999Z</time></trkpt><trkpt lat="44.12567705762647" lon="11.610550238444088"><ele>629.0</ele><time>2026-05-03T08:10:02.999Z</time></trkpt><trkpt lat="44.12571833667128" lon="11.610465945890052"><ele>627.8</ele><time>2026-05-03T08:10:05.999Z</time></trkpt><trkpt lat="44.125707621850566" lon="11.610358188570924"><ele>626.5999999999999</ele><time>2026-05-03T08:10:07.999Z</time></trkpt><trkpt lat="44.125706418345665" lon="11.610239725738817"><ele>625.4</ele><time>2026-05-03T08:10:10.999Z</time></trkpt><trkpt lat="44.12558557627572" lon="11.610269625197395"><ele>624.1999999999999</ele><time>2026-05-03T08:10:14.999Z</time></trkpt><trkpt lat="44.12552166255425" lon="11.610231812625049"><ele>623.0</ele><time>2026-05-03T08:10:15.999Z</time></trkpt><trkpt lat="44.12542238194182" lon="11.610186340104402"><ele>627.0</ele><time>2026-05-03T08:10:23.999Z</time></trkpt><trkpt lat="44.125350273181404" lon="11.610148060638798"><ele>631.0</ele><time>2026-05-03T08:10:24.999Z</time></trkpt><trkpt lat="44.12528582967335" lon="11.610069191438976"><ele>635.0</ele><time>2026-05-03T08:10:25.999Z</time></trkpt><trkpt lat="44.125218594166775" lon="11.609987674474654"><ele>639.0</ele><time>2026-05-03T08:10:26.999Z</time></trkpt><trkpt lat="44.12513682872753" lon="11.609915086758646"><ele>643.0</ele><time>2026-05-03T08:10:27.999Z</time></trkpt><trkpt lat="44.125078185144574" lon="11.60981452154418"><ele>647.0</ele><time>2026-05-03T08:10:28.999Z</time></trkpt><trkpt lat="44.12503930289521" lon="11.609723689065227"><ele>647.0</ele><time>2026-05-03T08:10:29.999Z</time></trkpt><trkpt lat="44.125015390140355" lon="11.609637614774037"><ele>647.0</ele><time>2026-05-03T08:10:30.999Z</time></trkpt><trkpt lat="44.1249789853523" lon="11.60954563394168"><ele>647.0</ele><time>2026-05-03T08:10:31.999Z</time></trkpt><trkpt lat="44.12492727096972" lon="11.609468700208255"><ele>647.0</ele><time>2026-05-03T08:10:32.999Z</time></trkpt><trkpt lat="44.12489664465464" lon="11.609372266162941"><ele>647.0</ele><time>2026-05-03T08:10:33.999Z</time></trkpt><trkpt lat="44.12480151118862" lon="11.609272041969218"><ele>647.0</ele><time>2026-05-03T08:10:35.999Z</time></trkpt><trkpt lat="44.124723859684536" lon="11.60927358360803"><ele>647.0</ele><time>2026-05-03T08:10:36.999Z</time></trkpt><trkpt lat="44.12465625348239" lon="11.609215733415244"><ele>647.0</ele><time>2026-05-03T08:10:38.999Z</time></trkpt><trkpt lat="44.12460195690729" lon="11.609103728390135"><ele>647.0</ele><time>2026-05-03T08:10:40.999Z</time></trkpt><trkpt lat="44.12456056284747" lon="11.608937883721463"><ele>647.0</ele><time>2026-05-03T08:10:42.998Z</time></trkpt><trkpt lat="44.12457496490332" lon="11.608850067745731"><ele>647.0</ele><time>2026-05-03T08:10:43.998Z</time></trkpt><trkpt lat="44.12463337535617" lon="11.608678833893462"><ele>648.3333333333333</ele><time>2026-05-03T08:10:45.998Z</time></trkpt><trkpt lat="44.124664434751935" lon="11.608568268241658"><ele>649.6666666666666</ele><time>2026-05-03T08:10:46.998Z</time></trkpt><trkpt lat="44.124701050947294" lon="11.608474727240708"><ele>651.0</ele><time>2026-05-03T08:10:47.998Z</time></trkpt><trkpt lat="44.12474516959101" lon="11.608392678747206"><ele>652.3333333333334</ele><time>2026-05-03T08:10:48.998Z</time></trkpt><trkpt lat="44.12477599050731" lon="11.608306325557907"><ele>653.6666666666667</ele><time>2026-05-03T08:10:49.998Z</time></trkpt><trkpt lat="44.124808903074275" lon="11.60821890351877"><ele>655.0</ele><time>2026-05-03T08:10:50.998Z</time></trkpt><trkpt lat="44.12482787471506" lon="11.608107722288006"><ele>655.0</ele><time>2026-05-03T08:10:52Z</time></trkpt><trkpt lat="44.124845637334396" lon="11.608010023569406"><ele>655.0</ele><time>2026-05-03T08:10:53Z</time></trkpt><trkpt lat="44.12484909891997" lon="11.607849371517384"><ele>655.0</ele><time>2026-05-03T08:10:55Z</time></trkpt><trkpt lat="44.1248452922043" lon="11.607720502484261"><ele>655.0</ele><time>2026-05-03T08:10:57Z</time></trkpt><trkpt lat="44.12477915425867" lon="11.607611672036766"><ele>655.0</ele><time>2026-05-03T08:10:59Z</time></trkpt><trkpt lat="44.12475480975751" lon="11.607459896725473"><ele>657.6666666666667</ele><time>2026-05-03T08:11:02Z</time></trkpt><trkpt lat="44.12475092022104" lon="11.607349765487097"><ele>660.3333333333334</ele><time>2026-05-03T08:11:04Z</time></trkpt><trkpt lat="44.12476872732395" lon="11.60725287289454"><ele>663.0</ele><time>2026-05-03T08:11:07Z</time></trkpt><trkpt lat="44.12472318330528" lon="11.607181603761505"><ele>665.6666666666666</ele><time>2026-05-03T08:11:10Z</time></trkpt><trkpt lat="44.12464855399364" lon="11.607124055880323"><ele>668.3333333333333</ele><time>2026-05-03T08:11:14Z</time></trkpt><trkpt lat="44.124591117372766" lon="11.607175855370295"><ele>671.0</ele><time>2026-05-03T08:11:15Z</time></trkpt><trkpt lat="44.12451766547419" lon="11.60723742328713"><ele>671.0</ele><time>2026-05-03T08:11:20Z</time></trkpt><trkpt lat="44.12446143378722" lon="11.607371979675367"><ele>671.0</ele><time>2026-05-03T08:11:22Z</time></trkpt><trkpt lat="44.124384136946546" lon="11.607450413030936"><ele>671.0</ele><time>2026-05-03T08:11:24Z</time></trkpt><trkpt lat="44.1242295406469" lon="11.607499098769479"><ele>671.0</ele><time>2026-05-03T08:11:26Z</time></trkpt><trkpt lat="44.124144776785734" lon="11.60749996245663"><ele>673.8</ele><time>2026-05-03T08:11:27Z</time></trkpt><trkpt lat="44.12404091480347" lon="11.60744157484733"><ele>676.5999999999999</ele><time>2026-05-03T08:11:29Z</time></trkpt><trkpt lat="44.123969032691434" lon="11.607399943112451"><ele>679.4</ele><time>2026-05-03T08:11:30Z</time></trkpt><trkpt lat="44.12388628781671" lon="11.607394352445887"><ele>682.2</ele><time>2026-05-03T08:11:31Z</time></trkpt><trkpt lat="44.123772730100704" lon="11.60745658751321"><ele>685.0</ele><time>2026-05-03T08:11:33Z</time></trkpt><trkpt lat="44.12371235128556" lon="11.607496109990974"><ele>685.0</ele><time>2026-05-03T08:11:34Z</time></trkpt><trkpt lat="44.12365895320849" lon="11.607547734125653"><ele>685.0</ele><time>2026-05-03T08:11:36Z</time></trkpt><trkpt lat="44.123652907104635" lon="11.607663440593853"><ele>685.0</ele><time>2026-05-03T08:11:39.999Z</time></trkpt><trkpt lat="44.1235764957677" lon="11.607680179212947"><ele>685.0</ele><time>2026-05-03T08:11:41.999Z</time></trkpt><trkpt lat="44.123522945100646" lon="11.607738150825103"><ele>685.0</ele><time>2026-05-03T08:11:42.999Z</time></trkpt><trkpt lat="44.123343157908685" lon="11.607834072873956"><ele>685.0</ele><time>2026-05-03T08:11:44.999Z</time></trkpt><trkpt lat="44.12324139573119" lon="11.60777906683296"><ele>685.0</ele><time>2026-05-03T08:11:45.999Z</time></trkpt><trkpt lat="44.12316091067013" lon="11.607716120395333"><ele>685.0</ele><time>2026-05-03T08:11:46.999Z</time></trkpt><trkpt lat="44.12308837885109" lon="11.607633246926863"><ele>685.0</ele><time>2026-05-03T08:11:47.999Z</time></trkpt><trkpt lat="44.123019211269465" lon="11.607599550645416"><ele>685.0</ele><time>2026-05-03T08:11:48.999Z</time></trkpt><trkpt lat="44.122952607910655" lon="11.607576111854302"><ele>685.0</ele><time>2026-05-03T08:11:49.999Z</time></trkpt><trkpt lat="44.1228861426657" lon="11.607532236099612"><ele>683.6</ele><time>2026-05-03T08:11:50.999Z</time></trkpt><trkpt lat="44.122828845341175" lon="11.607492010045487"><ele>682.2</ele><time>2026-05-03T08:11:51.999Z</time></trkpt><trkpt lat="44.122775707157786" lon="11.607423078603766"><ele>680.8</ele><time>2026-05-03T08:11:52.999Z</time></trkpt><trkpt lat="44.122735969327685" lon="11.607280699365718"><ele>679.4</ele><time>2026-05-03T08:11:54.999Z</time></trkpt><trkpt lat="44.12272791948754" lon="11.607189741906767"><ele>678.0</ele><time>2026-05-03T08:11:55.999Z</time></trkpt><trkpt lat="44.12273961799048" lon="11.606985074655492"><ele>678.0</ele><time>2026-05-03T08:11:57.999Z</time></trkpt><trkpt lat="44.12274432077665" lon="11.606896199973036"><ele>678.0</ele><time>2026-05-03T08:11:58.999Z</time></trkpt><trkpt lat="44.122742023680935" lon="11.606794750668765"><ele>678.0</ele><time>2026-05-03T08:11:59.999Z</time></trkpt><trkpt lat="44.12274063373737" lon="11.606703427130256"><ele>678.0</ele><time>2026-05-03T08:12:00.999Z</time></trkpt><trkpt lat="44.12272752964256" lon="11.606542825662736"><ele>678.0</ele><time>2026-05-03T08:12:02.999Z</time></trkpt><trkpt lat="44.122742345246486" lon="11.606386109722465"><ele>678.0</ele><time>2026-05-03T08:12:04.999Z</time></trkpt><trkpt lat="44.12274942401612" lon="11.606296867451267"><ele>678.0</ele><time>2026-05-03T08:12:05.999Z</time></trkpt><trkpt lat="44.122768111675036" lon="11.60616259006299"><ele>678.0</ele><time>2026-05-03T08:12:07.999Z</time></trkpt><trkpt lat="44.12278122966085" lon="11.606002082178845"><ele>678.0</ele><time>2026-05-03T08:12:09.999Z</time></trkpt><trkpt lat="44.12273710254689" lon="11.605932700515158"><ele>678.0</ele><time>2026-05-03T08:12:11.999Z</time></trkpt><trkpt lat="44.122655518178576" lon="11.60602264231202"><ele>678.0</ele><time>2026-05-03T08:12:14.999Z</time></trkpt><trkpt lat="44.12257623907915" lon="11.606043378953025"><ele>678.4</ele><time>2026-05-03T08:12:15.999Z</time></trkpt><trkpt lat="44.12250183415482" lon="11.6059663464438"><ele>678.8</ele><time>2026-05-03T08:12:16.999Z</time></trkpt><trkpt lat="44.12236689741392" lon="11.606088758246182"><ele>679.2</ele><time>2026-05-03T08:12:19.999Z</time></trkpt><trkpt lat="44.12229816679658" lon="11.606137154701864"><ele>679.6</ele><time>2026-05-03T08:12:21.999Z</time></trkpt><trkpt lat="44.12222659701384" lon="11.606146676563416"><ele>680.0</ele><time>2026-05-03T08:12:23.999Z</time></trkpt><trkpt lat="44.122144890443785" lon="11.606155199382387"><ele>680.0</ele><time>2026-05-03T08:12:25.999Z</time></trkpt><trkpt lat="44.12207682655045" lon="11.60619223162902"><ele>680.0</ele><time>2026-05-03T08:12:27.999Z</time></trkpt><trkpt lat="44.12200951302871" lon="11.606130666585491"><ele>680.0</ele><time>2026-05-03T08:12:29.999Z</time></trkpt><trkpt lat="44.122031128456214" lon="11.605969223212382"><ele>680.0</ele><time>2026-05-03T08:12:32.999Z</time></trkpt><trkpt lat="44.12208054162469" lon="11.60588350504403"><ele>680.0</ele><time>2026-05-03T08:12:34.999Z</time></trkpt><trkpt lat="44.12215643685579" lon="11.605769345301029"><ele>680.0</ele><time>2026-05-03T08:12:36.999Z</time></trkpt><trkpt lat="44.12222002002033" lon="11.605666103596787"><ele>680.0</ele><time>2026-05-03T08:12:38.999Z</time></trkpt><trkpt lat="44.122284924497684" lon="11.605529778625387"><ele>680.0</ele><time>2026-05-03T08:12:40.999Z</time></trkpt><trkpt lat="44.12234765253694" lon="11.605417457182202"><ele>680.0</ele><time>2026-05-03T08:12:42.999Z</time></trkpt><trkpt lat="44.122362547776156" lon="11.605321061897383"><ele>680.0</ele><time>2026-05-03T08:12:43.999Z</time></trkpt><trkpt lat="44.122374065263614" lon="11.605180226722736"><ele>679.75</ele><time>2026-05-03T08:12:45.999Z</time></trkpt><trkpt lat="44.12241419510499" lon="11.605029717254277"><ele>679.5</ele><time>2026-05-03T08:12:47.998Z</time></trkpt><trkpt lat="44.12241960834503" lon="11.60484940402645"><ele>679.25</ele><time>2026-05-03T08:12:49.998Z</time></trkpt><trkpt lat="44.12241386874112" lon="11.60467619709931"><ele>679.0</ele><time>2026-05-03T08:12:51.998Z</time></trkpt><trkpt lat="44.122369248347326" lon="11.604497251445654"><ele>681.0</ele><time>2026-05-03T08:12:53.998Z</time></trkpt><trkpt lat="44.12236770424029" lon="11.604394276542305"><ele>683.0</ele><time>2026-05-03T08:12:54.998Z</time></trkpt><trkpt lat="44.12237818967648" lon="11.604293182319509"><ele>685.0</ele><time>2026-05-03T08:12:55.998Z</time></trkpt><trkpt lat="44.12237556214579" lon="11.604191283923564"><ele>687.0</ele><time>2026-05-03T08:12:56.998Z</time></trkpt><trkpt lat="44.122365524200006" lon="11.604096142222549"><ele>689.0</ele><time>2026-05-03T08:12:58Z</time></trkpt><trkpt lat="44.122366789802406" lon="11.604003755990076"><ele>691.0</ele><time>2026-05-03T08:12:59Z</time></trkpt><trkpt lat="44.12237306664881" lon="11.603915868364277"><ele>693.0</ele><time>2026-05-03T08:13:00Z</time></trkpt><trkpt lat="44.12238112656292" lon="11.603794155788911"><ele>693.0</ele><time>2026-05-03T08:13:02Z</time></trkpt><trkpt lat="44.12237803384327" lon="11.603691751383922"><ele>693.0</ele><time>2026-05-03T08:13:04Z</time></trkpt><trkpt lat="44.12242856850032" lon="11.603561717290559"><ele>693.0</ele><time>2026-05-03T08:13:06Z</time></trkpt><trkpt lat="44.12247741772807" lon="11.603434449162318"><ele>693.0</ele><time>2026-05-03T08:13:08Z</time></trkpt><trkpt lat="44.12248992778676" lon="11.603258644686852"><ele>693.0</ele><time>2026-05-03T08:13:10Z</time></trkpt><trkpt lat="44.122502442689154" lon="11.6031608452934"><ele>694.1666666666666</ele><time>2026-05-03T08:13:11Z</time></trkpt><trkpt lat="44.12253957775826" lon="11.603087494281086"><ele>695.3333333333334</ele><time>2026-05-03T08:13:12Z</time></trkpt><trkpt lat="44.122595281113114" lon="11.603007782663452"><ele>696.5</ele><time>2026-05-03T08:13:14Z</time></trkpt><trkpt lat="44.12258295565643" lon="11.602913815087764"><ele>697.6666666666667</ele><time>2026-05-03T08:13:16Z</time></trkpt><trkpt lat="44.12253403724849" lon="11.60285176776976"><ele>698.8333333333334</ele><time>2026-05-03T08:13:17Z</time></trkpt><trkpt lat="44.12246926611592" lon="11.602763679924177"><ele>700.0</ele><time>2026-05-03T08:13:19Z</time></trkpt><trkpt lat="44.12239903144272" lon="11.602708905189873"><ele>704.1666666666667</ele><time>2026-05-03T08:13:21Z</time></trkpt><trkpt lat="44.12235001612577" lon="11.602644063631544"><ele>708.3333333333334</ele><time>2026-05-03T08:13:24Z</time></trkpt><trkpt lat="44.12228926192162" lon="11.602581185057963"><ele>712.5</ele><time>2026-05-03T08:16:51.999Z</time></trkpt><trkpt lat="44.12222515377402" lon="11.602593395549519"><ele>716.6666666666666</ele><time>2026-05-03T08:16:52.999Z</time></trkpt><trkpt lat="44.122116320878575" lon="11.602585939046454"><ele>720.8333333333333</ele><time>2026-05-03T08:16:54.999Z</time></trkpt><trkpt lat="44.122012135161626" lon="11.602617872575225"><ele>725.0</ele><time>2026-05-03T08:16:56.999Z</time></trkpt><trkpt lat="44.1219186703838" lon="11.602661181998226"><ele>725.0</ele><time>2026-05-03T08:16:58.999Z</time></trkpt><trkpt lat="44.12184029905408" lon="11.602702067167662"><ele>725.0</ele><time>2026-05-03T08:17:00.999Z</time></trkpt><trkpt lat="44.121781458299324" lon="11.60279536017461"><ele>725.0</ele><time>2026-05-03T08:17:02.998Z</time></trkpt><trkpt lat="44.121739466324684" lon="11.602868425888436"><ele>725.0</ele><time>2026-05-03T08:17:04.998Z</time></trkpt><trkpt lat="44.12167261575304" lon="11.602970078284196"><ele>725.0</ele><time>2026-05-03T08:17:06.998Z</time></trkpt><trkpt lat="44.121559913314" lon="11.602968827836884"><ele>725.3333333333333</ele><time>2026-05-03T08:17:08.998Z</time></trkpt><trkpt lat="44.12148629728899" lon="11.602981387549018"><ele>725.6666666666666</ele><time>2026-05-03T08:17:11Z</time></trkpt><trkpt lat="44.12141675589713" lon="11.603032225648525"><ele>726.0</ele><time>2026-05-03T08:17:14Z</time></trkpt><trkpt lat="44.12135884229674" lon="11.603139740384584"><ele>726.3333333333334</ele><time>2026-05-03T08:17:16Z</time></trkpt><trkpt lat="44.12131349313924" lon="11.603235406095859"><ele>726.6666666666667</ele><time>2026-05-03T08:17:18Z</time></trkpt><trkpt lat="44.12131524352144" lon="11.603395417543426"><ele>727.0</ele><time>2026-05-03T08:17:20Z</time></trkpt><trkpt lat="44.12122141804307" lon="11.603517118950023"><ele>727.0</ele><time>2026-05-03T08:17:23Z</time></trkpt><trkpt lat="44.121127929153694" lon="11.603547546899348"><ele>727.0</ele><time>2026-05-03T08:17:25Z</time></trkpt><trkpt lat="44.121055548084506" lon="11.60352941842111"><ele>727.0</ele><time>2026-05-03T08:17:27Z</time></trkpt><trkpt lat="44.1209606338097" lon="11.603525600314201"><ele>727.0</ele><time>2026-05-03T08:17:29Z</time></trkpt><trkpt lat="44.120909486566745" lon="11.603445695290569"><ele>727.0</ele><time>2026-05-03T08:17:31Z</time></trkpt><trkpt lat="44.12095384129367" lon="11.603193258113702"><ele>727.0</ele><time>2026-05-03T08:17:34Z</time></trkpt><trkpt lat="44.1209665033448" lon="11.603102896785126"><ele>727.0</ele><time>2026-05-03T08:17:35Z</time></trkpt><trkpt lat="44.12092178975249" lon="11.602984581737608"><ele>727.0</ele><time>2026-05-03T08:17:36Z</time></trkpt><trkpt lat="44.12093440043387" lon="11.602880324597843"><ele>727.0</ele><time>2026-05-03T08:17:37Z</time></trkpt><trkpt lat="44.120947963208174" lon="11.602779251178033"><ele>727.0</ele><time>2026-05-03T08:17:38Z</time></trkpt><trkpt lat="44.12096509495968" lon="11.60268720626414"><ele>727.0</ele><time>2026-05-03T08:17:39Z</time></trkpt><trkpt lat="44.120994601385405" lon="11.602576525325937"><ele>728.6666666666667</ele><time>2026-05-03T08:17:41Z</time></trkpt><trkpt lat="44.121036572672615" lon="11.602499904942174"><ele>730.3333333333334</ele><time>2026-05-03T08:17:42Z</time></trkpt><trkpt lat="44.12105999002033" lon="11.602404493399222"><ele>732.0</ele><time>2026-05-03T08:17:43Z</time></trkpt><trkpt lat="44.12108041685024" lon="11.602292683212617"><ele>733.6666666666666</ele><time>2026-05-03T08:17:44Z</time></trkpt><trkpt lat="44.12110405685752" lon="11.60220252185723"><ele>735.3333333333333</ele><time>2026-05-03T08:17:45Z</time></trkpt><trkpt lat="44.12116807787188" lon="11.602118312456867"><ele>737.0</ele><time>2026-05-03T08:17:48Z</time></trkpt><trkpt lat="44.121248237460065" lon="11.602040371208382"><ele>738.0</ele><time>2026-05-03T08:17:50Z</time></trkpt><trkpt lat="44.12132983857264" lon="11.60191760955439"><ele>739.0</ele><time>2026-05-03T08:17:52Z</time></trkpt><trkpt lat="44.121372593008594" lon="11.601807495114324"><ele>740.0</ele><time>2026-05-03T08:17:53Z</time></trkpt><trkpt lat="44.121404154087315" lon="11.601680147115658"><ele>741.0</ele><time>2026-05-03T08:17:54Z</time></trkpt><trkpt lat="44.121472745489186" lon="11.60160399976435"><ele>742.0</ele><time>2026-05-03T08:17:56Z</time></trkpt><trkpt lat="44.121537690301835" lon="11.601565671165789"><ele>742.6666666666667</ele><time>2026-05-03T08:17:57Z</time></trkpt><trkpt lat="44.1215848856165" lon="11.601500759900649"><ele>743.3333333333334</ele><time>2026-05-03T08:17:58Z</time></trkpt><trkpt lat="44.121664015192835" lon="11.601373790156174"><ele>744.0</ele><time>2026-05-03T08:17:59.999Z</time></trkpt><trkpt lat="44.12170522437518" lon="11.601288708198014"><ele>744.6666666666666</ele><time>2026-05-03T08:18:00.999Z</time></trkpt><trkpt lat="44.121764996247265" lon="11.601162956956218"><ele>745.3333333333333</ele><time>2026-05-03T08:18:02.999Z</time></trkpt><trkpt lat="44.12181780018213" lon="11.601080007435403"><ele>746.0</ele><time>2026-05-03T08:18:03.999Z</time></trkpt><trkpt lat="44.121881602131445" lon="11.601009715159305"><ele>748.4285714285714</ele><time>2026-05-03T08:18:04.999Z</time></trkpt><trkpt lat="44.121941128324465" lon="11.60095683932624"><ele>750.8571428571429</ele><time>2026-05-03T08:18:05.999Z</time></trkpt><trkpt lat="44.12200176664637" lon="11.600893094564919"><ele>753.2857142857142</ele><time>2026-05-03T08:18:06.999Z</time></trkpt><trkpt lat="44.12206120281002" lon="11.60083559274399"><ele>755.7142857142858</ele><time>2026-05-03T08:18:07.999Z</time></trkpt><trkpt lat="44.12211767040816" lon="11.600782204312944"><ele>758.1428571428571</ele><time>2026-05-03T08:18:08.999Z</time></trkpt><trkpt lat="44.12217199223898" lon="11.600726914133812"><ele>760.5714285714286</ele><time>2026-05-03T08:18:09.999Z</time></trkpt><trkpt lat="44.12222260720953" lon="11.600673217051606"><ele>763.0</ele><time>2026-05-03T08:18:10.999Z</time></trkpt><trkpt lat="44.122271866262075" lon="11.60060206687978"><ele>763.0</ele><time>2026-05-03T08:18:12.999Z</time></trkpt><trkpt lat="44.12221073203685" lon="11.600513920833158"><ele>763.0</ele><time>2026-05-03T08:18:17.999Z</time></trkpt><trkpt lat="44.12214559953156" lon="11.600513919965183"><ele>763.0</ele><time>2026-05-03T08:18:18.999Z</time></trkpt><trkpt lat="44.12207896068596" lon="11.600508393095616"><ele>763.0</ele><time>2026-05-03T08:18:19.999Z</time></trkpt><trkpt lat="44.12201789411144" lon="11.60047516544164"><ele>763.0</ele><time>2026-05-03T08:18:20.999Z</time></trkpt><trkpt lat="44.12191626411953" lon="11.60039582163004"><ele>763.0</ele><time>2026-05-03T08:18:22.999Z</time></trkpt><trkpt lat="44.121860133448536" lon="11.600354146967124"><ele>763.0</ele><time>2026-05-03T08:18:23.999Z</time></trkpt><trkpt lat="44.12173399829797" lon="11.600339019350463"><ele>763.0</ele><time>2026-05-03T08:18:25.999Z</time></trkpt><trkpt lat="44.121662016766386" lon="11.600322137453068"><ele>763.0</ele><time>2026-05-03T08:18:26.999Z</time></trkpt><trkpt lat="44.12159188640948" lon="11.600256113160258"><ele>763.0</ele><time>2026-05-03T08:18:27.999Z</time></trkpt><trkpt lat="44.1215354693783" lon="11.60021019320781"><ele>763.0</ele><time>2026-05-03T08:18:28.999Z</time></trkpt><trkpt lat="44.12141489021348" lon="11.600177943513538"><ele>761.2</ele><time>2026-05-03T08:18:30.999Z</time></trkpt><trkpt lat="44.12134992790487" lon="11.600164236348553"><ele>759.4</ele><time>2026-05-03T08:18:31.999Z</time></trkpt><trkpt lat="44.12123904560638" lon="11.600101840400695"><ele>757.6</ele><time>2026-05-03T08:18:33.999Z</time></trkpt><trkpt lat="44.12113921038453" lon="11.59996921870015"><ele>755.8000000000001</ele><time>2026-05-03T08:18:35.999Z</time></trkpt><trkpt lat="44.12108664163341" lon="11.599902736187197"><ele>754.0</ele><time>2026-05-03T08:18:36.999Z</time></trkpt><trkpt lat="44.12102775061688" lon="11.599829994163509"><ele>754.0</ele><time>2026-05-03T08:18:37.999Z</time></trkpt><trkpt lat="44.12097027462503" lon="11.599758161589387"><ele>754.0</ele><time>2026-05-03T08:18:38.999Z</time></trkpt><trkpt lat="44.12091337066883" lon="11.599681994924325"><ele>754.0</ele><time>2026-05-03T08:18:39.999Z</time></trkpt><trkpt lat="44.12086403065094" lon="11.599603796415014"><ele>754.0</ele><time>2026-05-03T08:18:40.999Z</time></trkpt><trkpt lat="44.120826108270116" lon="11.599517636610951"><ele>754.0</ele><time>2026-05-03T08:18:41.999Z</time></trkpt><trkpt lat="44.12081085893052" lon="11.599432442696655"><ele>754.0</ele><time>2026-05-03T08:18:42.999Z</time></trkpt><trkpt lat="44.12079180384465" lon="11.5992813592261"><ele>754.0</ele><time>2026-05-03T08:18:44.999Z</time></trkpt><trkpt lat="44.12073619426562" lon="11.599141193632404"><ele>754.0</ele><time>2026-05-03T08:18:46.999Z</time></trkpt><trkpt lat="44.12069255654941" lon="11.59897376858936"><ele>754.0</ele><time>2026-05-03T08:18:48.999Z</time></trkpt><trkpt lat="44.120689736007556" lon="11.598874053368478"><ele>754.0</ele><time>2026-05-03T08:18:49.999Z</time></trkpt><trkpt lat="44.12068854731441" lon="11.598770841696439"><ele>754.0</ele><time>2026-05-03T08:18:50.999Z</time></trkpt><trkpt lat="44.1206910534041" lon="11.59866890937463"><ele>756.8333333333334</ele><time>2026-05-03T08:18:51.999Z</time></trkpt><trkpt lat="44.120682909082525" lon="11.598581550907376"><ele>759.6666666666667</ele><time>2026-05-03T08:18:52.999Z</time></trkpt><trkpt lat="44.120646715076425" lon="11.598448640003067"><ele>762.5</ele><time>2026-05-03T08:18:54.999Z</time></trkpt><trkpt lat="44.12060079789554" lon="11.598303719831936"><ele>765.3333333333334</ele><time>2026-05-03T08:18:56.999Z</time></trkpt><trkpt lat="44.12054936601443" lon="11.598202463461355"><ele>768.1666666666666</ele><time>2026-05-03T08:18:58.999Z</time></trkpt><trkpt lat="44.12049055401576" lon="11.59814646644421"><ele>771.0</ele><time>2026-05-03T08:19:00.999Z</time></trkpt><trkpt lat="44.120473075000454" lon="11.598043943726127"><ele>771.0</ele><time>2026-05-03T08:19:02.999Z</time></trkpt><trkpt lat="44.12051329545994" lon="11.597908639900792"><ele>771.0</ele><time>2026-05-03T08:19:04.999Z</time></trkpt><trkpt lat="44.120582381823006" lon="11.597760047069407"><ele>771.0</ele><time>2026-05-03T08:19:06.999Z</time></trkpt><trkpt lat="44.12061653771211" lon="11.597666602171138"><ele>771.0</ele><time>2026-05-03T08:19:08.998Z</time></trkpt><trkpt lat="44.12065853506385" lon="11.597555310304987"><ele>771.0</ele><time>2026-05-03T08:19:11.998Z</time></trkpt><trkpt lat="44.12065686499918" lon="11.597454985028682"><ele>769.0</ele><time>2026-05-03T08:19:13.998Z</time></trkpt><trkpt lat="44.12066921454894" lon="11.59733402278173"><ele>767.0</ele><time>2026-05-03T08:19:16Z</time></trkpt><trkpt lat="44.12070903830141" lon="11.597238245272125"><ele>765.0</ele><time>2026-05-03T08:19:18Z</time></trkpt><trkpt lat="44.12069600704288" lon="11.59713801618197"><ele>763.0</ele><time>2026-05-03T08:19:20Z</time></trkpt><trkpt lat="44.12066390965027" lon="11.59701673339847"><ele>761.0</ele><time>2026-05-03T08:19:22Z</time></trkpt><trkpt lat="44.12066139569837" lon="11.59686740716167"><ele>759.0</ele><time>2026-05-03T08:19:24Z</time></trkpt><trkpt lat="44.120657045844425" lon="11.596726130752755"><ele>757.0</ele><time>2026-05-03T08:19:26Z</time></trkpt><trkpt lat="44.1206522953446" lon="11.5966153090273"><ele>755.0</ele><time>2026-05-03T08:19:28Z</time></trkpt><trkpt lat="44.1206741488219" lon="11.596510921345923"><ele>753.0</ele><time>2026-05-03T08:19:30Z</time></trkpt><trkpt lat="44.12070466595092" lon="11.596433697294902"><ele>751.0</ele><time>2026-05-03T08:19:32Z</time></trkpt><trkpt lat="44.1207510808134" lon="11.596345858944444"><ele>749.0</ele><time>2026-05-03T08:19:34Z</time></trkpt><trkpt lat="44.12078927503795" lon="11.5962460716008"><ele>747.0</ele><time>2026-05-03T08:19:36Z</time></trkpt><trkpt lat="44.12078382146478" lon="11.596135177226628"><ele>745.0</ele><time>2026-05-03T08:19:38Z</time></trkpt><trkpt lat="44.12075696193333" lon="11.596039516450725"><ele>743.0</ele><time>2026-05-03T08:19:40Z</time></trkpt><trkpt lat="44.12074632350081" lon="11.595915014837189"><ele>741.0</ele><time>2026-05-03T08:19:42Z</time></trkpt><trkpt lat="44.120702521862334" lon="11.595821131472668"><ele>739.0</ele><time>2026-05-03T08:19:44Z</time></trkpt><trkpt lat="44.12066411201151" lon="11.595721971991361"><ele>737.0</ele><time>2026-05-03T08:19:46Z</time></trkpt><trkpt lat="44.12061270397866" lon="11.595614558449626"><ele>735.0</ele><time>2026-05-03T08:19:48Z</time></trkpt><trkpt lat="44.12057753608605" lon="11.595487024376753"><ele>735.0</ele><time>2026-05-03T08:19:50Z</time></trkpt><trkpt lat="44.12055893107052" lon="11.59538519145303"><ele>735.0</ele><time>2026-05-03T08:19:52Z</time></trkpt><trkpt lat="44.12053134726" lon="11.595268915838197"><ele>735.0</ele><time>2026-05-03T08:19:54Z</time></trkpt><trkpt lat="44.120508043545804" lon="11.595092690069377"><ele>735.0</ele><time>2026-05-03T08:19:56Z</time></trkpt><trkpt lat="44.12046817858868" lon="11.594964240476749"><ele>735.0</ele><time>2026-05-03T08:19:58Z</time></trkpt><trkpt lat="44.12043938336736" lon="11.594857324995434"><ele>730.8333333333334</ele><time>2026-05-03T08:20:00Z</time></trkpt><trkpt lat="44.12042254826946" lon="11.594755092616113"><ele>726.6666666666666</ele><time>2026-05-03T08:20:02Z</time></trkpt><trkpt lat="44.120386508501205" lon="11.594639224074966"><ele>722.5</ele><time>2026-05-03T08:20:03.999Z</time></trkpt><trkpt lat="44.12034481722266" lon="11.594531106875337"><ele>718.3333333333333</ele><time>2026-05-03T08:20:05.999Z</time></trkpt><trkpt lat="44.12031177672438" lon="11.59440961549405"><ele>714.1666666666666</ele><time>2026-05-03T08:20:07.999Z</time></trkpt><trkpt lat="44.12026115503422" lon="11.594286856245782"><ele>710.0</ele><time>2026-05-03T08:20:09.999Z</time></trkpt><trkpt lat="44.12022214548056" lon="11.59416907972235"><ele>705.8571428571429</ele><time>2026-05-03T08:20:11.999Z</time></trkpt><trkpt lat="44.12021974949418" lon="11.594071324804883"><ele>701.7142857142858</ele><time>2026-05-03T08:20:13.999Z</time></trkpt><trkpt lat="44.12020215069077" lon="11.593969382957987"><ele>697.5714285714287</ele><time>2026-05-03T08:20:16.999Z</time></trkpt><trkpt lat="44.12016833123023" lon="11.59388073438545"><ele>693.4285714285714</ele><time>2026-05-03T08:20:19.999Z</time></trkpt><trkpt lat="44.120185837980344" lon="11.593787784846178"><ele>689.2857142857143</ele><time>2026-05-03T08:20:22.999Z</time></trkpt><trkpt lat="44.120187302868565" lon="11.59369259841655"><ele>685.1428571428572</ele><time>2026-05-03T08:20:25.999Z</time></trkpt><trkpt lat="44.12017745362213" lon="11.593604883033208"><ele>681.0</ele><time>2026-05-03T08:20:27.999Z</time></trkpt><trkpt lat="44.120188719649505" lon="11.593351604303884"><ele>677.1999999999999</ele><time>2026-05-03T08:20:29.999Z</time></trkpt><trkpt lat="44.12022547382199" lon="11.593228378358823"><ele>673.4</ele><time>2026-05-03T08:20:31.999Z</time></trkpt><trkpt lat="44.12024524976899" lon="11.593096095633177"><ele>669.6</ele><time>2026-05-03T08:20:34.999Z</time></trkpt><trkpt lat="44.120273345035415" lon="11.59296309486684"><ele>665.8</ele><time>2026-05-03T08:20:35.999Z</time></trkpt><trkpt lat="44.12029924865143" lon="11.592844554309126"><ele>662.0</ele><time>2026-05-03T08:20:37.999Z</time></trkpt><trkpt lat="44.12029558517812" lon="11.59274580732578"><ele>660.0</ele><time>2026-05-03T08:20:39.999Z</time></trkpt><trkpt lat="44.120337171983145" lon="11.592659715480988"><ele>658.0</ele><time>2026-05-03T08:20:43.999Z</time></trkpt><trkpt lat="44.120308479896266" lon="11.592545112126706"><ele>656.0</ele><time>2026-05-03T08:20:48.999Z</time></trkpt><trkpt lat="44.12026424994305" lon="11.592429810184726"><ele>654.0</ele><time>2026-05-03T08:20:51.999Z</time></trkpt><trkpt lat="44.12026331459862" lon="11.592331344405805"><ele>652.0</ele><time>2026-05-03T08:20:55.999Z</time></trkpt><trkpt lat="44.12019758713013" lon="11.592230730751925"><ele>650.0</ele><time>2026-05-03T08:20:57.999Z</time></trkpt><trkpt lat="44.12010003620771" lon="11.59214680587225"><ele>650.0</ele><time>2026-05-03T08:21:00.999Z</time></trkpt><trkpt lat="44.12002559790137" lon="11.592064364793428"><ele>650.0</ele><time>2026-05-03T08:21:02.999Z</time></trkpt><trkpt lat="44.11983809322224" lon="11.591886363956743"><ele>650.0</ele><time>2026-05-03T08:21:05.999Z</time></trkpt><trkpt lat="44.11975333112576" lon="11.59177745398094"><ele>650.0</ele><time>2026-05-03T08:21:07.999Z</time></trkpt><trkpt lat="44.11971980383688" lon="11.59164857359556"><ele>647.1666666666666</ele><time>2026-05-03T08:21:09.999Z</time></trkpt><trkpt lat="44.11971853749223" lon="11.591520677238716"><ele>644.3333333333333</ele><time>2026-05-03T08:21:11.998Z</time></trkpt><trkpt lat="44.119735198826795" lon="11.591435210856451"><ele>641.5</ele><time>2026-05-03T08:21:12.998Z</time></trkpt><trkpt lat="44.11974419730526" lon="11.591326959880153"><ele>638.6666666666666</ele><time>2026-05-03T08:21:15.998Z</time></trkpt><trkpt lat="44.11968374927514" lon="11.591269815069756"><ele>635.8333333333334</ele><time>2026-05-03T08:21:18.998Z</time></trkpt><trkpt lat="44.119628613841265" lon="11.591145789214988"><ele>633.0</ele><time>2026-05-03T08:21:22Z</time></trkpt><trkpt lat="44.11955809294169" lon="11.591082573317653"><ele>631.5</ele><time>2026-05-03T08:21:24Z</time></trkpt><trkpt lat="44.119546817370534" lon="11.590991286411004"><ele>630.0</ele><time>2026-05-03T08:21:26Z</time></trkpt><trkpt lat="44.11952905589929" lon="11.590895319402499"><ele>628.5</ele><time>2026-05-03T08:21:30Z</time></trkpt><trkpt lat="44.11955806683358" lon="11.590772283793253"><ele>627.0</ele><time>2026-05-03T08:21:33Z</time></trkpt><trkpt lat="44.119575854100916" lon="11.590668799863899"><ele>625.5</ele><time>2026-05-03T08:21:35Z</time></trkpt><trkpt lat="44.11966316996392" lon="11.59060026237027"><ele>624.0</ele><time>2026-05-03T08:21:38Z</time></trkpt><trkpt lat="44.119768482824476" lon="11.590561503340808"><ele>624.0</ele><time>2026-05-03T08:21:41Z</time></trkpt><trkpt lat="44.11983432184157" lon="11.590515844186186"><ele>624.0</ele><time>2026-05-03T08:21:44Z</time></trkpt><trkpt lat="44.119898306529855" lon="11.590469276433092"><ele>624.0</ele><time>2026-05-03T08:21:46Z</time></trkpt><trkpt lat="44.119877132209574" lon="11.590365846626582"><ele>624.0</ele><time>2026-05-03T08:21:51Z</time></trkpt><trkpt lat="44.1198264407434" lon="11.590308467315566"><ele>624.0</ele><time>2026-05-03T08:21:55Z</time></trkpt><trkpt lat="44.11974186982103" lon="11.590286611249606"><ele>624.0</ele><time>2026-05-03T08:21:57Z</time></trkpt><trkpt lat="44.119667774640945" lon="11.590248484597167"><ele>623.0</ele><time>2026-05-03T08:21:59Z</time></trkpt><trkpt lat="44.11959477625991" lon="11.59021094136539"><ele>622.0</ele><time>2026-05-03T08:22:02Z</time></trkpt><trkpt lat="44.11956124155725" lon="11.590136499665704"><ele>621.0</ele><time>2026-05-03T08:22:08.999Z</time></trkpt><trkpt lat="44.119638340096834" lon="11.59010346688881"><ele>620.0</ele><time>2026-05-03T08:22:14.999Z</time></trkpt><trkpt lat="44.1196998759159" lon="11.590078938092702"><ele>619.0</ele><time>2026-05-03T08:22:15.999Z</time></trkpt><trkpt lat="44.11977559551817" lon="11.590054120245314"><ele>618.0</ele><time>2026-05-03T08:22:17.999Z</time></trkpt><trkpt lat="44.11982913366478" lon="11.589988107084004"><ele>617.0</ele><time>2026-05-03T08:22:20.999Z</time></trkpt><trkpt lat="44.11988722869704" lon="11.589936767566115"><ele>616.2</ele><time>2026-05-03T08:22:22.999Z</time></trkpt><trkpt lat="44.119985181305005" lon="11.589840881581413"><ele>615.4000000000001</ele><time>2026-05-03T08:22:24.999Z</time></trkpt><trkpt lat="44.12009652751649" lon="11.589750114737432"><ele>614.5999999999999</ele><time>2026-05-03T08:22:26.999Z</time></trkpt><trkpt lat="44.120175898430546" lon="11.58967655272443"><ele>613.8</ele><time>2026-05-03T08:22:28.999Z</time></trkpt><trkpt lat="44.12022835383605" lon="11.589615984016431"><ele>613.0</ele><time>2026-05-03T08:22:29.999Z</time></trkpt><trkpt lat="44.12028743707083" lon="11.589581900490693"><ele>613.0</ele><time>2026-05-03T08:22:30.999Z</time></trkpt><trkpt lat="44.120372010007365" lon="11.589531262564329"><ele>613.0</ele><time>2026-05-03T08:22:32.999Z</time></trkpt><trkpt lat="44.120469179605266" lon="11.589502972695657"><ele>613.0</ele><time>2026-05-03T08:22:34.999Z</time></trkpt><trkpt lat="44.120576140099715" lon="11.589496147841706"><ele>613.0</ele><time>2026-05-03T08:22:36.999Z</time></trkpt><trkpt lat="44.12067449438248" lon="11.589492638014171"><ele>613.0</ele><time>2026-05-03T08:22:38.999Z</time></trkpt><trkpt lat="44.12077720664117" lon="11.589462785199641"><ele>617.1999999999999</ele><time>2026-05-03T08:22:40.999Z</time></trkpt><trkpt lat="44.12084252535627" lon="11.58947122900869"><ele>621.4</ele><time>2026-05-03T08:22:41.999Z</time></trkpt><trkpt lat="44.12093595566127" lon="11.589436405138937"><ele>625.5999999999999</ele><time>2026-05-03T08:22:43.999Z</time></trkpt><trkpt lat="44.1209309535619" lon="11.589280476437914"><ele>629.8</ele><time>2026-05-03T08:22:46.999Z</time></trkpt><trkpt lat="44.12086709418206" lon="11.589237805824858"><ele>634.0</ele><time>2026-05-03T08:22:47.999Z</time></trkpt><trkpt lat="44.12076200950357" lon="11.5891885150738"><ele>635.0</ele><time>2026-05-03T08:22:49.999Z</time></trkpt><trkpt lat="44.12071356164806" lon="11.589112184020621"><ele>636.0</ele><time>2026-05-03T08:22:51.999Z</time></trkpt><trkpt lat="44.12069889673092" lon="11.589002202761097"><ele>637.0</ele><time>2026-05-03T08:22:54.999Z</time></trkpt><trkpt lat="44.1206682756315" lon="11.588891066503251"><ele>638.0</ele><time>2026-05-03T08:22:57.999Z</time></trkpt><trkpt lat="44.12062207197103" lon="11.588802139207584"><ele>639.0</ele><time>2026-05-03T08:23:00.999Z</time></trkpt><trkpt lat="44.12060090419437" lon="11.58871503586828"><ele>640.0</ele><time>2026-05-03T08:23:03.999Z</time></trkpt><trkpt lat="44.12062088075758" lon="11.588627239010973"><ele>642.6666666666667</ele><time>2026-05-03T08:23:06.999Z</time></trkpt><trkpt lat="44.12067790777536" lon="11.588569236007649"><ele>645.3333333333334</ele><time>2026-05-03T08:23:09.999Z</time></trkpt><trkpt lat="44.120736815557784" lon="11.588470389593859"><ele>648.0</ele><time>2026-05-03T08:23:12.999Z</time></trkpt><trkpt lat="44.120815747902654" lon="11.588459175626006"><ele>650.6666666666666</ele><time>2026-05-03T08:23:15.999Z</time></trkpt><trkpt lat="44.12086577483292" lon="11.588361157342588"><ele>653.3333333333333</ele><time>2026-05-03T08:23:18.998Z</time></trkpt><trkpt lat="44.12091439222126" lon="11.588253830279333"><ele>656.0</ele><time>2026-05-03T08:23:21.998Z</time></trkpt><trkpt lat="44.12095613072041" lon="11.588156249767264"><ele>656.0</ele><time>2026-05-03T08:23:26.998Z</time></trkpt><trkpt lat="44.1210024168964" lon="11.588086192516865"><ele>656.0</ele><time>2026-05-03T08:24:35.999Z</time></trkpt><trkpt lat="44.121075899386206" lon="11.588107888645032"><ele>656.0</ele><time>2026-05-03T08:24:57.999Z</time></trkpt><trkpt lat="44.12115608998901" lon="11.58803514719905"><ele>656.0</ele><time>2026-05-03T08:25:00.999Z</time></trkpt><trkpt lat="44.12115844983779" lon="11.587901526376605"><ele>656.0</ele><time>2026-05-03T08:26:13Z</time></trkpt><trkpt lat="44.121104655736154" lon="11.587771850342744"><ele>656.0</ele><time>2026-05-03T08:26:15Z</time></trkpt><trkpt lat="44.121068593748596" lon="11.587654834002576"><ele>659.1666666666666</ele><time>2026-05-03T08:26:17Z</time></trkpt><trkpt lat="44.12106188126742" lon="11.58751034833369"><ele>662.3333333333333</ele><time>2026-05-03T08:26:19Z</time></trkpt><trkpt lat="44.12110936822705" lon="11.58739230830373"><ele>665.5</ele><time>2026-05-03T08:26:21Z</time></trkpt><trkpt lat="44.1211292056263" lon="11.587291655412887"><ele>668.6666666666666</ele><time>2026-05-03T08:26:23Z</time></trkpt><trkpt lat="44.12113432272566" lon="11.587192838633245"><ele>671.8333333333334</ele><time>2026-05-03T08:26:25.999Z</time></trkpt><trkpt lat="44.12112602151396" lon="11.587058876172165"><ele>675.0</ele><time>2026-05-03T08:26:27.999Z</time></trkpt><trkpt lat="44.12115444994703" lon="11.58692623318745"><ele>675.6</ele><time>2026-05-03T08:26:29.999Z</time></trkpt><trkpt lat="44.121129338417205" lon="11.586813759014893"><ele>676.2</ele><time>2026-05-03T08:26:31.999Z</time></trkpt><trkpt lat="44.12105552046457" lon="11.586691706897504"><ele>676.8</ele><time>2026-05-03T08:26:33.999Z</time></trkpt><trkpt lat="44.1210405925038" lon="11.586534303389161"><ele>677.4</ele><time>2026-05-03T08:26:35.999Z</time></trkpt><trkpt lat="44.12105075379244" lon="11.586424799243478"><ele>678.0</ele><time>2026-05-03T08:26:36.999Z</time></trkpt><trkpt lat="44.12104568108575" lon="11.58632155420216"><ele>678.0</ele><time>2026-05-03T08:26:37.999Z</time></trkpt><trkpt lat="44.12104380883092" lon="11.586227060522203"><ele>678.0</ele><time>2026-05-03T08:26:38.999Z</time></trkpt><trkpt lat="44.121126907658905" lon="11.586090917382572"><ele>678.0</ele><time>2026-05-03T08:26:40.999Z</time></trkpt><trkpt lat="44.121187532529824" lon="11.586017052730101"><ele>678.0</ele><time>2026-05-03T08:26:41.999Z</time></trkpt><trkpt lat="44.12125235341647" lon="11.585941992975206"><ele>678.0</ele><time>2026-05-03T08:26:42.999Z</time></trkpt><trkpt lat="44.12132114853472" lon="11.585848382845493"><ele>678.0</ele><time>2026-05-03T08:26:44.999Z</time></trkpt><trkpt lat="44.1212558988342" lon="11.585912608144156"><ele>678.0</ele><time>2026-05-03T08:27:55Z</time></trkpt><trkpt lat="44.121171555061125" lon="11.586025899852674"><ele>678.0</ele><time>2026-05-03T08:27:57Z</time></trkpt><trkpt lat="44.1210848026532" lon="11.586113755445176"><ele>678.0</ele><time>2026-05-03T08:27:59Z</time></trkpt><trkpt lat="44.12104119305353" lon="11.586267408773935"><ele>678.0</ele><time>2026-05-03T08:28:01Z</time></trkpt><trkpt lat="44.12108531330429" lon="11.586447913175666"><ele>678.0</ele><time>2026-05-03T08:28:03Z</time></trkpt><trkpt lat="44.121071765259025" lon="11.58655695284985"><ele>678.0</ele><time>2026-05-03T08:28:04Z</time></trkpt><trkpt lat="44.12109693442347" lon="11.586705592691173"><ele>678.0</ele><time>2026-05-03T08:28:06Z</time></trkpt><trkpt lat="44.12115009287096" lon="11.586759671733756"><ele>678.0</ele><time>2026-05-03T08:28:07Z</time></trkpt><trkpt lat="44.121155793734225" lon="11.58688287940963"><ele>678.0</ele><time>2026-05-03T08:28:09Z</time></trkpt><trkpt lat="44.12111547154259" lon="11.587025525285643"><ele>677.5</ele><time>2026-05-03T08:28:11Z</time></trkpt><trkpt lat="44.12112367666975" lon="11.58715369407323"><ele>677.0</ele><time>2026-05-03T08:28:15Z</time></trkpt><trkpt lat="44.12109090591346" lon="11.587334549056015"><ele>676.5</ele><time>2026-05-03T08:28:17Z</time></trkpt><trkpt lat="44.12108009808554" lon="11.58743092543339"><ele>676.0</ele><time>2026-05-03T08:28:18Z</time></trkpt><trkpt lat="44.121073268020794" lon="11.587522073859079"><ele>675.5</ele><time>2026-05-03T08:28:19Z</time></trkpt><trkpt lat="44.121081935799026" lon="11.587622836830109"><ele>675.0</ele><time>2026-05-03T08:28:20Z</time></trkpt><trkpt lat="44.12111715303759" lon="11.587717896048241"><ele>675.0</ele><time>2026-05-03T08:28:21Z</time></trkpt><trkpt lat="44.121171941524366" lon="11.587819475554486"><ele>675.0</ele><time>2026-05-03T08:28:23Z</time></trkpt><trkpt lat="44.121196810280054" lon="11.587928592416008"><ele>675.0</ele><time>2026-05-03T08:28:25Z</time></trkpt><trkpt lat="44.121196446017954" lon="11.588020478427895"><ele>675.0</ele><time>2026-05-03T08:28:28Z</time></trkpt><trkpt lat="44.121193702901834" lon="11.588108676725874"><ele>675.0</ele><time>2026-05-03T08:30:11Z</time></trkpt><trkpt lat="44.12111986802707" lon="11.588136980998401"><ele>675.0</ele><time>2026-05-03T08:32:24Z</time></trkpt><trkpt lat="44.121033760259955" lon="11.588134325042116"><ele>674.0</ele><time>2026-05-03T08:33:03.999Z</time></trkpt><trkpt lat="44.120948994011776" lon="11.588157971900122"><ele>673.0</ele><time>2026-05-03T08:33:05.999Z</time></trkpt><trkpt lat="44.1208597160468" lon="11.588216648663648"><ele>672.0</ele><time>2026-05-03T08:33:07.999Z</time></trkpt><trkpt lat="44.120801883114254" lon="11.588261812002688"><ele>671.0</ele><time>2026-05-03T08:33:09.999Z</time></trkpt><trkpt lat="44.12073550773413" lon="11.588311717570074"><ele>670.0</ele><time>2026-05-03T08:33:11.999Z</time></trkpt><trkpt lat="44.120651421519085" lon="11.588385271274651"><ele>669.0</ele><time>2026-05-03T08:33:13.999Z</time></trkpt><trkpt lat="44.12060118745389" lon="11.588531088605194"><ele>669.0</ele><time>2026-05-03T08:33:16.999Z</time></trkpt><trkpt lat="44.12059599813734" lon="11.588644665606466"><ele>669.0</ele><time>2026-05-03T08:33:18.999Z</time></trkpt><trkpt lat="44.120645736027306" lon="11.58874860817808"><ele>669.0</ele><time>2026-05-03T08:33:20.999Z</time></trkpt><trkpt lat="44.12069406102985" lon="11.58883799301547"><ele>669.0</ele><time>2026-05-03T08:33:22.999Z</time></trkpt><trkpt lat="44.120710586096486" lon="11.58892717939634"><ele>669.0</ele><time>2026-05-03T08:33:42.999Z</time></trkpt><trkpt lat="44.12072348186006" lon="11.589048140304653"><ele>669.0</ele><time>2026-05-03T08:33:46.999Z</time></trkpt><trkpt lat="44.12076898073529" lon="11.589123927945595"><ele>663.1666666666666</ele><time>2026-05-03T08:33:48.998Z</time></trkpt><trkpt lat="44.12085052632384" lon="11.58917004595779"><ele>657.3333333333334</ele><time>2026-05-03T08:33:51.998Z</time></trkpt><trkpt lat="44.12090675491149" lon="11.589222808712446"><ele>651.5</ele><time>2026-05-03T08:33:53.998Z</time></trkpt><trkpt lat="44.12096203527439" lon="11.589266010224081"><ele>645.6666666666667</ele><time>2026-05-03T08:33:55.998Z</time></trkpt><trkpt lat="44.12096153827548" lon="11.589372289905489"><ele>639.8333333333334</ele><time>2026-05-03T08:33:59Z</time></trkpt><trkpt lat="44.12088158214942" lon="11.589433784674759"><ele>634.0</ele><time>2026-05-03T08:34:01Z</time></trkpt><trkpt lat="44.12079852960144" lon="11.589410387148266"><ele>635.2</ele><time>2026-05-03T08:34:04Z</time></trkpt><trkpt lat="44.120702181628126" lon="11.589433015154786"><ele>636.4</ele><time>2026-05-03T08:34:05Z</time></trkpt><trkpt lat="44.120612251735665" lon="11.58941883009145"><ele>637.6</ele><time>2026-05-03T08:34:07Z</time></trkpt><trkpt lat="44.12050817740155" lon="11.589419543538718"><ele>638.8</ele><time>2026-05-03T08:34:09Z</time></trkpt><trkpt lat="44.12041885825278" lon="11.589446899445482"><ele>640.0</ele><time>2026-05-03T08:34:11Z</time></trkpt><trkpt lat="44.120345930825124" lon="11.589522724341887"><ele>634.6</ele><time>2026-05-03T08:34:13Z</time></trkpt><trkpt lat="44.120251833876544" lon="11.589547483535407"><ele>629.2</ele><time>2026-05-03T08:34:15Z</time></trkpt><trkpt lat="44.12018338785759" lon="11.589638404305052"><ele>623.8</ele><time>2026-05-03T08:34:18Z</time></trkpt><trkpt lat="44.12011008955452" lon="11.589722191197716"><ele>618.4</ele><time>2026-05-03T08:34:21Z</time></trkpt><trkpt lat="44.120025552875454" lon="11.589740761477131"><ele>613.0</ele><time>2026-05-03T08:34:23Z</time></trkpt><trkpt lat="44.11994851076702" lon="11.589837698314406"><ele>613.6666666666667</ele><time>2026-05-03T08:34:26Z</time></trkpt><trkpt lat="44.11987236053137" lon="11.589928389453641"><ele>614.3333333333334</ele><time>2026-05-03T08:34:29Z</time></trkpt><trkpt lat="44.11978846198365" lon="11.589996975886244"><ele>615.0</ele><time>2026-05-03T08:34:32Z</time></trkpt><trkpt lat="44.119702145196044" lon="11.590026498487106"><ele>615.6666666666666</ele><time>2026-05-03T08:34:34Z</time></trkpt><trkpt lat="44.11963636489929" lon="11.590041688304604"><ele>616.3333333333333</ele><time>2026-05-03T08:34:36Z</time></trkpt><trkpt lat="44.119552206452155" lon="11.590058103122207"><ele>617.0</ele><time>2026-05-03T08:34:40Z</time></trkpt><trkpt lat="44.119636608968364" lon="11.590068230818622"><ele>617.0</ele><time>2026-05-03T08:34:54.999Z</time></trkpt><trkpt lat="44.11969943563449" lon="11.59008177195719"><ele>617.0</ele><time>2026-05-03T08:34:55.999Z</time></trkpt><trkpt lat="44.11976106348393" lon="11.590136476924119"><ele>617.0</ele><time>2026-05-03T08:34:58.999Z</time></trkpt><trkpt lat="44.119813782800705" lon="11.590184789642803"><ele>617.0</ele><time>2026-05-03T08:34:59.999Z</time></trkpt><trkpt lat="44.119881051729585" lon="11.590251061484219"><ele>617.0</ele><time>2026-05-03T08:35:01.999Z</time></trkpt><trkpt lat="44.11994598398204" lon="11.590297437335883"><ele>617.0</ele><time>2026-05-03T08:35:03.999Z</time></trkpt><trkpt lat="44.11993134540775" lon="11.590390508297398"><ele>617.0</ele><time>2026-05-03T08:35:05.999Z</time></trkpt><trkpt lat="44.119850392247514" lon="11.590424393364986"><ele>618.1666666666666</ele><time>2026-05-03T08:35:08.999Z</time></trkpt><trkpt lat="44.11975108621662" lon="11.590388180774548"><ele>619.3333333333333</ele><time>2026-05-03T08:35:11.999Z</time></trkpt><trkpt lat="44.119668637337625" lon="11.590401303548708"><ele>620.5</ele><time>2026-05-03T08:35:13.999Z</time></trkpt><trkpt lat="44.119596375570524" lon="11.59046197939274"><ele>621.6666666666666</ele><time>2026-05-03T08:35:15.999Z</time></trkpt><trkpt lat="44.11955938606482" lon="11.590596316407563"><ele>622.8333333333334</ele><time>2026-05-03T08:35:17.999Z</time></trkpt><trkpt lat="44.119538864018686" lon="11.590694509571643"><ele>624.0</ele><time>2026-05-03T08:35:20.999Z</time></trkpt><trkpt lat="44.11956705133436" lon="11.590813141930171"><ele>624.0</ele><time>2026-05-03T08:35:23.999Z</time></trkpt><trkpt lat="44.11962324968487" lon="11.591127608668454"><ele>624.0</ele><time>2026-05-03T08:35:25.999Z</time></trkpt><trkpt lat="44.11966371767151" lon="11.591196080165108"><ele>624.0</ele><time>2026-05-03T08:35:26.999Z</time></trkpt><trkpt lat="44.119721064690445" lon="11.591235401388733"><ele>624.0</ele><time>2026-05-03T08:35:27.999Z</time></trkpt><trkpt lat="44.11978217166348" lon="11.591334939705437"><ele>625.8</ele><time>2026-05-03T08:35:29.999Z</time></trkpt><trkpt lat="44.11970923919585" lon="11.591447990064815"><ele>627.5999999999999</ele><time>2026-05-03T08:35:31.999Z</time></trkpt><trkpt lat="44.119747868858965" lon="11.591561474497082"><ele>629.4</ele><time>2026-05-03T08:35:32.999Z</time></trkpt><trkpt lat="44.11977140634539" lon="11.591730494898572"><ele>631.1999999999999</ele><time>2026-05-03T08:35:34.999Z</time></trkpt><trkpt lat="44.11979556140757" lon="11.591813227612437"><ele>633.0</ele><time>2026-05-03T08:35:35.999Z</time></trkpt><trkpt lat="44.11983379968932" lon="11.591895666130807"><ele>633.4</ele><time>2026-05-03T08:35:36.999Z</time></trkpt><trkpt lat="44.119926323822085" lon="11.591921637672241"><ele>633.8</ele><time>2026-05-03T08:35:38.999Z</time></trkpt><trkpt lat="44.12004040012527" lon="11.592035201421796"><ele>634.2</ele><time>2026-05-03T08:35:40.999Z</time></trkpt><trkpt lat="44.120102394603286" lon="11.592108146266133"><ele>634.6</ele><time>2026-05-03T08:35:41.999Z</time></trkpt><trkpt lat="44.12015412243347" lon="11.592171345678866"><ele>635.0</ele><time>2026-05-03T08:35:42.999Z</time></trkpt><trkpt lat="44.12023117042337" lon="11.592277699577576"><ele>637.5</ele><time>2026-05-03T08:35:45.999Z</time></trkpt><trkpt lat="44.12027739286977" lon="11.59238649864686"><ele>640.0</ele><time>2026-05-03T08:35:47.999Z</time></trkpt><trkpt lat="44.12029246090821" lon="11.592518476855124"><ele>642.5</ele><time>2026-05-03T08:35:49.999Z</time></trkpt><trkpt lat="44.12029447069571" lon="11.592643831656178"><ele>645.0</ele><time>2026-05-03T08:35:52.999Z</time></trkpt><trkpt lat="44.1202848106177" lon="11.592743801038596"><ele>647.5</ele><time>2026-05-03T08:35:55.998Z</time></trkpt><trkpt lat="44.120290839999264" lon="11.592857235132856"><ele>650.0</ele><time>2026-05-03T08:35:56.998Z</time></trkpt><trkpt lat="44.12025598833791" lon="11.593034030005809"><ele>652.4</ele><time>2026-05-03T08:35:57.998Z</time></trkpt><trkpt lat="44.120225472517824" lon="11.593161011867327"><ele>654.8</ele><time>2026-05-03T08:35:59.998Z</time></trkpt><trkpt lat="44.12017959839524" lon="11.593267699432511"><ele>657.2</ele><time>2026-05-03T08:36:01.998Z</time></trkpt><trkpt lat="44.12014771589447" lon="11.593371927079755"><ele>659.6</ele><time>2026-05-03T08:36:04Z</time></trkpt><trkpt lat="44.120154339264744" lon="11.593525073202144"><ele>662.0</ele><time>2026-05-03T08:36:06Z</time></trkpt><trkpt lat="44.12020164075745" lon="11.593658947502739"><ele>665.1666666666666</ele><time>2026-05-03T08:36:08Z</time></trkpt><trkpt lat="44.12014523324181" lon="11.593763088685947"><ele>668.3333333333333</ele><time>2026-05-03T08:36:10Z</time></trkpt><trkpt lat="44.12011209238234" lon="11.593866494802912"><ele>671.5</ele><time>2026-05-03T08:36:12Z</time></trkpt><trkpt lat="44.12018299866966" lon="11.59390862337938"><ele>674.6666666666666</ele><time>2026-05-03T08:36:26Z</time></trkpt><trkpt lat="44.12021766905302" lon="11.594062909460263"><ele>677.8333333333334</ele><time>2026-05-03T08:36:28Z</time></trkpt><trkpt lat="44.12021624394939" lon="11.594159473314763"><ele>681.0</ele><time>2026-05-03T08:36:29Z</time></trkpt><trkpt lat="44.120274455590625" lon="11.594330788526431"><ele>681.0</ele><time>2026-05-03T08:36:31Z</time></trkpt><trkpt lat="44.12031418753215" lon="11.594402673518855"><ele>681.0</ele><time>2026-05-03T08:36:32Z</time></trkpt><trkpt lat="44.12034927491988" lon="11.594487398804363"><ele>681.0</ele><time>2026-05-03T08:36:33Z</time></trkpt><trkpt lat="44.12037903275651" lon="11.59459136912854"><ele>681.0</ele><time>2026-05-03T08:36:34Z</time></trkpt><trkpt lat="44.12040994874135" lon="11.594697202245543"><ele>681.0</ele><time>2026-05-03T08:36:35Z</time></trkpt><trkpt lat="44.120430027972226" lon="11.594788221675486"><ele>681.0</ele><time>2026-05-03T08:36:36Z</time></trkpt><trkpt lat="44.120469108051864" lon="11.594928476743844"><ele>686.8</ele><time>2026-05-03T08:36:38Z</time></trkpt><trkpt lat="44.12050589156078" lon="11.595098328881841"><ele>692.5999999999999</ele><time>2026-05-03T08:36:40Z</time></trkpt><trkpt lat="44.12052942965844" lon="11.595213246263887"><ele>698.4</ele><time>2026-05-03T08:36:41Z</time></trkpt><trkpt lat="44.120548918816326" lon="11.595308048839714"><ele>704.2</ele><time>2026-05-03T08:36:42Z</time></trkpt><trkpt lat="44.12056210679629" lon="11.595426011152755"><ele>710.0</ele><time>2026-05-03T08:36:43Z</time></trkpt><trkpt lat="44.12060993998811" lon="11.595585150898273"><ele>710.0</ele><time>2026-05-03T08:36:45Z</time></trkpt><trkpt lat="44.12064480389858" lon="11.59568060091255"><ele>710.0</ele><time>2026-05-03T08:36:46Z</time></trkpt><trkpt lat="44.120677883746716" lon="11.595757601471606"><ele>710.0</ele><time>2026-05-03T08:36:47Z</time></trkpt><trkpt lat="44.12074909824905" lon="11.595885890671367"><ele>710.0</ele><time>2026-05-03T08:36:49Z</time></trkpt><trkpt lat="44.12076119286355" lon="11.595985360786393"><ele>710.0</ele><time>2026-05-03T08:36:50Z</time></trkpt><trkpt lat="44.120771111881034" lon="11.596152664926185"><ele>712.8</ele><time>2026-05-03T08:36:51.999Z</time></trkpt><trkpt lat="44.120767433152075" lon="11.596269602477417"><ele>715.6</ele><time>2026-05-03T08:36:53.999Z</time></trkpt><trkpt lat="44.120690534037045" lon="11.596406154451364"><ele>718.4000000000001</ele><time>2026-05-03T08:36:55.999Z</time></trkpt><trkpt lat="44.12065340404152" lon="11.596532889643177"><ele>721.2</ele><time>2026-05-03T08:36:57.999Z</time></trkpt><trkpt lat="44.120647445466055" lon="11.596639882565352"><ele>724.0</ele><time>2026-05-03T08:36:59.999Z</time></trkpt><trkpt lat="44.12066587575726" lon="11.596767867073133"><ele>728.6</ele><time>2026-05-03T08:37:01.999Z</time></trkpt><trkpt lat="44.12066652077786" lon="11.59689923956911"><ele>733.2</ele><time>2026-05-03T08:37:03.999Z</time></trkpt><trkpt lat="44.12068512025043" lon="11.597010936893852"><ele>737.8000000000001</ele><time>2026-05-03T08:37:05.999Z</time></trkpt><trkpt lat="44.12071258538332" lon="11.59713293990173"><ele>742.4000000000001</ele><time>2026-05-03T08:37:07.999Z</time></trkpt><trkpt lat="44.120658350871885" lon="11.597260162826517"><ele>747.0</ele><time>2026-05-03T08:37:09.999Z</time></trkpt><trkpt lat="44.12064131464022" lon="11.597362563894348"><ele>749.4000000000001</ele><time>2026-05-03T08:37:11.999Z</time></trkpt><trkpt lat="44.1206368651387" lon="11.5974720497579"><ele>751.8000000000001</ele><time>2026-05-03T08:37:13.999Z</time></trkpt><trkpt lat="44.12060413260376" lon="11.597609800954752"><ele>754.2</ele><time>2026-05-03T08:37:15.999Z</time></trkpt><trkpt lat="44.12051917514344" lon="11.597777933851031"><ele>756.6</ele><time>2026-05-03T08:37:17.999Z</time></trkpt><trkpt lat="44.120474849263516" lon="11.597901285197347"><ele>759.0</ele><time>2026-05-03T08:37:19.999Z</time></trkpt><trkpt lat="44.1204710435643" lon="11.597991593838977"><ele>761.0</ele><time>2026-05-03T08:37:21.999Z</time></trkpt><trkpt lat="44.120544216463514" lon="11.598081097682217"><ele>763.0</ele><time>2026-05-03T08:37:27.999Z</time></trkpt><trkpt lat="44.12060545826517" lon="11.598157215763505"><ele>765.0</ele><time>2026-05-03T08:37:29.999Z</time></trkpt><trkpt lat="44.12062753513304" lon="11.598308402455547"><ele>767.0</ele><time>2026-05-03T08:37:31.999Z</time></trkpt><trkpt lat="44.12064380113959" lon="11.59839545111388"><ele>769.0</ele><time>2026-05-03T08:37:32.999Z</time></trkpt><trkpt lat="44.12064564414826" lon="11.598496151423607"><ele>771.0</ele><time>2026-05-03T08:37:33.999Z</time></trkpt><trkpt lat="44.12066477226861" lon="11.5986535787121"><ele>770.8333333333334</ele><time>2026-05-03T08:37:35.999Z</time></trkpt><trkpt lat="44.120676200824015" lon="11.598805882126868"><ele>770.6666666666667</ele><time>2026-05-03T08:37:37.999Z</time></trkpt><trkpt lat="44.120680586233604" lon="11.59889377432832"><ele>770.5</ele><time>2026-05-03T08:37:38.999Z</time></trkpt><trkpt lat="44.120693603128" lon="11.598995790765347"><ele>770.3333333333334</ele><time>2026-05-03T08:37:39.999Z</time></trkpt><trkpt lat="44.120724039116425" lon="11.599079966135404"><ele>770.1666666666667</ele><time>2026-05-03T08:37:40.999Z</time></trkpt><trkpt lat="44.120765165732436" lon="11.599153325832832"><ele>770.0</ele><time>2026-05-03T08:37:41.999Z</time></trkpt><trkpt lat="44.12081114702167" lon="11.59929724360881"><ele>770.0000000000001</ele><time>2026-05-03T08:37:43.999Z</time></trkpt><trkpt lat="44.12083228223119" lon="11.599444234516787"><ele>770.0</ele><time>2026-05-03T08:37:45.999Z</time></trkpt><trkpt lat="44.12083107785543" lon="11.599531996419806"><ele>770.0</ele><time>2026-05-03T08:38:05.998Z</time></trkpt><trkpt lat="44.120754530296644" lon="11.599460299787799"><ele>770.0</ele><time>2026-05-03T08:38:11Z</time></trkpt><trkpt lat="44.120710615030596" lon="11.5993832407614"><ele>770.0000000000001</ele><time>2026-05-03T08:38:13Z</time></trkpt><trkpt lat="44.12067504041978" lon="11.599288042944844"><ele>770.0</ele><time>2026-05-03T08:38:15Z</time></trkpt><trkpt lat="44.12061568860003" lon="11.599210269075785"><ele>770.0</ele><time>2026-05-03T08:38:17Z</time></trkpt><trkpt lat="44.12058208177802" lon="11.599092454294675"><ele>770.0</ele><time>2026-05-03T08:38:19Z</time></trkpt><trkpt lat="44.12050290542296" lon="11.599037195826917"><ele>770.0</ele><time>2026-05-03T08:38:21Z</time></trkpt><trkpt lat="44.12040274397927" lon="11.598995407053977"><ele>770.0</ele><time>2026-05-03T08:38:23Z</time></trkpt><trkpt lat="44.12030225635475" lon="11.599001906774694"><ele>770.0</ele><time>2026-05-03T08:38:26Z</time></trkpt><trkpt lat="44.12025034582518" lon="11.599056277568735"><ele>770.0000000000001</ele><time>2026-05-03T08:38:27Z</time></trkpt><trkpt lat="44.12018399896999" lon="11.599147928284353"><ele>770.0</ele><time>2026-05-03T08:38:29Z</time></trkpt><trkpt lat="44.120112235903825" lon="11.59915748122813"><ele>770.0</ele><time>2026-05-03T08:38:31Z</time></trkpt><trkpt lat="44.120039159243944" lon="11.599060386796427"><ele>770.0</ele><time>2026-05-03T08:38:33Z</time></trkpt><trkpt lat="44.120005645335894" lon="11.598977105587283"><ele>770.0000000000001</ele><time>2026-05-03T08:38:34Z</time></trkpt><trkpt lat="44.119965547262765" lon="11.598885023523252"><ele>770.0</ele><time>2026-05-03T08:38:35Z</time></trkpt><trkpt lat="44.11989192157652" lon="11.598779302129424"><ele>770.5000000000001</ele><time>2026-05-03T08:38:37Z</time></trkpt><trkpt lat="44.11980650100087" lon="11.598729467070319"><ele>771.0</ele><time>2026-05-03T08:38:39Z</time></trkpt><trkpt lat="44.119770344039246" lon="11.59864878829388"><ele>771.5</ele><time>2026-05-03T08:38:40Z</time></trkpt><trkpt lat="44.11973646549623" lon="11.59855600704615"><ele>772.0</ele><time>2026-05-03T08:38:41Z</time></trkpt><trkpt lat="44.11968299931871" lon="11.59850370943478"><ele>772.5000000000001</ele><time>2026-05-03T08:38:42Z</time></trkpt><trkpt lat="44.11957522131834" lon="11.598578897355221"><ele>773.0</ele><time>2026-05-03T08:38:44Z</time></trkpt><trkpt lat="44.11950609248606" lon="11.598598668321454"><ele>773.0</ele><time>2026-05-03T08:38:45Z</time></trkpt><trkpt lat="44.11943247745502" lon="11.598594524066565"><ele>773.0</ele><time>2026-05-03T08:38:47Z</time></trkpt><trkpt lat="44.11934410431477" lon="11.598594066123141"><ele>773.0</ele><time>2026-05-03T08:38:49Z</time></trkpt><trkpt lat="44.11924142882145" lon="11.598635089597446"><ele>773.0</ele><time>2026-05-03T08:38:51Z</time></trkpt><trkpt lat="44.119134217228066" lon="11.598705549847574"><ele>773.0</ele><time>2026-05-03T08:38:53Z</time></trkpt><trkpt lat="44.11907607888289" lon="11.598747631007356"><ele>774.6666666666667</ele><time>2026-05-03T08:38:54Z</time></trkpt><trkpt lat="44.11896669552465" lon="11.598784559642331"><ele>776.3333333333334</ele><time>2026-05-03T08:38:56Z</time></trkpt><trkpt lat="44.11890810106736" lon="11.598736104563196"><ele>778.0</ele><time>2026-05-03T08:38:57.999Z</time></trkpt><trkpt lat="44.11882782760149" lon="11.598717165696645"><ele>779.6666666666667</ele><time>2026-05-03T08:39:09.999Z</time></trkpt><trkpt lat="44.11874937458603" lon="11.598718150561577"><ele>781.3333333333334</ele><time>2026-05-03T08:39:13.999Z</time></trkpt><trkpt lat="44.11866544367429" lon="11.598775132306551"><ele>783.0</ele><time>2026-05-03T08:39:15.999Z</time></trkpt><trkpt lat="44.11856939353596" lon="11.598808556313308"><ele>783.0</ele><time>2026-05-03T08:39:20.999Z</time></trkpt><trkpt lat="44.118483085687465" lon="11.59883843442686"><ele>783.0</ele><time>2026-05-03T08:39:22.999Z</time></trkpt><trkpt lat="44.118500371038486" lon="11.598735047460156"><ele>783.0</ele><time>2026-05-03T08:39:44.999Z</time></trkpt><trkpt lat="44.11845705629874" lon="11.598645241754893"><ele>783.0</ele><time>2026-05-03T08:39:47.999Z</time></trkpt><trkpt lat="44.118375327513654" lon="11.598627379014735"><ele>783.0</ele><time>2026-05-03T08:39:51.999Z</time></trkpt><trkpt lat="44.11830041772051" lon="11.598600482503732"><ele>783.0</ele><time>2026-05-03T08:39:53.999Z</time></trkpt><trkpt lat="44.11818495762117" lon="11.59852964881214"><ele>782.3333333333334</ele><time>2026-05-03T08:39:56.999Z</time></trkpt><trkpt lat="44.11805970789745" lon="11.598460860514994"><ele>781.6666666666667</ele><time>2026-05-03T08:39:58.999Z</time></trkpt><trkpt lat="44.117989187004866" lon="11.59841102243653"><ele>781.0</ele><time>2026-05-03T08:39:59.999Z</time></trkpt><trkpt lat="44.11792212535126" lon="11.59838216829006"><ele>780.3333333333334</ele><time>2026-05-03T08:40:00.999Z</time></trkpt><trkpt lat="44.11783596056837" lon="11.598324934655784"><ele>779.6666666666667</ele><time>2026-05-03T08:40:02.999Z</time></trkpt><trkpt lat="44.117768950109046" lon="11.598298808760157"><ele>779.0</ele><time>2026-05-03T08:40:04.999Z</time></trkpt><trkpt lat="44.11769498691544" lon="11.598207738214857"><ele>779.0000000000001</ele><time>2026-05-03T08:40:06.999Z</time></trkpt><trkpt lat="44.117623642545915" lon="11.598167297657252"><ele>779.0</ele><time>2026-05-03T08:40:07.998Z</time></trkpt><trkpt lat="44.11755816470477" lon="11.598123885661721"><ele>779.0</ele><time>2026-05-03T08:40:08.998Z</time></trkpt><trkpt lat="44.11750617801107" lon="11.59801691090589"><ele>779.0</ele><time>2026-05-03T08:40:10.998Z</time></trkpt><trkpt lat="44.11747274837575" lon="11.597885293752679"><ele>779.0000000000001</ele><time>2026-05-03T08:40:13.998Z</time></trkpt><trkpt lat="44.11740788435338" lon="11.59780505791207"><ele>779.0</ele><time>2026-05-03T08:40:16Z</time></trkpt><trkpt lat="44.11737633249516" lon="11.597724243887976"><ele>780.0000000000001</ele><time>2026-05-03T08:40:19Z</time></trkpt><trkpt lat="44.11732762852519" lon="11.597639674870738"><ele>781.0</ele><time>2026-05-03T08:40:21Z</time></trkpt><trkpt lat="44.11725046930613" lon="11.597634967139152"><ele>782.0</ele><time>2026-05-03T08:40:23Z</time></trkpt><trkpt lat="44.117125752494516" lon="11.597597534211879"><ele>783.0</ele><time>2026-05-03T08:40:25Z</time></trkpt><trkpt lat="44.11705291044662" lon="11.59760896398126"><ele>784.0000000000001</ele><time>2026-05-03T08:40:27Z</time></trkpt><trkpt lat="44.11699026911126" lon="11.597541025949413"><ele>785.0</ele><time>2026-05-03T08:40:29Z</time></trkpt><trkpt lat="44.116880862651435" lon="11.597472306920556"><ele>785.0000000000001</ele><time>2026-05-03T08:40:31Z</time></trkpt><trkpt lat="44.11678554612871" lon="11.597432903652637"><ele>785.0</ele><time>2026-05-03T08:40:33Z</time></trkpt><trkpt lat="44.11671690106225" lon="11.597397916720718"><ele>785.0</ele><time>2026-05-03T08:40:35Z</time></trkpt><trkpt lat="44.11664632341831" lon="11.597357823328965"><ele>785.0</ele><time>2026-05-03T08:40:37Z</time></trkpt><trkpt lat="44.1165689283211" lon="11.597319436527211"><ele>785.0000000000001</ele><time>2026-05-03T08:40:39Z</time></trkpt><trkpt lat="44.116499140280304" lon="11.59721386768813"><ele>785.0</ele><time>2026-05-03T08:40:41Z</time></trkpt><trkpt lat="44.11645989126642" lon="11.597121642867513"><ele>781.4</ele><time>2026-05-03T08:40:43Z</time></trkpt><trkpt lat="44.11637516607502" lon="11.596972496141769"><ele>777.8</ele><time>2026-05-03T08:40:45Z</time></trkpt><trkpt lat="44.116329968462765" lon="11.596844032959018"><ele>774.2</ele><time>2026-05-03T08:40:46Z</time></trkpt><trkpt lat="44.11629212077012" lon="11.596710002940227"><ele>770.6</ele><time>2026-05-03T08:40:49Z</time></trkpt><trkpt lat="44.116299469551016" lon="11.59660821665058"><ele>767.0</ele><time>2026-05-03T08:43:25.999Z</time></trkpt><trkpt lat="44.11626753513423" lon="11.596520329801553"><ele>767.0</ele><time>2026-05-03T08:43:29.999Z</time></trkpt><trkpt lat="44.11623199230131" lon="11.596422870186155"><ele>767.0</ele><time>2026-05-03T08:44:03.999Z</time></trkpt><trkpt lat="44.11618636824914" lon="11.596215150691325"><ele>767.0</ele><time>2026-05-03T08:45:27.999Z</time></trkpt><trkpt lat="44.11614688085477" lon="11.596144299775165"><ele>767.0</ele><time>2026-05-03T08:45:34.999Z</time></trkpt><trkpt lat="44.11616779081881" lon="11.596234864651617"><ele>767.0</ele><time>2026-05-03T08:45:49.999Z</time></trkpt><trkpt lat="44.11620277290113" lon="11.596309653120736"><ele>767.0</ele><time>2026-05-03T08:46:15.999Z</time></trkpt><trkpt lat="44.11618640918457" lon="11.596209808440523"><ele>769.1666666666666</ele><time>2026-05-03T08:46:44Z</time></trkpt><trkpt lat="44.116141129932394" lon="11.596145004676076"><ele>771.3333333333333</ele><time>2026-05-03T08:46:53Z</time></trkpt><trkpt lat="44.11609070441566" lon="11.596052540184317"><ele>773.5</ele><time>2026-05-03T08:47:03Z</time></trkpt><trkpt lat="44.11602489383397" lon="11.5959899150473"><ele>775.6666666666666</ele><time>2026-05-03T08:47:05Z</time></trkpt><trkpt lat="44.11596461027356" lon="11.595915994640567"><ele>777.8333333333334</ele><time>2026-05-03T08:47:09Z</time></trkpt><trkpt lat="44.115884768932396" lon="11.59579598207708"><ele>780.0</ele><time>2026-05-03T08:47:12Z</time></trkpt><trkpt lat="44.11584328823349" lon="11.595707920311407"><ele>780.0</ele><time>2026-05-03T08:47:14Z</time></trkpt><trkpt lat="44.11579811608896" lon="11.595577593756069"><ele>780.0</ele><time>2026-05-03T08:47:16Z</time></trkpt><trkpt lat="44.11575666889875" lon="11.595483919595022"><ele>780.0</ele><time>2026-05-03T08:47:18Z</time></trkpt><trkpt lat="44.11570607739839" lon="11.595425268513383"><ele>780.0</ele><time>2026-05-03T08:47:19.999Z</time></trkpt><trkpt lat="44.11567157644829" lon="11.59532913026338"><ele>780.0</ele><time>2026-05-03T08:47:23.999Z</time></trkpt><trkpt lat="44.115632100029245" lon="11.595202701851383"><ele>780.0</ele><time>2026-05-03T08:47:26.999Z</time></trkpt><trkpt lat="44.115589709117174" lon="11.595088896442588"><ele>780.1428571428571</ele><time>2026-05-03T08:47:29.999Z</time></trkpt><trkpt lat="44.11555458382644" lon="11.595001163213649"><ele>780.2857142857142</ele><time>2026-05-03T08:47:32.999Z</time></trkpt><trkpt lat="44.11549706936553" lon="11.594935124101905"><ele>780.4285714285714</ele><time>2026-05-03T08:47:34.999Z</time></trkpt><trkpt lat="44.11543779932183" lon="11.594884401117042"><ele>780.5714285714286</ele><time>2026-05-03T08:47:36.999Z</time></trkpt><trkpt lat="44.11537657792903" lon="11.594817720234104"><ele>780.7142857142858</ele><time>2026-05-03T08:47:39.999Z</time></trkpt><trkpt lat="44.11530413907416" lon="11.594764943150167"><ele>780.8571428571429</ele><time>2026-05-03T08:47:42.999Z</time></trkpt><trkpt lat="44.115239169194396" lon="11.594746622927902"><ele>781.0</ele><time>2026-05-03T08:47:44.999Z</time></trkpt><trkpt lat="44.115185075654416" lon="11.594692502786987"><ele>780.9999999999999</ele><time>2026-05-03T08:47:46.999Z</time></trkpt><trkpt lat="44.11514586879873" lon="11.594589494868293"><ele>781.0</ele><time>2026-05-03T08:47:49.999Z</time></trkpt><trkpt lat="44.11511885335415" lon="11.594506237403337"><ele>781.0</ele><time>2026-05-03T08:47:52.999Z</time></trkpt><trkpt lat="44.115034888710774" lon="11.594427363054525"><ele>781.0</ele><time>2026-05-03T08:47:55.999Z</time></trkpt><trkpt lat="44.11498820859714" lon="11.594367041307567"><ele>780.9999999999999</ele><time>2026-05-03T08:47:57.999Z</time></trkpt><trkpt lat="44.11496851386574" lon="11.594277266637304"><ele>781.0</ele><time>2026-05-03T08:48:00.999Z</time></trkpt><trkpt lat="44.11492157026173" lon="11.594194272146298"><ele>778.5714285714286</ele><time>2026-05-03T08:48:05.999Z</time></trkpt><trkpt lat="44.11487306507366" lon="11.594124143783647"><ele>776.1428571428571</ele><time>2026-05-03T08:48:09.999Z</time></trkpt><trkpt lat="44.114829674195896" lon="11.59403379464652"><ele>773.7142857142858</ele><time>2026-05-03T08:48:12.999Z</time></trkpt><trkpt lat="44.11478109116262" lon="11.593945237369432"><ele>771.2857142857142</ele><time>2026-05-03T08:48:15.999Z</time></trkpt><trkpt lat="44.11474628584708" lon="11.59384510614429"><ele>768.8571428571428</ele><time>2026-05-03T08:48:19.999Z</time></trkpt><trkpt lat="44.1146930321316" lon="11.593789517683405"><ele>766.4285714285714</ele><time>2026-05-03T08:48:33.999Z</time></trkpt><trkpt lat="44.11472360397519" lon="11.593876872077814"><ele>764.0</ele><time>2026-05-03T08:48:51Z</time></trkpt><trkpt lat="44.11475331057257" lon="11.593982501408044"><ele>764.0</ele><time>2026-05-03T08:48:55Z</time></trkpt><trkpt lat="44.11479670758391" lon="11.59405403542111"><ele>764.0</ele><time>2026-05-03T08:48:59Z</time></trkpt><trkpt lat="44.114769957523194" lon="11.593963668086648"><ele>764.0</ele><time>2026-05-03T08:49:17Z</time></trkpt><trkpt lat="44.11474827559123" lon="11.59387939089098"><ele>764.0</ele><time>2026-05-03T08:49:20Z</time></trkpt><trkpt lat="44.11471106108204" lon="11.593797410391216"><ele>764.0</ele><time>2026-05-03T08:49:25.999Z</time></trkpt><trkpt lat="44.11464637245818" lon="11.593727032372195"><ele>764.0</ele><time>2026-05-03T08:49:35.999Z</time></trkpt><trkpt lat="44.1145801285998" lon="11.59368006400284"><ele>764.0</ele><time>2026-05-03T08:50:01.999Z</time></trkpt><trkpt lat="44.11455021001156" lon="11.59359167833823"><ele>767.2</ele><time>2026-05-03T08:50:04.999Z</time></trkpt><trkpt lat="44.11449868074276" lon="11.593476024692722"><ele>770.4000000000001</ele><time>2026-05-03T08:50:07.999Z</time></trkpt><trkpt lat="44.114466739177935" lon="11.593361674323747"><ele>773.6</ele><time>2026-05-03T08:50:10.999Z</time></trkpt><trkpt lat="44.11444006585937" lon="11.593199549060316"><ele>776.8</ele><time>2026-05-03T08:50:13.999Z</time></trkpt><trkpt lat="44.11443351158727" lon="11.593096615094218"><ele>780.0</ele><time>2026-05-03T08:50:15.999Z</time></trkpt><trkpt lat="44.11436950484219" lon="11.592975825880234"><ele>780.0</ele><time>2026-05-03T08:50:17.999Z</time></trkpt><trkpt lat="44.1143350239944" lon="11.592879735395746"><ele>780.0</ele><time>2026-05-03T08:50:19.999Z</time></trkpt><trkpt lat="44.11430064252653" lon="11.592795433760738"><ele>780.0</ele><time>2026-05-03T08:50:21.999Z</time></trkpt><trkpt lat="44.11425319617477" lon="11.592707266758172"><ele>780.0</ele><time>2026-05-03T08:50:23.999Z</time></trkpt><trkpt lat="44.114196656013284" lon="11.592636082503997"><ele>780.0</ele><time>2026-05-03T08:50:25.999Z</time></trkpt><trkpt lat="44.11414972829196" lon="11.59255415156659"><ele>780.0</ele><time>2026-05-03T08:50:27.999Z</time></trkpt><trkpt lat="44.114120442300205" lon="11.592449764721023"><ele>779.6666666666666</ele><time>2026-05-03T08:50:29.999Z</time></trkpt><trkpt lat="44.11405517145027" lon="11.592393107017399"><ele>779.3333333333333</ele><time>2026-05-03T08:50:31.999Z</time></trkpt><trkpt lat="44.11397656947549" lon="11.592337529334625"><ele>779.0</ele><time>2026-05-03T08:50:33.999Z</time></trkpt><trkpt lat="44.11391989294908" lon="11.592252965505649"><ele>778.6666666666666</ele><time>2026-05-03T08:50:35.999Z</time></trkpt><trkpt lat="44.11387283038466" lon="11.5921178555956"><ele>778.3333333333333</ele><time>2026-05-03T08:50:37.999Z</time></trkpt><trkpt lat="44.113845515480214" lon="11.592033603496876"><ele>778.0</ele><time>2026-05-03T08:50:38.999Z</time></trkpt><trkpt lat="44.113798217948414" lon="11.59191170786858"><ele>778.0</ele><time>2026-05-03T08:50:40.999Z</time></trkpt><trkpt lat="44.11372040065212" lon="11.591778370592989"><ele>778.0</ele><time>2026-05-03T08:50:42.998Z</time></trkpt><trkpt lat="44.11368754681833" lon="11.591701133556604"><ele>778.0</ele><time>2026-05-03T08:50:43.998Z</time></trkpt><trkpt lat="44.113663063260546" lon="11.591614324133547"><ele>778.0</ele><time>2026-05-03T08:50:44.998Z</time></trkpt><trkpt lat="44.1135696353032" lon="11.591511050683891"><ele>778.0</ele><time>2026-05-03T08:50:47Z</time></trkpt><trkpt lat="44.113509234464615" lon="11.591410861126757"><ele>778.0</ele><time>2026-05-03T08:50:49Z</time></trkpt><trkpt lat="44.11342623186068" lon="11.591332534309275"><ele>778.0</ele><time>2026-05-03T08:50:51Z</time></trkpt><trkpt lat="44.11337166358802" lon="11.591196366678796"><ele>778.0</ele><time>2026-05-03T08:50:53Z</time></trkpt><trkpt lat="44.11331011444943" lon="11.591068414221475"><ele>778.0</ele><time>2026-05-03T08:50:55Z</time></trkpt><trkpt lat="44.113267853140705" lon="11.590950373977055"><ele>778.0</ele><time>2026-05-03T08:50:57Z</time></trkpt><trkpt lat="44.113235340739735" lon="11.590797356327466"><ele>777.5999999999999</ele><time>2026-05-03T08:50:59Z</time></trkpt><trkpt lat="44.11320358792664" lon="11.59071467756798"><ele>777.1999999999999</ele><time>2026-05-03T08:51:00Z</time></trkpt><trkpt lat="44.113157130991645" lon="11.590575909307429"><ele>776.8</ele><time>2026-05-03T08:51:02Z</time></trkpt><trkpt lat="44.11309629395934" lon="11.590425350098904"><ele>776.4</ele><time>2026-05-03T08:51:04Z</time></trkpt><trkpt lat="44.1130591583011" lon="11.590299433098062"><ele>776.0</ele><time>2026-05-03T08:51:07Z</time></trkpt><trkpt lat="44.11306250641769" lon="11.590145364624481"><ele>776.0000000000001</ele><time>2026-05-03T08:51:09Z</time></trkpt><trkpt lat="44.11303406787262" lon="11.590066103075687"><ele>776.0</ele><time>2026-05-03T08:51:10Z</time></trkpt><trkpt lat="44.11297786168988" lon="11.589975906700671"><ele>776.0</ele><time>2026-05-03T08:51:11Z</time></trkpt><trkpt lat="44.11294190103623" lon="11.589874207832862"><ele>776.0</ele><time>2026-05-03T08:51:12Z</time></trkpt><trkpt lat="44.112905302896664" lon="11.589768383621347"><ele>776.0000000000001</ele><time>2026-05-03T08:51:15Z</time></trkpt><trkpt lat="44.11287499817079" lon="11.589667970124543"><ele>776.0</ele><time>2026-05-03T08:51:19Z</time></trkpt><trkpt lat="44.112851373852386" lon="11.589562867154644"><ele>777.4</ele><time>2026-05-03T08:51:21Z</time></trkpt><trkpt lat="44.1128291372379" lon="11.589438639874107"><ele>778.8</ele><time>2026-05-03T08:51:22Z</time></trkpt><trkpt lat="44.11280430812632" lon="11.589335070338214"><ele>780.1999999999999</ele><time>2026-05-03T08:51:24Z</time></trkpt><trkpt lat="44.112818932739245" lon="11.589198684663874"><ele>781.5999999999999</ele><time>2026-05-03T08:51:27Z</time></trkpt><trkpt lat="44.112797649901935" lon="11.58906063781538"><ele>783.0</ele><time>2026-05-03T08:51:30Z</time></trkpt><trkpt lat="44.11280437732316" lon="11.588931995139939"><ele>783.0</ele><time>2026-05-03T08:51:33Z</time></trkpt><trkpt lat="44.112820272121446" lon="11.588814957236284"><ele>783.0</ele><time>2026-05-03T08:51:35Z</time></trkpt><trkpt lat="44.11283749358703" lon="11.5887182757948"><ele>783.0</ele><time>2026-05-03T08:51:37.999Z</time></trkpt><trkpt lat="44.11281959021455" lon="11.588548299973858"><ele>783.0</ele><time>2026-05-03T08:51:40.999Z</time></trkpt><trkpt lat="44.11282517954857" lon="11.588349719151507"><ele>783.0</ele><time>2026-05-03T08:51:42.999Z</time></trkpt><trkpt lat="44.112843672345335" lon="11.588256050641528"><ele>783.3333333333334</ele><time>2026-05-03T08:51:43.999Z</time></trkpt><trkpt lat="44.112860166048684" lon="11.58816786029936"><ele>783.6666666666667</ele><time>2026-05-03T08:51:44.999Z</time></trkpt><trkpt lat="44.11280959807151" lon="11.588047309796735"><ele>784.0</ele><time>2026-05-03T08:51:47.999Z</time></trkpt><trkpt lat="44.1128439876481" lon="11.587952607927766"><ele>784.3333333333334</ele><time>2026-05-03T08:51:50.999Z</time></trkpt><trkpt lat="44.11289009836499" lon="11.587804207125602"><ele>784.6666666666667</ele><time>2026-05-03T08:51:51.999Z</time></trkpt><trkpt lat="44.112855066444986" lon="11.587723704364498"><ele>785.0</ele><time>2026-05-03T08:51:52.999Z</time></trkpt><trkpt lat="44.112866295728864" lon="11.587590481412994"><ele>786.0000000000001</ele><time>2026-05-03T08:51:54.999Z</time></trkpt><trkpt lat="44.11281161214924" lon="11.587527828271964"><ele>787.0</ele><time>2026-05-03T08:52:05.999Z</time></trkpt><trkpt lat="44.11277316342402" lon="11.587447875239665"><ele>788.0</ele><time>2026-05-03T08:52:07.999Z</time></trkpt><trkpt lat="44.11273981549104" lon="11.587368031090177"><ele>789.0</ele><time>2026-05-03T08:52:09.999Z</time></trkpt><trkpt lat="44.11269232356015" lon="11.58731007031649"><ele>790.0000000000001</ele><time>2026-05-03T08:52:18.999Z</time></trkpt><trkpt lat="44.11267330397732" lon="11.587217834837586"><ele>791.0</ele><time>2026-05-03T08:52:20.999Z</time></trkpt><trkpt lat="44.112593988717215" lon="11.587108482977886"><ele>791.5000000000001</ele><time>2026-05-03T08:52:23.999Z</time></trkpt><trkpt lat="44.11253992696209" lon="11.58698531521946"><ele>792.0</ele><time>2026-05-03T08:52:25.999Z</time></trkpt><trkpt lat="44.11251907612714" lon="11.586874586722889"><ele>792.5</ele><time>2026-05-03T08:52:27.999Z</time></trkpt><trkpt lat="44.11248707374577" lon="11.58679399493234"><ele>793.0</ele><time>2026-05-03T08:52:28.999Z</time></trkpt><trkpt lat="44.11242272988643" lon="11.586677192559662"><ele>793.5000000000001</ele><time>2026-05-03T08:52:30.999Z</time></trkpt><trkpt lat="44.11238557823392" lon="11.586568597783673"><ele>794.0</ele><time>2026-05-03T08:52:32.999Z</time></trkpt><trkpt lat="44.1123772574523" lon="11.586457835648188"><ele>794.0000000000001</ele><time>2026-05-03T08:52:35.999Z</time></trkpt><trkpt lat="44.112363281254794" lon="11.586361997952842"><ele>794.0</ele><time>2026-05-03T08:52:38.999Z</time></trkpt><trkpt lat="44.11234179529782" lon="11.586275488053696"><ele>794.0</ele><time>2026-05-03T08:52:44.999Z</time></trkpt><trkpt lat="44.112361777020816" lon="11.58616171155526"><ele>794.0</ele><time>2026-05-03T08:54:04.999Z</time></trkpt><trkpt lat="44.11238215318612" lon="11.586058615843408"><ele>794.0000000000001</ele><time>2026-05-03T08:54:06.999Z</time></trkpt><trkpt lat="44.11241686940716" lon="11.585893392241928"><ele>794.0</ele><time>2026-05-03T08:54:08.999Z</time></trkpt><trkpt lat="44.11244222936773" lon="11.585810015231429"><ele>797.6</ele><time>2026-05-03T08:54:09.999Z</time></trkpt><trkpt lat="44.11245521086169" lon="11.585658738678331"><ele>801.2</ele><time>2026-05-03T08:54:10.999Z</time></trkpt><trkpt lat="44.112492573458404" lon="11.585543966738065"><ele>804.8000000000001</ele><time>2026-05-03T08:54:11.999Z</time></trkpt><trkpt lat="44.11252657452849" lon="11.585463032554086"><ele>808.4000000000001</ele><time>2026-05-03T08:54:12.999Z</time></trkpt><trkpt lat="44.112624844906826" lon="11.585410911156632"><ele>812.0</ele><time>2026-05-03T08:54:14.999Z</time></trkpt><trkpt lat="44.11269701431284" lon="11.5853591150147"><ele>813.8333333333334</ele><time>2026-05-03T08:54:15.999Z</time></trkpt><trkpt lat="44.112732552418315" lon="11.585235918350175"><ele>815.6666666666667</ele><time>2026-05-03T08:54:17.999Z</time></trkpt><trkpt lat="44.11273906660912" lon="11.58514363234676"><ele>817.5</ele><time>2026-05-03T08:54:18.999Z</time></trkpt><trkpt lat="44.11273667237779" lon="11.58504955214353"><ele>819.3333333333333</ele><time>2026-05-03T08:54:19.999Z</time></trkpt><trkpt lat="44.1127096605582" lon="11.584954031314606"><ele>821.1666666666666</ele><time>2026-05-03T08:54:20.999Z</time></trkpt><trkpt lat="44.112712763830736" lon="11.584854974654267"><ele>823.0</ele><time>2026-05-03T08:54:21.999Z</time></trkpt><trkpt lat="44.11272985912591" lon="11.584697157826044"><ele>822.9999999999999</ele><time>2026-05-03T08:54:23.999Z</time></trkpt><trkpt lat="44.11278066009439" lon="11.584636579525021"><ele>823.0</ele><time>2026-05-03T08:54:25.999Z</time></trkpt><trkpt lat="44.11288347395084" lon="11.584592899932916"><ele>823.0</ele><time>2026-05-03T08:54:27.999Z</time></trkpt><trkpt lat="44.112919624930704" lon="11.58449490313848"><ele>823.0</ele><time>2026-05-03T08:54:28.999Z</time></trkpt><trkpt lat="44.11297963740852" lon="11.584459528832573"><ele>822.9999999999999</ele><time>2026-05-03T08:54:29.999Z</time></trkpt><trkpt lat="44.113078475014284" lon="11.58439617453411"><ele>823.0</ele><time>2026-05-03T08:54:31.999Z</time></trkpt><trkpt lat="44.113174643158004" lon="11.584328529456391"><ele>815.4</ele><time>2026-05-03T08:54:33.999Z</time></trkpt><trkpt lat="44.11324068629992" lon="11.58421116830914"><ele>807.8</ele><time>2026-05-03T08:54:35.999Z</time></trkpt><trkpt lat="44.113325360669045" lon="11.584147482310053"><ele>800.2</ele><time>2026-05-03T08:54:37.999Z</time></trkpt><trkpt lat="44.11344012863239" lon="11.584119654449111"><ele>792.6</ele><time>2026-05-03T08:54:39.999Z</time></trkpt><trkpt lat="44.11351013314956" lon="11.584118573109182"><ele>785.0</ele><time>2026-05-03T08:54:40.999Z</time></trkpt><trkpt lat="44.113581133814186" lon="11.58412814247558"><ele>785.0000000000001</ele><time>2026-05-03T08:54:41.999Z</time></trkpt><trkpt lat="44.1136565598881" lon="11.58413809380863"><ele>785.0</ele><time>2026-05-03T08:54:42.999Z</time></trkpt><trkpt lat="44.11373257954484" lon="11.58415163437934"><ele>785.0</ele><time>2026-05-03T08:54:43.999Z</time></trkpt><trkpt lat="44.11380759471067" lon="11.584157240956731"><ele>785.0</ele><time>2026-05-03T08:54:44.999Z</time></trkpt><trkpt lat="44.113894150970566" lon="11.584160179108919"><ele>785.0000000000001</ele><time>2026-05-03T08:54:45.999Z</time></trkpt><trkpt lat="44.11396825372072" lon="11.584188535861276"><ele>785.0</ele><time>2026-05-03T08:54:46.999Z</time></trkpt><trkpt lat="44.114074051425064" lon="11.584207250379714"><ele>783.0</ele><time>2026-05-03T08:54:48.999Z</time></trkpt><trkpt lat="44.114179245421454" lon="11.584133698205944"><ele>781.0</ele><time>2026-05-03T08:54:50.999Z</time></trkpt><trkpt lat="44.11426555934178" lon="11.584064329845736"><ele>779.0</ele><time>2026-05-03T08:54:52.999Z</time></trkpt><trkpt lat="44.114390440662696" lon="11.58408032256084"><ele>777.0</ele><time>2026-05-03T08:54:54.999Z</time></trkpt><trkpt lat="44.114472198165465" lon="11.584152646006382"><ele>775.0</ele><time>2026-05-03T08:54:56.999Z</time></trkpt><trkpt lat="44.114509248635194" lon="11.584229205692694"><ele>775.0</ele><time>2026-05-03T08:54:58Z</time></trkpt><trkpt lat="44.11455021899157" lon="11.584306380767"><ele>775.0</ele><time>2026-05-03T08:54:59Z</time></trkpt><trkpt lat="44.114640852385406" lon="11.584345573422947"><ele>775.0</ele><time>2026-05-03T08:55:01Z</time></trkpt><trkpt lat="44.11473815296851" lon="11.584287882455534"><ele>775.0</ele><time>2026-05-03T08:55:03Z</time></trkpt><trkpt lat="44.11486115895815" lon="11.58433456387451"><ele>775.0</ele><time>2026-05-03T08:55:05Z</time></trkpt><trkpt lat="44.11493931794984" lon="11.584374366567273"><ele>774.8333333333333</ele><time>2026-05-03T08:55:06Z</time></trkpt><trkpt lat="44.11500015309475" lon="11.58439882869705"><ele>774.6666666666666</ele><time>2026-05-03T08:55:07Z</time></trkpt><trkpt lat="44.11509044144178" lon="11.584451036976352"><ele>774.5</ele><time>2026-05-03T08:55:09Z</time></trkpt><trkpt lat="44.115173793054375" lon="11.584474189645555"><ele>774.3333333333333</ele><time>2026-05-03T08:55:12Z</time></trkpt><trkpt lat="44.11524315768282" lon="11.584446983620492"><ele>774.1666666666666</ele><time>2026-05-03T08:55:13Z</time></trkpt><trkpt lat="44.115313297118796" lon="11.584440992891901"><ele>774.0</ele><time>2026-05-03T08:55:14Z</time></trkpt><trkpt lat="44.115393551202914" lon="11.584452344273618"><ele>774.0</ele><time>2026-05-03T08:55:15Z</time></trkpt><trkpt lat="44.11548132524776" lon="11.58446185364707"><ele>774.0</ele><time>2026-05-03T08:55:16Z</time></trkpt><trkpt lat="44.11555795615825" lon="11.584466060245974"><ele>774.0</ele><time>2026-05-03T08:55:17Z</time></trkpt><trkpt lat="44.115624304002566" lon="11.584458632309202"><ele>774.0</ele><time>2026-05-03T08:55:18Z</time></trkpt><trkpt lat="44.11569547562644" lon="11.584444922571011"><ele>774.0</ele><time>2026-05-03T08:55:19Z</time></trkpt><trkpt lat="44.115765266349214" lon="11.584443813632733"><ele>774.0</ele><time>2026-05-03T08:55:20Z</time></trkpt><trkpt lat="44.11588054091261" lon="11.584395519963662"><ele>776.4000000000001</ele><time>2026-05-03T08:55:22Z</time></trkpt><trkpt lat="44.11598195547452" lon="11.584305795659226"><ele>778.8</ele><time>2026-05-03T08:55:24Z</time></trkpt><trkpt lat="44.11610785733282" lon="11.58430590429686"><ele>781.2</ele><time>2026-05-03T08:55:26Z</time></trkpt><trkpt lat="44.116200579547666" lon="11.584296485766972"><ele>783.5999999999999</ele><time>2026-05-03T08:55:28Z</time></trkpt><trkpt lat="44.11628089967699" lon="11.58425732234617"><ele>786.0</ele><time>2026-05-03T08:55:30Z</time></trkpt><trkpt lat="44.11638750449" lon="11.584231853628395"><ele>786.0</ele><time>2026-05-03T08:55:32Z</time></trkpt><trkpt lat="44.11647224416507" lon="11.58424098244211"><ele>786.0</ele><time>2026-05-03T08:55:34Z</time></trkpt><trkpt lat="44.11653608385631" lon="11.584222514131405"><ele>786.0</ele><time>2026-05-03T08:55:35Z</time></trkpt><trkpt lat="44.11659522792663" lon="11.584124675239476"><ele>786.0</ele><time>2026-05-03T08:55:39Z</time></trkpt><trkpt lat="44.11658077656679" lon="11.584006725588614"><ele>786.0</ele><time>2026-05-03T08:55:42Z</time></trkpt><trkpt lat="44.11654734865181" lon="11.58392398211221"><ele>786.0</ele><time>2026-05-03T08:55:45Z</time></trkpt><trkpt lat="44.116501763379596" lon="11.58383102484819"><ele>786.0</ele><time>2026-05-03T08:55:47Z</time></trkpt><trkpt lat="44.116442738672966" lon="11.583753258187253"><ele>786.0</ele><time>2026-05-03T08:55:49.999Z</time></trkpt><trkpt lat="44.116397585229905" lon="11.583659318933055"><ele>786.0</ele><time>2026-05-03T08:56:11.999Z</time></trkpt><trkpt lat="44.116320499508504" lon="11.583573301161922"><ele>786.0</ele><time>2026-05-03T08:56:13.999Z</time></trkpt><trkpt lat="44.11624887718439" lon="11.583468039300659"><ele>786.0</ele><time>2026-05-03T08:56:15.999Z</time></trkpt><trkpt lat="44.11618977209186" lon="11.583343329435936"><ele>783.1999999999999</ele><time>2026-05-03T08:56:17.999Z</time></trkpt><trkpt lat="44.11611494831805" lon="11.583264749716356"><ele>780.4</ele><time>2026-05-03T08:56:19.999Z</time></trkpt><trkpt lat="44.11602299042738" lon="11.58317725899489"><ele>777.6</ele><time>2026-05-03T08:56:21.999Z</time></trkpt><trkpt lat="44.11594891404961" lon="11.583099131132437"><ele>774.8</ele><time>2026-05-03T08:56:23.999Z</time></trkpt><trkpt lat="44.11587429185557" lon="11.583023316206953"><ele>772.0</ele><time>2026-05-03T08:56:25.999Z</time></trkpt><trkpt lat="44.11579906942906" lon="11.58293341282949"><ele>768.1666666666666</ele><time>2026-05-03T08:56:27.999Z</time></trkpt><trkpt lat="44.115722974128104" lon="11.582838975912692"><ele>764.3333333333333</ele><time>2026-05-03T08:56:29.999Z</time></trkpt><trkpt lat="44.115646662461934" lon="11.582755272316481"><ele>760.5</ele><time>2026-05-03T08:56:31.999Z</time></trkpt><trkpt lat="44.11557993891516" lon="11.5826844302092"><ele>756.6666666666666</ele><time>2026-05-03T08:56:33.999Z</time></trkpt><trkpt lat="44.115538586809805" lon="11.582605417434147"><ele>752.8333333333333</ele><time>2026-05-03T08:56:35.999Z</time></trkpt><trkpt lat="44.1154936786601" lon="11.582532839870478"><ele>749.0</ele><time>2026-05-03T08:56:37.999Z</time></trkpt><trkpt lat="44.11545713586113" lon="11.582411698065025"><ele>749.0</ele><time>2026-05-03T08:56:40.999Z</time></trkpt><trkpt lat="44.11546464797489" lon="11.582318168531527"><ele>749.0</ele><time>2026-05-03T08:56:44.999Z</time></trkpt><trkpt lat="44.115413162198024" lon="11.582259552948768"><ele>749.0</ele><time>2026-05-03T08:56:47.999Z</time></trkpt><trkpt lat="44.115371107573765" lon="11.582191369289136"><ele>749.0</ele><time>2026-05-03T08:56:49.999Z</time></trkpt><trkpt lat="44.11533440936482" lon="11.582093510485235"><ele>749.0</ele><time>2026-05-03T08:56:51.999Z</time></trkpt><trkpt lat="44.11528215271068" lon="11.582025906795947"><ele>749.0</ele><time>2026-05-03T08:56:54.999Z</time></trkpt><trkpt lat="44.115245224674396" lon="11.581940786316402"><ele>749.0</ele><time>2026-05-03T08:56:58.999Z</time></trkpt><trkpt lat="44.11516805890255" lon="11.581867881635112"><ele>744.8000000000001</ele><time>2026-05-03T08:57:01.999Z</time></trkpt><trkpt lat="44.11512392387824" lon="11.581793286540877"><ele>740.6</ele><time>2026-05-03T08:57:04Z</time></trkpt><trkpt lat="44.115089801276326" lon="11.581685452421043"><ele>736.4</ele><time>2026-05-03T08:57:08Z</time></trkpt><trkpt lat="44.1150744687308" lon="11.58158495897516"><ele>732.2</ele><time>2026-05-03T08:57:11Z</time></trkpt><trkpt lat="44.11499654387446" lon="11.581674877728194"><ele>728.0</ele><time>2026-05-03T08:57:27Z</time></trkpt><trkpt lat="44.11491279849754" lon="11.58180159394936"><ele>727.7142857142857</ele><time>2026-05-03T08:57:29Z</time></trkpt><trkpt lat="44.11485385177071" lon="11.581837063775122"><ele>727.4285714285714</ele><time>2026-05-03T08:57:30Z</time></trkpt><trkpt lat="44.11479074038282" lon="11.581855077809085"><ele>727.1428571428571</ele><time>2026-05-03T08:57:31Z</time></trkpt><trkpt lat="44.11472584092556" lon="11.581854949789042"><ele>726.8571428571429</ele><time>2026-05-03T08:57:32Z</time></trkpt><trkpt lat="44.11466025589723" lon="11.581840355734252"><ele>726.5714285714286</ele><time>2026-05-03T08:57:33Z</time></trkpt><trkpt lat="44.11459469929889" lon="11.58183290504963"><ele>726.2857142857142</ele><time>2026-05-03T08:57:34Z</time></trkpt><trkpt lat="44.11452643758122" lon="11.581829624890016"><ele>726.0</ele><time>2026-05-03T08:57:35Z</time></trkpt><trkpt lat="44.11445730683515" lon="11.58184678980398"><ele>726.0</ele><time>2026-05-03T08:57:36Z</time></trkpt><trkpt lat="44.114374857897374" lon="11.581877732438427"><ele>726.0</ele><time>2026-05-03T08:57:37Z</time></trkpt><trkpt lat="44.11428384971289" lon="11.581917179329945"><ele>726.0</ele><time>2026-05-03T08:57:38Z</time></trkpt><trkpt lat="44.11420089853614" lon="11.581958774648113"><ele>726.0</ele><time>2026-05-03T08:57:39Z</time></trkpt><trkpt lat="44.11412426463951" lon="11.582021123359752"><ele>726.0</ele><time>2026-05-03T08:57:40Z</time></trkpt><trkpt lat="44.11404697238122" lon="11.582092311208262"><ele>729.5</ele><time>2026-05-03T08:57:41Z</time></trkpt><trkpt lat="44.11396613504171" lon="11.582157576955941"><ele>733.0</ele><time>2026-05-03T08:57:42Z</time></trkpt><trkpt lat="44.11389758012774" lon="11.58223646064995"><ele>736.5</ele><time>2026-05-03T08:57:43Z</time></trkpt><trkpt lat="44.113843468609254" lon="11.582327353248171"><ele>740.0</ele><time>2026-05-03T08:57:44Z</time></trkpt><trkpt lat="44.11379787513866" lon="11.58242189187031"><ele>743.5</ele><time>2026-05-03T08:57:45Z</time></trkpt><trkpt lat="44.11375574522653" lon="11.582520348854802"><ele>747.0</ele><time>2026-05-03T08:57:46Z</time></trkpt><trkpt lat="44.11370084876088" lon="11.582606263853178"><ele>747.0</ele><time>2026-05-03T08:57:47Z</time></trkpt><trkpt lat="44.113623108999576" lon="11.582665986254327"><ele>747.0</ele><time>2026-05-03T08:57:48Z</time></trkpt><trkpt lat="44.11353221290573" lon="11.582701147268017"><ele>747.0</ele><time>2026-05-03T08:57:49Z</time></trkpt><trkpt lat="44.11344410240058" lon="11.582718931010788"><ele>747.0</ele><time>2026-05-03T08:57:50Z</time></trkpt><trkpt lat="44.113367358963835" lon="11.582743911435957"><ele>747.0</ele><time>2026-05-03T08:57:51Z</time></trkpt><trkpt lat="44.113294679777745" lon="11.582749336821859"><ele>747.0</ele><time>2026-05-03T08:57:52Z</time></trkpt><trkpt lat="44.113232271715255" lon="11.582710178185994"><ele>754.6666666666666</ele><time>2026-05-03T08:57:53Z</time></trkpt><trkpt lat="44.113172085444305" lon="11.582636329865615"><ele>762.3333333333333</ele><time>2026-05-03T08:57:54Z</time></trkpt><trkpt lat="44.113110712936205" lon="11.582564044617385"><ele>770.0</ele><time>2026-05-03T08:57:55Z</time></trkpt><trkpt lat="44.113040135469916" lon="11.582493616609423"><ele>777.6666666666666</ele><time>2026-05-03T08:57:55.999Z</time></trkpt><trkpt lat="44.112969264937654" lon="11.582429729990576"><ele>785.3333333333333</ele><time>2026-05-03T08:57:56.999Z</time></trkpt><trkpt lat="44.11290354028186" lon="11.582355398526586"><ele>793.0</ele><time>2026-05-03T08:57:57.999Z</time></trkpt><trkpt lat="44.112846591047024" lon="11.582273985773925"><ele>792.9999999999999</ele><time>2026-05-03T08:57:58.999Z</time></trkpt><trkpt lat="44.11278761611407" lon="11.582203928146082"><ele>793.0</ele><time>2026-05-03T08:57:59.999Z</time></trkpt><trkpt lat="44.11275459648352" lon="11.582120449790846"><ele>793.0</ele><time>2026-05-03T08:58:00.999Z</time></trkpt><trkpt lat="44.11272073625249" lon="11.582026839353446"><ele>793.0</ele><time>2026-05-03T08:58:01.999Z</time></trkpt><trkpt lat="44.11270840658004" lon="11.581918323135696"><ele>792.9999999999999</ele><time>2026-05-03T08:58:02.999Z</time></trkpt><trkpt lat="44.112700323061404" lon="11.581809663261183"><ele>793.0</ele><time>2026-05-03T08:58:03.999Z</time></trkpt><trkpt lat="44.11271840784056" lon="11.58162277764309"><ele>792.3333333333333</ele><time>2026-05-03T08:58:05.999Z</time></trkpt><trkpt lat="44.11275357492482" lon="11.58152809494891"><ele>791.6666666666666</ele><time>2026-05-03T08:58:06.999Z</time></trkpt><trkpt lat="44.11279845664827" lon="11.581429299098684"><ele>791.0</ele><time>2026-05-03T08:58:07.999Z</time></trkpt><trkpt lat="44.112839718157495" lon="11.581322777683253"><ele>790.3333333333333</ele><time>2026-05-03T08:58:08.999Z</time></trkpt><trkpt lat="44.112854165646915" lon="11.58123072113202"><ele>789.6666666666666</ele><time>2026-05-03T08:58:09.999Z</time></trkpt><trkpt lat="44.112847232660506" lon="11.581135253977022"><ele>789.0</ele><time>2026-05-03T08:58:10.999Z</time></trkpt><trkpt lat="44.11284430731497" lon="11.581021549104937"><ele>789.0</ele><time>2026-05-03T08:58:11.999Z</time></trkpt><trkpt lat="44.11286642783551" lon="11.580915043624918"><ele>789.0</ele><time>2026-05-03T08:58:12.999Z</time></trkpt><trkpt lat="44.112924103655295" lon="11.580838970521041"><ele>789.0</ele><time>2026-05-03T08:58:13.999Z</time></trkpt><trkpt lat="44.11298948544621" lon="11.580787076319185"><ele>789.0</ele><time>2026-05-03T08:58:14.999Z</time></trkpt><trkpt lat="44.1130347443429" lon="11.580688167609337"><ele>789.0</ele><time>2026-05-03T08:58:16.999Z</time></trkpt><trkpt lat="44.11300346278199" lon="11.580559150495832"><ele>789.0</ele><time>2026-05-03T08:58:18.999Z</time></trkpt><trkpt lat="44.11287749300753" lon="11.58048682290008"><ele>789.0</ele><time>2026-05-03T08:58:20.999Z</time></trkpt><trkpt lat="44.11280293148737" lon="11.580459082421338"><ele>789.0</ele><time>2026-05-03T08:58:21.999Z</time></trkpt><trkpt lat="44.112727541304054" lon="11.58044329799235"><ele>789.0</ele><time>2026-05-03T08:58:22.999Z</time></trkpt><trkpt lat="44.11265528783591" lon="11.580416349938401"><ele>789.0</ele><time>2026-05-03T08:58:23.999Z</time></trkpt><trkpt lat="44.11257645996278" lon="11.580369763206596"><ele>789.0</ele><time>2026-05-03T08:58:24.999Z</time></trkpt><trkpt lat="44.112487489928284" lon="11.580309391441398"><ele>789.0</ele><time>2026-05-03T08:58:25.999Z</time></trkpt><trkpt lat="44.112395200872925" lon="11.580245122997004"><ele>787.4000000000001</ele><time>2026-05-03T08:58:26.999Z</time></trkpt><trkpt lat="44.11229649537836" lon="11.580190684247084"><ele>785.8</ele><time>2026-05-03T08:58:27.999Z</time></trkpt><trkpt lat="44.11221486826851" lon="11.580150365170347"><ele>784.2</ele><time>2026-05-03T08:58:28.999Z</time></trkpt><trkpt lat="44.11213570980041" lon="11.580121054507078"><ele>782.5999999999999</ele><time>2026-05-03T08:58:29.999Z</time></trkpt><trkpt lat="44.11204719299835" lon="11.580115739070422"><ele>781.0</ele><time>2026-05-03T08:58:30.999Z</time></trkpt><trkpt lat="44.11195243807048" lon="11.580131165059935"><ele>781.0</ele><time>2026-05-03T08:58:31.999Z</time></trkpt><trkpt lat="44.11185476342785" lon="11.580132255886758"><ele>781.0</ele><time>2026-05-03T08:58:32.999Z</time></trkpt><trkpt lat="44.111765553747205" lon="11.580141338890309"><ele>781.0</ele><time>2026-05-03T08:58:33.999Z</time></trkpt><trkpt lat="44.11167139368407" lon="11.580143740834032"><ele>781.0</ele><time>2026-05-03T08:58:34.999Z</time></trkpt><trkpt lat="44.111583243541546" lon="11.580128557589946"><ele>781.0</ele><time>2026-05-03T08:58:35.999Z</time></trkpt><trkpt lat="44.111480554086505" lon="11.580109110686742"><ele>782.8</ele><time>2026-05-03T08:58:36.999Z</time></trkpt><trkpt lat="44.11139453484765" lon="11.58011864102199"><ele>784.5999999999999</ele><time>2026-05-03T08:58:37.999Z</time></trkpt><trkpt lat="44.11130949337351" lon="11.580158141675854"><ele>786.4</ele><time>2026-05-03T08:58:38.999Z</time></trkpt><trkpt lat="44.111218808123496" lon="11.58019852564348"><ele>788.2</ele><time>2026-05-03T08:58:39.999Z</time></trkpt><trkpt lat="44.11110981730709" lon="11.580230766164117"><ele>790.0</ele><time>2026-05-03T08:58:40.999Z</time></trkpt><trkpt lat="44.11101038518854" lon="11.580282935699486"><ele>789.9999999999999</ele><time>2026-05-03T08:58:41.999Z</time></trkpt><trkpt lat="44.11091608109634" lon="11.580340085112114"><ele>790.0</ele><time>2026-05-03T08:58:42.999Z</time></trkpt><trkpt lat="44.11083580695766" lon="11.580388067831052"><ele>790.0</ele><time>2026-05-03T08:58:43.999Z</time></trkpt><trkpt lat="44.110766877481986" lon="11.580400276685115"><ele>790.0</ele><time>2026-05-03T08:58:44.999Z</time></trkpt><trkpt lat="44.11069296506097" lon="11.580369538507323"><ele>789.9999999999999</ele><time>2026-05-03T08:58:45.999Z</time></trkpt><trkpt lat="44.11061885835315" lon="11.580333688785107"><ele>790.0</ele><time>2026-05-03T08:58:46.999Z</time></trkpt><trkpt lat="44.11052598959668" lon="11.58032592894368"><ele>794.4</ele><time>2026-05-03T08:58:47.999Z</time></trkpt><trkpt lat="44.1104268213186" lon="11.58031959116357"><ele>798.8</ele><time>2026-05-03T08:58:48.999Z</time></trkpt><trkpt lat="44.110326546834116" lon="11.580324411387522"><ele>803.2</ele><time>2026-05-03T08:58:49.999Z</time></trkpt><trkpt lat="44.11023322944298" lon="11.580328526892059"><ele>807.6</ele><time>2026-05-03T08:58:50.999Z</time></trkpt><trkpt lat="44.11015810470018" lon="11.580305742818704"><ele>812.0</ele><time>2026-05-03T08:58:51.999Z</time></trkpt><trkpt lat="44.11009363024677" lon="11.580240107832706"><ele>812.0</ele><time>2026-05-03T08:58:52.999Z</time></trkpt><trkpt lat="44.11005413521291" lon="11.580130402809491"><ele>812.0</ele><time>2026-05-03T08:58:53.999Z</time></trkpt><trkpt lat="44.110024729154205" lon="11.580014467614548"><ele>812.0</ele><time>2026-05-03T08:58:54.999Z</time></trkpt><trkpt lat="44.11003329100223" lon="11.579869360394964"><ele>812.0</ele><time>2026-05-03T08:58:55.999Z</time></trkpt><trkpt lat="44.11003710247873" lon="11.579733546727939"><ele>812.0</ele><time>2026-05-03T08:58:56.999Z</time></trkpt><trkpt lat="44.1100522866569" lon="11.579612874597325"><ele>810.6</ele><time>2026-05-03T08:58:57.999Z</time></trkpt><trkpt lat="44.11006620208852" lon="11.579490575038724"><ele>809.2</ele><time>2026-05-03T08:58:59.999Z</time></trkpt><trkpt lat="44.110085916366366" lon="11.579326825474457"><ele>807.8</ele><time>2026-05-03T08:59:01.999Z</time></trkpt><trkpt lat="44.11010805493893" lon="11.579197609726545"><ele>806.4</ele><time>2026-05-03T08:59:03.999Z</time></trkpt><trkpt lat="44.11012447739915" lon="11.579039547172677"><ele>805.0</ele><time>2026-05-03T08:59:05.999Z</time></trkpt><trkpt lat="44.11014116856307" lon="11.578945706968302"><ele>805.0</ele><time>2026-05-03T08:59:06.999Z</time></trkpt><trkpt lat="44.110143787480716" lon="11.57884735049149"><ele>805.0</ele><time>2026-05-03T08:59:07.999Z</time></trkpt><trkpt lat="44.11015808009582" lon="11.578746953396958"><ele>805.0</ele><time>2026-05-03T08:59:08.999Z</time></trkpt><trkpt lat="44.1101780831052" lon="11.57865735202162"><ele>805.0</ele><time>2026-05-03T08:59:10Z</time></trkpt><trkpt lat="44.11019423115025" lon="11.578554631365853"><ele>805.0</ele><time>2026-05-03T08:59:11Z</time></trkpt><trkpt lat="44.110210311747565" lon="11.578444647911917"><ele>805.0</ele><time>2026-05-03T08:59:12Z</time></trkpt><trkpt lat="44.110231297729534" lon="11.578347988444875"><ele>805.0</ele><time>2026-05-03T08:59:13Z</time></trkpt><trkpt lat="44.110265916741234" lon="11.57823540741424"><ele>801.4</ele><time>2026-05-03T08:59:14Z</time></trkpt><trkpt lat="44.11030176169641" lon="11.578115822751688"><ele>797.8</ele><time>2026-05-03T08:59:15Z</time></trkpt><trkpt lat="44.11035109806626" lon="11.577985076537813"><ele>794.2</ele><time>2026-05-03T08:59:16Z</time></trkpt><trkpt lat="44.11039115829035" lon="11.57786081782563"><ele>790.6</ele><time>2026-05-03T08:59:17Z</time></trkpt><trkpt lat="44.11043442867755" lon="11.577731872543765"><ele>787.0</ele><time>2026-05-03T08:59:18Z</time></trkpt><trkpt lat="44.11047982819832" lon="11.577608428618957"><ele>783.8333333333333</ele><time>2026-05-03T08:59:19Z</time></trkpt><trkpt lat="44.11050039180395" lon="11.577482445403648"><ele>780.6666666666666</ele><time>2026-05-03T08:59:20Z</time></trkpt><trkpt lat="44.11051953813067" lon="11.577353107935851"><ele>777.5</ele><time>2026-05-03T08:59:21Z</time></trkpt><trkpt lat="44.1105480366423" lon="11.57723981532231"><ele>774.3333333333333</ele><time>2026-05-03T08:59:22Z</time></trkpt><trkpt lat="44.110581554284295" lon="11.577129899162449"><ele>771.1666666666666</ele><time>2026-05-03T08:59:23Z</time></trkpt><trkpt lat="44.11061686776739" lon="11.577023151816494"><ele>768.0</ele><time>2026-05-03T08:59:24Z</time></trkpt><trkpt lat="44.11065025310381" lon="11.576922875624259"><ele>765.4</ele><time>2026-05-03T08:59:25Z</time></trkpt><trkpt lat="44.11067812454675" lon="11.576826545607323"><ele>762.8</ele><time>2026-05-03T08:59:26Z</time></trkpt><trkpt lat="44.11068599056091" lon="11.576721083827815"><ele>760.2</ele><time>2026-05-03T08:59:27Z</time></trkpt><trkpt lat="44.110703478598985" lon="11.576592301998085"><ele>757.6</ele><time>2026-05-03T08:59:28Z</time></trkpt><trkpt lat="44.110673615862034" lon="11.576453501011455"><ele>755.0</ele><time>2026-05-03T08:59:29Z</time></trkpt><trkpt lat="44.11063975646294" lon="11.57631112680379"><ele>755.5</ele><time>2026-05-03T08:59:30Z</time></trkpt><trkpt lat="44.1105990988592" lon="11.57616519892568"><ele>756.0</ele><time>2026-05-03T08:59:31Z</time></trkpt><trkpt lat="44.11056507802625" lon="11.576035761667967"><ele>756.5</ele><time>2026-05-03T08:59:32Z</time></trkpt><trkpt lat="44.11052723154927" lon="11.57588356538757"><ele>757.0</ele><time>2026-05-03T08:59:33Z</time></trkpt><trkpt lat="44.11046225124302" lon="11.575733339357782"><ele>757.0</ele><time>2026-05-03T08:59:34Z</time></trkpt><trkpt lat="44.11043046855761" lon="11.575549377603359"><ele>757.0</ele><time>2026-05-03T08:59:35Z</time></trkpt><trkpt lat="44.11039779347003" lon="11.575373822403508"><ele>757.0</ele><time>2026-05-03T08:59:36Z</time></trkpt><trkpt lat="44.11034626959991" lon="11.575223789023298"><ele>757.0</ele><time>2026-05-03T08:59:37Z</time></trkpt><trkpt lat="44.11027333587926" lon="11.57509861433334"><ele>760.8</ele><time>2026-05-03T08:59:38Z</time></trkpt><trkpt lat="44.11020119254492" lon="11.575005475686707"><ele>764.6</ele><time>2026-05-03T08:59:39Z</time></trkpt><trkpt lat="44.11014092102587" lon="11.57492640592306"><ele>768.4</ele><time>2026-05-03T08:59:40Z</time></trkpt><trkpt lat="44.11010740378021" lon="11.57484516091742"><ele>772.1999999999999</ele><time>2026-05-03T08:59:41Z</time></trkpt><trkpt lat="44.110076168614285" lon="11.574695692058837"><ele>776.0</ele><time>2026-05-03T08:59:43Z</time></trkpt><trkpt lat="44.1100901020709" lon="11.574565336908583"><ele>777.0000000000001</ele><time>2026-05-03T08:59:44Z</time></trkpt><trkpt lat="44.1100725107857" lon="11.574459103139638"><ele>778.0</ele><time>2026-05-03T08:59:45Z</time></trkpt><trkpt lat="44.11006140750254" lon="11.574340670193758"><ele>779.0</ele><time>2026-05-03T08:59:46Z</time></trkpt><trkpt lat="44.11006218858089" lon="11.574221608969939"><ele>780.0</ele><time>2026-05-03T08:59:47Z</time></trkpt><trkpt lat="44.11004485227561" lon="11.574107232405062"><ele>781.0000000000001</ele><time>2026-05-03T08:59:48Z</time></trkpt><trkpt lat="44.1100177633246" lon="11.574007640393992"><ele>782.0</ele><time>2026-05-03T08:59:49Z</time></trkpt><trkpt lat="44.11002426328768" lon="11.573916272265318"><ele>782.0000000000001</ele><time>2026-05-03T08:59:50Z</time></trkpt><trkpt lat="44.11011424578273" lon="11.573844485380564"><ele>782.0</ele><time>2026-05-03T08:59:52Z</time></trkpt><trkpt lat="44.11018861055675" lon="11.573837974558147"><ele>782.0</ele><time>2026-05-03T08:59:53Z</time></trkpt><trkpt lat="44.11026051059715" lon="11.57387847870682"><ele>782.0</ele><time>2026-05-03T08:59:54Z</time></trkpt><trkpt lat="44.110334795631495" lon="11.573905054757386"><ele>782.0000000000001</ele><time>2026-05-03T08:59:55Z</time></trkpt><trkpt lat="44.1104046265531" lon="11.57391395370328"><ele>782.0</ele><time>2026-05-03T08:59:56Z</time></trkpt><trkpt lat="44.1104676033381" lon="11.57389996242619"><ele>782.0000000000001</ele><time>2026-05-03T08:59:57Z</time></trkpt><trkpt lat="44.11053334019107" lon="11.57385338510104"><ele>782.0</ele><time>2026-05-03T08:59:58Z</time></trkpt><trkpt lat="44.110603940747076" lon="11.57380164989792"><ele>782.0</ele><time>2026-05-03T08:59:59Z</time></trkpt><trkpt lat="44.11067333634732" lon="11.573749368409292"><ele>782.0</ele><time>2026-05-03T09:00:00Z</time></trkpt><trkpt lat="44.11074082715175" lon="11.573692567100988"><ele>782.0000000000001</ele><time>2026-05-03T09:00:00.999Z</time></trkpt><trkpt lat="44.11080387020878" lon="11.573622489754547"><ele>782.0</ele><time>2026-05-03T09:00:01.999Z</time></trkpt><trkpt lat="44.11086957875506" lon="11.57355612445061"><ele>779.9999999999999</ele><time>2026-05-03T09:00:02.999Z</time></trkpt><trkpt lat="44.110933222134946" lon="11.573506898292285"><ele>778.0</ele><time>2026-05-03T09:00:03.999Z</time></trkpt><trkpt lat="44.11099607574518" lon="11.57346009856953"><ele>776.0</ele><time>2026-05-03T09:00:04.999Z</time></trkpt><trkpt lat="44.11105925676275" lon="11.573422106967731"><ele>774.0</ele><time>2026-05-03T09:00:05.999Z</time></trkpt><trkpt lat="44.111132534454754" lon="11.573406998507354"><ele>772.0</ele><time>2026-05-03T09:00:06.999Z</time></trkpt><trkpt lat="44.11120854863653" lon="11.573388816947846"><ele>769.9999999999999</ele><time>2026-05-03T09:00:07.999Z</time></trkpt><trkpt lat="44.11129157908915" lon="11.573379902945259"><ele>768.0</ele><time>2026-05-03T09:00:08.999Z</time></trkpt><trkpt lat="44.11137243903317" lon="11.573356307426616"><ele>767.9999999999999</ele><time>2026-05-03T09:00:09.999Z</time></trkpt><trkpt lat="44.11145254025538" lon="11.573328890352585"><ele>768.0</ele><time>2026-05-03T09:00:10.999Z</time></trkpt><trkpt lat="44.11152801888126" lon="11.573305580562117"><ele>768.0</ele><time>2026-05-03T09:00:11.999Z</time></trkpt><trkpt lat="44.11160078008756" lon="11.573280441978092"><ele>768.0</ele><time>2026-05-03T09:00:12.999Z</time></trkpt><trkpt lat="44.11167181422461" lon="11.573261001178833"><ele>768.0</ele><time>2026-05-03T09:00:13.999Z</time></trkpt><trkpt lat="44.11174162066209" lon="11.573235969903203"><ele>767.9999999999999</ele><time>2026-05-03T09:00:14.999Z</time></trkpt><trkpt lat="44.1118048241241" lon="11.573203650701377"><ele>768.0</ele><time>2026-05-03T09:00:15.999Z</time></trkpt><trkpt lat="44.11190374449423" lon="11.573095795378187"><ele>768.0</ele><time>2026-05-03T09:00:17.999Z</time></trkpt><trkpt lat="44.11191626700514" lon="11.572973344976322"><ele>768.0</ele><time>2026-05-03T09:00:18.999Z</time></trkpt><trkpt lat="44.111858535620655" lon="11.572874253436355"><ele>768.0</ele><time>2026-05-03T09:00:19.999Z</time></trkpt><trkpt lat="44.11169191519926" lon="11.572877388284589"><ele>768.0</ele><time>2026-05-03T09:00:21.999Z</time></trkpt><trkpt lat="44.11161835233667" lon="11.572904896449574"><ele>768.0</ele><time>2026-05-03T09:00:22.999Z</time></trkpt><trkpt lat="44.11152052942096" lon="11.572906166491792"><ele>768.0</ele><time>2026-05-03T09:00:23.999Z</time></trkpt><trkpt lat="44.11140758551813" lon="11.572956967017669"><ele>768.0</ele><time>2026-05-03T09:00:24.999Z</time></trkpt><trkpt lat="44.1112944197964" lon="11.57295784405875"><ele>768.0</ele><time>2026-05-03T09:00:25.999Z</time></trkpt><trkpt lat="44.11116743799095" lon="11.572971587069214"><ele>768.0</ele><time>2026-05-03T09:00:26.999Z</time></trkpt><trkpt lat="44.11104335349108" lon="11.572950476074412"><ele>768.0</ele><time>2026-05-03T09:00:27.999Z</time></trkpt><trkpt lat="44.1109322503074" lon="11.572977669736332"><ele>768.0</ele><time>2026-05-03T09:00:28.999Z</time></trkpt><trkpt lat="44.110829972729455" lon="11.573010076897454"><ele>768.0</ele><time>2026-05-03T09:00:29.999Z</time></trkpt><trkpt lat="44.110738491281026" lon="11.572975053844692"><ele>768.0</ele><time>2026-05-03T09:00:30.999Z</time></trkpt><trkpt lat="44.11067023664584" lon="11.572921970374896"><ele>768.0</ele><time>2026-05-03T09:00:31.999Z</time></trkpt><trkpt lat="44.11061199521484" lon="11.572855390937779"><ele>769.2</ele><time>2026-05-03T09:00:32.999Z</time></trkpt><trkpt lat="44.110586863998854" lon="11.572756047308465"><ele>770.4</ele><time>2026-05-03T09:00:33.999Z</time></trkpt><trkpt lat="44.11058581479699" lon="11.572656764378516"><ele>771.6</ele><time>2026-05-03T09:00:34.999Z</time></trkpt><trkpt lat="44.11052987857331" lon="11.572544863106028"><ele>772.8000000000001</ele><time>2026-05-03T09:00:35.999Z</time></trkpt><trkpt lat="44.11052527719219" lon="11.572396381694423"><ele>774.0</ele><time>2026-05-03T09:00:36.999Z</time></trkpt><trkpt lat="44.11052108898562" lon="11.572241366118034"><ele>774.0</ele><time>2026-05-03T09:00:37.999Z</time></trkpt><trkpt lat="44.110512970359416" lon="11.572131060660917"><ele>774.0</ele><time>2026-05-03T09:00:38.999Z</time></trkpt><trkpt lat="44.1104424389947" lon="11.571987128743903"><ele>774.0</ele><time>2026-05-03T09:00:40.999Z</time></trkpt><trkpt lat="44.11036676589432" lon="11.571956496226964"><ele>774.0</ele><time>2026-05-03T09:00:41.999Z</time></trkpt><trkpt lat="44.11027733552791" lon="11.571965293766175"><ele>774.0</ele><time>2026-05-03T09:00:42.999Z</time></trkpt><trkpt lat="44.110185041678925" lon="11.57200777787002"><ele>774.0</ele><time>2026-05-03T09:00:43.999Z</time></trkpt><trkpt lat="44.1100850199045" lon="11.57206684863302"><ele>774.0</ele><time>2026-05-03T09:00:44.999Z</time></trkpt><trkpt lat="44.10998307962378" lon="11.572132589374572"><ele>774.0</ele><time>2026-05-03T09:00:45.999Z</time></trkpt><trkpt lat="44.10988650586096" lon="11.572157218393219"><ele>774.0</ele><time>2026-05-03T09:00:46.999Z</time></trkpt><trkpt lat="44.109784185751074" lon="11.572127304861032"><ele>774.0</ele><time>2026-05-03T09:00:47.999Z</time></trkpt><trkpt lat="44.10967850528177" lon="11.572061281556053"><ele>772.6</ele><time>2026-05-03T09:00:48.999Z</time></trkpt><trkpt lat="44.109582819141316" lon="11.572038982838672"><ele>771.2</ele><time>2026-05-03T09:00:49.999Z</time></trkpt><trkpt lat="44.109481701926285" lon="11.572061056129042"><ele>769.8000000000001</ele><time>2026-05-03T09:00:50.999Z</time></trkpt><trkpt lat="44.10936523458738" lon="11.572119400198444"><ele>768.4000000000001</ele><time>2026-05-03T09:00:51.999Z</time></trkpt><trkpt lat="44.10925030275437" lon="11.57215736969631"><ele>767.0</ele><time>2026-05-03T09:00:52.999Z</time></trkpt><trkpt lat="44.1091338428208" lon="11.572150079287283"><ele>763.0</ele><time>2026-05-03T09:00:53.999Z</time></trkpt><trkpt lat="44.10901390572564" lon="11.57209672620541"><ele>759.0</ele><time>2026-05-03T09:00:54.999Z</time></trkpt><trkpt lat="44.10891655349144" lon="11.572000029126427"><ele>755.0</ele><time>2026-05-03T09:00:55.999Z</time></trkpt><trkpt lat="44.108815826368534" lon="11.571939714496835"><ele>751.0</ele><time>2026-05-03T09:00:56.999Z</time></trkpt><trkpt lat="44.10871750168462" lon="11.571890660253638"><ele>751.0</ele><time>2026-05-03T09:00:57.999Z</time></trkpt><trkpt lat="44.10862019195784" lon="11.571812509754336"><ele>751.0</ele><time>2026-05-03T09:00:58.999Z</time></trkpt><trkpt lat="44.1085269375022" lon="11.571735521322763"><ele>751.0</ele><time>2026-05-03T09:00:59.999Z</time></trkpt><trkpt lat="44.108434806526546" lon="11.571709305780898"><ele>751.0</ele><time>2026-05-03T09:01:00.999Z</time></trkpt><trkpt lat="44.10835654002708" lon="11.571659511560481"><ele>751.0</ele><time>2026-05-03T09:01:01.999Z</time></trkpt><trkpt lat="44.10827277739489" lon="11.571646523166317"><ele>748.8333333333334</ele><time>2026-05-03T09:01:02.999Z</time></trkpt><trkpt lat="44.108204697493996" lon="11.571627314021633"><ele>746.6666666666667</ele><time>2026-05-03T09:01:03.999Z</time></trkpt><trkpt lat="44.108145690031044" lon="11.571563396533696"><ele>744.5</ele><time>2026-05-03T09:01:04.999Z</time></trkpt><trkpt lat="44.10810825103915" lon="11.57147455894925"><ele>742.3333333333334</ele><time>2026-05-03T09:01:05.999Z</time></trkpt><trkpt lat="44.10812680892087" lon="11.571350959486102"><ele>740.1666666666666</ele><time>2026-05-03T09:01:06.999Z</time></trkpt><trkpt lat="44.10814451922425" lon="11.571239050618832"><ele>738.0</ele><time>2026-05-03T09:01:07.999Z</time></trkpt><trkpt lat="44.10816381990536" lon="11.57110340872436"><ele>741.25</ele><time>2026-05-03T09:01:08.999Z</time></trkpt><trkpt lat="44.10818624906764" lon="11.57095377910241"><ele>744.5</ele><time>2026-05-03T09:01:09.999Z</time></trkpt><trkpt lat="44.10821478449055" lon="11.57075571539215"><ele>747.75</ele><time>2026-05-03T09:01:10.999Z</time></trkpt><trkpt lat="44.108235695812496" lon="11.570585630662347"><ele>751.0</ele><time>2026-05-03T09:01:11.999Z</time></trkpt><trkpt lat="44.10826986300657" lon="11.57041524245221"><ele>753.5</ele><time>2026-05-03T09:01:12.999Z</time></trkpt><trkpt lat="44.108317904496595" lon="11.570232317419803"><ele>756.0</ele><time>2026-05-03T09:01:13.999Z</time></trkpt><trkpt lat="44.10836250669404" lon="11.570063510003907"><ele>758.5</ele><time>2026-05-03T09:01:14.999Z</time></trkpt><trkpt lat="44.10839582083504" lon="11.569939298124204"><ele>761.0</ele><time>2026-05-03T09:01:16Z</time></trkpt><trkpt lat="44.10843700154669" lon="11.569806959300749"><ele>761.0</ele><time>2026-05-03T09:01:17Z</time></trkpt><trkpt lat="44.1084762874348" lon="11.569668121768105"><ele>761.0</ele><time>2026-05-03T09:01:18Z</time></trkpt><trkpt lat="44.10854895290431" lon="11.56957566552821"><ele>761.0</ele><time>2026-05-03T09:01:19Z</time></trkpt><trkpt lat="44.10862502962844" lon="11.569484281589677"><ele>761.0</ele><time>2026-05-03T09:01:20Z</time></trkpt><trkpt lat="44.108686042551874" lon="11.569405027493705"><ele>761.0</ele><time>2026-05-03T09:01:21Z</time></trkpt><trkpt lat="44.10874048338059" lon="11.569358796985732"><ele>763.0</ele><time>2026-05-03T09:01:22Z</time></trkpt><trkpt lat="44.10882204079377" lon="11.569247559742104"><ele>765.0</ele><time>2026-05-03T09:01:24Z</time></trkpt><trkpt lat="44.108846877208975" lon="11.569163937158585"><ele>767.0</ele><time>2026-05-03T09:01:25Z</time></trkpt><trkpt lat="44.108844505645905" lon="11.569067799081155"><ele>769.0</ele><time>2026-05-03T09:01:26Z</time></trkpt><trkpt lat="44.10884489648783" lon="11.568971187215487"><ele>771.0000000000001</ele><time>2026-05-03T09:01:27Z</time></trkpt><trkpt lat="44.10883730608824" lon="11.568856099734246"><ele>773.0</ele><time>2026-05-03T09:01:28Z</time></trkpt><trkpt lat="44.10882630510831" lon="11.568738537782155"><ele>773.0</ele><time>2026-05-03T09:01:29Z</time></trkpt><trkpt lat="44.10886500577076" lon="11.56862098025081"><ele>773.0</ele><time>2026-05-03T09:01:30Z</time></trkpt><trkpt lat="44.10892938622566" lon="11.568526779643491"><ele>773.0</ele><time>2026-05-03T09:01:31Z</time></trkpt><trkpt lat="44.108987698243546" lon="11.568428299830266"><ele>773.0</ele><time>2026-05-03T09:01:32Z</time></trkpt><trkpt lat="44.109058410548606" lon="11.568337818364688"><ele>773.0</ele><time>2026-05-03T09:01:33Z</time></trkpt><trkpt lat="44.10915105630176" lon="11.568209018211483"><ele>771.5999999999999</ele><time>2026-05-03T09:01:34Z</time></trkpt><trkpt lat="44.10925797964842" lon="11.568131231484859"><ele>770.1999999999999</ele><time>2026-05-03T09:01:35Z</time></trkpt><trkpt lat="44.10934847700834" lon="11.568069955786704"><ele>768.8</ele><time>2026-05-03T09:01:36Z</time></trkpt><trkpt lat="44.10943758293161" lon="11.568019879923677"><ele>767.4</ele><time>2026-05-03T09:01:37Z</time></trkpt><trkpt lat="44.10951460608341" lon="11.567928079972395"><ele>766.0</ele><time>2026-05-03T09:01:38Z</time></trkpt><trkpt lat="44.10957694200384" lon="11.56778619717376"><ele>766.0</ele><time>2026-05-03T09:01:39Z</time></trkpt><trkpt lat="44.10962872294213" lon="11.567633540612974"><ele>766.0</ele><time>2026-05-03T09:01:40Z</time></trkpt><trkpt lat="44.10967386339065" lon="11.567454791824247"><ele>766.0</ele><time>2026-05-03T09:01:41Z</time></trkpt><trkpt lat="44.10972610794206" lon="11.567308427073018"><ele>766.0</ele><time>2026-05-03T09:01:42Z</time></trkpt><trkpt lat="44.10978613805683" lon="11.567172807368978"><ele>766.0</ele><time>2026-05-03T09:01:43Z</time></trkpt><trkpt lat="44.109862881376266" lon="11.567045030823211"><ele>766.0</ele><time>2026-05-03T09:01:44Z</time></trkpt><trkpt lat="44.10994800047694" lon="11.566931437817182"><ele>766.0</ele><time>2026-05-03T09:01:45Z</time></trkpt><trkpt lat="44.11004309832656" lon="11.566830222961382"><ele>766.0</ele><time>2026-05-03T09:01:46Z</time></trkpt><trkpt lat="44.11012410363332" lon="11.566707972378392"><ele>761.1999999999999</ele><time>2026-05-03T09:01:47Z</time></trkpt><trkpt lat="44.11018928418376" lon="11.566559472813905"><ele>756.4</ele><time>2026-05-03T09:01:48Z</time></trkpt><trkpt lat="44.11025304899728" lon="11.56642755267981"><ele>751.6</ele><time>2026-05-03T09:01:49Z</time></trkpt><trkpt lat="44.11031815501631" lon="11.566327555863884"><ele>746.8</ele><time>2026-05-03T09:01:50Z</time></trkpt><trkpt lat="44.110379022305686" lon="11.56626805633698"><ele>742.0</ele><time>2026-05-03T09:01:51Z</time></trkpt><trkpt lat="44.11042811428883" lon="11.566190851381876"><ele>741.4000000000001</ele><time>2026-05-03T09:01:52Z</time></trkpt><trkpt lat="44.11045513242241" lon="11.566085184499613"><ele>740.8000000000001</ele><time>2026-05-03T09:01:53Z</time></trkpt><trkpt lat="44.110422427859234" lon="11.565969821801781"><ele>740.2</ele><time>2026-05-03T09:01:54Z</time></trkpt><trkpt lat="44.11039350280142" lon="11.565853852256865"><ele>739.6</ele><time>2026-05-03T09:01:55Z</time></trkpt><trkpt lat="44.1103190396967" lon="11.56574227015427"><ele>739.0</ele><time>2026-05-03T09:01:56Z</time></trkpt><trkpt lat="44.1102373760042" lon="11.565646290818217"><ele>739.0</ele><time>2026-05-03T09:01:57Z</time></trkpt><trkpt lat="44.110147061929645" lon="11.565569596589873"><ele>739.0</ele><time>2026-05-03T09:01:58Z</time></trkpt><trkpt lat="44.11006570969292" lon="11.565509841521385"><ele>739.0</ele><time>2026-05-03T09:01:59Z</time></trkpt><trkpt lat="44.10999398077551" lon="11.5654486566344"><ele>739.0</ele><time>2026-05-03T09:02:00Z</time></trkpt><trkpt lat="44.109919430604364" lon="11.56538195665064"><ele>739.0</ele><time>2026-05-03T09:02:01Z</time></trkpt><trkpt lat="44.10984775295824" lon="11.565317826734509"><ele>735.0</ele><time>2026-05-03T09:02:02Z</time></trkpt><trkpt lat="44.10976955258007" lon="11.565247860973198"><ele>731.0</ele><time>2026-05-03T09:02:03Z</time></trkpt><trkpt lat="44.109690426585374" lon="11.565179463224077"><ele>727.0</ele><time>2026-05-03T09:02:04Z</time></trkpt><trkpt lat="44.109589116153096" lon="11.565141308128233"><ele>723.0</ele><time>2026-05-03T09:02:05Z</time></trkpt><trkpt lat="44.10948597567123" lon="11.565104931311922"><ele>719.0</ele><time>2026-05-03T09:02:06Z</time></trkpt><trkpt lat="44.10937837420058" lon="11.565101693199118"><ele>719.0</ele><time>2026-05-03T09:02:07Z</time></trkpt><trkpt lat="44.109276329805844" lon="11.565139279062258"><ele>719.0</ele><time>2026-05-03T09:02:08Z</time></trkpt><trkpt lat="44.10916783895842" lon="11.565178867341446"><ele>719.0</ele><time>2026-05-03T09:02:09Z</time></trkpt><trkpt lat="44.10907635140613" lon="11.565240837081427"><ele>719.0</ele><time>2026-05-03T09:02:09.999Z</time></trkpt><trkpt lat="44.10899503257726" lon="11.565279517961626"><ele>719.0</ele><time>2026-05-03T09:02:10.999Z</time></trkpt><trkpt lat="44.10891707762467" lon="11.565286925835114"><ele>719.2</ele><time>2026-05-03T09:02:11.999Z</time></trkpt><trkpt lat="44.1088448369548" lon="11.565261892827994"><ele>719.4000000000001</ele><time>2026-05-03T09:02:12.999Z</time></trkpt><trkpt lat="44.10877676254085" lon="11.565199291502148"><ele>719.6</ele><time>2026-05-03T09:02:13.999Z</time></trkpt><trkpt lat="44.108717072258386" lon="11.56508016192035"><ele>719.8</ele><time>2026-05-03T09:02:14.999Z</time></trkpt><trkpt lat="44.108628410378486" lon="11.564989370230078"><ele>720.0</ele><time>2026-05-03T09:02:15.999Z</time></trkpt><trkpt lat="44.108564638522296" lon="11.564884304895623"><ele>720.0</ele><time>2026-05-03T09:02:16.999Z</time></trkpt><trkpt lat="44.10846015669328" lon="11.564822366294333"><ele>720.0</ele><time>2026-05-03T09:02:17.999Z</time></trkpt><trkpt lat="44.10834251279401" lon="11.564798184963928"><ele>720.0</ele><time>2026-05-03T09:02:18.999Z</time></trkpt><trkpt lat="44.10821682435596" lon="11.564744912083562"><ele>720.0</ele><time>2026-05-03T09:02:19.999Z</time></trkpt><trkpt lat="44.10808322434612" lon="11.564663844813555"><ele>720.5</ele><time>2026-05-03T09:02:20.999Z</time></trkpt><trkpt lat="44.10794425853606" lon="11.564596936895006"><ele>721.0</ele><time>2026-05-03T09:02:21.999Z</time></trkpt><trkpt lat="44.10780459865642" lon="11.56453113587588"><ele>721.5</ele><time>2026-05-03T09:02:22.999Z</time></trkpt><trkpt lat="44.10768331508112" lon="11.564479897073774"><ele>722.0</ele><time>2026-05-03T09:02:23.999Z</time></trkpt><trkpt lat="44.10757620998229" lon="11.564435569449087"><ele>718.8</ele><time>2026-05-03T09:02:24.999Z</time></trkpt><trkpt lat="44.10747595287825" lon="11.564398358664493"><ele>715.6</ele><time>2026-05-03T09:02:25.999Z</time></trkpt><trkpt lat="44.107374417447126" lon="11.564355229461396"><ele>712.4</ele><time>2026-05-03T09:02:26.999Z</time></trkpt><trkpt lat="44.10727978895947" lon="11.564317049609517"><ele>709.1999999999999</ele><time>2026-05-03T09:02:27.999Z</time></trkpt><trkpt lat="44.10717238118941" lon="11.56427126634879"><ele>706.0</ele><time>2026-05-03T09:02:28.999Z</time></trkpt><trkpt lat="44.10707223479311" lon="11.564225829039353"><ele>704.5</ele><time>2026-05-03T09:02:29.999Z</time></trkpt><trkpt lat="44.106980793785546" lon="11.564190555423723"><ele>703.0</ele><time>2026-05-03T09:02:30.999Z</time></trkpt><trkpt lat="44.1068895607241" lon="11.564161810881812"><ele>701.5</ele><time>2026-05-03T09:02:31.999Z</time></trkpt><trkpt lat="44.10680746756451" lon="11.564115644703387"><ele>700.0</ele><time>2026-05-03T09:02:32.999Z</time></trkpt><trkpt lat="44.10673220629702" lon="11.564077772590116"><ele>698.5</ele><time>2026-05-03T09:02:33.999Z</time></trkpt><trkpt lat="44.10665532344807" lon="11.564015952438613"><ele>697.0</ele><time>2026-05-03T09:02:34.999Z</time></trkpt><trkpt lat="44.10660474779225" lon="11.56391213836585"><ele>694.6666666666667</ele><time>2026-05-03T09:02:35.999Z</time></trkpt><trkpt lat="44.106564671065875" lon="11.56378518353241"><ele>692.3333333333334</ele><time>2026-05-03T09:02:36.999Z</time></trkpt><trkpt lat="44.106521934174296" lon="11.563657278887044"><ele>690.0</ele><time>2026-05-03T09:02:37.999Z</time></trkpt><trkpt lat="44.10648663958989" lon="11.563544941931697"><ele>687.6666666666666</ele><time>2026-05-03T09:02:38.999Z</time></trkpt><trkpt lat="44.10646692875122" lon="11.563452635879726"><ele>685.3333333333333</ele><time>2026-05-03T09:02:39.999Z</time></trkpt><trkpt lat="44.10646943593499" lon="11.563357254225734"><ele>683.0</ele><time>2026-05-03T09:02:40.999Z</time></trkpt><trkpt lat="44.106522321705626" lon="11.563275827522663"><ele>683.6666666666666</ele><time>2026-05-03T09:02:41.999Z</time></trkpt><trkpt lat="44.106580854947666" lon="11.563177860003297"><ele>684.3333333333333</ele><time>2026-05-03T09:02:42.999Z</time></trkpt><trkpt lat="44.10662715660653" lon="11.563094488647202"><ele>685.0</ele><time>2026-05-03T09:02:43.999Z</time></trkpt><trkpt lat="44.10667293016603" lon="11.563015573991295"><ele>685.6666666666666</ele><time>2026-05-03T09:02:44.999Z</time></trkpt><trkpt lat="44.106718351525124" lon="11.56293726680558"><ele>686.3333333333334</ele><time>2026-05-03T09:02:45.999Z</time></trkpt><trkpt lat="44.106769526242296" lon="11.562861851027563"><ele>687.0</ele><time>2026-05-03T09:02:46.999Z</time></trkpt><trkpt lat="44.10682321729758" lon="11.562792116008504"><ele>685.0</ele><time>2026-05-03T09:02:47.999Z</time></trkpt><trkpt lat="44.10686954074567" lon="11.562728453931598"><ele>683.0</ele><time>2026-05-03T09:02:48.999Z</time></trkpt><trkpt lat="44.10694771734543" lon="11.562743256097491"><ele>681.0</ele><time>2026-05-03T09:02:49.999Z</time></trkpt><trkpt lat="44.10703147690511" lon="11.562718973195917"><ele>679.0</ele><time>2026-05-03T09:02:50.999Z</time></trkpt><trkpt lat="44.10711920497272" lon="11.562709395920066"><ele>677.0</ele><time>2026-05-03T09:02:51.999Z</time></trkpt><trkpt lat="44.107207559849144" lon="11.562677937710374"><ele>675.0</ele><time>2026-05-03T09:02:52.999Z</time></trkpt><trkpt lat="44.10728845592096" lon="11.562617360818367"><ele>675.0</ele><time>2026-05-03T09:02:53.999Z</time></trkpt><trkpt lat="44.107371543290895" lon="11.562560120129579"><ele>675.0</ele><time>2026-05-03T09:02:54.999Z</time></trkpt><trkpt lat="44.107449860149764" lon="11.562486681341078"><ele>675.0</ele><time>2026-05-03T09:02:55.999Z</time></trkpt><trkpt lat="44.10752463915961" lon="11.562408308620178"><ele>675.0</ele><time>2026-05-03T09:02:56.999Z</time></trkpt><trkpt lat="44.10759009202945" lon="11.562331796119675"><ele>675.0</ele><time>2026-05-03T09:02:57.999Z</time></trkpt><trkpt lat="44.10765527171549" lon="11.562255204673235"><ele>675.8333333333334</ele><time>2026-05-03T09:02:58.999Z</time></trkpt><trkpt lat="44.107718418980774" lon="11.562182940057024"><ele>676.6666666666666</ele><time>2026-05-03T09:02:59.999Z</time></trkpt><trkpt lat="44.107780426620835" lon="11.562114439660009"><ele>677.5</ele><time>2026-05-03T09:03:00.999Z</time></trkpt><trkpt lat="44.107832529759264" lon="11.56203494625677"><ele>678.3333333333333</ele><time>2026-05-03T09:03:01.999Z</time></trkpt><trkpt lat="44.10789299304387" lon="11.561985851014066"><ele>679.1666666666666</ele><time>2026-05-03T09:03:02.999Z</time></trkpt><trkpt lat="44.10796422285473" lon="11.561976900761989"><ele>680.0</ele><time>2026-05-03T09:03:03.999Z</time></trkpt><trkpt lat="44.10801996761762" lon="11.562053987786449"><ele>680.0</ele><time>2026-05-03T09:03:04.999Z</time></trkpt><trkpt lat="44.10806639020278" lon="11.562114728881584"><ele>680.0</ele><time>2026-05-03T09:03:05.999Z</time></trkpt><trkpt lat="44.10809493032847" lon="11.562205216243278"><ele>680.0</ele><time>2026-05-03T09:03:06.999Z</time></trkpt><trkpt lat="44.108186766561104" lon="11.562267693595375"><ele>680.0</ele><time>2026-05-03T09:03:08.999Z</time></trkpt><trkpt lat="44.10828378584422" lon="11.562171229425871"><ele>680.0</ele><time>2026-05-03T09:03:10.999Z</time></trkpt><trkpt lat="44.108286992064954" lon="11.562038299408915"><ele>677.1666666666666</ele><time>2026-05-03T09:03:11.999Z</time></trkpt><trkpt lat="44.10829608447149" lon="11.561922333784159"><ele>674.3333333333333</ele><time>2026-05-03T09:03:12.999Z</time></trkpt><trkpt lat="44.108301718924835" lon="11.56180405798571"><ele>671.5</ele><time>2026-05-03T09:03:13.999Z</time></trkpt><trkpt lat="44.108292678875586" lon="11.5617059399201"><ele>668.6666666666666</ele><time>2026-05-03T09:03:14.999Z</time></trkpt><trkpt lat="44.1082429893902" lon="11.561627872545344"><ele>665.8333333333334</ele><time>2026-05-03T09:03:15.999Z</time></trkpt><trkpt lat="44.108171564392684" lon="11.561580232144198"><ele>663.0</ele><time>2026-05-03T09:03:16.999Z</time></trkpt><trkpt lat="44.10807532287672" lon="11.56158027163847"><ele>663.0</ele><time>2026-05-03T09:03:17.999Z</time></trkpt><trkpt lat="44.10795604324215" lon="11.561558414237487"><ele>663.0</ele><time>2026-05-03T09:03:18.999Z</time></trkpt><trkpt lat="44.107841683221835" lon="11.561544130793669"><ele>663.0</ele><time>2026-05-03T09:03:19.999Z</time></trkpt><trkpt lat="44.10771615040893" lon="11.561538519684165"><ele>663.0</ele><time>2026-05-03T09:03:20.999Z</time></trkpt><trkpt lat="44.10761895266154" lon="11.561512895394351"><ele>663.0</ele><time>2026-05-03T09:03:22Z</time></trkpt><trkpt lat="44.10755839080326" lon="11.561476371174964"><ele>663.0</ele><time>2026-05-03T09:03:23Z</time></trkpt><trkpt lat="44.107551317713046" lon="11.56138510329697"><ele>663.0</ele><time>2026-05-03T09:03:24Z</time></trkpt><trkpt lat="44.107590026359006" lon="11.56127714018292"><ele>663.0</ele><time>2026-05-03T09:03:25Z</time></trkpt><trkpt lat="44.10756705869556" lon="11.5611757114897"><ele>663.0</ele><time>2026-05-03T09:03:26Z</time></trkpt><trkpt lat="44.10752860247706" lon="11.561062370496963"><ele>663.0</ele><time>2026-05-03T09:03:27Z</time></trkpt><trkpt lat="44.10740788261829" lon="11.56102666856304"><ele>656.1999999999999</ele><time>2026-05-03T09:03:28Z</time></trkpt><trkpt lat="44.107300381202386" lon="11.560979577359907"><ele>649.4</ele><time>2026-05-03T09:03:29Z</time></trkpt><trkpt lat="44.10718463708113" lon="11.560948120075404"><ele>642.5999999999999</ele><time>2026-05-03T09:03:30Z</time></trkpt><trkpt lat="44.10708068664766" lon="11.560947008424824"><ele>635.8</ele><time>2026-05-03T09:03:31Z</time></trkpt><trkpt lat="44.106980156502026" lon="11.56092412957383"><ele>629.0</ele><time>2026-05-03T09:03:32Z</time></trkpt><trkpt lat="44.1068809568952" lon="11.560907505089741"><ele>629.0</ele><time>2026-05-03T09:03:33Z</time></trkpt><trkpt lat="44.10677175756965" lon="11.560929807816565"><ele>629.0</ele><time>2026-05-03T09:03:34Z</time></trkpt><trkpt lat="44.10666299556171" lon="11.560960218834532"><ele>629.0</ele><time>2026-05-03T09:03:35Z</time></trkpt><trkpt lat="44.106561572983374" lon="11.560989951435673"><ele>629.0</ele><time>2026-05-03T09:03:36Z</time></trkpt><trkpt lat="44.10646637390826" lon="11.561018365741969"><ele>629.0</ele><time>2026-05-03T09:03:37Z</time></trkpt><trkpt lat="44.106374067014755" lon="11.56103236131707"><ele>630.5</ele><time>2026-05-03T09:03:38Z</time></trkpt><trkpt lat="44.10628111220177" lon="11.56105273026468"><ele>632.0</ele><time>2026-05-03T09:03:39Z</time></trkpt><trkpt lat="44.10619875218277" lon="11.561058328473237"><ele>633.5</ele><time>2026-05-03T09:03:40Z</time></trkpt><trkpt lat="44.10612577260933" lon="11.561113310781652"><ele>635.0</ele><time>2026-05-03T09:03:41Z</time></trkpt><trkpt lat="44.106052261271394" lon="11.561164878761177"><ele>636.5</ele><time>2026-05-03T09:03:42Z</time></trkpt><trkpt lat="44.105994223550844" lon="11.56123519991327"><ele>638.0</ele><time>2026-05-03T09:03:43Z</time></trkpt><trkpt lat="44.105953347081396" lon="11.56132633112489"><ele>638.0</ele><time>2026-05-03T09:03:44Z</time></trkpt><trkpt lat="44.105889347163426" lon="11.561388164883276"><ele>638.0</ele><time>2026-05-03T09:03:45Z</time></trkpt><trkpt lat="44.10581649591068" lon="11.561431991922724"><ele>638.0</ele><time>2026-05-03T09:03:46Z</time></trkpt><trkpt lat="44.10572778896073" lon="11.561392590589891"><ele>638.0</ele><time>2026-05-03T09:03:47Z</time></trkpt><trkpt lat="44.10565437256264" lon="11.561364488303361"><ele>638.0</ele><time>2026-05-03T09:03:48Z</time></trkpt><trkpt lat="44.10557680166949" lon="11.561338643343865"><ele>638.0</ele><time>2026-05-03T09:03:49Z</time></trkpt><trkpt lat="44.10548335376402" lon="11.561351575485503"><ele>634.0</ele><time>2026-05-03T09:03:50Z</time></trkpt><trkpt lat="44.10538719084158" lon="11.561409684777143"><ele>630.0</ele><time>2026-05-03T09:03:51Z</time></trkpt><trkpt lat="44.105277434180074" lon="11.561469447224377"><ele>626.0</ele><time>2026-05-03T09:03:52Z</time></trkpt><trkpt lat="44.10517625651725" lon="11.561517418824225"><ele>622.0</ele><time>2026-05-03T09:03:53Z</time></trkpt><trkpt lat="44.10509007996717" lon="11.561562284323575"><ele>618.0</ele><time>2026-05-03T09:03:54Z</time></trkpt><trkpt lat="44.10500822005121" lon="11.561616665931007"><ele>618.0</ele><time>2026-05-03T09:03:55Z</time></trkpt><trkpt lat="44.104921372942314" lon="11.561678139871455"><ele>618.0</ele><time>2026-05-03T09:03:56Z</time></trkpt><trkpt lat="44.10483791402945" lon="11.561745014904005"><ele>618.0</ele><time>2026-05-03T09:03:57Z</time></trkpt><trkpt lat="44.104751153014554" lon="11.561809952030497"><ele>618.0</ele><time>2026-05-03T09:03:58Z</time></trkpt><trkpt lat="44.104676988650226" lon="11.561880323829905"><ele>618.0</ele><time>2026-05-03T09:03:59Z</time></trkpt><trkpt lat="44.1046161461654" lon="11.561960266583354"><ele>615.5</ele><time>2026-05-03T09:04:00Z</time></trkpt><trkpt lat="44.10454356533761" lon="11.56199874289222"><ele>613.0</ele><time>2026-05-03T09:04:01Z</time></trkpt><trkpt lat="44.104475854956746" lon="11.562030524557152"><ele>610.5</ele><time>2026-05-03T09:04:02Z</time></trkpt><trkpt lat="44.1044045919791" lon="11.562041909189329"><ele>608.0</ele><time>2026-05-03T09:04:03Z</time></trkpt><trkpt lat="44.10432680865333" lon="11.562066323465244"><ele>605.5</ele><time>2026-05-03T09:04:04Z</time></trkpt><trkpt lat="44.10427010376874" lon="11.562134173824212"><ele>603.0</ele><time>2026-05-03T09:04:05Z</time></trkpt><trkpt lat="44.10422509997407" lon="11.562228912459414"><ele>603.0</ele><time>2026-05-03T09:04:06Z</time></trkpt><trkpt lat="44.104200798284936" lon="11.562345935563794"><ele>603.0</ele><time>2026-05-03T09:04:07Z</time></trkpt><trkpt lat="44.10418465488881" lon="11.562482462862725"><ele>603.0</ele><time>2026-05-03T09:04:08Z</time></trkpt><trkpt lat="44.104176443285304" lon="11.562614488686068"><ele>603.0</ele><time>2026-05-03T09:04:09Z</time></trkpt><trkpt lat="44.10413855601195" lon="11.56275292840087"><ele>603.0</ele><time>2026-05-03T09:04:10Z</time></trkpt><trkpt lat="44.104102514120406" lon="11.56288698400831"><ele>596.0</ele><time>2026-05-03T09:04:11Z</time></trkpt><trkpt lat="44.10404552121581" lon="11.563003523402157"><ele>589.0</ele><time>2026-05-03T09:04:12Z</time></trkpt><trkpt lat="44.104000462784526" lon="11.56310909323255"><ele>582.0</ele><time>2026-05-03T09:04:13Z</time></trkpt><trkpt lat="44.103973428576374" lon="11.563218699658163"><ele>575.0</ele><time>2026-05-03T09:04:14Z</time></trkpt><trkpt lat="44.10395988997788" lon="11.563349546628324"><ele>568.0</ele><time>2026-05-03T09:04:15Z</time></trkpt><trkpt lat="44.10395170061688" lon="11.563499437710643"><ele>568.0</ele><time>2026-05-03T09:04:16Z</time></trkpt><trkpt lat="44.10396427947869" lon="11.56365608770589"><ele>568.0</ele><time>2026-05-03T09:04:17Z</time></trkpt><trkpt lat="44.10397345106862" lon="11.563794965293859"><ele>568.0</ele><time>2026-05-03T09:04:18Z</time></trkpt><trkpt lat="44.103969041033885" lon="11.563931971520867"><ele>568.0</ele><time>2026-05-03T09:04:18.999Z</time></trkpt><trkpt lat="44.10396468705341" lon="11.564063906423044"><ele>568.0</ele><time>2026-05-03T09:04:19.999Z</time></trkpt><trkpt lat="44.103942062283934" lon="11.564175245581005"><ele>570.1999999999999</ele><time>2026-05-03T09:04:20.999Z</time></trkpt><trkpt lat="44.10391457417558" lon="11.564305061632021"><ele>572.4</ele><time>2026-05-03T09:04:21.999Z</time></trkpt><trkpt lat="44.103890425759886" lon="11.56443251246292"><ele>574.5999999999999</ele><time>2026-05-03T09:04:22.999Z</time></trkpt><trkpt lat="44.10388401410156" lon="11.564539295149093"><ele>576.8</ele><time>2026-05-03T09:04:23.999Z</time></trkpt><trkpt lat="44.10389311160978" lon="11.564665424014999"><ele>579.0</ele><time>2026-05-03T09:04:24.999Z</time></trkpt><trkpt lat="44.10391041612085" lon="11.564800977326444"><ele>582.0</ele><time>2026-05-03T09:04:25.999Z</time></trkpt><trkpt lat="44.103927059320846" lon="11.564925113361884"><ele>585.0</ele><time>2026-05-03T09:04:26.999Z</time></trkpt><trkpt lat="44.1039265741653" lon="11.565026338855978"><ele>588.0</ele><time>2026-05-03T09:04:27.999Z</time></trkpt><trkpt lat="44.10385965228289" lon="11.565151705808647"><ele>591.0</ele><time>2026-05-03T09:04:29.999Z</time></trkpt><trkpt lat="44.103786284817396" lon="11.565154484397492"><ele>594.0</ele><time>2026-05-03T09:04:30.999Z</time></trkpt><trkpt lat="44.10371959738873" lon="11.56509342242116"><ele>597.0</ele><time>2026-05-03T09:04:31.999Z</time></trkpt><trkpt lat="44.10366528599529" lon="11.56500739671429"><ele>597.0</ele><time>2026-05-03T09:04:32.999Z</time></trkpt><trkpt lat="44.103588929480814" lon="11.564874420792723"><ele>597.0</ele><time>2026-05-03T09:04:33.999Z</time></trkpt><trkpt lat="44.10350306084851" lon="11.564795095459367"><ele>597.0</ele><time>2026-05-03T09:04:34.999Z</time></trkpt><trkpt lat="44.103399801405196" lon="11.564720930729044"><ele>597.0</ele><time>2026-05-03T09:04:35.999Z</time></trkpt><trkpt lat="44.10332271772246" lon="11.564624874877156"><ele>597.0</ele><time>2026-05-03T09:04:36.999Z</time></trkpt><trkpt lat="44.103242985343485" lon="11.564558559082414"><ele>597.2</ele><time>2026-05-03T09:04:37.999Z</time></trkpt><trkpt lat="44.10313466133242" lon="11.564503081012953"><ele>597.4000000000001</ele><time>2026-05-03T09:04:38.999Z</time></trkpt><trkpt lat="44.10303650740988" lon="11.564430940659193"><ele>597.5999999999999</ele><time>2026-05-03T09:04:39.999Z</time></trkpt><trkpt lat="44.10295452724417" lon="11.564345924501396"><ele>597.8</ele><time>2026-05-03T09:04:40.999Z</time></trkpt><trkpt lat="44.102899750986545" lon="11.5642157953667"><ele>598.0</ele><time>2026-05-03T09:04:41.999Z</time></trkpt><trkpt lat="44.102835331371594" lon="11.564086825018414"><ele>598.0</ele><time>2026-05-03T09:04:42.999Z</time></trkpt><trkpt lat="44.102798680826" lon="11.56399474654874"><ele>598.0</ele><time>2026-05-03T09:04:43.999Z</time></trkpt><trkpt lat="44.10277059521933" lon="11.563874530379834"><ele>598.0</ele><time>2026-05-03T09:04:44.999Z</time></trkpt><trkpt lat="44.10272427002587" lon="11.563781166662123"><ele>598.0</ele><time>2026-05-03T09:04:45.999Z</time></trkpt><trkpt lat="44.102655621810435" lon="11.563701257381872"><ele>598.0</ele><time>2026-05-03T09:04:46.999Z</time></trkpt><trkpt lat="44.102577133136975" lon="11.563633876240008"><ele>598.0</ele><time>2026-05-03T09:04:47.999Z</time></trkpt><trkpt lat="44.10250663500491" lon="11.56356912946633"><ele>592.6</ele><time>2026-05-03T09:04:48.999Z</time></trkpt><trkpt lat="44.102428694852236" lon="11.563531770187865"><ele>587.1999999999999</ele><time>2026-05-03T09:04:49.999Z</time></trkpt><trkpt lat="44.10233582041531" lon="11.563514433216234"><ele>581.8</ele><time>2026-05-03T09:04:50.999Z</time></trkpt><trkpt lat="44.10224486230993" lon="11.56352486764369"><ele>576.4</ele><time>2026-05-03T09:04:51.999Z</time></trkpt><trkpt lat="44.10213568878368" lon="11.5635639815599"><ele>571.0</ele><time>2026-05-03T09:04:52.999Z</time></trkpt><trkpt lat="44.10204269696275" lon="11.563560349061776"><ele>571.0</ele><time>2026-05-03T09:04:53.999Z</time></trkpt><trkpt lat="44.10195758573872" lon="11.563523316286224"><ele>571.0</ele><time>2026-05-03T09:04:54.999Z</time></trkpt><trkpt lat="44.10187414314859" lon="11.56347861137521"><ele>571.0</ele><time>2026-05-03T09:04:55.999Z</time></trkpt><trkpt lat="44.10179735037547" lon="11.563439054259678"><ele>571.0</ele><time>2026-05-03T09:04:56.999Z</time></trkpt><trkpt lat="44.101739577092125" lon="11.563354234364942"><ele>571.0</ele><time>2026-05-03T09:04:57.999Z</time></trkpt><trkpt lat="44.10167411050613" lon="11.563271401716984"><ele>571.0</ele><time>2026-05-03T09:04:58.999Z</time></trkpt><trkpt lat="44.10161605813521" lon="11.563194642289298"><ele>571.1428571428571</ele><time>2026-05-03T09:04:59.999Z</time></trkpt><trkpt lat="44.10157632417593" lon="11.563103011919166"><ele>571.2857142857142</ele><time>2026-05-03T09:05:00.999Z</time></trkpt><trkpt lat="44.101542078780355" lon="11.563011807040281"><ele>571.4285714285713</ele><time>2026-05-03T09:05:01.999Z</time></trkpt><trkpt lat="44.10152743208778" lon="11.562909082354457"><ele>571.5714285714286</ele><time>2026-05-03T09:05:02.999Z</time></trkpt><trkpt lat="44.101498009584084" lon="11.562816222567726"><ele>571.7142857142857</ele><time>2026-05-03T09:05:03.999Z</time></trkpt><trkpt lat="44.101470042666584" lon="11.562728135606656"><ele>571.8571428571428</ele><time>2026-05-03T09:05:04.999Z</time></trkpt><trkpt lat="44.101433957283774" lon="11.56265213174121"><ele>572.0</ele><time>2026-05-03T09:05:05.999Z</time></trkpt><trkpt lat="44.1013862038233" lon="11.562495703885226"><ele>567.8000000000001</ele><time>2026-05-03T09:05:07.999Z</time></trkpt><trkpt lat="44.10137520816493" lon="11.562350731688303"><ele>563.6</ele><time>2026-05-03T09:05:09.999Z</time></trkpt><trkpt lat="44.10129908573371" lon="11.56225561703722"><ele>559.4000000000001</ele><time>2026-05-03T09:05:11.999Z</time></trkpt><trkpt lat="44.101171560164545" lon="11.562303128951182"><ele>555.2</ele><time>2026-05-03T09:05:13.999Z</time></trkpt><trkpt lat="44.10108621491243" lon="11.562365678423156"><ele>551.0</ele><time>2026-05-03T09:05:14.999Z</time></trkpt><trkpt lat="44.100984259341054" lon="11.562415052869108"><ele>551.0</ele><time>2026-05-03T09:05:15.999Z</time></trkpt><trkpt lat="44.10088218728906" lon="11.562485885049606"><ele>551.0</ele><time>2026-05-03T09:05:16.999Z</time></trkpt><trkpt lat="44.10078522829344" lon="11.562514662690374"><ele>551.0</ele><time>2026-05-03T09:05:17.999Z</time></trkpt><trkpt lat="44.1006909817581" lon="11.562561361699343"><ele>551.0</ele><time>2026-05-03T09:05:18.999Z</time></trkpt><trkpt lat="44.10061016176293" lon="11.562604476775892"><ele>551.0</ele><time>2026-05-03T09:05:19.999Z</time></trkpt><trkpt lat="44.10053578799058" lon="11.562656941519013"><ele>548.4</ele><time>2026-05-03T09:05:20.999Z</time></trkpt><trkpt lat="44.10046232824948" lon="11.562743675045704"><ele>545.8</ele><time>2026-05-03T09:05:21.999Z</time></trkpt><trkpt lat="44.10038385890299" lon="11.562848400531223"><ele>543.1999999999999</ele><time>2026-05-03T09:05:22.999Z</time></trkpt><trkpt lat="44.100304733236385" lon="11.56295340288855"><ele>540.6</ele><time>2026-05-03T09:05:23.999Z</time></trkpt><trkpt lat="44.10022839572054" lon="11.563082985642358"><ele>538.0</ele><time>2026-05-03T09:05:24.999Z</time></trkpt><trkpt lat="44.10015577306711" lon="11.563200385804858"><ele>538.0</ele><time>2026-05-03T09:05:25.999Z</time></trkpt><trkpt lat="44.1001276869361" lon="11.563325627795889"><ele>538.0</ele><time>2026-05-03T09:05:26.999Z</time></trkpt><trkpt lat="44.10010765464403" lon="11.563449793835067"><ele>538.0</ele><time>2026-05-03T09:05:28Z</time></trkpt><trkpt lat="44.10009031979563" lon="11.563556620622808"><ele>538.0</ele><time>2026-05-03T09:05:29Z</time></trkpt><trkpt lat="44.10006660770595" lon="11.563662464148287"><ele>538.0</ele><time>2026-05-03T09:05:30Z</time></trkpt><trkpt lat="44.100044831013655" lon="11.56378733361935"><ele>538.0</ele><time>2026-05-03T09:05:31Z</time></trkpt><trkpt lat="44.100006569705954" lon="11.56390094222914"><ele>540.0</ele><time>2026-05-03T09:05:32Z</time></trkpt><trkpt lat="44.09994637288413" lon="11.563980938994197"><ele>542.0</ele><time>2026-05-03T09:05:33Z</time></trkpt><trkpt lat="44.099885434080655" lon="11.564060077251087"><ele>544.0</ele><time>2026-05-03T09:05:34Z</time></trkpt><trkpt lat="44.09983686936325" lon="11.564146768143397"><ele>546.0</ele><time>2026-05-03T09:05:35Z</time></trkpt><trkpt lat="44.09978152227249" lon="11.56422392680908"><ele>548.0</ele><time>2026-05-03T09:05:36Z</time></trkpt><trkpt lat="44.09968896914235" lon="11.564332288973398"><ele>550.0</ele><time>2026-05-03T09:05:38Z</time></trkpt><trkpt lat="44.09962209755061" lon="11.564418756303313"><ele>546.0</ele><time>2026-05-03T09:05:40Z</time></trkpt><trkpt lat="44.09956049230581" lon="11.564470356524213"><ele>542.0</ele><time>2026-05-03T09:06:49.999Z</time></trkpt><trkpt lat="44.099585452641165" lon="11.564344817766619"><ele>538.0</ele><time>2026-05-03T09:16:52Z</time></trkpt><trkpt lat="44.09963594515838" lon="11.564274279863659"><ele>534.0</ele><time>2026-05-03T09:16:53Z</time></trkpt><trkpt lat="44.09969005670874" lon="11.564204273293909"><ele>530.0</ele><time>2026-05-03T09:16:54Z</time></trkpt><trkpt lat="44.09973682833036" lon="11.564130545282028"><ele>526.0</ele><time>2026-05-03T09:16:55Z</time></trkpt><trkpt lat="44.09979127526099" lon="11.564002930726996"><ele>526.0</ele><time>2026-05-03T09:16:57Z</time></trkpt><trkpt lat="44.09982738617437" lon="11.563878311933024"><ele>526.0</ele><time>2026-05-03T09:16:59Z</time></trkpt><trkpt lat="44.09984697627988" lon="11.563741291581048"><ele>526.0</ele><time>2026-05-03T09:17:01Z</time></trkpt><trkpt lat="44.09986564068392" lon="11.56358606984181"><ele>526.0</ele><time>2026-05-03T09:17:03Z</time></trkpt><trkpt lat="44.09987883832369" lon="11.563436778137408"><ele>526.0</ele><time>2026-05-03T09:17:05Z</time></trkpt><trkpt lat="44.0999021746687" lon="11.563313324655486"><ele>525.8333333333334</ele><time>2026-05-03T09:17:07Z</time></trkpt><trkpt lat="44.09991986839798" lon="11.563205052221095"><ele>525.6666666666667</ele><time>2026-05-03T09:17:09Z</time></trkpt><trkpt lat="44.09994079119055" lon="11.563062873853085"><ele>525.5</ele><time>2026-05-03T09:17:11Z</time></trkpt><trkpt lat="44.09996055782062" lon="11.562961732929184"><ele>525.3333333333334</ele><time>2026-05-03T09:17:12Z</time></trkpt><trkpt lat="44.09998719137778" lon="11.562841429918063"><ele>525.1666666666666</ele><time>2026-05-03T09:17:13Z</time></trkpt><trkpt lat="44.100026014812215" lon="11.562726844710017"><ele>525.0</ele><time>2026-05-03T09:17:14Z</time></trkpt><trkpt lat="44.1000831001717" lon="11.562613372528764"><ele>525.0</ele><time>2026-05-03T09:17:14.999Z</time></trkpt><trkpt lat="44.10014124945933" lon="11.562503412485729"><ele>525.0</ele><time>2026-05-03T09:17:15.999Z</time></trkpt><trkpt lat="44.10019511867951" lon="11.562400925064399"><ele>525.0</ele><time>2026-05-03T09:17:16.999Z</time></trkpt><trkpt lat="44.100245147371254" lon="11.562290934545453"><ele>525.0</ele><time>2026-05-03T09:17:17.999Z</time></trkpt><trkpt lat="44.10029571720387" lon="11.562174954036303"><ele>525.0</ele><time>2026-05-03T09:17:18.999Z</time></trkpt><trkpt lat="44.10035435694836" lon="11.562061478012533"><ele>523.6</ele><time>2026-05-03T09:17:19.999Z</time></trkpt><trkpt lat="44.100404294427854" lon="11.561953546528235"><ele>522.2</ele><time>2026-05-03T09:17:20.999Z</time></trkpt><trkpt lat="44.100454298325545" lon="11.56184713936128"><ele>520.8</ele><time>2026-05-03T09:17:21.999Z</time></trkpt><trkpt lat="44.10050923175149" lon="11.561744850269143"><ele>519.4</ele><time>2026-05-03T09:17:22.999Z</time></trkpt><trkpt lat="44.100567374681795" lon="11.561650433770994"><ele>518.0</ele><time>2026-05-03T09:17:23.999Z</time></trkpt><trkpt lat="44.10062781165326" lon="11.561546118483337"><ele>518.0</ele><time>2026-05-03T09:17:24.999Z</time></trkpt><trkpt lat="44.10069308879802" lon="11.561458887657846"><ele>518.0</ele><time>2026-05-03T09:17:25.999Z</time></trkpt><trkpt lat="44.10075179057294" lon="11.56137519423935"><ele>518.0</ele><time>2026-05-03T09:17:26.999Z</time></trkpt><trkpt lat="44.10081562500664" lon="11.561288248693455"><ele>518.0</ele><time>2026-05-03T09:17:27.999Z</time></trkpt><trkpt lat="44.10089180511588" lon="11.56119102790678"><ele>518.0</ele><time>2026-05-03T09:17:28.999Z</time></trkpt><trkpt lat="44.10097208952597" lon="11.56108856003944"><ele>517.1999999999999</ele><time>2026-05-03T09:17:29.999Z</time></trkpt><trkpt lat="44.10104674631385" lon="11.560971680822789"><ele>516.4</ele><time>2026-05-03T09:17:30.999Z</time></trkpt><trkpt lat="44.10112772691381" lon="11.560862267638361"><ele>515.5999999999999</ele><time>2026-05-03T09:17:31.999Z</time></trkpt><trkpt lat="44.10121085037596" lon="11.560760375112048"><ele>514.8</ele><time>2026-05-03T09:17:32.999Z</time></trkpt><trkpt lat="44.10127843812453" lon="11.560663452249107"><ele>514.0</ele><time>2026-05-03T09:17:33.999Z</time></trkpt><trkpt lat="44.10134653343443" lon="11.56057059892216"><ele>514.0</ele><time>2026-05-03T09:17:34.999Z</time></trkpt><trkpt lat="44.10141329937779" lon="11.56048479496535"><ele>514.0</ele><time>2026-05-03T09:17:35.999Z</time></trkpt><trkpt lat="44.10148262701081" lon="11.560426617647382"><ele>514.0</ele><time>2026-05-03T09:17:36.999Z</time></trkpt><trkpt lat="44.1015777843992" lon="11.560395168905124"><ele>514.0</ele><time>2026-05-03T09:17:37.999Z</time></trkpt><trkpt lat="44.10170541994497" lon="11.560386363833029"><ele>514.0</ele><time>2026-05-03T09:17:38.999Z</time></trkpt><trkpt lat="44.1018431082204" lon="11.560399206571434"><ele>515.4</ele><time>2026-05-03T09:17:39.999Z</time></trkpt><trkpt lat="44.10195732696878" lon="11.560401585344"><ele>516.8</ele><time>2026-05-03T09:17:40.999Z</time></trkpt><trkpt lat="44.10206667930983" lon="11.560398206642017"><ele>518.2</ele><time>2026-05-03T09:17:41.999Z</time></trkpt><trkpt lat="44.102161101022936" lon="11.560390987559185"><ele>519.6</ele><time>2026-05-03T09:17:42.999Z</time></trkpt><trkpt lat="44.102254107752564" lon="11.560344334432859"><ele>521.0</ele><time>2026-05-03T09:17:43.999Z</time></trkpt><trkpt lat="44.102350098730746" lon="11.560250996591506"><ele>518.0</ele><time>2026-05-03T09:17:44.999Z</time></trkpt><trkpt lat="44.10243461438461" lon="11.560131620316303"><ele>515.0</ele><time>2026-05-03T09:17:45.999Z</time></trkpt><trkpt lat="44.10250990475204" lon="11.559982221827937"><ele>512.0</ele><time>2026-05-03T09:17:46.999Z</time></trkpt><trkpt lat="44.102571443110676" lon="11.559784778711006"><ele>509.0</ele><time>2026-05-03T09:17:47.999Z</time></trkpt><trkpt lat="44.102634143260154" lon="11.55961319433963"><ele>507.2</ele><time>2026-05-03T09:17:48.999Z</time></trkpt><trkpt lat="44.10268495045463" lon="11.559467626886542"><ele>505.4</ele><time>2026-05-03T09:17:49.999Z</time></trkpt><trkpt lat="44.10273238571843" lon="11.559335537153649"><ele>503.6</ele><time>2026-05-03T09:17:50.999Z</time></trkpt><trkpt lat="44.102781815098375" lon="11.55920894008523"><ele>501.8</ele><time>2026-05-03T09:17:51.999Z</time></trkpt><trkpt lat="44.10283037859914" lon="11.559068545992575"><ele>500.0</ele><time>2026-05-03T09:17:52.999Z</time></trkpt><trkpt lat="44.102906965468314" lon="11.558947457913636"><ele>500.0</ele><time>2026-05-03T09:17:53.999Z</time></trkpt><trkpt lat="44.10298531911052" lon="11.558837921114064"><ele>500.0</ele><time>2026-05-03T09:17:54.999Z</time></trkpt><trkpt lat="44.10307408804125" lon="11.558730822615837"><ele>500.0</ele><time>2026-05-03T09:17:55.999Z</time></trkpt><trkpt lat="44.10316663816877" lon="11.558635701996284"><ele>500.0</ele><time>2026-05-03T09:17:56.999Z</time></trkpt><trkpt lat="44.103265788249495" lon="11.558555290554024"><ele>499.75</ele><time>2026-05-03T09:17:57.999Z</time></trkpt><trkpt lat="44.103371121906186" lon="11.558472518255426"><ele>499.5</ele><time>2026-05-03T09:17:58.999Z</time></trkpt><trkpt lat="44.10348910006426" lon="11.558395555602871"><ele>499.25</ele><time>2026-05-03T09:17:59.999Z</time></trkpt><trkpt lat="44.10361747584591" lon="11.558334756956635"><ele>499.0</ele><time>2026-05-03T09:18:00.999Z</time></trkpt><trkpt lat="44.10374383508821" lon="11.558270958763822"><ele>499.0</ele><time>2026-05-03T09:18:01.999Z</time></trkpt><trkpt lat="44.10386092866556" lon="11.558203004111672"><ele>499.0</ele><time>2026-05-03T09:18:02.999Z</time></trkpt><trkpt lat="44.103970064857734" lon="11.558115774319754"><ele>499.0</ele><time>2026-05-03T09:18:04Z</time></trkpt><trkpt lat="44.10408383357624" lon="11.55802595157038"><ele>499.0</ele><time>2026-05-03T09:18:05Z</time></trkpt><trkpt lat="44.10419660789734" lon="11.557931228278184"><ele>497.25</ele><time>2026-05-03T09:18:06Z</time></trkpt><trkpt lat="44.10429133558186" lon="11.557839202080366"><ele>495.5</ele><time>2026-05-03T09:18:07Z</time></trkpt><trkpt lat="44.10438387042581" lon="11.557735018328868"><ele>493.75</ele><time>2026-05-03T09:18:08Z</time></trkpt><trkpt lat="44.10447103787314" lon="11.557621285155482"><ele>492.0</ele><time>2026-05-03T09:18:09Z</time></trkpt><trkpt lat="44.104542704553495" lon="11.557477236524079"><ele>492.0</ele><time>2026-05-03T09:18:10Z</time></trkpt><trkpt lat="44.10459972954017" lon="11.557325210910461"><ele>492.00000000000006</ele><time>2026-05-03T09:18:11Z</time></trkpt><trkpt lat="44.10464202284561" lon="11.557180607416557"><ele>492.00000000000006</ele><time>2026-05-03T09:18:12Z</time></trkpt><trkpt lat="44.10467908231917" lon="11.557045957383082"><ele>492.0</ele><time>2026-05-03T09:18:13Z</time></trkpt><trkpt lat="44.10472865731738" lon="11.556922075843884"><ele>492.0</ele><time>2026-05-03T09:18:14Z</time></trkpt><trkpt lat="44.1047938003918" lon="11.556822784629567"><ele>491.8</ele><time>2026-05-03T09:18:15Z</time></trkpt><trkpt lat="44.10487520339109" lon="11.556758968307518"><ele>491.6</ele><time>2026-05-03T09:18:16Z</time></trkpt><trkpt lat="44.10497383203787" lon="11.556724356717192"><ele>491.40000000000003</ele><time>2026-05-03T09:18:17Z</time></trkpt><trkpt lat="44.10508134825254" lon="11.55671722560302"><ele>491.20000000000005</ele><time>2026-05-03T09:18:18Z</time></trkpt><trkpt lat="44.105186578918385" lon="11.556714749525835"><ele>491.0</ele><time>2026-05-03T09:18:19Z</time></trkpt><trkpt lat="44.10529219716869" lon="11.556653159360257"><ele>491.0</ele><time>2026-05-03T09:18:20Z</time></trkpt><trkpt lat="44.10537630172789" lon="11.556572781427457"><ele>491.0</ele><time>2026-05-03T09:18:21Z</time></trkpt><trkpt lat="44.10546567924345" lon="11.556480645986653"><ele>491.0</ele><time>2026-05-03T09:18:22Z</time></trkpt><trkpt lat="44.10555586419718" lon="11.556402158917544"><ele>491.0</ele><time>2026-05-03T09:18:23Z</time></trkpt><trkpt lat="44.105653878681714" lon="11.556339303386148"><ele>491.0</ele><time>2026-05-03T09:18:24Z</time></trkpt><trkpt lat="44.105757492325544" lon="11.55629480935144"><ele>492.8</ele><time>2026-05-03T09:18:25Z</time></trkpt><trkpt lat="44.105869158530055" lon="11.556269286283948"><ele>494.6</ele><time>2026-05-03T09:18:26Z</time></trkpt><trkpt lat="44.1059790532037" lon="11.55622267056713"><ele>496.4</ele><time>2026-05-03T09:18:27Z</time></trkpt><trkpt lat="44.1060802726059" lon="11.556160029348034"><ele>498.2</ele><time>2026-05-03T09:18:28Z</time></trkpt><trkpt lat="44.106175692579136" lon="11.556089128686953"><ele>500.0</ele><time>2026-05-03T09:18:29Z</time></trkpt><trkpt lat="44.106277036588345" lon="11.556031682923303"><ele>494.75</ele><time>2026-05-03T09:18:30Z</time></trkpt><trkpt lat="44.106382020188" lon="11.55597629792325"><ele>489.5</ele><time>2026-05-03T09:18:31Z</time></trkpt><trkpt lat="44.106491571845126" lon="11.555927639068456"><ele>484.25</ele><time>2026-05-03T09:18:32Z</time></trkpt><trkpt lat="44.10660217158862" lon="11.555875016854515"><ele>479.0</ele><time>2026-05-03T09:18:33Z</time></trkpt><trkpt lat="44.106718112159705" lon="11.55583233434407"><ele>479.0</ele><time>2026-05-03T09:18:34Z</time></trkpt><trkpt lat="44.1068346102821" lon="11.55577681050839"><ele>479.0</ele><time>2026-05-03T09:18:35Z</time></trkpt><trkpt lat="44.10694491234248" lon="11.555730941491111"><ele>479.0</ele><time>2026-05-03T09:18:36Z</time></trkpt><trkpt lat="44.10705468059131" lon="11.55568614680281"><ele>479.0</ele><time>2026-05-03T09:18:37Z</time></trkpt><trkpt lat="44.10717024896548" lon="11.555636162557484"><ele>479.0</ele><time>2026-05-03T09:18:38Z</time></trkpt><trkpt lat="44.107275275997246" lon="11.555579158352215"><ele>479.0</ele><time>2026-05-03T09:18:39Z</time></trkpt><trkpt lat="44.10736342795441" lon="11.555499023180369"><ele>479.0</ele><time>2026-05-03T09:18:40Z</time></trkpt><trkpt lat="44.10743036530869" lon="11.555391748167386"><ele>479.0</ele><time>2026-05-03T09:18:41Z</time></trkpt><trkpt lat="44.10747299093452" lon="11.555246024648028"><ele>479.0</ele><time>2026-05-03T09:18:42Z</time></trkpt><trkpt lat="44.10747044060181" lon="11.555068853523084"><ele>479.0</ele><time>2026-05-03T09:18:43Z</time></trkpt><trkpt lat="44.10744249986295" lon="11.554905612494531"><ele>479.0</ele><time>2026-05-03T09:18:44Z</time></trkpt><trkpt lat="44.10739290664624" lon="11.55474855325995"><ele>479.0</ele><time>2026-05-03T09:18:45Z</time></trkpt><trkpt lat="44.107329201721576" lon="11.554617036018119"><ele>479.0</ele><time>2026-05-03T09:18:46Z</time></trkpt><trkpt lat="44.107270411946374" lon="11.554471566349566"><ele>475.0</ele><time>2026-05-03T09:18:47Z</time></trkpt><trkpt lat="44.10721329411468" lon="11.554328775545715"><ele>471.0</ele><time>2026-05-03T09:18:48Z</time></trkpt><trkpt lat="44.107164573544225" lon="11.554188545069843"><ele>467.0</ele><time>2026-05-03T09:18:49Z</time></trkpt><trkpt lat="44.10712508274331" lon="11.554035648582714"><ele>463.0</ele><time>2026-05-03T09:18:50Z</time></trkpt><trkpt lat="44.107092922563865" lon="11.553882954866069"><ele>463.0</ele><time>2026-05-03T09:18:51Z</time></trkpt><trkpt lat="44.10707571577021" lon="11.553722076109892"><ele>462.99999999999994</ele><time>2026-05-03T09:18:52Z</time></trkpt><trkpt lat="44.107057229906566" lon="11.553559141289833"><ele>462.99999999999994</ele><time>2026-05-03T09:18:53Z</time></trkpt><trkpt lat="44.10704871978547" lon="11.553404321555012"><ele>463.0</ele><time>2026-05-03T09:18:54Z</time></trkpt><trkpt lat="44.10705948425343" lon="11.553268745107571"><ele>463.0</ele><time>2026-05-03T09:18:55Z</time></trkpt><trkpt lat="44.107093210837554" lon="11.553132561695891"><ele>462.25</ele><time>2026-05-03T09:18:56Z</time></trkpt><trkpt lat="44.1071517252817" lon="11.553004051088543"><ele>461.5</ele><time>2026-05-03T09:18:57Z</time></trkpt><trkpt lat="44.107227960295354" lon="11.552880397402781"><ele>460.75</ele><time>2026-05-03T09:18:58Z</time></trkpt><trkpt lat="44.107311700701636" lon="11.552772866009741"><ele>460.0</ele><time>2026-05-03T09:18:59Z</time></trkpt><trkpt lat="44.107393773340036" lon="11.552669384177477"><ele>459.4</ele><time>2026-05-03T09:19:00Z</time></trkpt><trkpt lat="44.10748258011153" lon="11.552583289262643"><ele>458.8</ele><time>2026-05-03T09:19:01Z</time></trkpt><trkpt lat="44.107577354383544" lon="11.552502425568349"><ele>458.20000000000005</ele><time>2026-05-03T09:19:02Z</time></trkpt><trkpt lat="44.1076739455918" lon="11.552419218148863"><ele>457.6</ele><time>2026-05-03T09:19:03Z</time></trkpt><trkpt lat="44.10777160357986" lon="11.552330732383359"><ele>457.0</ele><time>2026-05-03T09:19:04Z</time></trkpt><trkpt lat="44.10786791883811" lon="11.552239968727754"><ele>457.0</ele><time>2026-05-03T09:19:05Z</time></trkpt><trkpt lat="44.1079674692719" lon="11.552149580415163"><ele>457.0</ele><time>2026-05-03T09:19:06Z</time></trkpt><trkpt lat="44.108061005831516" lon="11.552056040545494"><ele>457.0</ele><time>2026-05-03T09:19:07Z</time></trkpt><trkpt lat="44.10814831993967" lon="11.551968689231463"><ele>457.0</ele><time>2026-05-03T09:19:08Z</time></trkpt><trkpt lat="44.108239975377785" lon="11.55188196963867"><ele>456.20000000000005</ele><time>2026-05-03T09:19:09Z</time></trkpt><trkpt lat="44.1083340793991" lon="11.551810870928936"><ele>455.40000000000003</ele><time>2026-05-03T09:19:10Z</time></trkpt><trkpt lat="44.10843297691098" lon="11.551760363010896"><ele>454.59999999999997</ele><time>2026-05-03T09:19:11Z</time></trkpt><trkpt lat="44.10854354932639" lon="11.551752992664007"><ele>453.79999999999995</ele><time>2026-05-03T09:19:12Z</time></trkpt><trkpt lat="44.10865378241345" lon="11.551781739060043"><ele>453.0</ele><time>2026-05-03T09:19:13Z</time></trkpt><trkpt lat="44.10876863828404" lon="11.551805181454995"><ele>453.0</ele><time>2026-05-03T09:19:14Z</time></trkpt><trkpt lat="44.108876252300064" lon="11.551813166080347"><ele>452.99999999999994</ele><time>2026-05-03T09:19:15Z</time></trkpt><trkpt lat="44.10896806977505" lon="11.551785058876545"><ele>452.99999999999994</ele><time>2026-05-03T09:19:16Z</time></trkpt><trkpt lat="44.10904612141364" lon="11.551710161798823"><ele>453.0</ele><time>2026-05-03T09:19:17Z</time></trkpt><trkpt lat="44.109106088398924" lon="11.551580400903505"><ele>453.0</ele><time>2026-05-03T09:19:18Z</time></trkpt><trkpt lat="44.10916013047988" lon="11.551440779723412"><ele>451.59999999999997</ele><time>2026-05-03T09:19:19Z</time></trkpt><trkpt lat="44.10922157982029" lon="11.551332772762496"><ele>450.19999999999993</ele><time>2026-05-03T09:19:19.999Z</time></trkpt><trkpt lat="44.1092953870694" lon="11.551251825029716"><ele>448.8</ele><time>2026-05-03T09:19:20.999Z</time></trkpt><trkpt lat="44.1093836039599" lon="11.551189048262437"><ele>447.4</ele><time>2026-05-03T09:19:21.999Z</time></trkpt><trkpt lat="44.10948888008354" lon="11.551168223426338"><ele>446.0</ele><time>2026-05-03T09:19:22.999Z</time></trkpt><trkpt lat="44.109598812436204" lon="11.551170523119465"><ele>446.0</ele><time>2026-05-03T09:19:23.999Z</time></trkpt><trkpt lat="44.10971768425311" lon="11.551178280206882"><ele>446.0</ele><time>2026-05-03T09:19:24.999Z</time></trkpt><trkpt lat="44.10982845239604" lon="11.551177904260904"><ele>446.0</ele><time>2026-05-03T09:19:25.999Z</time></trkpt><trkpt lat="44.109939989816866" lon="11.551161712273347"><ele>446.0</ele><time>2026-05-03T09:19:26.999Z</time></trkpt><trkpt lat="44.110040271261475" lon="11.551096343805245"><ele>447.4</ele><time>2026-05-03T09:19:27.999Z</time></trkpt><trkpt lat="44.11012377479086" lon="11.551008630602377"><ele>448.8</ele><time>2026-05-03T09:19:28.999Z</time></trkpt><trkpt lat="44.11020821686133" lon="11.550896375624443"><ele>450.19999999999993</ele><time>2026-05-03T09:19:29.999Z</time></trkpt><trkpt lat="44.11027818857866" lon="11.550789991974277"><ele>451.59999999999997</ele><time>2026-05-03T09:19:30.999Z</time></trkpt><trkpt lat="44.110359086986804" lon="11.550689402991033"><ele>453.0</ele><time>2026-05-03T09:19:31.999Z</time></trkpt><trkpt lat="44.11045599995801" lon="11.550633069706395"><ele>453.0</ele><time>2026-05-03T09:19:32.999Z</time></trkpt><trkpt lat="44.11053864574676" lon="11.5505763575787"><ele>452.99999999999994</ele><time>2026-05-03T09:19:33.999Z</time></trkpt><trkpt lat="44.11064715449326" lon="11.550510275124065"><ele>452.99999999999994</ele><time>2026-05-03T09:19:34.999Z</time></trkpt><trkpt lat="44.11075665353378" lon="11.550465038268666"><ele>453.0</ele><time>2026-05-03T09:19:35.999Z</time></trkpt><trkpt lat="44.110871542464295" lon="11.550426911590232"><ele>453.0</ele><time>2026-05-03T09:19:36.999Z</time></trkpt><trkpt lat="44.1109951600682" lon="11.550424048665372"><ele>454.4</ele><time>2026-05-03T09:19:37.999Z</time></trkpt><trkpt lat="44.111114708810106" lon="11.55042048229137"><ele>455.79999999999995</ele><time>2026-05-03T09:19:38.999Z</time></trkpt><trkpt lat="44.11121929614978" lon="11.550412702097242"><ele>457.2</ele><time>2026-05-03T09:19:39.999Z</time></trkpt><trkpt lat="44.11131541430122" lon="11.550398487529579"><ele>458.6</ele><time>2026-05-03T09:19:40.999Z</time></trkpt><trkpt lat="44.11141476519901" lon="11.550381519606328"><ele>460.0</ele><time>2026-05-03T09:19:41.999Z</time></trkpt><trkpt lat="44.11151727086992" lon="11.55036192023129"><ele>455.4</ele><time>2026-05-03T09:19:42.999Z</time></trkpt><trkpt lat="44.11162863346649" lon="11.550357899442673"><ele>450.8</ele><time>2026-05-03T09:19:43.999Z</time></trkpt><trkpt lat="44.11173737883931" lon="11.550343947142684"><ele>446.20000000000005</ele><time>2026-05-03T09:19:44.999Z</time></trkpt><trkpt lat="44.111844034725706" lon="11.550327870506989"><ele>441.6</ele><time>2026-05-03T09:19:45.999Z</time></trkpt><trkpt lat="44.11195745101829" lon="11.550309997210135"><ele>437.0</ele><time>2026-05-03T09:19:46.999Z</time></trkpt><trkpt lat="44.1120546519273" lon="11.550312110966367"><ele>437.0</ele><time>2026-05-03T09:19:47.999Z</time></trkpt><trkpt lat="44.11212358246688" lon="11.550285828985395"><ele>437.0</ele><time>2026-05-03T09:19:48.999Z</time></trkpt><trkpt lat="44.11218731066363" lon="11.550240463359593"><ele>437.0</ele><time>2026-05-03T09:19:49.999Z</time></trkpt><trkpt lat="44.11224826934387" lon="11.55018885597075"><ele>437.0</ele><time>2026-05-03T09:19:50.999Z</time></trkpt><trkpt lat="44.11229864583708" lon="11.550135150172048"><ele>437.0</ele><time>2026-05-03T09:19:51.999Z</time></trkpt><trkpt lat="44.11233937946009" lon="11.550064820941394"><ele>437.0</ele><time>2026-05-03T09:19:52.999Z</time></trkpt><trkpt lat="44.112361914664305" lon="11.549981376789228"><ele>437.0</ele><time>2026-05-03T09:19:53.999Z</time></trkpt><trkpt lat="44.112438842291134" lon="11.549878573457075"><ele>437.20000000000005</ele><time>2026-05-03T09:19:55.999Z</time></trkpt><trkpt lat="44.112435869603715" lon="11.549758710143182"><ele>437.40000000000003</ele><time>2026-05-03T09:19:56.999Z</time></trkpt><trkpt lat="44.11245473399106" lon="11.549633052660688"><ele>437.59999999999997</ele><time>2026-05-03T09:19:58.999Z</time></trkpt><trkpt lat="44.112461133940386" lon="11.54951937562318"><ele>437.79999999999995</ele><time>2026-05-03T09:20:00.999Z</time></trkpt><trkpt lat="44.11247917434711" lon="11.549417657373153"><ele>438.0</ele><time>2026-05-03T09:20:04.999Z</time></trkpt><trkpt lat="44.112293406896306" lon="11.54935804914113"><ele>438.0</ele><time>2026-05-03T09:20:05.999Z</time></trkpt><trkpt lat="44.11220764082354" lon="11.549365591030885"><ele>438.0</ele><time>2026-05-03T09:20:06.999Z</time></trkpt><trkpt lat="44.112128248130105" lon="11.54937515443199"><ele>438.0</ele><time>2026-05-03T09:20:07.999Z</time></trkpt><trkpt lat="44.11205850380509" lon="11.549383555618654"><ele>438.0</ele><time>2026-05-03T09:20:08.999Z</time></trkpt><trkpt lat="44.111991498749326" lon="11.549391626840919"><ele>438.0</ele><time>2026-05-03T09:20:10Z</time></trkpt><trkpt lat="44.11191320349786" lon="11.549401461122615"><ele>438.0</ele><time>2026-05-03T09:20:11Z</time></trkpt><trkpt lat="44.11182643350841" lon="11.549413956368584"><ele>438.0</ele><time>2026-05-03T09:20:12Z</time></trkpt><trkpt lat="44.111745177209805" lon="11.549425601943685"><ele>438.0</ele><time>2026-05-03T09:20:13Z</time></trkpt><trkpt lat="44.11166321882833" lon="11.549439729677754"><ele>438.0</ele><time>2026-05-03T09:20:14Z</time></trkpt><trkpt lat="44.11157672840942" lon="11.54945666202052"><ele>438.0</ele><time>2026-05-03T09:20:15Z</time></trkpt><trkpt lat="44.11148891110176" lon="11.549476723973696"><ele>438.0</ele><time>2026-05-03T09:20:16Z</time></trkpt><trkpt lat="44.11139832459763" lon="11.549499600866513"><ele>438.0</ele><time>2026-05-03T09:20:17Z</time></trkpt><trkpt lat="44.11130776025461" lon="11.549524538874943"><ele>438.4</ele><time>2026-05-03T09:20:18Z</time></trkpt><trkpt lat="44.111216094253265" lon="11.54955122059879"><ele>438.79999999999995</ele><time>2026-05-03T09:20:19Z</time></trkpt><trkpt lat="44.111124396004556" lon="11.54958030692349"><ele>439.2</ele><time>2026-05-03T09:20:20Z</time></trkpt><trkpt lat="44.111041186748004" lon="11.549606700573346"><ele>439.6</ele><time>2026-05-03T09:20:21Z</time></trkpt><trkpt lat="44.11096021690064" lon="11.549632383888092"><ele>440.0</ele><time>2026-05-03T09:20:22Z</time></trkpt><trkpt lat="44.11086742626801" lon="11.549661816711632"><ele>439.99999999999994</ele><time>2026-05-03T09:20:23Z</time></trkpt><trkpt lat="44.110784738332" lon="11.54968823047716"><ele>440.0</ele><time>2026-05-03T09:20:24Z</time></trkpt><trkpt lat="44.110701456377505" lon="11.549716375488165"><ele>440.0</ele><time>2026-05-03T09:20:25Z</time></trkpt><trkpt lat="44.110631085018994" lon="11.549740157387161"><ele>440.0</ele><time>2026-05-03T09:20:26Z</time></trkpt><trkpt lat="44.11052347304477" lon="11.549771600766428"><ele>439.99999999999994</ele><time>2026-05-03T09:20:28Z</time></trkpt><trkpt lat="44.11045773640412" lon="11.549802763206971"><ele>440.0</ele><time>2026-05-03T09:20:29Z</time></trkpt><trkpt lat="44.110343257665825" lon="11.549806714550387"><ele>440.66666666666663</ele><time>2026-05-03T09:20:31Z</time></trkpt><trkpt lat="44.110262317475005" lon="11.549769155862277"><ele>441.3333333333333</ele><time>2026-05-03T09:20:33Z</time></trkpt><trkpt lat="44.1103201997247" lon="11.549651147970426"><ele>442.0</ele><time>2026-05-03T09:20:37Z</time></trkpt><trkpt lat="44.11039080523297" lon="11.549614408483636"><ele>442.66666666666663</ele><time>2026-05-03T09:20:38Z</time></trkpt><trkpt lat="44.11046408460592" lon="11.54960042037008"><ele>443.3333333333333</ele><time>2026-05-03T09:20:39Z</time></trkpt><trkpt lat="44.110532441842814" lon="11.549565455115385"><ele>444.0</ele><time>2026-05-03T09:20:40Z</time></trkpt><trkpt lat="44.11058556080428" lon="11.549506979393257"><ele>443.8333333333333</ele><time>2026-05-03T09:20:41Z</time></trkpt><trkpt lat="44.11065127647918" lon="11.549456045336596"><ele>443.66666666666663</ele><time>2026-05-03T09:20:42Z</time></trkpt><trkpt lat="44.11067638096501" lon="11.549358445014201"><ele>443.5</ele><time>2026-05-03T09:20:43Z</time></trkpt><trkpt lat="44.11071511201044" lon="11.549272031284573"><ele>443.3333333333333</ele><time>2026-05-03T09:20:44Z</time></trkpt><trkpt lat="44.11075457877964" lon="11.54917647967908"><ele>443.16666666666663</ele><time>2026-05-03T09:20:45Z</time></trkpt><trkpt lat="44.11078996901444" lon="11.549101426782762"><ele>443.0</ele><time>2026-05-03T09:20:46Z</time></trkpt><trkpt lat="44.11084306910548" lon="11.54897378143311"><ele>443.0</ele><time>2026-05-03T09:20:48Z</time></trkpt><trkpt lat="44.11090334217644" lon="11.548837726258911"><ele>442.99999999999994</ele><time>2026-05-03T09:20:50Z</time></trkpt><trkpt lat="44.11096757694347" lon="11.548757729026748"><ele>442.99999999999994</ele><time>2026-05-03T09:20:51Z</time></trkpt><trkpt lat="44.11104813109111" lon="11.548668160179965"><ele>443.0</ele><time>2026-05-03T09:20:53Z</time></trkpt><trkpt lat="44.11110910681215" lon="11.548628450627989"><ele>443.0</ele><time>2026-05-03T09:20:54Z</time></trkpt><trkpt lat="44.11121241184089" lon="11.548523280740755"><ele>445.3333333333333</ele><time>2026-05-03T09:20:56Z</time></trkpt><trkpt lat="44.1112543703298" lon="11.548453442367768"><ele>447.66666666666663</ele><time>2026-05-03T09:20:57Z</time></trkpt><trkpt lat="44.11131003990077" lon="11.548396414628025"><ele>450.0</ele><time>2026-05-03T09:20:58Z</time></trkpt><trkpt lat="44.1113892223751" lon="11.548310248194204"><ele>452.33333333333337</ele><time>2026-05-03T09:21:00Z</time></trkpt><trkpt lat="44.11141827378708" lon="11.548215527267761"><ele>454.6666666666667</ele><time>2026-05-03T09:21:03Z</time></trkpt><trkpt lat="44.11132873641482" lon="11.548133989477162"><ele>457.0</ele><time>2026-05-03T09:21:07Z</time></trkpt><trkpt lat="44.11131034925475" lon="11.548010857183966"><ele>457.00000000000006</ele><time>2026-05-03T09:21:09Z</time></trkpt><trkpt lat="44.11120965706369" lon="11.548021254537746"><ele>457.0</ele><time>2026-05-03T09:21:12Z</time></trkpt><trkpt lat="44.11114296463915" lon="11.548029073550863"><ele>457.0</ele><time>2026-05-03T09:21:16Z</time></trkpt><trkpt lat="44.11105748687848" lon="11.54807012372316"><ele>457.0</ele><time>2026-05-03T09:21:19Z</time></trkpt><trkpt lat="44.11097133565542" lon="11.548110807247994"><ele>457.00000000000006</ele><time>2026-05-03T09:21:21Z</time></trkpt><trkpt lat="44.11090702371437" lon="11.548131755555575"><ele>457.0</ele><time>2026-05-03T09:21:23Z</time></trkpt><trkpt lat="44.11080942171433" lon="11.548123273163256"><ele>460.75</ele><time>2026-05-03T09:21:25Z</time></trkpt><trkpt lat="44.11073803386539" lon="11.548122373264842"><ele>464.5</ele><time>2026-05-03T09:21:27Z</time></trkpt><trkpt lat="44.11062871230216" lon="11.548122459137693"><ele>468.25</ele><time>2026-05-03T09:21:29.999Z</time></trkpt><trkpt lat="44.110391777659075" lon="11.548161908496601"><ele>472.0</ele><time>2026-05-03T09:21:31.999Z</time></trkpt><trkpt lat="44.11027618409944" lon="11.548191442623525"><ele>472.0</ele><time>2026-05-03T09:21:33.999Z</time></trkpt><trkpt lat="44.11017538627195" lon="11.548215551252335"><ele>472.00000000000006</ele><time>2026-05-03T09:21:35.999Z</time></trkpt><trkpt lat="44.110064923318234" lon="11.5482380440905"><ele>472.00000000000006</ele><time>2026-05-03T09:21:37.999Z</time></trkpt><trkpt lat="44.1099368302313" lon="11.548303442073802"><ele>472.0</ele><time>2026-05-03T09:21:39.999Z</time></trkpt><trkpt lat="44.109876301024094" lon="11.548359549373387"><ele>472.0</ele><time>2026-05-03T09:21:40.999Z</time></trkpt><trkpt lat="44.109818452855215" lon="11.548415487309079"><ele>473.0</ele><time>2026-05-03T09:21:41.999Z</time></trkpt><trkpt lat="44.10975959012034" lon="11.54846730351976"><ele>474.0</ele><time>2026-05-03T09:21:42.999Z</time></trkpt><trkpt lat="44.109705048134074" lon="11.548516479093504"><ele>475.0</ele><time>2026-05-03T09:21:43.999Z</time></trkpt><trkpt lat="44.109623132649276" lon="11.548483482227883"><ele>476.0</ele><time>2026-05-03T09:21:47.999Z</time></trkpt><trkpt lat="44.10968486515806" lon="11.548395173807227"><ele>477.0</ele><time>2026-05-03T09:21:55.999Z</time></trkpt><trkpt lat="44.109729201638636" lon="11.548329985909636"><ele>478.0</ele><time>2026-05-03T09:21:57.999Z</time></trkpt><trkpt lat="44.10974391300415" lon="11.548237276441448"><ele>479.0</ele><time>2026-05-03T09:22:00.999Z</time></trkpt><trkpt lat="44.10971115886988" lon="11.548158632584542"><ele>479.0</ele><time>2026-05-03T09:22:44Z</time></trkpt><trkpt lat="44.109663845637854" lon="11.548087630296525"><ele>479.0</ele><time>2026-05-03T09:24:33.999Z</time></trkpt><trkpt lat="44.10960191697246" lon="11.548125339418748"><ele>479.0</ele><time>2026-05-03T09:25:09.999Z</time></trkpt><trkpt lat="44.10953677937702" lon="11.54811145669533"><ele>479.0</ele><time>2026-05-03T09:25:16.999Z</time></trkpt><trkpt lat="44.109528701745695" lon="11.548018470860615"><ele>479.0</ele><time>2026-05-03T09:26:25.999Z</time></trkpt><trkpt lat="44.10956501572499" lon="11.547935159931013"><ele>479.0</ele><time>2026-05-03T09:26:29.999Z</time></trkpt><trkpt lat="44.10962533666593" lon="11.54787601256085"><ele>479.0</ele><time>2026-05-03T09:26:31.999Z</time></trkpt><trkpt lat="44.10964538598698" lon="11.547781367460326"><ele>483.99999999999994</ele><time>2026-05-03T09:26:40.999Z</time></trkpt><trkpt lat="44.10964688391072" lon="11.547691490439357"><ele>489.0</ele><time>2026-05-03T09:27:36.999Z</time></trkpt><trkpt lat="44.109615620872205" lon="11.547596153930684"><ele>494.0</ele><time>2026-05-03T09:27:39.999Z</time></trkpt><trkpt lat="44.109565543180665" lon="11.547481268823086"><ele>499.0</ele><time>2026-05-03T09:27:42.999Z</time></trkpt><trkpt lat="44.109528784909855" lon="11.547398798109946"><ele>503.99999999999994</ele><time>2026-05-03T09:27:44.999Z</time></trkpt><trkpt lat="44.10950149580156" lon="11.547281818190555"><ele>509.0</ele><time>2026-05-03T09:27:47.999Z</time></trkpt><trkpt lat="44.109445904121905" lon="11.54720413653025"><ele>508.99999999999994</ele><time>2026-05-03T09:27:49.999Z</time></trkpt><trkpt lat="44.109396088916974" lon="11.547096057016804"><ele>509.0</ele><time>2026-05-03T09:27:52.999Z</time></trkpt><trkpt lat="44.10934704166501" lon="11.547031093706913"><ele>509.0</ele><time>2026-05-03T09:30:22.999Z</time></trkpt><trkpt lat="44.109273214098394" lon="11.54699312585273"><ele>509.0</ele><time>2026-05-03T09:30:24.999Z</time></trkpt><trkpt lat="44.109194613355406" lon="11.546970555213571"><ele>508.99999999999994</ele><time>2026-05-03T09:30:26.999Z</time></trkpt><trkpt lat="44.10909576383596" lon="11.546976213243218"><ele>509.0</ele><time>2026-05-03T09:30:28.999Z</time></trkpt><trkpt lat="44.10899862316668" lon="11.547016473373988"><ele>508.79999999999995</ele><time>2026-05-03T09:30:30.999Z</time></trkpt><trkpt lat="44.10891140936347" lon="11.547033334167763"><ele>508.59999999999997</ele><time>2026-05-03T09:30:32.999Z</time></trkpt><trkpt lat="44.10882678250367" lon="11.546926220527396"><ele>508.4</ele><time>2026-05-03T09:30:34.999Z</time></trkpt><trkpt lat="44.10880860811771" lon="11.546753260079786"><ele>508.2</ele><time>2026-05-03T09:30:36.999Z</time></trkpt><trkpt lat="44.10885469751769" lon="11.546674884918147"><ele>508.0</ele><time>2026-05-03T09:30:37.999Z</time></trkpt><trkpt lat="44.108917156274124" lon="11.546643028211514"><ele>508.0</ele><time>2026-05-03T09:30:38.999Z</time></trkpt><trkpt lat="44.108987339994144" lon="11.546536819693713"><ele>507.99999999999994</ele><time>2026-05-03T09:30:41Z</time></trkpt><trkpt lat="44.10905933209661" lon="11.54644973728218"><ele>507.99999999999994</ele><time>2026-05-03T09:30:43Z</time></trkpt><trkpt lat="44.109181031080986" lon="11.546465865377217"><ele>508.0</ele><time>2026-05-03T09:30:45Z</time></trkpt><trkpt lat="44.109299370327506" lon="11.546438774137187"><ele>508.0</ele><time>2026-05-03T09:30:47Z</time></trkpt><trkpt lat="44.109396509745714" lon="11.546428242197553"><ele>516.25</ele><time>2026-05-03T09:30:49Z</time></trkpt><trkpt lat="44.109410113868584" lon="11.546168908707497"><ele>524.5</ele><time>2026-05-03T09:30:50Z</time></trkpt><trkpt lat="44.1094462178014" lon="11.546035611733956"><ele>532.75</ele><time>2026-05-03T09:30:52Z</time></trkpt><trkpt lat="44.1095421112853" lon="11.545956203118196"><ele>541.0</ele><time>2026-05-03T09:30:54Z</time></trkpt><trkpt lat="44.10959409461453" lon="11.54584352092485"><ele>541.0</ele><time>2026-05-03T09:30:56Z</time></trkpt><trkpt lat="44.109600387918476" lon="11.545726981836955"><ele>541.0</ele><time>2026-05-03T09:30:59Z</time></trkpt><trkpt lat="44.10956367205745" lon="11.545622943323908"><ele>541.0</ele><time>2026-05-03T09:31:02Z</time></trkpt><trkpt lat="44.10953256295007" lon="11.545525474857456"><ele>541.0</ele><time>2026-05-03T09:31:07Z</time></trkpt><trkpt lat="44.10948582438025" lon="11.545417476796562"><ele>541.0</ele><time>2026-05-03T09:31:11Z</time></trkpt><trkpt lat="44.109446541251664" lon="11.545327779806609"><ele>541.0</ele><time>2026-05-03T09:31:14Z</time></trkpt><trkpt lat="44.109399460522376" lon="11.545246904976768"><ele>543.1666666666667</ele><time>2026-05-03T09:31:17Z</time></trkpt><trkpt lat="44.10937450715968" lon="11.545133278930486"><ele>545.3333333333334</ele><time>2026-05-03T09:31:19Z</time></trkpt><trkpt lat="44.10932562179669" lon="11.545051802229372"><ele>547.5</ele><time>2026-05-03T09:31:22Z</time></trkpt><trkpt lat="44.10926980708673" lon="11.545099253197687"><ele>549.6666666666666</ele><time>2026-05-03T09:31:25Z</time></trkpt><trkpt lat="44.10919707311703" lon="11.545024029780272"><ele>551.8333333333333</ele><time>2026-05-03T09:31:52Z</time></trkpt><trkpt lat="44.10911903618795" lon="11.544947375733566"><ele>554.0</ele><time>2026-05-03T09:32:36Z</time></trkpt><trkpt lat="44.1090761814991" lon="11.544868320401708"><ele>552.8571428571429</ele><time>2026-05-03T09:32:39Z</time></trkpt><trkpt lat="44.10903620266791" lon="11.544800517695945"><ele>551.7142857142857</ele><time>2026-05-03T09:33:24Z</time></trkpt><trkpt lat="44.109003104591096" lon="11.544720119748614"><ele>550.5714285714286</ele><time>2026-05-03T09:33:29Z</time></trkpt><trkpt lat="44.10895849004695" lon="11.544648887485337"><ele>549.4285714285714</ele><time>2026-05-03T09:33:32Z</time></trkpt><trkpt lat="44.108939200013445" lon="11.54454562970977"><ele>548.2857142857142</ele><time>2026-05-03T09:33:35Z</time></trkpt><trkpt lat="44.10890402791302" lon="11.544433863742503"><ele>547.1428571428571</ele><time>2026-05-03T09:33:38Z</time></trkpt><trkpt lat="44.108842575127426" lon="11.544391060698636"><ele>546.0</ele><time>2026-05-03T09:33:41Z</time></trkpt><trkpt lat="44.10876189538997" lon="11.54437482615881"><ele>549.3333333333334</ele><time>2026-05-03T09:33:45Z</time></trkpt><trkpt lat="44.10869215506366" lon="11.544336696760046"><ele>552.6666666666666</ele><time>2026-05-03T09:33:47Z</time></trkpt><trkpt lat="44.10862267365467" lon="11.544284077070028"><ele>556.0</ele><time>2026-05-03T09:33:49Z</time></trkpt><trkpt lat="44.108586563613216" lon="11.544154914363281"><ele>559.3333333333333</ele><time>2026-05-03T09:33:51Z</time></trkpt><trkpt lat="44.108552035916674" lon="11.544040607415527"><ele>562.6666666666666</ele><time>2026-05-03T09:33:53Z</time></trkpt><trkpt lat="44.10850807462867" lon="11.543967424880119"><ele>566.0</ele><time>2026-05-03T09:33:55Z</time></trkpt><trkpt lat="44.10841646763123" lon="11.543897232580301"><ele>566.0</ele><time>2026-05-03T09:33:58Z</time></trkpt><trkpt lat="44.10836660990056" lon="11.543839468159009"><ele>566.0</ele><time>2026-05-03T09:34:00Z</time></trkpt><trkpt lat="44.1082934582752" lon="11.543740926058673"><ele>566.0</ele><time>2026-05-03T09:34:03Z</time></trkpt><trkpt lat="44.108214674382154" lon="11.543526239545164"><ele>566.0</ele><time>2026-05-03T09:34:06Z</time></trkpt><trkpt lat="44.1081884370578" lon="11.543438846540113"><ele>566.0</ele><time>2026-05-03T09:34:07Z</time></trkpt><trkpt lat="44.10815281281974" lon="11.543334441036428"><ele>569.8333333333333</ele><time>2026-05-03T09:34:09Z</time></trkpt><trkpt lat="44.10809857954666" lon="11.543271961214929"><ele>573.6666666666666</ele><time>2026-05-03T09:34:11Z</time></trkpt><trkpt lat="44.1080259680647" lon="11.543223905700154"><ele>577.5</ele><time>2026-05-03T09:34:13Z</time></trkpt><trkpt lat="44.1079334128837" lon="11.543164899903555"><ele>581.3333333333334</ele><time>2026-05-03T09:34:15Z</time></trkpt><trkpt lat="44.10787033798687" lon="11.543120212880064"><ele>585.1666666666667</ele><time>2026-05-03T09:34:16Z</time></trkpt><trkpt lat="44.10778894595478" lon="11.543056130340286"><ele>589.0</ele><time>2026-05-03T09:34:18Z</time></trkpt><trkpt lat="44.10770694354197" lon="11.54300549683282"><ele>589.0</ele><time>2026-05-03T09:34:20Z</time></trkpt><trkpt lat="44.107597981811416" lon="11.542985190860986"><ele>589.0</ele><time>2026-05-03T09:34:22Z</time></trkpt><trkpt lat="44.10749038263155" lon="11.542959616625971"><ele>589.0</ele><time>2026-05-03T09:34:24Z</time></trkpt><trkpt lat="44.107439659638494" lon="11.542903557571824"><ele>589.0</ele><time>2026-05-03T09:34:26Z</time></trkpt><trkpt lat="44.10734577545358" lon="11.542889555100146"><ele>589.0</ele><time>2026-05-03T09:34:27Z</time></trkpt><trkpt lat="44.10726958079334" lon="11.542781641915631"><ele>591.7142857142857</ele><time>2026-05-03T09:34:29Z</time></trkpt><trkpt lat="44.10722353123811" lon="11.542669125024423"><ele>594.4285714285713</ele><time>2026-05-03T09:34:31Z</time></trkpt><trkpt lat="44.10716234397858" lon="11.54260344539649"><ele>597.1428571428571</ele><time>2026-05-03T09:34:34Z</time></trkpt><trkpt lat="44.10719906507706" lon="11.542526221406884"><ele>599.8571428571429</ele><time>2026-05-03T09:34:55Z</time></trkpt><trkpt lat="44.10716704211479" lon="11.542446837841288"><ele>602.5714285714287</ele><time>2026-05-03T09:34:56Z</time></trkpt><trkpt lat="44.10714777809586" lon="11.542352904721115"><ele>605.2857142857142</ele><time>2026-05-03T09:35:01Z</time></trkpt><trkpt lat="44.107163324947486" lon="11.542263902998549"><ele>608.0</ele><time>2026-05-03T09:35:03Z</time></trkpt><trkpt lat="44.107114023628135" lon="11.542199972367316"><ele>608.0</ele><time>2026-05-03T09:35:13Z</time></trkpt><trkpt lat="44.1070538304363" lon="11.542167869334772"><ele>608.0</ele><time>2026-05-03T09:35:34Z</time></trkpt><trkpt lat="44.10698602338753" lon="11.542157480782372"><ele>608.0</ele><time>2026-05-03T09:35:52Z</time></trkpt><trkpt lat="44.10693179239339" lon="11.542086642145415"><ele>608.0</ele><time>2026-05-03T09:37:56Z</time></trkpt><trkpt lat="44.10690270712424" lon="11.542007237508912"><ele>608.0</ele><time>2026-05-03T09:38:32.999Z</time></trkpt><trkpt lat="44.10682179192984" lon="11.542062250817208"><ele>608.0</ele><time>2026-05-03T09:39:56Z</time></trkpt><trkpt lat="44.10672680694166" lon="11.542139212445718"><ele>608.0</ele><time>2026-05-03T09:39:58Z</time></trkpt><trkpt lat="44.106637191316096" lon="11.542238728470279"><ele>608.0</ele><time>2026-05-03T09:40:00Z</time></trkpt><trkpt lat="44.106589843309436" lon="11.542310919299965"><ele>608.0</ele><time>2026-05-03T09:40:02Z</time></trkpt><trkpt lat="44.106545317704125" lon="11.542402188635139"><ele>608.0</ele><time>2026-05-03T09:40:04Z</time></trkpt><trkpt lat="44.10649104416289" lon="11.542511074449415"><ele>608.0</ele><time>2026-05-03T09:40:07Z</time></trkpt><trkpt lat="44.106439458260176" lon="11.542586051773826"><ele>608.0</ele><time>2026-05-03T09:40:09Z</time></trkpt><trkpt lat="44.10636609396698" lon="11.542647278433652"><ele>609.4</ele><time>2026-05-03T09:40:11Z</time></trkpt><trkpt lat="44.10627894810227" lon="11.542687796952217"><ele>610.8</ele><time>2026-05-03T09:40:13Z</time></trkpt><trkpt lat="44.106193733803686" lon="11.54275257651899"><ele>612.2</ele><time>2026-05-03T09:40:15Z</time></trkpt><trkpt lat="44.10608325360328" lon="11.542826571629824"><ele>613.6</ele><time>2026-05-03T09:40:17Z</time></trkpt><trkpt lat="44.106017153547285" lon="11.542918420531208"><ele>615.0</ele><time>2026-05-03T09:40:18.999Z</time></trkpt><trkpt lat="44.10592952309081" lon="11.542950204141151"><ele>615.0</ele><time>2026-05-03T09:40:20.999Z</time></trkpt><trkpt lat="44.10580335772402" lon="11.542983195053806"><ele>615.0</ele><time>2026-05-03T09:40:23.999Z</time></trkpt><trkpt lat="44.1057087009196" lon="11.543012449541326"><ele>615.0</ele><time>2026-05-03T09:40:25.999Z</time></trkpt><trkpt lat="44.10562148895981" lon="11.543022096369588"><ele>615.0</ele><time>2026-05-03T09:40:27.999Z</time></trkpt><trkpt lat="44.10555087658068" lon="11.543014202213916"><ele>615.0</ele><time>2026-05-03T09:40:30.999Z</time></trkpt><trkpt lat="44.10542216805415" lon="11.542979991416978"><ele>611.4</ele><time>2026-05-03T09:40:31.999Z</time></trkpt><trkpt lat="44.105324942040276" lon="11.542948711814342"><ele>607.8</ele><time>2026-05-03T09:40:33.999Z</time></trkpt><trkpt lat="44.105209057001076" lon="11.54290290874387"><ele>604.2</ele><time>2026-05-03T09:40:35.999Z</time></trkpt><trkpt lat="44.10513697248148" lon="11.54285901889454"><ele>600.6</ele><time>2026-05-03T09:40:37.999Z</time></trkpt><trkpt lat="44.10504871263875" lon="11.542845276496143"><ele>597.0</ele><time>2026-05-03T09:40:39.999Z</time></trkpt><trkpt lat="44.104984830119946" lon="11.54280989919287"><ele>600.0000000000001</ele><time>2026-05-03T09:41:03.999Z</time></trkpt><trkpt lat="44.10491096342564" lon="11.542744527016193"><ele>603.0</ele><time>2026-05-03T09:41:05.999Z</time></trkpt><trkpt lat="44.104853467210596" lon="11.542666965011318"><ele>606.0</ele><time>2026-05-03T09:41:08.999Z</time></trkpt><trkpt lat="44.10481098552132" lon="11.542588980071162"><ele>609.0</ele><time>2026-05-03T09:41:11Z</time></trkpt><trkpt lat="44.10475929198457" lon="11.542644259973375"><ele>612.0</ele><time>2026-05-03T09:41:16Z</time></trkpt><trkpt lat="44.104739518770074" lon="11.542738055298663"><ele>615.0000000000001</ele><time>2026-05-03T09:41:18Z</time></trkpt><trkpt lat="44.10466504209642" lon="11.542728061945933"><ele>618.0</ele><time>2026-05-03T09:41:23Z</time></trkpt><trkpt lat="44.10460135225085" lon="11.542740603994348"><ele>618.0</ele><time>2026-05-03T09:41:25Z</time></trkpt><trkpt lat="44.104513793041086" lon="11.542764521363242"><ele>618.0</ele><time>2026-05-03T09:41:28Z</time></trkpt><trkpt lat="44.104438517111454" lon="11.542714306440706"><ele>618.0</ele><time>2026-05-03T09:41:31Z</time></trkpt><trkpt lat="44.104377785861395" lon="11.542677017825717"><ele>618.0</ele><time>2026-05-03T09:41:33Z</time></trkpt><trkpt lat="44.104310196543416" lon="11.542607177754565"><ele>618.0</ele><time>2026-05-03T09:41:37Z</time></trkpt><trkpt lat="44.10423429025205" lon="11.542567542685372"><ele>618.0</ele><time>2026-05-03T09:42:19Z</time></trkpt><trkpt lat="44.10416544565774" lon="11.542541073380468"><ele>618.0</ele><time>2026-05-03T09:42:21Z</time></trkpt><trkpt lat="44.10408039339486" lon="11.542493914448752"><ele>618.0</ele><time>2026-05-03T09:42:23Z</time></trkpt><trkpt lat="44.10401515931929" lon="11.542499729103787"><ele>618.0</ele><time>2026-05-03T09:42:26Z</time></trkpt><trkpt lat="44.103974167968104" lon="11.542584598257587"><ele>618.0</ele><time>2026-05-03T09:42:31Z</time></trkpt><trkpt lat="44.10391128829723" lon="11.542637466531161"><ele>618.0</ele><time>2026-05-03T09:42:34Z</time></trkpt><trkpt lat="44.10383822031936" lon="11.542575417238266"><ele>618.0</ele><time>2026-05-03T09:42:37Z</time></trkpt><trkpt lat="44.103782905282706" lon="11.542522982576111"><ele>620.5</ele><time>2026-05-03T09:42:40Z</time></trkpt><trkpt lat="44.10373149517213" lon="11.542467026520944"><ele>623.0</ele><time>2026-05-03T09:42:42Z</time></trkpt><trkpt lat="44.103660290687586" lon="11.5424186576311"><ele>625.5</ele><time>2026-05-03T09:42:44Z</time></trkpt><trkpt lat="44.10360032176805" lon="11.542383900928433"><ele>628.0</ele><time>2026-05-03T09:42:46Z</time></trkpt><trkpt lat="44.10351027340086" lon="11.542348280039453"><ele>630.5</ele><time>2026-05-03T09:42:48Z</time></trkpt><trkpt lat="44.103411023089535" lon="11.542302388265115"><ele>633.0</ele><time>2026-05-03T09:42:50Z</time></trkpt><trkpt lat="44.103312620152025" lon="11.542286232300558"><ele>635.4</ele><time>2026-05-03T09:42:52Z</time></trkpt><trkpt lat="44.10321660258108" lon="11.542253453481662"><ele>637.8</ele><time>2026-05-03T09:42:54Z</time></trkpt><trkpt lat="44.10310478526963" lon="11.54222878644874"><ele>640.2</ele><time>2026-05-03T09:42:56Z</time></trkpt><trkpt lat="44.10301204664715" lon="11.542214798922188"><ele>642.6</ele><time>2026-05-03T09:42:58Z</time></trkpt><trkpt lat="44.10293768529663" lon="11.542233332585319"><ele>645.0</ele><time>2026-05-03T09:43:00Z</time></trkpt><trkpt lat="44.102830822927515" lon="11.542267590947452"><ele>645.0</ele><time>2026-05-03T09:43:02Z</time></trkpt><trkpt lat="44.10273656841682" lon="11.542350443948562"><ele>645.0</ele><time>2026-05-03T09:43:04Z</time></trkpt><trkpt lat="44.102668792525975" lon="11.542450348954015"><ele>645.0</ele><time>2026-05-03T09:43:06Z</time></trkpt><trkpt lat="44.1026074365472" lon="11.54254402532156"><ele>645.0</ele><time>2026-05-03T09:43:07Z</time></trkpt><trkpt lat="44.10252184172008" lon="11.542539265753229"><ele>645.0</ele><time>2026-05-03T09:43:10Z</time></trkpt><trkpt lat="44.10244832216275" lon="11.54245563844268"><ele>645.6666666666666</ele><time>2026-05-03T09:43:13Z</time></trkpt><trkpt lat="44.10237147468905" lon="11.542367595599133"><ele>646.3333333333334</ele><time>2026-05-03T09:43:18Z</time></trkpt><trkpt lat="44.102363069834055" lon="11.54228041262199"><ele>647.0</ele><time>2026-05-03T09:43:20Z</time></trkpt><trkpt lat="44.10239769414703" lon="11.542189656998577"><ele>647.6666666666667</ele><time>2026-05-03T09:43:22Z</time></trkpt><trkpt lat="44.10241129928113" lon="11.542060797332233"><ele>648.3333333333334</ele><time>2026-05-03T09:43:26Z</time></trkpt><trkpt lat="44.10237563508765" lon="11.5419453089569"><ele>649.0</ele><time>2026-05-03T09:43:29Z</time></trkpt><trkpt lat="44.102321618886535" lon="11.541824075214949"><ele>652.2</ele><time>2026-05-03T09:43:31Z</time></trkpt><trkpt lat="44.10228728139734" lon="11.541546411268907"><ele>655.4000000000001</ele><time>2026-05-03T09:43:33Z</time></trkpt><trkpt lat="44.102234259649705" lon="11.541472683287632"><ele>658.6</ele><time>2026-05-03T09:43:36Z</time></trkpt><trkpt lat="44.102182461549184" lon="11.541418404941936"><ele>661.8</ele><time>2026-05-03T09:43:41Z</time></trkpt><trkpt lat="44.102133400627984" lon="11.541361404217438"><ele>665.0</ele><time>2026-05-03T09:43:43Z</time></trkpt><trkpt lat="44.10206878191236" lon="11.54129246855421"><ele>665.0</ele><time>2026-05-03T09:43:45Z</time></trkpt><trkpt lat="44.102004520446926" lon="11.541234333300029"><ele>665.0</ele><time>2026-05-03T09:43:47Z</time></trkpt><trkpt lat="44.1019108610588" lon="11.541203654708927"><ele>665.0</ele><time>2026-05-03T09:43:50Z</time></trkpt><trkpt lat="44.10185260166563" lon="11.54115955885365"><ele>665.0</ele><time>2026-05-03T09:43:51Z</time></trkpt><trkpt lat="44.101790826767235" lon="11.541126570695834"><ele>665.0</ele><time>2026-05-03T09:43:52Z</time></trkpt><trkpt lat="44.10172600473415" lon="11.54108469763699"><ele>665.0</ele><time>2026-05-03T09:43:53Z</time></trkpt><trkpt lat="44.10166159116174" lon="11.541062791115271"><ele>665.0</ele><time>2026-05-03T09:43:54Z</time></trkpt><trkpt lat="44.10157621311719" lon="11.541025244587562"><ele>670.3333333333333</ele><time>2026-05-03T09:43:56Z</time></trkpt><trkpt lat="44.10153404244485" lon="11.54095431931349"><ele>675.6666666666666</ele><time>2026-05-03T09:45:08Z</time></trkpt><trkpt lat="44.10144784019168" lon="11.540851208769284"><ele>681.0</ele><time>2026-05-03T09:51:35Z</time></trkpt><trkpt lat="44.10140187103525" lon="11.540777929418168"><ele>686.3333333333334</ele><time>2026-05-03T09:51:37Z</time></trkpt><trkpt lat="44.10133767371158" lon="11.54074082872189"><ele>691.6666666666667</ele><time>2026-05-03T09:51:40Z</time></trkpt><trkpt lat="44.10126936933802" lon="11.540712938700192"><ele>697.0</ele><time>2026-05-03T09:51:42Z</time></trkpt><trkpt lat="44.101185717501835" lon="11.540650048030173"><ele>697.0</ele><time>2026-05-03T09:51:44Z</time></trkpt><trkpt lat="44.10112038903693" lon="11.540625763442304"><ele>697.0</ele><time>2026-05-03T09:51:46Z</time></trkpt><trkpt lat="44.10107567468944" lon="11.54055921285181"><ele>697.0</ele><time>2026-05-03T09:51:48Z</time></trkpt><trkpt lat="44.10103114884499" lon="11.540309296626294"><ele>697.0</ele><time>2026-05-03T09:52:40Z</time></trkpt><trkpt lat="44.101016749059376" lon="11.540200238465227"><ele>697.0</ele><time>2026-05-03T09:52:41Z</time></trkpt><trkpt lat="44.1009832686553" lon="11.540111994830227"><ele>697.1666666666667</ele><time>2026-05-03T09:52:42Z</time></trkpt><trkpt lat="44.10094261935476" lon="11.540031756332263"><ele>697.3333333333334</ele><time>2026-05-03T09:52:43Z</time></trkpt><trkpt lat="44.10089353266693" lon="11.539921466004037"><ele>697.5</ele><time>2026-05-03T09:52:45Z</time></trkpt><trkpt lat="44.100829973682245" lon="11.539917635818203"><ele>697.6666666666666</ele><time>2026-05-03T09:52:48Z</time></trkpt><trkpt lat="44.10081980545626" lon="11.540018188304552"><ele>697.8333333333333</ele><time>2026-05-03T09:52:50Z</time></trkpt><trkpt lat="44.10083873480293" lon="11.540142786001285"><ele>698.0</ele><time>2026-05-03T09:52:52Z</time></trkpt><trkpt lat="44.100769982990045" lon="11.540265305385002"><ele>698.8333333333333</ele><time>2026-05-03T09:52:54Z</time></trkpt><trkpt lat="44.100725513230664" lon="11.540346153773262"><ele>699.6666666666666</ele><time>2026-05-03T09:52:55Z</time></trkpt><trkpt lat="44.10068293534698" lon="11.540415812588241"><ele>700.5</ele><time>2026-05-03T09:52:56Z</time></trkpt><trkpt lat="44.100634651869015" lon="11.540480643521095"><ele>701.3333333333334</ele><time>2026-05-03T09:52:57Z</time></trkpt><trkpt lat="44.10052512302407" lon="11.540520679706217"><ele>702.1666666666667</ele><time>2026-05-03T09:52:59Z</time></trkpt><trkpt lat="44.10045636476901" lon="11.54050905950279"><ele>703.0</ele><time>2026-05-03T09:53:04Z</time></trkpt><trkpt lat="44.100370393413804" lon="11.540499551838744"><ele>703.0</ele><time>2026-05-03T09:53:08Z</time></trkpt><trkpt lat="44.10028657369522" lon="11.540486887176774"><ele>703.0</ele><time>2026-05-03T09:53:10Z</time></trkpt><trkpt lat="44.10020573993864" lon="11.540477588952811"><ele>703.0</ele><time>2026-05-03T09:53:11Z</time></trkpt><trkpt lat="44.10012555589169" lon="11.540468004391474"><ele>703.0</ele><time>2026-05-03T09:53:12Z</time></trkpt><trkpt lat="44.10001843960338" lon="11.54047056423712"><ele>703.0</ele><time>2026-05-03T09:53:14Z</time></trkpt><trkpt lat="44.099865038804566" lon="11.540437657376064"><ele>702.1666666666667</ele><time>2026-05-03T09:53:17Z</time></trkpt><trkpt lat="44.0997877041009" lon="11.540405938962053"><ele>701.3333333333334</ele><time>2026-05-03T09:53:19Z</time></trkpt><trkpt lat="44.099709469764385" lon="11.540406404951307"><ele>700.5</ele><time>2026-05-03T09:53:21Z</time></trkpt><trkpt lat="44.09962215547539" lon="11.540419388836169"><ele>699.6666666666666</ele><time>2026-05-03T09:53:23Z</time></trkpt><trkpt lat="44.099543826009764" lon="11.540428853913207"><ele>698.8333333333333</ele><time>2026-05-03T09:53:24.999Z</time></trkpt><trkpt lat="44.09945856193343" lon="11.540449626354336"><ele>698.0</ele><time>2026-05-03T09:53:26.999Z</time></trkpt><trkpt lat="44.09937428137289" lon="11.540478276385663"><ele>698.0</ele><time>2026-05-03T09:53:28.999Z</time></trkpt><trkpt lat="44.09929113358659" lon="11.540488150167182"><ele>698.0</ele><time>2026-05-03T09:53:30.999Z</time></trkpt><trkpt lat="44.09919108828258" lon="11.540548486937443"><ele>698.0</ele><time>2026-05-03T09:53:32.999Z</time></trkpt><trkpt lat="44.09909615209866" lon="11.540602945398424"><ele>698.0</ele><time>2026-05-03T09:53:34.999Z</time></trkpt><trkpt lat="44.09900722023552" lon="11.540678684736994"><ele>698.0</ele><time>2026-05-03T09:53:36.999Z</time></trkpt><trkpt lat="44.098912397914106" lon="11.540744394827783"><ele>699.3333333333333</ele><time>2026-05-03T09:53:38.999Z</time></trkpt><trkpt lat="44.09884851961966" lon="11.540719111160435"><ele>700.6666666666666</ele><time>2026-05-03T09:53:39.999Z</time></trkpt><trkpt lat="44.09878254895022" lon="11.540722493876592"><ele>702.0</ele><time>2026-05-03T09:53:40.999Z</time></trkpt><trkpt lat="44.09871145079829" lon="11.540735011221054"><ele>703.3333333333334</ele><time>2026-05-03T09:53:41.999Z</time></trkpt><trkpt lat="44.09857326387092" lon="11.540672674527839"><ele>704.6666666666667</ele><time>2026-05-03T09:53:43.999Z</time></trkpt><trkpt lat="44.09851237321605" lon="11.54062064260027"><ele>706.0</ele><time>2026-05-03T09:53:44.999Z</time></trkpt><trkpt lat="44.098439163369456" lon="11.540581345444119"><ele>706.0</ele><time>2026-05-03T09:53:46Z</time></trkpt><trkpt lat="44.09836039164264" lon="11.540558174264685"><ele>706.0</ele><time>2026-05-03T09:53:47Z</time></trkpt><trkpt lat="44.098296948369374" lon="11.54054508125624"><ele>706.0</ele><time>2026-05-03T09:53:48Z</time></trkpt><trkpt lat="44.09821817830477" lon="11.540423738700785"><ele>706.0</ele><time>2026-05-03T09:53:50Z</time></trkpt><trkpt lat="44.098166426216544" lon="11.540363780765762"><ele>706.0</ele><time>2026-05-03T09:53:51Z</time></trkpt><trkpt lat="44.098103528912034" lon="11.540347520718955"><ele>706.0</ele><time>2026-05-03T09:53:52Z</time></trkpt><trkpt lat="44.09803956597947" lon="11.540357837747088"><ele>706.4</ele><time>2026-05-03T09:53:53Z</time></trkpt><trkpt lat="44.097943212634526" lon="11.540430806709287"><ele>706.8</ele><time>2026-05-03T09:53:55Z</time></trkpt><trkpt lat="44.09787449306248" lon="11.540498260913832"><ele>707.1999999999999</ele><time>2026-05-03T09:53:57Z</time></trkpt><trkpt lat="44.09778643609842" lon="11.540569772469638"><ele>707.5999999999999</ele><time>2026-05-03T09:54:32Z</time></trkpt><trkpt lat="44.09771561795965" lon="11.540591154935447"><ele>708.0</ele><time>2026-05-03T09:54:33Z</time></trkpt><trkpt lat="44.09762142554611" lon="11.540583226285523"><ele>708.0</ele><time>2026-05-03T09:54:35Z</time></trkpt><trkpt lat="44.09752131223944" lon="11.540485107013373"><ele>708.0</ele><time>2026-05-03T09:54:37Z</time></trkpt><trkpt lat="44.09743074353876" lon="11.540395293411633"><ele>708.0</ele><time>2026-05-03T09:54:39Z</time></trkpt><trkpt lat="44.09733479179627" lon="11.540382329685011"><ele>708.0</ele><time>2026-05-03T09:54:41Z</time></trkpt><trkpt lat="44.09722993513614" lon="11.540393546843912"><ele>708.0</ele><time>2026-05-03T09:54:43Z</time></trkpt><trkpt lat="44.0971443582343" lon="11.540449441645425"><ele>708.8333333333334</ele><time>2026-05-03T09:54:45Z</time></trkpt><trkpt lat="44.097024646810674" lon="11.540473594829159"><ele>709.6666666666666</ele><time>2026-05-03T09:54:47Z</time></trkpt><trkpt lat="44.09692948085869" lon="11.540420219480394"><ele>710.5</ele><time>2026-05-03T09:54:49Z</time></trkpt><trkpt lat="44.09687273535606" lon="11.540367364035228"><ele>711.3333333333333</ele><time>2026-05-03T09:54:51Z</time></trkpt><trkpt lat="44.0968038324317" lon="11.540350804308131"><ele>712.1666666666666</ele><time>2026-05-03T09:55:09.999Z</time></trkpt><trkpt lat="44.0967399737193" lon="11.540377563945452"><ele>713.0</ele><time>2026-05-03T09:55:15.999Z</time></trkpt><trkpt lat="44.09665398332105" lon="11.54043515952107"><ele>712.1666666666666</ele><time>2026-05-03T09:55:17.999Z</time></trkpt><trkpt lat="44.096564945547335" lon="11.54045536508496"><ele>711.3333333333333</ele><time>2026-05-03T09:55:19.999Z</time></trkpt><trkpt lat="44.096501639126856" lon="11.540463652752566"><ele>710.5</ele><time>2026-05-03T09:55:21.999Z</time></trkpt><trkpt lat="44.09642035730985" lon="11.540511956022467"><ele>709.6666666666666</ele><time>2026-05-03T09:55:29.999Z</time></trkpt><trkpt lat="44.09633094642624" lon="11.540550766219658"><ele>708.8333333333334</ele><time>2026-05-03T09:55:31.999Z</time></trkpt><trkpt lat="44.09625769649958" lon="11.540643049204935"><ele>708.0</ele><time>2026-05-03T09:55:33.999Z</time></trkpt><trkpt lat="44.09615840154968" lon="11.540621560690376"><ele>708.0</ele><time>2026-05-03T09:55:35.999Z</time></trkpt><trkpt lat="44.09604316116511" lon="11.540578902788383"><ele>708.0</ele><time>2026-05-03T09:55:37.999Z</time></trkpt><trkpt lat="44.095918900570496" lon="11.540548953528598"><ele>708.0</ele><time>2026-05-03T09:55:39.999Z</time></trkpt><trkpt lat="44.09585355542237" lon="11.540529870493485"><ele>708.0</ele><time>2026-05-03T09:55:40.999Z</time></trkpt><trkpt lat="44.095732939571626" lon="11.54050627701742"><ele>708.0</ele><time>2026-05-03T09:55:42.999Z</time></trkpt><trkpt lat="44.09567006220019" lon="11.540497275942712"><ele>708.8571428571429</ele><time>2026-05-03T09:55:43.999Z</time></trkpt><trkpt lat="44.09560859701517" lon="11.540462025376288"><ele>709.7142857142857</ele><time>2026-05-03T09:55:44.999Z</time></trkpt><trkpt lat="44.09555173712626" lon="11.540408232908472"><ele>710.5714285714286</ele><time>2026-05-03T09:55:45.999Z</time></trkpt><trkpt lat="44.09549281264253" lon="11.54035250003662"><ele>711.4285714285714</ele><time>2026-05-03T09:55:46.999Z</time></trkpt><trkpt lat="44.09542875705797" lon="11.54031706500581"><ele>712.2857142857142</ele><time>2026-05-03T09:55:47.999Z</time></trkpt><trkpt lat="44.095365013196336" lon="11.540286674192773"><ele>713.1428571428571</ele><time>2026-05-03T09:55:48.999Z</time></trkpt><trkpt lat="44.095283930445774" lon="11.54022799795475"><ele>714.0</ele><time>2026-05-03T09:55:50.999Z</time></trkpt><trkpt lat="44.095219433483344" lon="11.54015785068057"><ele>714.0</ele><time>2026-05-03T09:55:52.999Z</time></trkpt><trkpt lat="44.0951708206894" lon="11.540095216568671"><ele>714.0</ele><time>2026-05-03T09:55:53.999Z</time></trkpt><trkpt lat="44.09511346299602" lon="11.540039087638112"><ele>714.0</ele><time>2026-05-03T09:55:54.999Z</time></trkpt><trkpt lat="44.09505537142056" lon="11.539988993984347"><ele>714.0</ele><time>2026-05-03T09:55:55.999Z</time></trkpt><trkpt lat="44.09499561263063" lon="11.53995936173363"><ele>714.0</ele><time>2026-05-03T09:55:56.999Z</time></trkpt><trkpt lat="44.09486889481779" lon="11.539905426957812"><ele>714.0</ele><time>2026-05-03T09:55:58.999Z</time></trkpt><trkpt lat="44.09478893002919" lon="11.539850830523438"><ele>716.4000000000001</ele><time>2026-05-03T09:55:59.999Z</time></trkpt><trkpt lat="44.09470235836187" lon="11.539790801902834"><ele>718.8</ele><time>2026-05-03T09:56:01Z</time></trkpt><trkpt lat="44.094630664155765" lon="11.539746708203332"><ele>721.2</ele><time>2026-05-03T09:56:02Z</time></trkpt><trkpt lat="44.09454304954621" lon="11.539705480099148"><ele>723.5999999999999</ele><time>2026-05-03T09:56:03Z</time></trkpt><trkpt lat="44.09445160126036" lon="11.539654896523965"><ele>726.0</ele><time>2026-05-03T09:56:04Z</time></trkpt><trkpt lat="44.09437432310039" lon="11.539607305645433"><ele>726.0</ele><time>2026-05-03T09:56:05Z</time></trkpt><trkpt lat="44.09429806771838" lon="11.539582297926643"><ele>726.0</ele><time>2026-05-03T09:56:06Z</time></trkpt><trkpt lat="44.09420339268468" lon="11.53957602501714"><ele>726.0</ele><time>2026-05-03T09:56:07Z</time></trkpt><trkpt lat="44.094112609209276" lon="11.539579296820708"><ele>726.0</ele><time>2026-05-03T09:56:08Z</time></trkpt><trkpt lat="44.09402684570946" lon="11.539573699252664"><ele>726.0</ele><time>2026-05-03T09:56:09Z</time></trkpt><trkpt lat="44.09394839517597" lon="11.539576778281425"><ele>726.0</ele><time>2026-05-03T09:56:10Z</time></trkpt><trkpt lat="44.093864867183015" lon="11.539607850851466"><ele>728.5</ele><time>2026-05-03T09:56:11Z</time></trkpt><trkpt lat="44.09378734908817" lon="11.539657725829331"><ele>731.0</ele><time>2026-05-03T09:56:12Z</time></trkpt><trkpt lat="44.093705471685155" lon="11.539687920007841"><ele>733.5</ele><time>2026-05-03T09:56:13Z</time></trkpt><trkpt lat="44.093638895733974" lon="11.539695753624887"><ele>736.0</ele><time>2026-05-03T09:56:14Z</time></trkpt><trkpt lat="44.093568355064946" lon="11.53968799111758"><ele>738.5</ele><time>2026-05-03T09:56:15Z</time></trkpt><trkpt lat="44.093472479067756" lon="11.539675540866353"><ele>741.0</ele><time>2026-05-03T09:56:17Z</time></trkpt><trkpt lat="44.093362779028126" lon="11.539714218881134"><ele>741.0</ele><time>2026-05-03T09:56:19Z</time></trkpt><trkpt lat="44.09329948612876" lon="11.539747589772713"><ele>741.0</ele><time>2026-05-03T09:56:20Z</time></trkpt><trkpt lat="44.09319048205447" lon="11.539686347808116"><ele>741.0</ele><time>2026-05-03T09:56:22Z</time></trkpt><trkpt lat="44.093090699895505" lon="11.539650542113469"><ele>741.0</ele><time>2026-05-03T09:56:24Z</time></trkpt><trkpt lat="44.092998438645346" lon="11.539607167530344"><ele>741.0</ele><time>2026-05-03T09:56:26Z</time></trkpt><trkpt lat="44.092892961700734" lon="11.539573063356968"><ele>742.8333333333334</ele><time>2026-05-03T09:56:29Z</time></trkpt><trkpt lat="44.092817235918496" lon="11.539490583363666"><ele>744.6666666666666</ele><time>2026-05-03T09:56:31Z</time></trkpt><trkpt lat="44.09273697730886" lon="11.539426867032596"><ele>746.5</ele><time>2026-05-03T09:56:33Z</time></trkpt><trkpt lat="44.09268189644913" lon="11.539325946027095"><ele>748.3333333333333</ele><time>2026-05-03T09:56:35Z</time></trkpt><trkpt lat="44.09263466465855" lon="11.539242411483437"><ele>750.1666666666666</ele><time>2026-05-03T09:56:36Z</time></trkpt><trkpt lat="44.09257990068948" lon="11.539178707925133"><ele>752.0</ele><time>2026-05-03T09:56:37Z</time></trkpt><trkpt lat="44.092495595547746" lon="11.53904663515288"><ele>752.0</ele><time>2026-05-03T09:56:39Z</time></trkpt><trkpt lat="44.092431870867834" lon="11.5389620082049"><ele>752.0</ele><time>2026-05-03T09:56:41Z</time></trkpt><trkpt lat="44.092349361388045" lon="11.538943292852329"><ele>752.0</ele><time>2026-05-03T09:56:44Z</time></trkpt><trkpt lat="44.0922437999798" lon="11.538966477525436"><ele>752.0</ele><time>2026-05-03T09:56:47Z</time></trkpt><trkpt lat="44.0921595934441" lon="11.53901448719162"><ele>752.0</ele><time>2026-05-03T09:56:51Z</time></trkpt><trkpt lat="44.09202057722223" lon="11.539137824777638"><ele>753.4000000000001</ele><time>2026-05-03T09:56:54Z</time></trkpt><trkpt lat="44.09194571115314" lon="11.53923822486257"><ele>754.8000000000001</ele><time>2026-05-03T09:56:56Z</time></trkpt><trkpt lat="44.09187430753677" lon="11.539325710955474"><ele>756.2</ele><time>2026-05-03T09:56:58Z</time></trkpt><trkpt lat="44.0918130664732" lon="11.539365518894463"><ele>757.6</ele><time>2026-05-03T09:56:59.999Z</time></trkpt><trkpt lat="44.09172623561101" lon="11.539454849864478"><ele>759.0</ele><time>2026-05-03T09:57:01.999Z</time></trkpt><trkpt lat="44.091646010947855" lon="11.539544303851011"><ele>759.6666666666666</ele><time>2026-05-03T09:57:03.999Z</time></trkpt><trkpt lat="44.09153693427685" lon="11.539600030495787"><ele>760.3333333333334</ele><time>2026-05-03T09:57:05.999Z</time></trkpt><trkpt lat="44.091454504685224" lon="11.539664801915304"><ele>761.0</ele><time>2026-05-03T09:57:08.999Z</time></trkpt><trkpt lat="44.091396722286554" lon="11.5397088298015"><ele>761.6666666666667</ele><time>2026-05-03T09:57:10.999Z</time></trkpt><trkpt lat="44.0913308748733" lon="11.53977001652818"><ele>762.3333333333334</ele><time>2026-05-03T09:57:12.999Z</time></trkpt><trkpt lat="44.09127217520309" lon="11.53984602644955"><ele>763.0</ele><time>2026-05-03T09:57:14.999Z</time></trkpt><trkpt lat="44.09124192853489" lon="11.539935482725365"><ele>763.0</ele><time>2026-05-03T09:57:17.999Z</time></trkpt><trkpt lat="44.09118214695859" lon="11.540107137722181"><ele>763.0</ele><time>2026-05-03T09:57:18.999Z</time></trkpt><trkpt lat="44.09109403655359" lon="11.540203679931636"><ele>763.0</ele><time>2026-05-03T09:57:20.999Z</time></trkpt><trkpt lat="44.091005207359366" lon="11.540279727973223"><ele>763.0</ele><time>2026-05-03T09:57:22.999Z</time></trkpt><trkpt lat="44.0909349053668" lon="11.54034476370149"><ele>763.0</ele><time>2026-05-03T09:57:24.999Z</time></trkpt><trkpt lat="44.09087202856815" lon="11.540382589161904"><ele>763.6666666666667</ele><time>2026-05-03T09:57:26.999Z</time></trkpt><trkpt lat="44.090772629285524" lon="11.540444735375985"><ele>764.3333333333334</ele><time>2026-05-03T09:57:28.999Z</time></trkpt><trkpt lat="44.09069302383294" lon="11.540490353582996"><ele>765.0</ele><time>2026-05-03T09:57:30.999Z</time></trkpt><trkpt lat="44.09060619602752" lon="11.540518281073734"><ele>765.6666666666666</ele><time>2026-05-03T09:57:32.999Z</time></trkpt><trkpt lat="44.09053560792046" lon="11.540546371737852"><ele>766.3333333333333</ele><time>2026-05-03T09:57:34.999Z</time></trkpt><trkpt lat="44.09045828916742" lon="11.540556316059526"><ele>767.0</ele><time>2026-05-03T09:57:36.999Z</time></trkpt><trkpt lat="44.09037852767043" lon="11.540577210937128"><ele>770.4000000000001</ele><time>2026-05-03T09:57:40.999Z</time></trkpt><trkpt lat="44.09030367949619" lon="11.54058203090206"><ele>773.8000000000001</ele><time>2026-05-03T09:57:44.999Z</time></trkpt><trkpt lat="44.090235189614155" lon="11.540635750939492"><ele>777.2</ele><time>2026-05-03T09:57:48.999Z</time></trkpt><trkpt lat="44.09010999640644" lon="11.540798390570254"><ele>780.6</ele><time>2026-05-03T09:57:49.999Z</time></trkpt><trkpt lat="44.090064933943154" lon="11.540886942491838"><ele>784.0</ele><time>2026-05-03T09:57:50.999Z</time></trkpt><trkpt lat="44.089995453135515" lon="11.540958035243372"><ele>786.8333333333333</ele><time>2026-05-03T09:57:52.999Z</time></trkpt><trkpt lat="44.08992275079509" lon="11.54103579969904"><ele>789.6666666666666</ele><time>2026-05-03T09:57:54.999Z</time></trkpt><trkpt lat="44.089854023381505" lon="11.541124005754044"><ele>792.5</ele><time>2026-05-03T09:57:56.999Z</time></trkpt><trkpt lat="44.08978398478751" lon="11.541215507286708"><ele>795.3333333333333</ele><time>2026-05-03T09:57:59Z</time></trkpt><trkpt lat="44.08972308673323" lon="11.541274925198895"><ele>798.1666666666666</ele><time>2026-05-03T09:58:01Z</time></trkpt><trkpt lat="44.08966199575783" lon="11.541325187412989"><ele>801.0</ele><time>2026-05-03T09:58:03Z</time></trkpt><trkpt lat="44.08951566411004" lon="11.54134201910475"><ele>801.5</ele><time>2026-05-03T09:58:05Z</time></trkpt><trkpt lat="44.08943183531203" lon="11.541417775730231"><ele>802.0</ele><time>2026-05-03T09:58:07Z</time></trkpt><trkpt lat="44.089368404518694" lon="11.541463203087869"><ele>802.5</ele><time>2026-05-03T09:58:11Z</time></trkpt><trkpt lat="44.089295757808394" lon="11.541561205424493"><ele>803.0</ele><time>2026-05-03T09:58:14Z</time></trkpt><trkpt lat="44.08923756919614" lon="11.541625386439883"><ele>803.5</ele><time>2026-05-03T09:58:18Z</time></trkpt><trkpt lat="44.089204420542416" lon="11.54170039083493"><ele>804.0</ele><time>2026-05-03T09:58:21Z</time></trkpt><trkpt lat="44.08914717689444" lon="11.54176947986035"><ele>804.1666666666666</ele><time>2026-05-03T09:58:24Z</time></trkpt><trkpt lat="44.089087754852585" lon="11.541832100470378"><ele>804.3333333333333</ele><time>2026-05-03T09:58:27Z</time></trkpt><trkpt lat="44.08903173507853" lon="11.541884753842616"><ele>804.5</ele><time>2026-05-03T09:59:08Z</time></trkpt><trkpt lat="44.088971322899845" lon="11.541940721429572"><ele>804.6666666666666</ele><time>2026-05-03T09:59:15Z</time></trkpt><trkpt lat="44.0888870079491" lon="11.541905527058207"><ele>804.8333333333333</ele><time>2026-05-03T09:59:17Z</time></trkpt><trkpt lat="44.0888045151396" lon="11.541820044327354"><ele>805.0</ele><time>2026-05-03T09:59:19Z</time></trkpt><trkpt lat="44.08872893878413" lon="11.541754863375479"><ele>804.9999999999999</ele><time>2026-05-03T09:59:21Z</time></trkpt><trkpt lat="44.08865817288411" lon="11.541711019926458"><ele>805.0</ele><time>2026-05-03T09:59:55.999Z</time></trkpt><trkpt lat="44.08861119508143" lon="11.54163149114969"><ele>805.0</ele><time>2026-05-03T09:59:58.999Z</time></trkpt><trkpt lat="44.088568916029494" lon="11.541538998527724"><ele>805.0</ele><time>2026-05-03T10:00:13Z</time></trkpt><trkpt lat="44.088509623968655" lon="11.541423582569877"><ele>804.9999999999999</ele><time>2026-05-03T10:00:16Z</time></trkpt><trkpt lat="44.08846887552022" lon="11.54132126198119"><ele>805.0</ele><time>2026-05-03T10:00:19Z</time></trkpt><trkpt lat="44.08842816942252" lon="11.541239258032277"><ele>808.8</ele><time>2026-05-03T10:00:27Z</time></trkpt><trkpt lat="44.088378852701425" lon="11.541079534227494"><ele>812.6</ele><time>2026-05-03T10:01:45.999Z</time></trkpt><trkpt lat="44.08832976791665" lon="11.540943249681375"><ele>816.4000000000001</ele><time>2026-05-03T10:01:48.999Z</time></trkpt><trkpt lat="44.0882572003095" lon="11.540857643663427"><ele>820.2</ele><time>2026-05-03T10:01:50.999Z</time></trkpt><trkpt lat="44.088210359645515" lon="11.540769387310519"><ele>824.0</ele><time>2026-05-03T10:01:52.999Z</time></trkpt><trkpt lat="44.088133401436195" lon="11.540665726830658"><ele>825.0</ele><time>2026-05-03T10:01:54.999Z</time></trkpt><trkpt lat="44.08805468816642" lon="11.540576296093533"><ele>826.0</ele><time>2026-05-03T10:01:56.999Z</time></trkpt><trkpt lat="44.0879604454102" lon="11.540571687778433"><ele>827.0</ele><time>2026-05-03T10:01:59.999Z</time></trkpt><trkpt lat="44.08784650232002" lon="11.54050653350547"><ele>828.0</ele><time>2026-05-03T10:02:01.999Z</time></trkpt><trkpt lat="44.087652698625874" lon="11.54036456170861"><ele>829.0</ele><time>2026-05-03T10:02:05.999Z</time></trkpt><trkpt lat="44.08759322198119" lon="11.540315640119845"><ele>830.0</ele><time>2026-05-03T10:02:07.999Z</time></trkpt><trkpt lat="44.08750791993137" lon="11.54033879149738"><ele>831.0</ele><time>2026-05-03T10:03:54.999Z</time></trkpt><trkpt lat="44.087425058198" lon="11.54032001393999"><ele>832.0</ele><time>2026-05-03T10:03:56.999Z</time></trkpt><trkpt lat="44.087375538061934" lon="11.540241685419595"><ele>833.0</ele><time>2026-05-03T10:03:58.999Z</time></trkpt><trkpt lat="44.087287551977276" lon="11.540217565130275"><ele>834.0</ele><time>2026-05-03T10:04:00.999Z</time></trkpt><trkpt lat="44.08719130537137" lon="11.540226843587083"><ele>837.3333333333334</ele><time>2026-05-03T10:04:02.999Z</time></trkpt><trkpt lat="44.08710200465944" lon="11.540214572545107"><ele>840.6666666666667</ele><time>2026-05-03T10:04:06.999Z</time></trkpt><trkpt lat="44.08702422387333" lon="11.540300511163947"><ele>844.0</ele><time>2026-05-03T10:18:59.001Z</time></trkpt><trkpt lat="44.08693208296599" lon="11.540260869909133"><ele>847.3333333333334</ele><time>2026-05-03T10:19:22Z</time></trkpt><trkpt lat="44.086841623122524" lon="11.540261404032204"><ele>850.6666666666667</ele><time>2026-05-03T10:19:26Z</time></trkpt><trkpt lat="44.086792020574165" lon="11.54020263163622"><ele>854.0</ele><time>2026-05-03T10:19:29Z</time></trkpt><trkpt lat="44.08669290328237" lon="11.540203369496249"><ele>855.0</ele><time>2026-05-03T10:19:31Z</time></trkpt><trkpt lat="44.086574971379754" lon="11.540146365769886"><ele>856.0</ele><time>2026-05-03T10:19:33Z</time></trkpt><trkpt lat="44.086475847912986" lon="11.540101577193337"><ele>857.0</ele><time>2026-05-03T10:19:35Z</time></trkpt><trkpt lat="44.0863822279221" lon="11.540077445842172"><ele>858.0</ele><time>2026-05-03T10:19:48Z</time></trkpt><trkpt lat="44.086246297268175" lon="11.540066631656657"><ele>858.0</ele><time>2026-05-03T10:19:50Z</time></trkpt><trkpt lat="44.086153345021785" lon="11.540039302584763"><ele>858.0</ele><time>2026-05-03T10:19:51Z</time></trkpt><trkpt lat="44.08606419076317" lon="11.540006905435432"><ele>858.0</ele><time>2026-05-03T10:19:52Z</time></trkpt><trkpt lat="44.0859816521058" lon="11.539995043423728"><ele>858.0</ele><time>2026-05-03T10:19:53Z</time></trkpt><trkpt lat="44.08591357795152" lon="11.539987583318032"><ele>858.0</ele><time>2026-05-03T10:19:54Z</time></trkpt><trkpt lat="44.085822265592405" lon="11.53995874839943"><ele>858.0</ele><time>2026-05-03T10:19:56Z</time></trkpt><trkpt lat="44.08573132475999" lon="11.539944904672023"><ele>857.5</ele><time>2026-05-03T10:19:58Z</time></trkpt><trkpt lat="44.08566776684607" lon="11.539942807200115"><ele>857.0</ele><time>2026-05-03T10:19:59Z</time></trkpt><trkpt lat="44.08559916993055" lon="11.539944467187285"><ele>856.5</ele><time>2026-05-03T10:20:00Z</time></trkpt><trkpt lat="44.08548544817484" lon="11.539915381257378"><ele>856.0</ele><time>2026-05-03T10:20:02Z</time></trkpt><trkpt lat="44.08538757299548" lon="11.539877781841472"><ele>855.5</ele><time>2026-05-03T10:20:04Z</time></trkpt><trkpt lat="44.08529417292974" lon="11.539899471437963"><ele>855.0</ele><time>2026-05-03T10:20:06Z</time></trkpt><trkpt lat="44.08523295382082" lon="11.539924526928587"><ele>855.0</ele><time>2026-05-03T10:20:07Z</time></trkpt><trkpt lat="44.085161667402396" lon="11.539951757408172"><ele>855.0</ele><time>2026-05-03T10:20:08Z</time></trkpt><trkpt lat="44.08509038872213" lon="11.539960397453806"><ele>855.0</ele><time>2026-05-03T10:20:09Z</time></trkpt><trkpt lat="44.08498030816657" lon="11.539947948998027"><ele>855.0</ele><time>2026-05-03T10:20:11Z</time></trkpt><trkpt lat="44.08491380834151" lon="11.53991318885855"><ele>855.0</ele><time>2026-05-03T10:20:13Z</time></trkpt><trkpt lat="44.08485568911973" lon="11.539859997809527"><ele>855.0</ele><time>2026-05-03T10:20:15Z</time></trkpt><trkpt lat="44.08478556900473" lon="11.539821696964196"><ele>854.5</ele><time>2026-05-03T10:20:17Z</time></trkpt><trkpt lat="44.084719065806674" lon="11.539791446826142"><ele>854.0</ele><time>2026-05-03T10:20:19Z</time></trkpt><trkpt lat="44.084664889244195" lon="11.539723113721184"><ele>853.5</ele><time>2026-05-03T10:20:21Z</time></trkpt><trkpt lat="44.08460531960025" lon="11.539673917816993"><ele>853.0</ele><time>2026-05-03T10:20:23Z</time></trkpt><trkpt lat="44.0844904043852" lon="11.539698485846676"><ele>852.5</ele><time>2026-05-03T10:20:25Z</time></trkpt><trkpt lat="44.08440400147109" lon="11.539649693317447"><ele>852.0</ele><time>2026-05-03T10:20:27Z</time></trkpt><trkpt lat="44.08433298600069" lon="11.539614526620818"><ele>852.0</ele><time>2026-05-03T10:20:34Z</time></trkpt><trkpt lat="44.08424197008725" lon="11.539615170001108"><ele>852.0</ele><time>2026-05-03T10:20:36Z</time></trkpt><trkpt lat="44.08413629852011" lon="11.53958304386858"><ele>852.0</ele><time>2026-05-03T10:20:38Z</time></trkpt><trkpt lat="44.08405711721567" lon="11.539503941104979"><ele>852.0</ele><time>2026-05-03T10:20:40Z</time></trkpt><trkpt lat="44.08403060476038" lon="11.539413014777958"><ele>852.0</ele><time>2026-05-03T10:20:42Z</time></trkpt><trkpt lat="44.083959267566996" lon="11.53940175605216"><ele>852.0</ele><time>2026-05-03T10:20:45Z</time></trkpt><trkpt lat="44.08386118948195" lon="11.539400892184918"><ele>856.3333333333334</ele><time>2026-05-03T10:20:51Z</time></trkpt><trkpt lat="44.08373857139929" lon="11.53939871036755"><ele>860.6666666666667</ele><time>2026-05-03T10:20:53Z</time></trkpt><trkpt lat="44.083647531362686" lon="11.53936493075741"><ele>865.0</ele><time>2026-05-03T10:20:55Z</time></trkpt><trkpt lat="44.08358827434843" lon="11.539329709463765"><ele>869.3333333333334</ele><time>2026-05-03T10:20:57Z</time></trkpt><trkpt lat="44.08352787118518" lon="11.539247930682663"><ele>873.6666666666667</ele><time>2026-05-03T10:20:59Z</time></trkpt><trkpt lat="44.08347892402438" lon="11.539153526943348"><ele>878.0</ele><time>2026-05-03T10:21:01Z</time></trkpt><trkpt lat="44.08343407679544" lon="11.539068350352181"><ele>878.0</ele><time>2026-05-03T10:21:03Z</time></trkpt><trkpt lat="44.083369664878624" lon="11.53898646977701"><ele>878.0</ele><time>2026-05-03T10:21:05Z</time></trkpt><trkpt lat="44.08327229019539" lon="11.53892784041395"><ele>878.0</ele><time>2026-05-03T10:21:07Z</time></trkpt><trkpt lat="44.08318993576273" lon="11.538860730202945"><ele>878.0</ele><time>2026-05-03T10:21:09Z</time></trkpt><trkpt lat="44.083074993576794" lon="11.538837709950448"><ele>878.0</ele><time>2026-05-03T10:21:26Z</time></trkpt><trkpt lat="44.08300430532852" lon="11.538845844462555"><ele>879.0000000000001</ele><time>2026-05-03T10:21:27Z</time></trkpt><trkpt lat="44.082903669663395" lon="11.538921584132565"><ele>880.0</ele><time>2026-05-03T10:21:29Z</time></trkpt><trkpt lat="44.08282864861152" lon="11.539040530601548"><ele>881.0</ele><time>2026-05-03T10:21:31Z</time></trkpt><trkpt lat="44.082768587641176" lon="11.539090351473343"><ele>882.0</ele><time>2026-05-03T10:21:32Z</time></trkpt><trkpt lat="44.08270733991962" lon="11.539120933495225"><ele>883.0000000000001</ele><time>2026-05-03T10:21:33Z</time></trkpt><trkpt lat="44.08263610923855" lon="11.539120275950937"><ele>884.0</ele><time>2026-05-03T10:21:34Z</time></trkpt><trkpt lat="44.08256992979439" lon="11.539116653824777"><ele>884.0</ele><time>2026-05-03T10:21:35Z</time></trkpt><trkpt lat="44.08247242116767" lon="11.539098532640862"><ele>884.0000000000001</ele><time>2026-05-03T10:21:37Z</time></trkpt><trkpt lat="44.08239160761457" lon="11.539067411175521"><ele>884.0000000000001</ele><time>2026-05-03T10:21:39Z</time></trkpt><trkpt lat="44.082310682459145" lon="11.539013167777663"><ele>884.0</ele><time>2026-05-03T10:21:41Z</time></trkpt><trkpt lat="44.08218690289873" lon="11.539044156652578"><ele>884.0</ele><time>2026-05-03T10:21:43Z</time></trkpt><trkpt lat="44.08212542673325" lon="11.53908596996116"><ele>882.6</ele><time>2026-05-03T10:21:44Z</time></trkpt><trkpt lat="44.082067541357056" lon="11.539121580195163"><ele>881.2</ele><time>2026-05-03T10:21:45Z</time></trkpt><trkpt lat="44.08196956801468" lon="11.539173554104039"><ele>879.8000000000001</ele><time>2026-05-03T10:21:47Z</time></trkpt><trkpt lat="44.08186393049471" lon="11.53922758630107"><ele>878.4000000000001</ele><time>2026-05-03T10:21:49Z</time></trkpt><trkpt lat="44.08176284850515" lon="11.539286938047633"><ele>877.0</ele><time>2026-05-03T10:21:51Z</time></trkpt><trkpt lat="44.081670448330186" lon="11.53933520510975"><ele>876.6666666666666</ele><time>2026-05-03T10:21:53Z</time></trkpt><trkpt lat="44.08155358901321" lon="11.5392992657487"><ele>876.3333333333333</ele><time>2026-05-03T10:21:55Z</time></trkpt><trkpt lat="44.08146376939505" lon="11.539279048231997"><ele>876.0</ele><time>2026-05-03T10:21:57Z</time></trkpt><trkpt lat="44.08137062814737" lon="11.53931735465092"><ele>875.6666666666667</ele><time>2026-05-03T10:21:59Z</time></trkpt><trkpt lat="44.08131602757347" lon="11.539387962851661"><ele>875.3333333333334</ele><time>2026-05-03T10:22:00Z</time></trkpt><trkpt lat="44.08127157946253" lon="11.539455479151929"><ele>875.0</ele><time>2026-05-03T10:22:01Z</time></trkpt><trkpt lat="44.08119164102886" lon="11.539555657917298"><ele>875.0</ele><time>2026-05-03T10:22:03Z</time></trkpt><trkpt lat="44.08109308555591" lon="11.539653636607964"><ele>875.0</ele><time>2026-05-03T10:22:05Z</time></trkpt><trkpt lat="44.0809995645742" lon="11.539762963888167"><ele>875.0</ele><time>2026-05-03T10:22:07Z</time></trkpt><trkpt lat="44.080945399748444" lon="11.539825199710666"><ele>875.0</ele><time>2026-05-03T10:22:08Z</time></trkpt><trkpt lat="44.08089323168365" lon="11.539881218516797"><ele>875.0</ele><time>2026-05-03T10:22:09Z</time></trkpt><trkpt lat="44.08080126562125" lon="11.539979625694322"><ele>876.0</ele><time>2026-05-03T10:22:11Z</time></trkpt><trkpt lat="44.080711125383026" lon="11.540068546044019"><ele>877.0</ele><time>2026-05-03T10:22:13Z</time></trkpt><trkpt lat="44.08061463784049" lon="11.540141387811014"><ele>878.0</ele><time>2026-05-03T10:22:15Z</time></trkpt><trkpt lat="44.08050903429718" lon="11.540196789748391"><ele>879.0</ele><time>2026-05-03T10:22:17Z</time></trkpt><trkpt lat="44.080406863573394" lon="11.54027137594505"><ele>880.0</ele><time>2026-05-03T10:22:19Z</time></trkpt><trkpt lat="44.08031196639507" lon="11.540346351226539"><ele>880.8333333333333</ele><time>2026-05-03T10:22:21Z</time></trkpt><trkpt lat="44.08022829222874" lon="11.540425545414434"><ele>881.6666666666666</ele><time>2026-05-03T10:22:23Z</time></trkpt><trkpt lat="44.08014148578725" lon="11.540526113375801"><ele>882.5</ele><time>2026-05-03T10:22:25Z</time></trkpt><trkpt lat="44.08008067322957" lon="11.54058332234691"><ele>883.3333333333333</ele><time>2026-05-03T10:22:26Z</time></trkpt><trkpt lat="44.08002006225703" lon="11.540645161942566"><ele>884.1666666666666</ele><time>2026-05-03T10:22:27Z</time></trkpt><trkpt lat="44.07996232576671" lon="11.540709499084441"><ele>885.0</ele><time>2026-05-03T10:22:28Z</time></trkpt><trkpt lat="44.07990255220413" lon="11.540767854806656"><ele>887.6</ele><time>2026-05-03T10:22:29Z</time></trkpt><trkpt lat="44.07980113871579" lon="11.540873087609967"><ele>890.2</ele><time>2026-05-03T10:22:31Z</time></trkpt><trkpt lat="44.07970153294527" lon="11.540955723891217"><ele>892.8</ele><time>2026-05-03T10:22:33Z</time></trkpt><trkpt lat="44.07958844965409" lon="11.540966562156578"><ele>895.4</ele><time>2026-05-03T10:22:35Z</time></trkpt><trkpt lat="44.07952006418" lon="11.540957922987177"><ele>898.0</ele><time>2026-05-03T10:22:36Z</time></trkpt><trkpt lat="44.079447500187214" lon="11.540959463257142"><ele>897.9999999999999</ele><time>2026-05-03T10:22:37Z</time></trkpt><trkpt lat="44.079336031851014" lon="11.540962932964346"><ele>898.0</ele><time>2026-05-03T10:22:39Z</time></trkpt><trkpt lat="44.07927177870814" lon="11.540984656295484"><ele>898.0</ele><time>2026-05-03T10:22:42Z</time></trkpt><trkpt lat="44.079200942906134" lon="11.541009632029478"><ele>898.0</ele><time>2026-05-03T10:22:45Z</time></trkpt><trkpt lat="44.07913815203415" lon="11.541032712004286"><ele>897.9999999999999</ele><time>2026-05-03T10:22:47Z</time></trkpt><trkpt lat="44.07906364928292" lon="11.541042800767608"><ele>898.0</ele><time>2026-05-03T10:22:49Z</time></trkpt><trkpt lat="44.078997649075795" lon="11.541042681463543"><ele>899.9999999999999</ele><time>2026-05-03T10:22:52Z</time></trkpt><trkpt lat="44.07890876423117" lon="11.541051027989099"><ele>902.0</ele><time>2026-05-03T10:22:55Z</time></trkpt><trkpt lat="44.07882074017826" lon="11.541095171278968"><ele>904.0</ele><time>2026-05-03T10:22:57Z</time></trkpt><trkpt lat="44.07875459669095" lon="11.541118013239702"><ele>906.0</ele><time>2026-05-03T10:22:59Z</time></trkpt><trkpt lat="44.0786857642645" lon="11.541120280763614"><ele>907.9999999999999</ele><time>2026-05-03T10:23:06Z</time></trkpt><trkpt lat="44.0786032427337" lon="11.541025709739136"><ele>910.0</ele><time>2026-05-03T10:23:16Z</time></trkpt><trkpt lat="44.078505379457724" lon="11.5409442438591"><ele>909.9999999999999</ele><time>2026-05-03T10:23:18Z</time></trkpt><trkpt lat="44.07844353085583" lon="11.540900066427179"><ele>910.0</ele><time>2026-05-03T10:23:19Z</time></trkpt><trkpt lat="44.07836079243241" lon="11.54085919059644"><ele>910.0</ele><time>2026-05-03T10:23:20Z</time></trkpt><trkpt lat="44.07826550140382" lon="11.540816280288956"><ele>910.0</ele><time>2026-05-03T10:23:21Z</time></trkpt><trkpt lat="44.07820505907545" lon="11.540781909002295"><ele>909.9999999999999</ele><time>2026-05-03T10:23:22Z</time></trkpt><trkpt lat="44.078089929135764" lon="11.540722790433232"><ele>910.0</ele><time>2026-05-03T10:23:24Z</time></trkpt><trkpt lat="44.07798900631188" lon="11.540717427351574"><ele>910.3333333333333</ele><time>2026-05-03T10:23:25Z</time></trkpt><trkpt lat="44.07789303256374" lon="11.540713089794986"><ele>910.6666666666666</ele><time>2026-05-03T10:23:26Z</time></trkpt><trkpt lat="44.077824914816006" lon="11.540720739096036"><ele>911.0</ele><time>2026-05-03T10:23:27Z</time></trkpt><trkpt lat="44.077734618944746" lon="11.54069473352901"><ele>911.3333333333333</ele><time>2026-05-03T10:23:28Z</time></trkpt><trkpt lat="44.07766430454069" lon="11.540653058736083"><ele>911.6666666666666</ele><time>2026-05-03T10:23:29Z</time></trkpt><trkpt lat="44.077572656311546" lon="11.540626289464178"><ele>912.0</ele><time>2026-05-03T10:23:30Z</time></trkpt><trkpt lat="44.07742544840088" lon="11.540576733429397"><ele>912.0</ele><time>2026-05-03T10:23:32Z</time></trkpt><trkpt lat="44.077356069342656" lon="11.540511575024212"><ele>912.0</ele><time>2026-05-03T10:23:33Z</time></trkpt><trkpt lat="44.077280400440785" lon="11.540443205043376"><ele>912.0</ele><time>2026-05-03T10:23:35Z</time></trkpt><trkpt lat="44.07721931146089" lon="11.54038605826185"><ele>912.0</ele><time>2026-05-03T10:23:37Z</time></trkpt><trkpt lat="44.07707897334199" lon="11.540352713020345"><ele>912.0</ele><time>2026-05-03T10:23:39Z</time></trkpt><trkpt lat="44.07698958890464" lon="11.540349058699498"><ele>912.0</ele><time>2026-05-03T10:23:40Z</time></trkpt><trkpt lat="44.07689734664423" lon="11.540358497524386"><ele>912.0</ele><time>2026-05-03T10:23:41Z</time></trkpt><trkpt lat="44.07681708927869" lon="11.540363314949419"><ele>912.0</ele><time>2026-05-03T10:23:42Z</time></trkpt><trkpt lat="44.07671578289499" lon="11.540369005028568"><ele>912.0</ele><time>2026-05-03T10:23:44Z</time></trkpt><trkpt lat="44.076657417845325" lon="11.54032095663035"><ele>912.0</ele><time>2026-05-03T10:23:49Z</time></trkpt><trkpt lat="44.07665787025464" lon="11.540416580534053"><ele>912.0</ele><time>2026-05-03T10:23:52Z</time></trkpt><trkpt lat="44.076751850815185" lon="11.540479929813522"><ele>912.0</ele><time>2026-05-03T10:23:54Z</time></trkpt><trkpt lat="44.07681297363978" lon="11.540517298923174"><ele>912.0</ele><time>2026-05-03T10:23:55Z</time></trkpt><trkpt lat="44.07687850488166" lon="11.54053499211725"><ele>912.0</ele><time>2026-05-03T10:23:56Z</time></trkpt><trkpt lat="44.07694554762593" lon="11.540547547019575"><ele>912.0</ele><time>2026-05-03T10:23:57Z</time></trkpt><trkpt lat="44.077055250571576" lon="11.540610517208485"><ele>912.0</ele><time>2026-05-03T10:23:59Z</time></trkpt><trkpt lat="44.07716223840324" lon="11.540832974629382"><ele>912.0</ele><time>2026-05-03T10:24:02Z</time></trkpt><trkpt lat="44.077236666781566" lon="11.540944508714112"><ele>912.0</ele><time>2026-05-03T10:24:04Z</time></trkpt><trkpt lat="44.07730695854557" lon="11.54107715231768"><ele>912.0</ele><time>2026-05-03T10:24:06Z</time></trkpt><trkpt lat="44.07736240966671" lon="11.54113028224363"><ele>912.0</ele><time>2026-05-03T10:24:07Z</time></trkpt><trkpt lat="44.077408569806565" lon="11.541192447565166"><ele>912.0</ele><time>2026-05-03T10:24:08Z</time></trkpt><trkpt lat="44.077488128157626" lon="11.541320202035571"><ele>916.4000000000001</ele><time>2026-05-03T10:24:10Z</time></trkpt><trkpt lat="44.07756196378094" lon="11.541423043722505"><ele>920.8000000000001</ele><time>2026-05-03T10:24:12Z</time></trkpt><trkpt lat="44.077624497924454" lon="11.541516922327373"><ele>925.2</ele><time>2026-05-03T10:24:14Z</time></trkpt><trkpt lat="44.07768410791275" lon="11.541594172789127"><ele>929.6</ele><time>2026-05-03T10:24:16Z</time></trkpt><trkpt lat="44.07774870074588" lon="11.541693692628828"><ele>934.0</ele><time>2026-05-03T10:24:18Z</time></trkpt><trkpt lat="44.07782279206884" lon="11.54179232698017"><ele>934.0</ele><time>2026-05-03T10:24:20Z</time></trkpt><trkpt lat="44.077885839920995" lon="11.5418636929243"><ele>934.0000000000001</ele><time>2026-05-03T10:24:22Z</time></trkpt><trkpt lat="44.07794471454953" lon="11.54193676723191"><ele>934.0000000000001</ele><time>2026-05-03T10:24:25Z</time></trkpt><trkpt lat="44.07806520914461" lon="11.542132837305521"><ele>934.0</ele><time>2026-05-03T10:24:26Z</time></trkpt><trkpt lat="44.078122035311694" lon="11.542247122075151"><ele>934.0</ele><time>2026-05-03T10:24:28Z</time></trkpt><trkpt lat="44.07816417787105" lon="11.542326067253919"><ele>933.1666666666666</ele><time>2026-05-03T10:24:30Z</time></trkpt><trkpt lat="44.0781882594057" lon="11.542490404523338"><ele>932.3333333333333</ele><time>2026-05-03T10:24:41Z</time></trkpt><trkpt lat="44.07820325574653" lon="11.54261009717898"><ele>931.5</ele><time>2026-05-03T10:24:43Z</time></trkpt><trkpt lat="44.078155553077835" lon="11.542723327244872"><ele>930.6666666666667</ele><time>2026-05-03T10:24:45Z</time></trkpt><trkpt lat="44.078146052891874" lon="11.542819345729868"><ele>929.8333333333334</ele><time>2026-05-03T10:24:46Z</time></trkpt><trkpt lat="44.078143788140224" lon="11.542908967307802"><ele>929.0</ele><time>2026-05-03T10:24:47Z</time></trkpt><trkpt lat="44.07812109084156" lon="11.543001674207552"><ele>928.1666666666667</ele><time>2026-05-03T10:24:48Z</time></trkpt><trkpt lat="44.07811773056303" lon="11.543089344849319"><ele>927.3333333333334</ele><time>2026-05-03T10:24:49Z</time></trkpt><trkpt lat="44.0781351172653" lon="11.54322389850064"><ele>926.5</ele><time>2026-05-03T10:24:51Z</time></trkpt><trkpt lat="44.07813219977379" lon="11.543353573729753"><ele>925.6666666666667</ele><time>2026-05-03T10:24:53Z</time></trkpt><trkpt lat="44.07812670191157" lon="11.543490910996047"><ele>924.8333333333334</ele><time>2026-05-03T10:24:55Z</time></trkpt><trkpt lat="44.078130490150514" lon="11.543589249617389"><ele>924.0</ele><time>2026-05-03T10:24:56Z</time></trkpt><trkpt lat="44.078106205431226" lon="11.543738838775987"><ele>923.8333333333334</ele><time>2026-05-03T10:24:58Z</time></trkpt><trkpt lat="44.07807904056367" lon="11.543843215028177"><ele>923.6666666666667</ele><time>2026-05-03T10:24:59Z</time></trkpt><trkpt lat="44.07804905060366" lon="11.54394478575518"><ele>923.5</ele><time>2026-05-03T10:25:00Z</time></trkpt><trkpt lat="44.07802888198497" lon="11.544028991825584"><ele>923.3333333333334</ele><time>2026-05-03T10:25:01Z</time></trkpt><trkpt lat="44.07801222360678" lon="11.544210312654338"><ele>923.1666666666667</ele><time>2026-05-03T10:25:03Z</time></trkpt><trkpt lat="44.07800882474131" lon="11.544302304513568"><ele>923.0</ele><time>2026-05-03T10:25:04Z</time></trkpt><trkpt lat="44.077997761489534" lon="11.544449518452227"><ele>923.0000000000001</ele><time>2026-05-03T10:25:06Z</time></trkpt><trkpt lat="44.07800732224681" lon="11.544540455752491"><ele>923.0</ele><time>2026-05-03T10:25:10Z</time></trkpt><trkpt lat="44.07799652547954" lon="11.54464998600311"><ele>923.0</ele><time>2026-05-03T10:25:12Z</time></trkpt><trkpt lat="44.07799226849034" lon="11.544756136791031"><ele>923.0</ele><time>2026-05-03T10:25:18Z</time></trkpt><trkpt lat="44.07796476676231" lon="11.544863699373543"><ele>923.0000000000001</ele><time>2026-05-03T10:25:22Z</time></trkpt><trkpt lat="44.07791144550825" lon="11.54499371190278"><ele>923.0</ele><time>2026-05-03T10:25:24Z</time></trkpt><trkpt lat="44.077888616903444" lon="11.545122789569133"><ele>923.6666666666667</ele><time>2026-05-03T10:25:26Z</time></trkpt><trkpt lat="44.07784845831619" lon="11.545244378485474"><ele>924.3333333333334</ele><time>2026-05-03T10:25:28Z</time></trkpt><trkpt lat="44.07781004246357" lon="11.545350782287544"><ele>925.0</ele><time>2026-05-03T10:25:30Z</time></trkpt><trkpt lat="44.077772003016584" lon="11.54544376257686"><ele>925.6666666666667</ele><time>2026-05-03T10:25:32Z</time></trkpt><trkpt lat="44.07771061452408" lon="11.545482971808783"><ele>926.3333333333334</ele><time>2026-05-03T10:25:34Z</time></trkpt><trkpt lat="44.07762886747776" lon="11.54554465255324"><ele>927.0</ele><time>2026-05-03T10:25:36Z</time></trkpt><trkpt lat="44.07753753346249" lon="11.545605017444213"><ele>927.0</ele><time>2026-05-03T10:25:38Z</time></trkpt><trkpt lat="44.077451587814885" lon="11.545612876144427"><ele>927.0</ele><time>2026-05-03T10:25:40Z</time></trkpt><trkpt lat="44.07735006247745" lon="11.545566108850569"><ele>927.0</ele><time>2026-05-03T10:25:42Z</time></trkpt><trkpt lat="44.07728218540315" lon="11.545544967658955"><ele>927.0</ele><time>2026-05-03T10:25:44Z</time></trkpt><trkpt lat="44.077198530347246" lon="11.54559530177123"><ele>927.0</ele><time>2026-05-03T10:25:46Z</time></trkpt><trkpt lat="44.07714676297449" lon="11.545665789709476"><ele>927.0</ele><time>2026-05-03T10:25:48Z</time></trkpt><trkpt lat="44.077077688127" lon="11.545749945144712"><ele>925.0</ele><time>2026-05-03T10:25:50Z</time></trkpt><trkpt lat="44.07701646193906" lon="11.545829072969338"><ele>923.0</ele><time>2026-05-03T10:25:52Z</time></trkpt><trkpt lat="44.076938732463084" lon="11.545927784786842"><ele>921.0</ele><time>2026-05-03T10:25:54Z</time></trkpt><trkpt lat="44.07686511785312" lon="11.545952130058012"><ele>919.0</ele><time>2026-05-03T10:25:55Z</time></trkpt><trkpt lat="44.07679887904325" lon="11.545974223101643"><ele>917.0</ele><time>2026-05-03T10:25:56Z</time></trkpt><trkpt lat="44.076721340156325" lon="11.546037765935363"><ele>915.0</ele><time>2026-05-03T10:25:58Z</time></trkpt><trkpt lat="44.07667286272966" lon="11.546145532952213"><ele>915.0</ele><time>2026-05-03T10:26:01Z</time></trkpt><trkpt lat="44.07661472510181" lon="11.546182563214757"><ele>915.0</ele><time>2026-05-03T10:26:02Z</time></trkpt><trkpt lat="44.07655085578096" lon="11.546203844720992"><ele>915.0</ele><time>2026-05-03T10:26:03Z</time></trkpt><trkpt lat="44.07645086092404" lon="11.546248322305273"><ele>915.0</ele><time>2026-05-03T10:26:05Z</time></trkpt><trkpt lat="44.07632922302866" lon="11.546279419712574"><ele>915.0</ele><time>2026-05-03T10:26:07Z</time></trkpt><trkpt lat="44.07626840664273" lon="11.546302936115358"><ele>915.0</ele><time>2026-05-03T10:26:08Z</time></trkpt><trkpt lat="44.07614546956636" lon="11.546396656712925"><ele>911.8333333333334</ele><time>2026-05-03T10:26:10Z</time></trkpt><trkpt lat="44.076072141696805" lon="11.546442655590415"><ele>908.6666666666667</ele><time>2026-05-03T10:26:11Z</time></trkpt><trkpt lat="44.07600882694949" lon="11.546480946399901"><ele>905.5</ele><time>2026-05-03T10:26:12Z</time></trkpt><trkpt lat="44.07590932331822" lon="11.5465655125608"><ele>902.3333333333334</ele><time>2026-05-03T10:26:14Z</time></trkpt><trkpt lat="44.075834860857746" lon="11.546643398867111"><ele>899.1666666666667</ele><time>2026-05-03T10:26:16Z</time></trkpt><trkpt lat="44.07576521099766" lon="11.546693507431788"><ele>896.0</ele><time>2026-05-03T10:26:19Z</time></trkpt><trkpt lat="44.07571882505313" lon="11.546762747054673"><ele>895.1666666666667</ele><time>2026-05-03T10:26:21Z</time></trkpt><trkpt lat="44.07564391298087" lon="11.546800498907166"><ele>894.3333333333334</ele><time>2026-05-03T10:26:23Z</time></trkpt><trkpt lat="44.07556357781433" lon="11.546841215091483"><ele>893.5</ele><time>2026-05-03T10:26:25Z</time></trkpt><trkpt lat="44.07548162163542" lon="11.546905966627019"><ele>892.6666666666667</ele><time>2026-05-03T10:26:27Z</time></trkpt><trkpt lat="44.07537104250242" lon="11.546982899384547"><ele>891.8333333333334</ele><time>2026-05-03T10:26:29Z</time></trkpt><trkpt lat="44.07530705359883" lon="11.547005628829574"><ele>891.0</ele><time>2026-05-03T10:26:30Z</time></trkpt><trkpt lat="44.07519107372116" lon="11.547036474998102"><ele>890.4</ele><time>2026-05-03T10:26:32Z</time></trkpt><trkpt lat="44.075105848672244" lon="11.547124542125507"><ele>889.8</ele><time>2026-05-03T10:26:34Z</time></trkpt><trkpt lat="44.075015910414784" lon="11.547192980920288"><ele>889.1999999999999</ele><time>2026-05-03T10:26:36Z</time></trkpt><trkpt lat="44.07493517191704" lon="11.547255650116641"><ele>888.5999999999999</ele><time>2026-05-03T10:26:38Z</time></trkpt><trkpt lat="44.07487584876391" lon="11.547366009806193"><ele>888.0</ele><time>2026-05-03T10:26:39Z</time></trkpt><trkpt lat="44.074830042528575" lon="11.54747198889193"><ele>885.6666666666666</ele><time>2026-05-03T10:26:40Z</time></trkpt><trkpt lat="44.07478306711783" lon="11.547573821705322"><ele>883.3333333333333</ele><time>2026-05-03T10:26:42Z</time></trkpt><trkpt lat="44.07474120959461" lon="11.547648856427717"><ele>881.0</ele><time>2026-05-03T10:26:45Z</time></trkpt><trkpt lat="44.07467812809382" lon="11.54772355775644"><ele>878.6666666666666</ele><time>2026-05-03T10:26:48Z</time></trkpt><trkpt lat="44.074626060596316" lon="11.547792906866094"><ele>876.3333333333333</ele><time>2026-05-03T10:26:51Z</time></trkpt><trkpt lat="44.074578119747535" lon="11.547853297854608"><ele>874.0</ele><time>2026-05-03T10:26:53Z</time></trkpt><trkpt lat="44.074517091061416" lon="11.547918133425657"><ele>874.0</ele><time>2026-05-03T10:26:55Z</time></trkpt><trkpt lat="44.07445232234266" lon="11.547993939641358"><ele>874.0000000000001</ele><time>2026-05-03T10:26:58Z</time></trkpt><trkpt lat="44.07437862242572" lon="11.54811889714444"><ele>874.0000000000001</ele><time>2026-05-03T10:27:00Z</time></trkpt><trkpt lat="44.074325621818325" lon="11.548250071321728"><ele>874.0</ele><time>2026-05-03T10:27:02Z</time></trkpt><trkpt lat="44.07427050829847" lon="11.548314157874174"><ele>874.0</ele><time>2026-05-03T10:27:05Z</time></trkpt><trkpt lat="44.07420770960281" lon="11.548384847415281"><ele>873.9999999999999</ele><time>2026-05-03T10:27:08Z</time></trkpt><trkpt lat="44.07413738379216" lon="11.548453573118971"><ele>874.0</ele><time>2026-05-03T10:27:28Z</time></trkpt><trkpt lat="44.07407463441938" lon="11.54853435175018"><ele>874.0</ele><time>2026-05-03T10:27:31Z</time></trkpt><trkpt lat="44.074017516089604" lon="11.548577780981592"><ele>874.0</ele><time>2026-05-03T10:27:32Z</time></trkpt><trkpt lat="44.073918890842094" lon="11.548627400064248"><ele>873.9999999999999</ele><time>2026-05-03T10:27:34Z</time></trkpt><trkpt lat="44.07384995667014" lon="11.548651916204241"><ele>874.0</ele><time>2026-05-03T10:27:36Z</time></trkpt><trkpt lat="44.07377972065639" lon="11.548636411202875"><ele>870.8571428571428</ele><time>2026-05-03T10:27:39Z</time></trkpt><trkpt lat="44.073713925798856" lon="11.548615832839486"><ele>867.7142857142858</ele><time>2026-05-03T10:27:42Z</time></trkpt><trkpt lat="44.073648572798646" lon="11.548618312950836"><ele>864.5714285714286</ele><time>2026-05-03T10:27:46Z</time></trkpt><trkpt lat="44.07359980671945" lon="11.548683344402123"><ele>861.4285714285713</ele><time>2026-05-03T10:27:49Z</time></trkpt><trkpt lat="44.07355499181846" lon="11.548758447096526"><ele>858.2857142857142</ele><time>2026-05-03T10:27:52Z</time></trkpt><trkpt lat="44.07352563838434" lon="11.54886176081785"><ele>855.1428571428571</ele><time>2026-05-03T10:27:55Z</time></trkpt><trkpt lat="44.07351614757672" lon="11.548981446937404"><ele>852.0</ele><time>2026-05-03T10:27:58Z</time></trkpt><trkpt lat="44.07348242453269" lon="11.549155184384684"><ele>850.8333333333334</ele><time>2026-05-03T10:28:01Z</time></trkpt><trkpt lat="44.07347408136924" lon="11.549244850600255"><ele>849.6666666666667</ele><time>2026-05-03T10:28:02Z</time></trkpt><trkpt lat="44.07342784070687" lon="11.54935663148142"><ele>848.5</ele><time>2026-05-03T10:28:04Z</time></trkpt><trkpt lat="44.07339659138111" lon="11.549437705196977"><ele>847.3333333333334</ele><time>2026-05-03T10:28:05Z</time></trkpt><trkpt lat="44.07334359526786" lon="11.549584373350344"><ele>846.1666666666667</ele><time>2026-05-03T10:28:07Z</time></trkpt><trkpt lat="44.0733051067816" lon="11.549678212999327"><ele>845.0</ele><time>2026-05-03T10:28:09Z</time></trkpt><trkpt lat="44.073215471624756" lon="11.549741909119104"><ele>840.6666666666667</ele><time>2026-05-03T10:28:11Z</time></trkpt><trkpt lat="44.07314208427825" lon="11.549751913714957"><ele>836.3333333333334</ele><time>2026-05-03T10:28:12Z</time></trkpt><trkpt lat="44.07307670389476" lon="11.549748591335112"><ele>832.0</ele><time>2026-05-03T10:28:13Z</time></trkpt><trkpt lat="44.072954016328026" lon="11.549739045504632"><ele>827.6666666666667</ele><time>2026-05-03T10:28:15Z</time></trkpt><trkpt lat="44.072870384266515" lon="11.549786023797814"><ele>823.3333333333334</ele><time>2026-05-03T10:28:17Z</time></trkpt><trkpt lat="44.07278931610268" lon="11.549845330277027"><ele>819.0</ele><time>2026-05-03T10:28:19Z</time></trkpt><trkpt lat="44.07270794401303" lon="11.549943882495969"><ele>819.0</ele><time>2026-05-03T10:28:21Z</time></trkpt><trkpt lat="44.07263187096512" lon="11.54999733317494"><ele>819.0</ele><time>2026-05-03T10:28:22Z</time></trkpt><trkpt lat="44.072549821997555" lon="11.550058850079946"><ele>819.0</ele><time>2026-05-03T10:28:23Z</time></trkpt><trkpt lat="44.07249334798535" lon="11.550107086426772"><ele>819.0</ele><time>2026-05-03T10:28:24Z</time></trkpt><trkpt lat="44.07242572739901" lon="11.550170376350046"><ele>819.0</ele><time>2026-05-03T10:28:26Z</time></trkpt><trkpt lat="44.07236258383101" lon="11.550196493035772"><ele>819.0</ele><time>2026-05-03T10:28:28Z</time></trkpt><trkpt lat="44.07226675279357" lon="11.550203670023105"><ele>816.6</ele><time>2026-05-03T10:28:30Z</time></trkpt><trkpt lat="44.07216472409072" lon="11.550214222146096"><ele>814.2</ele><time>2026-05-03T10:28:32Z</time></trkpt><trkpt lat="44.07206453389761" lon="11.55022299644405"><ele>811.8000000000001</ele><time>2026-05-03T10:28:34Z</time></trkpt><trkpt lat="44.07195732458181" lon="11.550251754911118"><ele>809.4000000000001</ele><time>2026-05-03T10:28:36Z</time></trkpt><trkpt lat="44.07186839137429" lon="11.550274738481821"><ele>807.0</ele><time>2026-05-03T10:28:38Z</time></trkpt><trkpt lat="44.07178800939574" lon="11.55026166367301"><ele>807.0</ele><time>2026-05-03T10:28:40Z</time></trkpt><trkpt lat="44.071719272469096" lon="11.55020963728273"><ele>807.0</ele><time>2026-05-03T10:28:42Z</time></trkpt><trkpt lat="44.07164560675484" lon="11.550176192598123"><ele>807.0</ele><time>2026-05-03T10:28:44Z</time></trkpt><trkpt lat="44.07155551674489" lon="11.550139738013412"><ele>807.0</ele><time>2026-05-03T10:28:46Z</time></trkpt><trkpt lat="44.07146546407966" lon="11.550111236223874"><ele>807.0</ele><time>2026-05-03T10:28:48Z</time></trkpt><trkpt lat="44.071389614839674" lon="11.550083000161033"><ele>807.0</ele><time>2026-05-03T10:28:50Z</time></trkpt><trkpt lat="44.07129983343851" lon="11.550103198092236"><ele>804.3333333333334</ele><time>2026-05-03T10:28:53Z</time></trkpt><trkpt lat="44.07120766681139" lon="11.550128375449475"><ele>801.6666666666667</ele><time>2026-05-03T10:28:55Z</time></trkpt><trkpt lat="44.07110798516981" lon="11.550115805283472"><ele>799.0</ele><time>2026-05-03T10:28:57Z</time></trkpt><trkpt lat="44.07103047379159" lon="11.550116288339852"><ele>796.3333333333334</ele><time>2026-05-03T10:28:59Z</time></trkpt><trkpt lat="44.07095781574778" lon="11.550154358973378"><ele>793.6666666666667</ele><time>2026-05-03T10:29:01Z</time></trkpt><trkpt lat="44.07088128385112" lon="11.55019075879334"><ele>791.0</ele><time>2026-05-03T10:29:03Z</time></trkpt><trkpt lat="44.07080806919187" lon="11.550201220081128"><ele>788.1666666666667</ele><time>2026-05-03T10:29:05Z</time></trkpt><trkpt lat="44.07070285018392" lon="11.550228674054917"><ele>785.3333333333334</ele><time>2026-05-03T10:29:07Z</time></trkpt><trkpt lat="44.07062476732444" lon="11.550252276229529"><ele>782.5</ele><time>2026-05-03T10:29:09Z</time></trkpt><trkpt lat="44.070560292405844" lon="11.550279240448804"><ele>779.6666666666667</ele><time>2026-05-03T10:29:13Z</time></trkpt><trkpt lat="44.07049248627842" lon="11.550332919113291"><ele>776.8333333333334</ele><time>2026-05-03T10:29:17Z</time></trkpt><trkpt lat="44.07041556849103" lon="11.550386467934986"><ele>774.0</ele><time>2026-05-03T10:29:21Z</time></trkpt><trkpt lat="44.07034448571293" lon="11.550383403701153"><ele>773.3333333333334</ele><time>2026-05-03T10:29:23Z</time></trkpt><trkpt lat="44.07027304511665" lon="11.550416240263738"><ele>772.6666666666667</ele><time>2026-05-03T10:29:25Z</time></trkpt><trkpt lat="44.070196677861496" lon="11.550510057373337"><ele>772.0</ele><time>2026-05-03T10:29:27Z</time></trkpt><trkpt lat="44.070089743009035" lon="11.550522942713272"><ele>771.3333333333334</ele><time>2026-05-03T10:29:29Z</time></trkpt><trkpt lat="44.07002037573752" lon="11.550537645039617"><ele>770.6666666666667</ele><time>2026-05-03T10:29:31Z</time></trkpt><trkpt lat="44.069957230596984" lon="11.55062871680107"><ele>770.0</ele><time>2026-05-03T10:29:35Z</time></trkpt><trkpt lat="44.06987792672712" lon="11.550775711693744"><ele>768.5000000000001</ele><time>2026-05-03T10:29:37Z</time></trkpt><trkpt lat="44.069835699869444" lon="11.550884449187176"><ele>767.0</ele><time>2026-05-03T10:29:39Z</time></trkpt><trkpt lat="44.06978745014025" lon="11.550980428382298"><ele>765.5</ele><time>2026-05-03T10:29:41Z</time></trkpt><trkpt lat="44.06973288007375" lon="11.551025520337245"><ele>764.0</ele><time>2026-05-03T10:29:42Z</time></trkpt><trkpt lat="44.069669479102785" lon="11.551063936172195"><ele>762.5</ele><time>2026-05-03T10:29:43Z</time></trkpt><trkpt lat="44.069565649022984" lon="11.551146964863259"><ele>761.0</ele><time>2026-05-03T10:29:45Z</time></trkpt><trkpt lat="44.0695109885765" lon="11.55120781274515"><ele>759.8333333333333</ele><time>2026-05-03T10:29:47Z</time></trkpt><trkpt lat="44.06942303709152" lon="11.551250105348542"><ele>758.6666666666666</ele><time>2026-05-03T10:29:49Z</time></trkpt><trkpt lat="44.069336895828236" lon="11.551317339412313"><ele>757.5</ele><time>2026-05-03T10:29:51Z</time></trkpt><trkpt lat="44.06925976383594" lon="11.551331627571829"><ele>756.3333333333334</ele><time>2026-05-03T10:29:53Z</time></trkpt><trkpt lat="44.06917421083508" lon="11.551332224688398"><ele>755.1666666666667</ele><time>2026-05-03T10:29:55Z</time></trkpt><trkpt lat="44.06911146732336" lon="11.551367722770724"><ele>754.0</ele><time>2026-05-03T10:30:00Z</time></trkpt><trkpt lat="44.0690347137819" lon="11.551415223799173"><ele>751.4000000000001</ele><time>2026-05-03T10:30:03Z</time></trkpt><trkpt lat="44.068954663188094" lon="11.551442510595653"><ele>748.8</ele><time>2026-05-03T10:30:04Z</time></trkpt><trkpt lat="44.06879903144351" lon="11.551440295795503"><ele>746.2</ele><time>2026-05-03T10:30:07Z</time></trkpt><trkpt lat="44.068711075815116" lon="11.55142061209426"><ele>743.5999999999999</ele><time>2026-05-03T10:30:09Z</time></trkpt><trkpt lat="44.06862374989029" lon="11.551381457508175"><ele>741.0</ele><time>2026-05-03T10:30:11Z</time></trkpt><trkpt lat="44.06854054325149" lon="11.551398828535204"><ele>741.0</ele><time>2026-05-03T10:30:13Z</time></trkpt><trkpt lat="44.068457946835935" lon="11.551476606740279"><ele>741.0</ele><time>2026-05-03T10:30:15Z</time></trkpt><trkpt lat="44.06836022514453" lon="11.551449113404592"><ele>741.0</ele><time>2026-05-03T10:30:17Z</time></trkpt><trkpt lat="44.068263257543926" lon="11.55144695342509"><ele>741.0</ele><time>2026-05-03T10:30:19Z</time></trkpt><trkpt lat="44.06818588990139" lon="11.551437982544268"><ele>741.0</ele><time>2026-05-03T10:30:21Z</time></trkpt><trkpt lat="44.068099995523944" lon="11.55150097988498"><ele>739.1666666666666</ele><time>2026-05-03T10:30:23Z</time></trkpt><trkpt lat="44.06801765442503" lon="11.55152895590734"><ele>737.3333333333334</ele><time>2026-05-03T10:30:25Z</time></trkpt><trkpt lat="44.067931736545134" lon="11.55154140117602"><ele>735.5</ele><time>2026-05-03T10:30:27Z</time></trkpt><trkpt lat="44.06785878654554" lon="11.551515080183867"><ele>733.6666666666667</ele><time>2026-05-03T10:30:30Z</time></trkpt><trkpt lat="44.067788232356904" lon="11.551568544042008"><ele>731.8333333333334</ele><time>2026-05-03T10:30:33Z</time></trkpt><trkpt lat="44.067706272862765" lon="11.551563361340316"><ele>730.0</ele><time>2026-05-03T10:30:36Z</time></trkpt><trkpt lat="44.067632763365026" lon="11.55163743596337"><ele>730.0</ele><time>2026-05-03T10:30:39Z</time></trkpt><trkpt lat="44.067554447039626" lon="11.551725598920894"><ele>730.0</ele><time>2026-05-03T10:30:41Z</time></trkpt><trkpt lat="44.06749637285043" lon="11.551812016551922"><ele>730.0</ele><time>2026-05-03T10:30:43Z</time></trkpt><trkpt lat="44.067412940974314" lon="11.551870642987836"><ele>730.0</ele><time>2026-05-03T10:30:45Z</time></trkpt><trkpt lat="44.06735073890316" lon="11.551891242753939"><ele>730.0</ele><time>2026-05-03T10:30:46Z</time></trkpt><trkpt lat="44.06723193063424" lon="11.551945151055644"><ele>727.6666666666667</ele><time>2026-05-03T10:30:48Z</time></trkpt><trkpt lat="44.06718248225094" lon="11.552001675226746"><ele>725.3333333333334</ele><time>2026-05-03T10:30:49Z</time></trkpt><trkpt lat="44.06711545317288" lon="11.552107142173387"><ele>723.0</ele><time>2026-05-03T10:30:51Z</time></trkpt><trkpt lat="44.06702395391395" lon="11.552137155911945"><ele>720.6666666666666</ele><time>2026-05-03T10:30:53Z</time></trkpt><trkpt lat="44.06690077765979" lon="11.552142434625788"><ele>718.3333333333333</ele><time>2026-05-03T10:30:55Z</time></trkpt><trkpt lat="44.06683927720698" lon="11.552164579824051"><ele>716.0</ele><time>2026-05-03T10:30:56Z</time></trkpt><trkpt lat="44.06677506286894" lon="11.552182399796601"><ele>715.5714285714287</ele><time>2026-05-03T10:30:57Z</time></trkpt><trkpt lat="44.06671011663692" lon="11.55219341949623"><ele>715.1428571428571</ele><time>2026-05-03T10:30:58Z</time></trkpt><trkpt lat="44.06664952419657" lon="11.552218105393443"><ele>714.7142857142858</ele><time>2026-05-03T10:30:59Z</time></trkpt><trkpt lat="44.06658672926869" lon="11.552264761673117"><ele>714.2857142857143</ele><time>2026-05-03T10:31:00Z</time></trkpt><trkpt lat="44.06652530445893" lon="11.55232162623575"><ele>713.8571428571429</ele><time>2026-05-03T10:31:01Z</time></trkpt><trkpt lat="44.06646086283044" lon="11.552394622347244"><ele>713.4285714285714</ele><time>2026-05-03T10:31:02Z</time></trkpt><trkpt lat="44.06641606542068" lon="11.552468641123788"><ele>713.0</ele><time>2026-05-03T10:31:03Z</time></trkpt><trkpt lat="44.06635983656406" lon="11.5525394063368"><ele>713.0</ele><time>2026-05-03T10:31:05Z</time></trkpt><trkpt lat="44.06629465930814" lon="11.552567272410746"><ele>713.0</ele><time>2026-05-03T10:31:07Z</time></trkpt><trkpt lat="44.0662295703304" lon="11.552669896489752"><ele>713.0</ele><time>2026-05-03T10:31:09Z</time></trkpt><trkpt lat="44.066177919540515" lon="11.552768667258544"><ele>713.0</ele><time>2026-05-03T10:31:11Z</time></trkpt><trkpt lat="44.066108029981905" lon="11.552867383529499"><ele>713.0</ele><time>2026-05-03T10:31:13Z</time></trkpt><trkpt lat="44.066034857835554" lon="11.552894846074263"><ele>713.0</ele><time>2026-05-03T10:31:15Z</time></trkpt><trkpt lat="44.06596310372763" lon="11.55292043575766"><ele>712.1666666666666</ele><time>2026-05-03T10:31:17Z</time></trkpt><trkpt lat="44.06588282672629" lon="11.552966369443462"><ele>711.3333333333333</ele><time>2026-05-03T10:31:19Z</time></trkpt><trkpt lat="44.065809577451724" lon="11.553021069513466"><ele>710.5</ele><time>2026-05-03T10:31:21Z</time></trkpt><trkpt lat="44.065725094044275" lon="11.553018124598655"><ele>709.6666666666666</ele><time>2026-05-03T10:31:25Z</time></trkpt><trkpt lat="44.065669093987125" lon="11.55296918100504"><ele>708.8333333333334</ele><time>2026-05-03T10:31:28Z</time></trkpt><trkpt lat="44.06564712617348" lon="11.552886770386168"><ele>708.0</ele><time>2026-05-03T10:31:31Z</time></trkpt><trkpt lat="44.065622730142316" lon="11.552795310741208"><ele>704.3333333333334</ele><time>2026-05-03T10:31:34Z</time></trkpt><trkpt lat="44.06559789964633" lon="11.552662389951475"><ele>700.6666666666666</ele><time>2026-05-03T10:31:37Z</time></trkpt><trkpt lat="44.06558773001838" lon="11.552555150413149"><ele>697.0</ele><time>2026-05-03T10:31:40Z</time></trkpt><trkpt lat="44.06558243406644" lon="11.55243783580664"><ele>693.3333333333333</ele><time>2026-05-03T10:31:43Z</time></trkpt><trkpt lat="44.065599662506614" lon="11.55231405641902"><ele>689.6666666666666</ele><time>2026-05-03T10:31:47Z</time></trkpt><trkpt lat="44.06562145538674" lon="11.55220126503992"><ele>686.0</ele><time>2026-05-03T10:31:50Z</time></trkpt><trkpt lat="44.065641645538406" lon="11.55210503501592"><ele>683.8333333333333</ele><time>2026-05-03T10:31:52Z</time></trkpt><trkpt lat="44.065656967185106" lon="11.552010237010597"><ele>681.6666666666666</ele><time>2026-05-03T10:31:54Z</time></trkpt><trkpt lat="44.065665442104375" lon="11.551876647116584"><ele>679.5</ele><time>2026-05-03T10:31:57Z</time></trkpt><trkpt lat="44.0656686919742" lon="11.551758151497397"><ele>677.3333333333334</ele><time>2026-05-03T10:31:59Z</time></trkpt><trkpt lat="44.065664989442965" lon="11.5516492827666"><ele>675.1666666666667</ele><time>2026-05-03T10:32:02Z</time></trkpt><trkpt lat="44.065669969102665" lon="11.55153373054114"><ele>673.0</ele><time>2026-05-03T10:32:05Z</time></trkpt><trkpt lat="44.065654934253494" lon="11.551403101589221"><ele>673.0</ele><time>2026-05-03T10:32:08Z</time></trkpt><trkpt lat="44.0656354085108" lon="11.55128529923236"><ele>673.0</ele><time>2026-05-03T10:32:11Z</time></trkpt><trkpt lat="44.065606167608436" lon="11.551165995199371"><ele>673.0</ele><time>2026-05-03T10:32:14Z</time></trkpt><trkpt lat="44.06557038161189" lon="11.55106621412798"><ele>673.0</ele><time>2026-05-03T10:32:17Z</time></trkpt><trkpt lat="44.0655412447314" lon="11.550972483079635"><ele>673.0</ele><time>2026-05-03T10:32:20Z</time></trkpt><trkpt lat="44.065464996819586" lon="11.550932992118655"><ele>673.0</ele><time>2026-05-03T10:32:28Z</time></trkpt><trkpt lat="44.06539984355081" lon="11.550955433277059"><ele>673.0</ele><time>2026-05-03T10:32:30Z</time></trkpt><trkpt lat="44.06533294683992" lon="11.550957527821646"><ele>673.0</ele><time>2026-05-03T10:32:49Z</time></trkpt><trkpt lat="44.065263874073175" lon="11.551014150248601"><ele>673.0</ele><time>2026-05-03T10:32:58Z</time></trkpt><trkpt lat="44.06519151731224" lon="11.5510767706219"><ele>673.0</ele><time>2026-05-03T10:33:01Z</time></trkpt><trkpt lat="44.065158425655135" lon="11.55115312119139"><ele>673.0</ele><time>2026-05-03T10:33:05Z</time></trkpt><trkpt lat="44.065136728683406" lon="11.551237064952106"><ele>673.0</ele><time>2026-05-03T10:33:10Z</time></trkpt><trkpt lat="44.065096211600896" lon="11.551320826747261"><ele>673.0</ele><time>2026-05-03T10:33:18Z</time></trkpt><trkpt lat="44.06507363351692" lon="11.551415235609287"><ele>673.0</ele><time>2026-05-03T10:33:24Z</time></trkpt><trkpt lat="44.065044695632885" lon="11.551497780627333"><ele>673.0</ele><time>2026-05-03T10:33:28Z</time></trkpt><trkpt lat="44.06501973640163" lon="11.551580392079432"><ele>673.0</ele><time>2026-05-03T10:33:33Z</time></trkpt><trkpt lat="44.064981107125284" lon="11.551662145927644"><ele>673.0</ele><time>2026-05-03T10:33:39Z</time></trkpt><trkpt lat="44.06493460336503" lon="11.55177244477753"><ele>673.0</ele><time>2026-05-03T10:34:14Z</time></trkpt><trkpt lat="44.06489993063256" lon="11.551856402857387"><ele>673.0</ele><time>2026-05-03T10:34:24Z</time></trkpt><trkpt lat="44.064845634614954" lon="11.551919203106259"><ele>673.0</ele><time>2026-05-03T10:34:27Z</time></trkpt><trkpt lat="44.06479115139619" lon="11.551972140969195"><ele>668.5</ele><time>2026-05-03T10:34:30Z</time></trkpt><trkpt lat="44.06471172035085" lon="11.551931593457908"><ele>664.0</ele><time>2026-05-03T10:34:36Z</time></trkpt><trkpt lat="44.064642008649955" lon="11.551845049167461"><ele>659.5</ele><time>2026-05-03T10:34:40Z</time></trkpt><trkpt lat="44.06459785949545" lon="11.55175659970605"><ele>655.0</ele><time>2026-05-03T10:34:43Z</time></trkpt><trkpt lat="44.06460779485972" lon="11.551654139447699"><ele>650.5</ele><time>2026-05-03T10:34:47Z</time></trkpt><trkpt lat="44.06460675485907" lon="11.551544604960819"><ele>646.0</ele><time>2026-05-03T10:34:51Z</time></trkpt><trkpt lat="44.06460474181213" lon="11.55140803576463"><ele>646.0000000000001</ele><time>2026-05-03T10:34:54Z</time></trkpt><trkpt lat="44.06457001649737" lon="11.551319922344339"><ele>646.0</ele><time>2026-05-03T10:34:58Z</time></trkpt><trkpt lat="44.06451764678327" lon="11.551270202862655"><ele>646.0</ele><time>2026-05-03T10:35:01Z</time></trkpt><trkpt lat="44.06447899081915" lon="11.551184241558014"><ele>646.0</ele><time>2026-05-03T10:35:04Z</time></trkpt><trkpt lat="44.0644452571676" lon="11.551087399217987"><ele>646.0</ele><time>2026-05-03T10:35:07Z</time></trkpt><trkpt lat="44.06441939931372" lon="11.550995652359529"><ele>646.0000000000001</ele><time>2026-05-03T10:35:09Z</time></trkpt><trkpt lat="44.064399422785804" lon="11.550897963260335"><ele>646.0</ele><time>2026-05-03T10:35:12Z</time></trkpt><trkpt lat="44.064361213612415" lon="11.550804121386367"><ele>643.8571428571429</ele><time>2026-05-03T10:35:15Z</time></trkpt><trkpt lat="44.06430670718463" lon="11.550752286235646"><ele>641.7142857142858</ele><time>2026-05-03T10:35:17Z</time></trkpt><trkpt lat="44.06427216431046" lon="11.550643465282793"><ele>639.5714285714287</ele><time>2026-05-03T10:35:21Z</time></trkpt><trkpt lat="44.06425364916021" lon="11.55054594389525"><ele>637.4285714285714</ele><time>2026-05-03T10:35:24Z</time></trkpt><trkpt lat="44.06423190537456" lon="11.550433744166346"><ele>635.2857142857142</ele><time>2026-05-03T10:35:28Z</time></trkpt><trkpt lat="44.064186318233304" lon="11.55035357080601"><ele>633.1428571428572</ele><time>2026-05-03T10:35:32Z</time></trkpt><trkpt lat="44.06415754720735" lon="11.550272904243922"><ele>631.0</ele><time>2026-05-03T10:35:35Z</time></trkpt><trkpt lat="44.064133686859364" lon="11.550187962625854"><ele>628.6</ele><time>2026-05-03T10:35:42Z</time></trkpt><trkpt lat="44.06414639063564" lon="11.550100745087873"><ele>626.2</ele><time>2026-05-03T10:35:47Z</time></trkpt><trkpt lat="44.06416665129748" lon="11.549995202480922"><ele>623.8</ele><time>2026-05-03T10:35:49Z</time></trkpt><trkpt lat="44.06418607035414" lon="11.549870526141213"><ele>621.4</ele><time>2026-05-03T10:35:52Z</time></trkpt><trkpt lat="44.06420467079538" lon="11.549762431664018"><ele>619.0</ele><time>2026-05-03T10:35:55Z</time></trkpt><trkpt lat="44.06426040911809" lon="11.549578919191083"><ele>616.4</ele><time>2026-05-03T10:35:57Z</time></trkpt><trkpt lat="44.064299147440764" lon="11.549408229056166"><ele>613.8</ele><time>2026-05-03T10:35:58Z</time></trkpt><trkpt lat="44.06428497402384" lon="11.549243928149473"><ele>611.2</ele><time>2026-05-03T10:36:00Z</time></trkpt><trkpt lat="44.064274050501666" lon="11.549089267023081"><ele>608.6</ele><time>2026-05-03T10:36:02Z</time></trkpt><trkpt lat="44.06426321334135" lon="11.548995696641342"><ele>606.0</ele><time>2026-05-03T10:36:03Z</time></trkpt><trkpt lat="44.06425207095388" lon="11.548908443424514"><ele>606.0</ele><time>2026-05-03T10:36:04Z</time></trkpt><trkpt lat="44.06421785056816" lon="11.548751144510904"><ele>606.0</ele><time>2026-05-03T10:36:06Z</time></trkpt><trkpt lat="44.06419761203222" lon="11.548619744837456"><ele>606.0</ele><time>2026-05-03T10:36:08Z</time></trkpt><trkpt lat="44.06419128398843" lon="11.54847693970713"><ele>606.0</ele><time>2026-05-03T10:36:11Z</time></trkpt><trkpt lat="44.06418616756013" lon="11.548372311362026"><ele>606.0</ele><time>2026-05-03T10:36:13Z</time></trkpt><trkpt lat="44.06417659973378" lon="11.548251964170898"><ele>604.6666666666666</ele><time>2026-05-03T10:36:15Z</time></trkpt><trkpt lat="44.064160277054505" lon="11.548106945586412"><ele>603.3333333333334</ele><time>2026-05-03T10:36:17Z</time></trkpt><trkpt lat="44.06419081846775" lon="11.548004462147787"><ele>602.0</ele><time>2026-05-03T10:36:22Z</time></trkpt><trkpt lat="44.06412360699175" lon="11.54806890112082"><ele>600.6666666666667</ele><time>2026-05-03T10:36:26Z</time></trkpt><trkpt lat="44.064091454483616" lon="11.54816966498025"><ele>599.3333333333334</ele><time>2026-05-03T10:36:28Z</time></trkpt><trkpt lat="44.06403708917054" lon="11.548267679396497"><ele>598.0</ele><time>2026-05-03T10:36:31Z</time></trkpt><trkpt lat="44.063972828306845" lon="11.548379493557674"><ele>593.0</ele><time>2026-05-03T10:36:33Z</time></trkpt><trkpt lat="44.06388495089203" lon="11.548466921725906"><ele>588.0</ele><time>2026-05-03T10:36:35Z</time></trkpt><trkpt lat="44.063807820235056" lon="11.548497273652266"><ele>583.0</ele><time>2026-05-03T10:36:36Z</time></trkpt><trkpt lat="44.063721456252246" lon="11.54858205205248"><ele>578.0</ele><time>2026-05-03T10:36:38Z</time></trkpt><trkpt lat="44.063663555187375" lon="11.54861992485136"><ele>573.0</ele><time>2026-05-03T10:36:39Z</time></trkpt><trkpt lat="44.06355457316207" lon="11.548687143971184"><ele>575.0</ele><time>2026-05-03T10:36:41Z</time></trkpt><trkpt lat="44.06349186480673" lon="11.548718388276447"><ele>577.0</ele><time>2026-05-03T10:36:42Z</time></trkpt><trkpt lat="44.063394098824915" lon="11.548764017764027"><ele>579.0</ele><time>2026-05-03T10:36:44Z</time></trkpt><trkpt lat="44.063301339249094" lon="11.54878902879179"><ele>581.0</ele><time>2026-05-03T10:36:46Z</time></trkpt><trkpt lat="44.06319660481495" lon="11.548777125672975"><ele>583.0</ele><time>2026-05-03T10:36:48Z</time></trkpt><trkpt lat="44.063111775895194" lon="11.548748168712695"><ele>577.0</ele><time>2026-05-03T10:36:49Z</time></trkpt><trkpt lat="44.063029728303434" lon="11.548703327886617"><ele>571.0</ele><time>2026-05-03T10:36:50Z</time></trkpt><trkpt lat="44.06291435793588" lon="11.548633893496069"><ele>565.0</ele><time>2026-05-03T10:36:52Z</time></trkpt><trkpt lat="44.06284599317467" lon="11.548603499855904"><ele>559.0</ele><time>2026-05-03T10:36:53Z</time></trkpt><trkpt lat="44.0627284221371" lon="11.548556175437325"><ele>553.0</ele><time>2026-05-03T10:36:55Z</time></trkpt><trkpt lat="44.06264711438317" lon="11.548598418601964"><ele>553.0</ele><time>2026-05-03T10:36:57Z</time></trkpt><trkpt lat="44.06255833873855" lon="11.548667933441923"><ele>553.0</ele><time>2026-05-03T10:36:59Z</time></trkpt><trkpt lat="44.06247596153643" lon="11.548741673966882"><ele>553.0</ele><time>2026-05-03T10:37:01Z</time></trkpt><trkpt lat="44.06237942492649" lon="11.548841377453018"><ele>553.0</ele><time>2026-05-03T10:37:03Z</time></trkpt><trkpt lat="44.062316316567085" lon="11.548908455843344"><ele>553.0</ele><time>2026-05-03T10:37:04Z</time></trkpt><trkpt lat="44.062258165171414" lon="11.548982776871483"><ele>552.0</ele><time>2026-05-03T10:37:05Z</time></trkpt><trkpt lat="44.062131801006466" lon="11.54901676704209"><ele>551.0</ele><time>2026-05-03T10:37:07Z</time></trkpt><trkpt lat="44.06206905152695" lon="11.549007907236723"><ele>550.0</ele><time>2026-05-03T10:37:08Z</time></trkpt><trkpt lat="44.06200248369893" lon="11.548996962706621"><ele>549.0</ele><time>2026-05-03T10:37:09Z</time></trkpt><trkpt lat="44.06194628321123" lon="11.549039908015372"><ele>548.0</ele><time>2026-05-03T10:37:10Z</time></trkpt><trkpt lat="44.061857402161934" lon="11.549130092163287"><ele>547.0</ele><time>2026-05-03T10:37:12Z</time></trkpt><trkpt lat="44.06175500708799" lon="11.549179899857782"><ele>547.0</ele><time>2026-05-03T10:37:14Z</time></trkpt><trkpt lat="44.06162838140003" lon="11.54920462064157"><ele>547.0</ele><time>2026-05-03T10:37:16Z</time></trkpt><trkpt lat="44.061521323459246" lon="11.549128077143699"><ele>547.0</ele><time>2026-05-03T10:37:18Z</time></trkpt><trkpt lat="44.06144876226202" lon="11.548980627131066"><ele>547.0</ele><time>2026-05-03T10:37:20Z</time></trkpt><trkpt lat="44.06142596960053" lon="11.548881427457419"><ele>544.4285714285714</ele><time>2026-05-03T10:37:21Z</time></trkpt><trkpt lat="44.06136491488549" lon="11.54882704211184"><ele>541.8571428571428</ele><time>2026-05-03T10:37:22Z</time></trkpt><trkpt lat="44.06131289070185" lon="11.54876995006811"><ele>539.2857142857142</ele><time>2026-05-03T10:37:23Z</time></trkpt><trkpt lat="44.0612343467535" lon="11.548750580923269"><ele>536.7142857142857</ele><time>2026-05-03T10:37:24Z</time></trkpt><trkpt lat="44.061170859842825" lon="11.548755061268372"><ele>534.1428571428571</ele><time>2026-05-03T10:37:25Z</time></trkpt><trkpt lat="44.06108680630403" lon="11.548805562816616"><ele>531.5714285714286</ele><time>2026-05-03T10:37:26Z</time></trkpt><trkpt lat="44.06103276517314" lon="11.548870666904488"><ele>529.0</ele><time>2026-05-03T10:37:27Z</time></trkpt><trkpt lat="44.060988251793695" lon="11.548959017764954"><ele>529.0</ele><time>2026-05-03T10:37:28Z</time></trkpt><trkpt lat="44.06094871619433" lon="11.549057663837468"><ele>529.0</ele><time>2026-05-03T10:37:29Z</time></trkpt><trkpt lat="44.060914377478" lon="11.549158917916637"><ele>529.0</ele><time>2026-05-03T10:37:30Z</time></trkpt><trkpt lat="44.06088726946698" lon="11.549276213965301"><ele>529.0</ele><time>2026-05-03T10:37:31Z</time></trkpt><trkpt lat="44.060862870854095" lon="11.549370663879012"><ele>529.0</ele><time>2026-05-03T10:37:32Z</time></trkpt><trkpt lat="44.0608436154706" lon="11.549480199317061"><ele>529.0</ele><time>2026-05-03T10:37:33Z</time></trkpt><trkpt lat="44.060790816535324" lon="11.549576879288423"><ele>520.4</ele><time>2026-05-03T10:37:34Z</time></trkpt><trkpt lat="44.060770704142136" lon="11.549692746737652"><ele>511.79999999999995</ele><time>2026-05-03T10:37:35Z</time></trkpt><trkpt lat="44.06074519257044" lon="11.549826418170637"><ele>503.20000000000005</ele><time>2026-05-03T10:37:36Z</time></trkpt><trkpt lat="44.06071853216536" lon="11.549953080039403"><ele>494.6</ele><time>2026-05-03T10:37:37Z</time></trkpt><trkpt lat="44.0606880304713" lon="11.55009045283567"><ele>486.0</ele><time>2026-05-03T10:37:38Z</time></trkpt><trkpt lat="44.06065928101072" lon="11.550220933790017"><ele>486.0</ele><time>2026-05-03T10:37:39Z</time></trkpt><trkpt lat="44.06064278231862" lon="11.550373964142828"><ele>486.0</ele><time>2026-05-03T10:37:40Z</time></trkpt><trkpt lat="44.060596897576815" lon="11.550508049319134"><ele>486.0</ele><time>2026-05-03T10:37:41Z</time></trkpt><trkpt lat="44.06055808517294" lon="11.550640501897758"><ele>486.0</ele><time>2026-05-03T10:37:42Z</time></trkpt><trkpt lat="44.06051777959913" lon="11.550767122315182"><ele>486.0</ele><time>2026-05-03T10:37:43Z</time></trkpt><trkpt lat="44.06048010591852" lon="11.550877784059253"><ele>487.6666666666667</ele><time>2026-05-03T10:37:44Z</time></trkpt><trkpt lat="44.06044250103119" lon="11.55098553427753"><ele>489.33333333333337</ele><time>2026-05-03T10:37:45Z</time></trkpt><trkpt lat="44.060406106771254" lon="11.551072247963777"><ele>491.0</ele><time>2026-05-03T10:37:46Z</time></trkpt><trkpt lat="44.060355303922904" lon="11.55116605641529"><ele>492.6666666666667</ele><time>2026-05-03T10:37:47Z</time></trkpt><trkpt lat="44.06030526161756" lon="11.551290284567058"><ele>494.33333333333337</ele><time>2026-05-03T10:37:49Z</time></trkpt><trkpt lat="44.0602799215242" lon="11.551372380718046"><ele>496.0</ele><time>2026-05-03T10:37:50Z</time></trkpt><trkpt lat="44.06025896457793" lon="11.551462032970129"><ele>496.0</ele><time>2026-05-03T10:37:52Z</time></trkpt><trkpt lat="44.06018959783587" lon="11.551406253542833"><ele>496.0</ele><time>2026-05-03T10:37:54Z</time></trkpt><trkpt lat="44.060145954303344" lon="11.551240907626937"><ele>496.0</ele><time>2026-05-03T10:37:56Z</time></trkpt><trkpt lat="44.060174417360145" lon="11.551135694107128"><ele>496.0</ele><time>2026-05-03T10:37:57Z</time></trkpt><trkpt lat="44.060231636716864" lon="11.55103333272286"><ele>496.0</ele><time>2026-05-03T10:37:58Z</time></trkpt><trkpt lat="44.060298041668844" lon="11.550918026335392"><ele>496.0</ele><time>2026-05-03T10:37:59Z</time></trkpt><trkpt lat="44.06036815132562" lon="11.550789613526455"><ele>496.0</ele><time>2026-05-03T10:38:00Z</time></trkpt><trkpt lat="44.060430647218695" lon="11.550666111925528"><ele>496.0</ele><time>2026-05-03T10:38:01Z</time></trkpt><trkpt lat="44.06059905036198" lon="11.550624307873267"><ele>496.0</ele><time>2026-05-03T10:38:02Z</time></trkpt><trkpt lat="44.06064105043142" lon="11.55047950154598"><ele>496.00000000000006</ele><time>2026-05-03T10:38:04Z</time></trkpt><trkpt lat="44.060660746097675" lon="11.550380651891793"><ele>496.0</ele><time>2026-05-03T10:38:06Z</time></trkpt><trkpt lat="44.06068668931012" lon="11.550250446968102"><ele>496.0</ele><time>2026-05-03T10:38:08Z</time></trkpt><trkpt lat="44.06070837585017" lon="11.550155204207137"><ele>496.0</ele><time>2026-05-03T10:38:10Z</time></trkpt><trkpt lat="44.06073536197173" lon="11.550034191427848"><ele>496.00000000000006</ele><time>2026-05-03T10:38:12Z</time></trkpt><trkpt lat="44.06076012939136" lon="11.549921221656556"><ele>496.0</ele><time>2026-05-03T10:38:14Z</time></trkpt><trkpt lat="44.06023307001238" lon="11.549771563593335"><ele>494.33333333333337</ele><time>2026-05-03T10:38:17Z</time></trkpt><trkpt lat="44.06020552823256" lon="11.549865953682366"><ele>492.6666666666667</ele><time>2026-05-03T10:38:18Z</time></trkpt><trkpt lat="44.06017913987904" lon="11.549962985919104"><ele>491.0</ele><time>2026-05-03T10:38:19Z</time></trkpt><trkpt lat="44.0601008097288" lon="11.550060033683534"><ele>489.33333333333337</ele><time>2026-05-03T10:38:21Z</time></trkpt><trkpt lat="44.060044573302925" lon="11.550167559810145"><ele>487.6666666666667</ele><time>2026-05-03T10:38:23Z</time></trkpt><trkpt lat="44.05995534523659" lon="11.550230436077157"><ele>486.0</ele><time>2026-05-03T10:38:25Z</time></trkpt><trkpt lat="44.059890727919715" lon="11.550258408212931"><ele>482.20000000000005</ele><time>2026-05-03T10:38:26Z</time></trkpt><trkpt lat="44.059816581749985" lon="11.550272569526443"><ele>478.40000000000003</ele><time>2026-05-03T10:38:27Z</time></trkpt><trkpt lat="44.059718084348745" lon="11.550275623269291"><ele>474.6</ele><time>2026-05-03T10:38:28Z</time></trkpt><trkpt lat="44.059633820850074" lon="11.550309558219999"><ele>470.8</ele><time>2026-05-03T10:38:30Z</time></trkpt><trkpt lat="44.059546839759996" lon="11.55032491033152"><ele>467.0</ele><time>2026-05-03T10:38:32Z</time></trkpt><trkpt lat="44.05944446076645" lon="11.550388619199753"><ele>466.99999999999994</ele><time>2026-05-03T10:38:34Z</time></trkpt><trkpt lat="44.059383632104336" lon="11.550440334267247"><ele>467.0</ele><time>2026-05-03T10:38:35Z</time></trkpt><trkpt lat="44.05930669746063" lon="11.550481561418735"><ele>467.0</ele><time>2026-05-03T10:38:36Z</time></trkpt><trkpt lat="44.059235672757744" lon="11.55051006856172"><ele>467.0</ele><time>2026-05-03T10:38:37Z</time></trkpt><trkpt lat="44.05918039546204" lon="11.550553001868824"><ele>466.99999999999994</ele><time>2026-05-03T10:38:38Z</time></trkpt><trkpt lat="44.05913657738737" lon="11.55061608498176"><ele>467.0</ele><time>2026-05-03T10:38:39Z</time></trkpt><trkpt lat="44.05909829585577" lon="11.550775600056724"><ele>466.99999999999994</ele><time>2026-05-03T10:38:41Z</time></trkpt><trkpt lat="44.0591147892913" lon="11.55086367260004"><ele>467.0</ele><time>2026-05-03T10:38:42Z</time></trkpt><trkpt lat="44.05913985121447" lon="11.55095937660491"><ele>467.0</ele><time>2026-05-03T10:38:43Z</time></trkpt><trkpt lat="44.05914040884948" lon="11.55110285933261"><ele>467.0</ele><time>2026-05-03T10:38:45Z</time></trkpt><trkpt lat="44.05913633006791" lon="11.551219850271814"><ele>466.99999999999994</ele><time>2026-05-03T10:38:46Z</time></trkpt><trkpt lat="44.05911741451168" lon="11.551337199880543"><ele>467.0</ele><time>2026-05-03T10:38:47Z</time></trkpt><trkpt lat="44.05911503672745" lon="11.551429390965373"><ele>466.8571428571428</ele><time>2026-05-03T10:38:48Z</time></trkpt><trkpt lat="44.059129153091476" lon="11.551518550989977"><ele>466.71428571428567</ele><time>2026-05-03T10:38:49Z</time></trkpt><trkpt lat="44.059146766822494" lon="11.551617440048227"><ele>466.57142857142856</ele><time>2026-05-03T10:38:50Z</time></trkpt><trkpt lat="44.05917329018724" lon="11.551702259640583"><ele>466.4285714285714</ele><time>2026-05-03T10:38:51Z</time></trkpt><trkpt lat="44.05920749162837" lon="11.551787634388141"><ele>466.2857142857142</ele><time>2026-05-03T10:38:52Z</time></trkpt><trkpt lat="44.05925071523308" lon="11.55187383129924"><ele>466.14285714285717</ele><time>2026-05-03T10:38:53Z</time></trkpt><trkpt lat="44.05929724516498" lon="11.551985478286134"><ele>466.0</ele><time>2026-05-03T10:38:54Z</time></trkpt><trkpt lat="44.05931490934004" lon="11.552094971983708"><ele>464.8</ele><time>2026-05-03T10:38:55Z</time></trkpt><trkpt lat="44.05932985996301" lon="11.552195262481858"><ele>463.6</ele><time>2026-05-03T10:38:56Z</time></trkpt><trkpt lat="44.05936316739682" lon="11.552307473548005"><ele>462.4</ele><time>2026-05-03T10:38:57Z</time></trkpt><trkpt lat="44.05936466329658" lon="11.552440274409737"><ele>461.2</ele><time>2026-05-03T10:38:58Z</time></trkpt><trkpt lat="44.059332503431186" lon="11.552598705941799"><ele>460.0</ele><time>2026-05-03T10:38:59Z</time></trkpt><trkpt lat="44.05928775161399" lon="11.55273498548133"><ele>460.00000000000006</ele><time>2026-05-03T10:39:00Z</time></trkpt><trkpt lat="44.05925224645116" lon="11.5528437533248"><ele>460.0</ele><time>2026-05-03T10:39:01Z</time></trkpt><trkpt lat="44.05922631364754" lon="11.55293242275599"><ele>460.0</ele><time>2026-05-03T10:39:02Z</time></trkpt><trkpt lat="44.05917213200694" lon="11.553086573187525"><ele>460.0</ele><time>2026-05-03T10:39:04Z</time></trkpt><trkpt lat="44.05913745813849" lon="11.55316505706861"><ele>460.00000000000006</ele><time>2026-05-03T10:39:05Z</time></trkpt><trkpt lat="44.05909702675142" lon="11.553238376220222"><ele>460.0</ele><time>2026-05-03T10:39:06Z</time></trkpt><trkpt lat="44.05901612160275" lon="11.553369340806938"><ele>460.00000000000006</ele><time>2026-05-03T10:39:08Z</time></trkpt><trkpt lat="44.058967517700985" lon="11.553456852954254"><ele>460.0</ele><time>2026-05-03T10:39:09Z</time></trkpt><trkpt lat="44.05891095914725" lon="11.553539853338357"><ele>460.0</ele><time>2026-05-03T10:39:10Z</time></trkpt><trkpt lat="44.05885462583415" lon="11.553630059291972"><ele>460.0</ele><time>2026-05-03T10:39:11Z</time></trkpt><trkpt lat="44.058799566584526" lon="11.553691508496106"><ele>460.00000000000006</ele><time>2026-05-03T10:39:12Z</time></trkpt><trkpt lat="44.058753980352854" lon="11.553782763870867"><ele>460.0</ele><time>2026-05-03T10:39:13Z</time></trkpt><trkpt lat="44.0587204674715" lon="11.553878800460717"><ele>458.33333333333337</ele><time>2026-05-03T10:39:14Z</time></trkpt><trkpt lat="44.05870518975127" lon="11.553980449995835"><ele>456.6666666666667</ele><time>2026-05-03T10:39:15Z</time></trkpt><trkpt lat="44.05870269293831" lon="11.554075878181171"><ele>455.0</ele><time>2026-05-03T10:39:16Z</time></trkpt><trkpt lat="44.05871548725851" lon="11.554184918610495"><ele>453.33333333333337</ele><time>2026-05-03T10:39:17Z</time></trkpt><trkpt lat="44.05873251895813" lon="11.55428314699693"><ele>451.6666666666667</ele><time>2026-05-03T10:39:18Z</time></trkpt><trkpt lat="44.058742737118564" lon="11.55437409468434"><ele>450.0</ele><time>2026-05-03T10:39:19Z</time></trkpt><trkpt lat="44.058738300098085" lon="11.554541928447684"><ele>449.1666666666667</ele><time>2026-05-03T10:39:21Z</time></trkpt><trkpt lat="44.05872362605166" lon="11.554629386905534"><ele>448.33333333333337</ele><time>2026-05-03T10:39:22Z</time></trkpt><trkpt lat="44.058703506570254" lon="11.554719767062165"><ele>447.5</ele><time>2026-05-03T10:39:23Z</time></trkpt><trkpt lat="44.05869059522476" lon="11.554814985704791"><ele>446.6666666666667</ele><time>2026-05-03T10:39:24Z</time></trkpt><trkpt lat="44.05865326297213" lon="11.554936542071891"><ele>445.83333333333337</ele><time>2026-05-03T10:39:26Z</time></trkpt><trkpt lat="44.0586132573073" lon="11.555011609307746"><ele>445.0</ele><time>2026-05-03T10:39:28Z</time></trkpt><trkpt lat="44.05864318630867" lon="11.555153602159997"><ele>445.0</ele><time>2026-05-03T10:39:30Z</time></trkpt><trkpt lat="44.05866514783176" lon="11.555294631096132"><ele>445.0</ele><time>2026-05-03T10:39:31Z</time></trkpt><trkpt lat="44.05868318967722" lon="11.555462430424368"><ele>445.0</ele><time>2026-05-03T10:39:32Z</time></trkpt><trkpt lat="44.05871657013885" lon="11.555620301155775"><ele>445.0</ele><time>2026-05-03T10:39:33Z</time></trkpt><trkpt lat="44.05874454039114" lon="11.555762863464958"><ele>445.25</ele><time>2026-05-03T10:39:34Z</time></trkpt><trkpt lat="44.0587826596182" lon="11.555903431276617"><ele>445.5</ele><time>2026-05-03T10:39:35Z</time></trkpt><trkpt lat="44.05885141880547" lon="11.556031176892214"><ele>445.75</ele><time>2026-05-03T10:39:36Z</time></trkpt><trkpt lat="44.0589437343417" lon="11.556132301372914"><ele>446.0</ele><time>2026-05-03T10:39:37Z</time></trkpt><trkpt lat="44.05904221965986" lon="11.556212730966209"><ele>444.5</ele><time>2026-05-03T10:39:38Z</time></trkpt><trkpt lat="44.05913350521701" lon="11.556313452579857"><ele>443.0</ele><time>2026-05-03T10:39:39Z</time></trkpt><trkpt lat="44.05923642301977" lon="11.556437378196339"><ele>441.5</ele><time>2026-05-03T10:39:40Z</time></trkpt><trkpt lat="44.059340763761725" lon="11.55656413724912"><ele>440.0</ele><time>2026-05-03T10:39:41Z</time></trkpt><trkpt lat="44.05942232732271" lon="11.556674067511155"><ele>440.0</ele><time>2026-05-03T10:39:42Z</time></trkpt><trkpt lat="44.05950032178272" lon="11.55678595889706"><ele>440.0</ele><time>2026-05-03T10:39:43Z</time></trkpt><trkpt lat="44.05958494945111" lon="11.556897635835726"><ele>440.0</ele><time>2026-05-03T10:39:44Z</time></trkpt><trkpt lat="44.05966631329799" lon="11.557005694191174"><ele>440.0</ele><time>2026-05-03T10:39:45Z</time></trkpt><trkpt lat="44.05974557547011" lon="11.557116593058876"><ele>440.2</ele><time>2026-05-03T10:39:46Z</time></trkpt><trkpt lat="44.059817827539774" lon="11.557216432293872"><ele>440.4</ele><time>2026-05-03T10:39:47Z</time></trkpt><trkpt lat="44.0598878242248" lon="11.557301682061174"><ele>440.6</ele><time>2026-05-03T10:39:48Z</time></trkpt><trkpt lat="44.05997093784321" lon="11.557368574413124"><ele>440.8</ele><time>2026-05-03T10:39:49Z</time></trkpt><trkpt lat="44.06008321755692" lon="11.557389147078512"><ele>441.0</ele><time>2026-05-03T10:39:50Z</time></trkpt><trkpt lat="44.06023373390793" lon="11.557357447393475"><ele>441.0</ele><time>2026-05-03T10:39:51Z</time></trkpt><trkpt lat="44.06036602687973" lon="11.557362086471194"><ele>441.0</ele><time>2026-05-03T10:39:52Z</time></trkpt><trkpt lat="44.06050428010585" lon="11.557391063461035"><ele>441.0</ele><time>2026-05-03T10:39:53Z</time></trkpt><trkpt lat="44.06062831380724" lon="11.557467476266764"><ele>441.0</ele><time>2026-05-03T10:39:54Z</time></trkpt><trkpt lat="44.06073868576671" lon="11.557597393273342"><ele>439.25</ele><time>2026-05-03T10:39:55Z</time></trkpt><trkpt lat="44.06081741410034" lon="11.557755844010632"><ele>437.5</ele><time>2026-05-03T10:39:56Z</time></trkpt><trkpt lat="44.06088862611183" lon="11.557912445504597"><ele>435.75</ele><time>2026-05-03T10:39:57Z</time></trkpt><trkpt lat="44.060976123482696" lon="11.558056525902181"><ele>434.0</ele><time>2026-05-03T10:39:58Z</time></trkpt><trkpt lat="44.06108516746677" lon="11.558178750813678"><ele>434.0</ele><time>2026-05-03T10:39:59Z</time></trkpt><trkpt lat="44.06118538297281" lon="11.558279041267953"><ele>434.0</ele><time>2026-05-03T10:40:00Z</time></trkpt><trkpt lat="44.06128696938495" lon="11.558361692611351"><ele>434.0</ele><time>2026-05-03T10:40:01Z</time></trkpt><trkpt lat="44.061387394493444" lon="11.558424202425385"><ele>434.0</ele><time>2026-05-03T10:40:02Z</time></trkpt><trkpt lat="44.06147862230086" lon="11.558492750839852"><ele>434.0</ele><time>2026-05-03T10:40:03Z</time></trkpt><trkpt lat="44.061539410864306" lon="11.558586669485523"><ele>434.0</ele><time>2026-05-03T10:40:04Z</time></trkpt><trkpt lat="44.06156608246751" lon="11.558713070951647"><ele>434.0</ele><time>2026-05-03T10:40:05Z</time></trkpt><trkpt lat="44.061547918840766" lon="11.558851865646739"><ele>434.0</ele><time>2026-05-03T10:40:06Z</time></trkpt><trkpt lat="44.061501784330915" lon="11.558978980300775"><ele>434.0</ele><time>2026-05-03T10:40:07Z</time></trkpt><trkpt lat="44.061415462821415" lon="11.559042683864291"><ele>433.0</ele><time>2026-05-03T10:40:08Z</time></trkpt><trkpt lat="44.06134784789848" lon="11.559110416851107"><ele>432.0</ele><time>2026-05-03T10:40:09Z</time></trkpt><trkpt lat="44.061282925821445" lon="11.559165299196048"><ele>431.0</ele><time>2026-05-03T10:40:10Z</time></trkpt><trkpt lat="44.06123951943579" lon="11.559279978410233"><ele>430.0</ele><time>2026-05-03T10:40:11Z</time></trkpt><trkpt lat="44.06121924400605" lon="11.559427282385137"><ele>429.0</ele><time>2026-05-03T10:40:12Z</time></trkpt><trkpt lat="44.06121929215136" lon="11.559589758766453"><ele>428.5</ele><time>2026-05-03T10:40:13Z</time></trkpt><trkpt lat="44.06122262059448" lon="11.559770334694605"><ele>428.0</ele><time>2026-05-03T10:40:14Z</time></trkpt><trkpt lat="44.061221066329544" lon="11.559958817241428"><ele>427.5</ele><time>2026-05-03T10:40:15Z</time></trkpt><trkpt lat="44.06122845413705" lon="11.56014766898704"><ele>427.0</ele><time>2026-05-03T10:40:16Z</time></trkpt><trkpt lat="44.06124664253597" lon="11.560298974565764"><ele>426.75</ele><time>2026-05-03T10:40:17Z</time></trkpt><trkpt lat="44.061297697850385" lon="11.56045122777651"><ele>426.5</ele><time>2026-05-03T10:40:18Z</time></trkpt><trkpt lat="44.06139164042526" lon="11.560596942670664"><ele>426.25</ele><time>2026-05-03T10:40:19Z</time></trkpt><trkpt lat="44.061501121069085" lon="11.56072776910943"><ele>426.0</ele><time>2026-05-03T10:40:20Z</time></trkpt><trkpt lat="44.06158358320415" lon="11.560875199906327"><ele>429.33333333333337</ele><time>2026-05-03T10:40:21Z</time></trkpt><trkpt lat="44.061635945096505" lon="11.561060698662573"><ele>432.6666666666667</ele><time>2026-05-03T10:40:22Z</time></trkpt><trkpt lat="44.06167552896151" lon="11.561279690482921"><ele>436.0</ele><time>2026-05-03T10:40:23Z</time></trkpt><trkpt lat="44.06169905427073" lon="11.56148368756797"><ele>436.0</ele><time>2026-05-03T10:40:24Z</time></trkpt><trkpt lat="44.06172023719503" lon="11.561668260178243"><ele>436.0</ele><time>2026-05-03T10:40:25Z</time></trkpt><trkpt lat="44.06173848680633" lon="11.56182501511292"><ele>436.0</ele><time>2026-05-03T10:40:26Z</time></trkpt><trkpt lat="44.06176438157808" lon="11.56198134607941"><ele>436.0</ele><time>2026-05-03T10:40:27Z</time></trkpt><trkpt lat="44.06178889941295" lon="11.56215775078959"><ele>434.75</ele><time>2026-05-03T10:40:28Z</time></trkpt><trkpt lat="44.06181182962665" lon="11.562325499928034"><ele>433.5</ele><time>2026-05-03T10:40:29Z</time></trkpt><trkpt lat="44.06183863139558" lon="11.562491921887524"><ele>432.25</ele><time>2026-05-03T10:40:30Z</time></trkpt><trkpt lat="44.06186191491751" lon="11.562648817244533"><ele>431.0</ele><time>2026-05-03T10:40:31Z</time></trkpt><trkpt lat="44.061880822263646" lon="11.562795302168114"><ele>430.8</ele><time>2026-05-03T10:40:32Z</time></trkpt><trkpt lat="44.06190302885213" lon="11.56294412200549"><ele>430.6</ele><time>2026-05-03T10:40:33Z</time></trkpt><trkpt lat="44.061926623158584" lon="11.563092206852996"><ele>430.4</ele><time>2026-05-03T10:40:34Z</time></trkpt><trkpt lat="44.06194963045275" lon="11.563248179044754"><ele>430.2</ele><time>2026-05-03T10:40:35Z</time></trkpt><trkpt lat="44.06196687735185" lon="11.563406318338131"><ele>430.0</ele><time>2026-05-03T10:40:36Z</time></trkpt><trkpt lat="44.06198105649521" lon="11.56356685252884"><ele>430.6</ele><time>2026-05-03T10:40:37Z</time></trkpt><trkpt lat="44.06198689686423" lon="11.563715327749234"><ele>431.2</ele><time>2026-05-03T10:40:38Z</time></trkpt><trkpt lat="44.06198062482885" lon="11.563863157877718"><ele>431.79999999999995</ele><time>2026-05-03T10:40:39Z</time></trkpt><trkpt lat="44.06195486180514" lon="11.564010316471043"><ele>432.4</ele><time>2026-05-03T10:40:40Z</time></trkpt><trkpt lat="44.06190381312172" lon="11.564139023320399"><ele>433.0</ele><time>2026-05-03T10:40:41Z</time></trkpt><trkpt lat="44.061812595508464" lon="11.5642299311555"><ele>433.0</ele><time>2026-05-03T10:40:42Z</time></trkpt><trkpt lat="44.0616962952655" lon="11.564276112402199"><ele>433.0</ele><time>2026-05-03T10:40:43Z</time></trkpt><trkpt lat="44.061578231174636" lon="11.564296363147683"><ele>433.0</ele><time>2026-05-03T10:40:44Z</time></trkpt><trkpt lat="44.061477097414475" lon="11.564337359161621"><ele>433.0</ele><time>2026-05-03T10:40:45Z</time></trkpt><trkpt lat="44.06138760964609" lon="11.56442362241437"><ele>430.75</ele><time>2026-05-03T10:40:46Z</time></trkpt><trkpt lat="44.06132291787917" lon="11.564564050932923"><ele>428.5</ele><time>2026-05-03T10:40:47Z</time></trkpt><trkpt lat="44.06127500527102" lon="11.56472776271428"><ele>426.25</ele><time>2026-05-03T10:40:48Z</time></trkpt><trkpt lat="44.06125098141503" lon="11.564914126109635"><ele>424.0</ele><time>2026-05-03T10:40:49Z</time></trkpt><trkpt lat="44.061252589972334" lon="11.565102001269377"><ele>424.0</ele><time>2026-05-03T10:40:50Z</time></trkpt><trkpt lat="44.06129527616358" lon="11.565284493182089"><ele>424.0</ele><time>2026-05-03T10:40:51Z</time></trkpt><trkpt lat="44.06137700877992" lon="11.56548950049475"><ele>424.0</ele><time>2026-05-03T10:40:52Z</time></trkpt><trkpt lat="44.06145240408433" lon="11.565689187344555"><ele>424.0</ele><time>2026-05-03T10:40:53Z</time></trkpt><trkpt lat="44.06149513787712" lon="11.565877760431967"><ele>424.0</ele><time>2026-05-03T10:40:54Z</time></trkpt><trkpt lat="44.06152284406572" lon="11.566059608587787"><ele>424.0</ele><time>2026-05-03T10:40:55Z</time></trkpt><trkpt lat="44.06152864305099" lon="11.566251012013096"><ele>424.0</ele><time>2026-05-03T10:40:56Z</time></trkpt><trkpt lat="44.06149970654946" lon="11.566443387654015"><ele>424.0</ele><time>2026-05-03T10:40:57Z</time></trkpt><trkpt lat="44.061454630328704" lon="11.566621167476335"><ele>424.0</ele><time>2026-05-03T10:40:58Z</time></trkpt><trkpt lat="44.06141278114524" lon="11.566791260416059"><ele>424.0</ele><time>2026-05-03T10:40:59Z</time></trkpt><trkpt lat="44.061391147431955" lon="11.566959495625865"><ele>424.0</ele><time>2026-05-03T10:41:00Z</time></trkpt><trkpt lat="44.06139291214401" lon="11.567151832442613"><ele>423.33333333333337</ele><time>2026-05-03T10:41:01Z</time></trkpt><trkpt lat="44.06142138153794" lon="11.567376467539916"><ele>422.66666666666663</ele><time>2026-05-03T10:41:02Z</time></trkpt><trkpt lat="44.0614551791279" lon="11.567591272578007"><ele>422.0</ele><time>2026-05-03T10:41:03Z</time></trkpt><trkpt lat="44.0614723793818" lon="11.567788191970404"><ele>420.5</ele><time>2026-05-03T10:41:04Z</time></trkpt><trkpt lat="44.061479307770256" lon="11.567982377385473"><ele>419.0</ele><time>2026-05-03T10:41:05Z</time></trkpt><trkpt lat="44.06150511323169" lon="11.568200516190528"><ele>417.5</ele><time>2026-05-03T10:41:06Z</time></trkpt><trkpt lat="44.0615193458883" lon="11.56840904497237"><ele>416.0</ele><time>2026-05-03T10:41:07Z</time></trkpt><trkpt lat="44.06150376568833" lon="11.56859386222812"><ele>415.5</ele><time>2026-05-03T10:41:08Z</time></trkpt><trkpt lat="44.06147277332168" lon="11.568793878968926"><ele>415.0</ele><time>2026-05-03T10:41:09Z</time></trkpt><trkpt lat="44.06143027688417" lon="11.568965146510298"><ele>414.5</ele><time>2026-05-03T10:41:10Z</time></trkpt><trkpt lat="44.06138690045259" lon="11.569114663774215"><ele>414.0</ele><time>2026-05-03T10:41:11Z</time></trkpt><trkpt lat="44.06133812908978" lon="11.569247161543904"><ele>414.0</ele><time>2026-05-03T10:41:12Z</time></trkpt><trkpt lat="44.06124596851745" lon="11.569319908984713"><ele>414.0</ele><time>2026-05-03T10:41:13Z</time></trkpt><trkpt lat="44.061148163447946" lon="11.56940891945793"><ele>414.0</ele><time>2026-05-03T10:41:14Z</time></trkpt><trkpt lat="44.06104059789024" lon="11.56947936526431"><ele>414.0</ele><time>2026-05-03T10:41:15Z</time></trkpt><trkpt lat="44.06095059510617" lon="11.569565009776278"><ele>414.5</ele><time>2026-05-03T10:41:16Z</time></trkpt><trkpt lat="44.060891659949625" lon="11.569687303574625"><ele>415.0</ele><time>2026-05-03T10:41:17Z</time></trkpt><trkpt lat="44.06085755993167" lon="11.569866646502737"><ele>415.5</ele><time>2026-05-03T10:41:18Z</time></trkpt><trkpt lat="44.060824945559624" lon="11.570088077687423"><ele>416.0</ele><time>2026-05-03T10:41:19Z</time></trkpt><trkpt lat="44.06078891609564" lon="11.570343918524568"><ele>413.0</ele><time>2026-05-03T10:41:20Z</time></trkpt><trkpt lat="44.06076267320745" lon="11.570600649088842"><ele>410.0</ele><time>2026-05-03T10:41:21Z</time></trkpt><trkpt lat="44.06074485102381" lon="11.570814457368003"><ele>407.0</ele><time>2026-05-03T10:41:22Z</time></trkpt><trkpt lat="44.0607360281883" lon="11.571000108711003"><ele>407.0</ele><time>2026-05-03T10:41:23Z</time></trkpt><trkpt lat="44.06074897151674" lon="11.571175091276771"><ele>407.0</ele><time>2026-05-03T10:41:24Z</time></trkpt><trkpt lat="44.0607819005006" lon="11.571347377981128"><ele>407.0</ele><time>2026-05-03T10:41:25Z</time></trkpt><trkpt lat="44.06083937128894" lon="11.571515303995971"><ele>407.0</ele><time>2026-05-03T10:41:26Z</time></trkpt><trkpt lat="44.060898768318864" lon="11.571667307866521"><ele>407.25</ele><time>2026-05-03T10:41:27Z</time></trkpt><trkpt lat="44.060953081709926" lon="11.571822811676343"><ele>407.5</ele><time>2026-05-03T10:41:28Z</time></trkpt><trkpt lat="44.060996690553665" lon="11.571977353996676"><ele>407.75</ele><time>2026-05-03T10:41:29Z</time></trkpt><trkpt lat="44.06103226189507" lon="11.572138608866569"><ele>408.0</ele><time>2026-05-03T10:41:30Z</time></trkpt><trkpt lat="44.061063796445026" lon="11.572296238548903"><ele>408.0</ele><time>2026-05-03T10:41:31Z</time></trkpt><trkpt lat="44.06109300445402" lon="11.57244668979845"><ele>408.0</ele><time>2026-05-03T10:41:32Z</time></trkpt><trkpt lat="44.06112594266978" lon="11.57259550343338"><ele>408.0</ele><time>2026-05-03T10:41:33Z</time></trkpt><trkpt lat="44.06115551766707" lon="11.572753374176546"><ele>408.0</ele><time>2026-05-03T10:41:34Z</time></trkpt><trkpt lat="44.061184030863636" lon="11.572912651692059"><ele>406.59999999999997</ele><time>2026-05-03T10:41:35Z</time></trkpt><trkpt lat="44.061211926400304" lon="11.573065704690361"><ele>405.2</ele><time>2026-05-03T10:41:36Z</time></trkpt><trkpt lat="44.061232429864994" lon="11.573208622429721"><ele>403.8</ele><time>2026-05-03T10:41:37Z</time></trkpt><trkpt lat="44.061249335322636" lon="11.573338543674629"><ele>402.4</ele><time>2026-05-03T10:41:38Z</time></trkpt><trkpt lat="44.0612650797317" lon="11.573461779793199"><ele>401.0</ele><time>2026-05-03T10:41:39Z</time></trkpt><trkpt lat="44.061280918658056" lon="11.57356932559197"><ele>400.99999999999994</ele><time>2026-05-03T10:41:40Z</time></trkpt><trkpt lat="44.06132698592013" lon="11.573640812478715"><ele>401.0</ele><time>2026-05-03T10:41:41Z</time></trkpt><trkpt lat="44.061404459602144" lon="11.573665958247295"><ele>401.0</ele><time>2026-05-03T10:41:42Z</time></trkpt><trkpt lat="44.06149314955459" lon="11.573651130006645"><ele>401.0</ele><time>2026-05-03T10:41:43Z</time></trkpt><trkpt lat="44.061576387521825" lon="11.573668472865844"><ele>400.99999999999994</ele><time>2026-05-03T10:41:44Z</time></trkpt><trkpt lat="44.0616406399434" lon="11.573747965754235"><ele>401.0</ele><time>2026-05-03T10:41:45Z</time></trkpt><trkpt lat="44.06167525951116" lon="11.57387548617958"><ele>400.4</ele><time>2026-05-03T10:41:46Z</time></trkpt><trkpt lat="44.06166800764643" lon="11.574011889093873"><ele>399.8</ele><time>2026-05-03T10:41:47Z</time></trkpt><trkpt lat="44.06163106042272" lon="11.574147515309813"><ele>399.2</ele><time>2026-05-03T10:41:48Z</time></trkpt><trkpt lat="44.061564039983" lon="11.574272631768649"><ele>398.59999999999997</ele><time>2026-05-03T10:41:49Z</time></trkpt><trkpt lat="44.06148038150378" lon="11.574370569396677"><ele>398.0</ele><time>2026-05-03T10:41:50Z</time></trkpt><trkpt lat="44.061409171522115" lon="11.574470034460322"><ele>398.66666666666663</ele><time>2026-05-03T10:41:51Z</time></trkpt><trkpt lat="44.061367035612065" lon="11.574641175970637"><ele>399.33333333333337</ele><time>2026-05-03T10:41:52Z</time></trkpt><trkpt lat="44.06131931761601" lon="11.57486573535886"><ele>400.0</ele><time>2026-05-03T10:41:53Z</time></trkpt><trkpt lat="44.06126747247726" lon="11.5750729481453"><ele>400.0</ele><time>2026-05-03T10:41:54Z</time></trkpt><trkpt lat="44.06120981025801" lon="11.575251974568308"><ele>400.0</ele><time>2026-05-03T10:41:55Z</time></trkpt><trkpt lat="44.06115352466083" lon="11.575414434011206"><ele>400.0</ele><time>2026-05-03T10:41:56Z</time></trkpt><trkpt lat="44.06110105827992" lon="11.57556591020132"><ele>400.0</ele><time>2026-05-03T10:41:57Z</time></trkpt><trkpt lat="44.061057006627514" lon="11.575719076279135"><ele>400.25</ele><time>2026-05-03T10:41:58Z</time></trkpt><trkpt lat="44.061036810485376" lon="11.575889114762143"><ele>400.5</ele><time>2026-05-03T10:41:59Z</time></trkpt><trkpt lat="44.06103836893509" lon="11.576081306651767"><ele>400.75</ele><time>2026-05-03T10:42:00Z</time></trkpt><trkpt lat="44.061045158819155" lon="11.576265815245048"><ele>401.0</ele><time>2026-05-03T10:42:01Z</time></trkpt><trkpt lat="44.06104560567302" lon="11.576439230982215"><ele>401.0</ele><time>2026-05-03T10:42:02Z</time></trkpt><trkpt lat="44.061040860661215" lon="11.57660321755262"><ele>401.0</ele><time>2026-05-03T10:42:03Z</time></trkpt><trkpt lat="44.06103865273271" lon="11.57676217101805"><ele>401.0</ele><time>2026-05-03T10:42:04Z</time></trkpt><trkpt lat="44.06103503413715" lon="11.576905810680833"><ele>401.0</ele><time>2026-05-03T10:42:05Z</time></trkpt><trkpt lat="44.06103568442845" lon="11.577056989058331"><ele>401.0</ele><time>2026-05-03T10:42:06Z</time></trkpt><trkpt lat="44.06105078523347" lon="11.57721601128171"><ele>400.5</ele><time>2026-05-03T10:42:07Z</time></trkpt><trkpt lat="44.06109192831667" lon="11.57738626179237"><ele>400.0</ele><time>2026-05-03T10:42:08Z</time></trkpt><trkpt lat="44.06114659333511" lon="11.577543630096255"><ele>399.5</ele><time>2026-05-03T10:42:09Z</time></trkpt><trkpt lat="44.06120714291343" lon="11.577686054044555"><ele>399.0</ele><time>2026-05-03T10:42:10Z</time></trkpt><trkpt lat="44.061256511100055" lon="11.577835035572818"><ele>399.0</ele><time>2026-05-03T10:42:11Z</time></trkpt><trkpt lat="44.06129915281505" lon="11.577974115324524"><ele>399.0</ele><time>2026-05-03T10:42:12Z</time></trkpt><trkpt lat="44.06133351983503" lon="11.578110544249158"><ele>399.0</ele><time>2026-05-03T10:42:13Z</time></trkpt><trkpt lat="44.06134167114748" lon="11.578240731099278"><ele>399.0</ele><time>2026-05-03T10:42:14Z</time></trkpt><trkpt lat="44.061309776619964" lon="11.578362609869297"><ele>399.0</ele><time>2026-05-03T10:42:15Z</time></trkpt><trkpt lat="44.06123570428305" lon="11.578473486778117"><ele>399.0</ele><time>2026-05-03T10:42:16Z</time></trkpt><trkpt lat="44.06114785115597" lon="11.578564060249096"><ele>399.0</ele><time>2026-05-03T10:42:17Z</time></trkpt><trkpt lat="44.061085924353996" lon="11.578661297872442"><ele>399.0</ele><time>2026-05-03T10:42:18Z</time></trkpt><trkpt lat="44.06104429315541" lon="11.578807767272137"><ele>399.0</ele><time>2026-05-03T10:42:19Z</time></trkpt><trkpt lat="44.06104052154043" lon="11.57897234345116"><ele>399.0</ele><time>2026-05-03T10:42:20Z</time></trkpt><trkpt lat="44.06105165281927" lon="11.579142165851636"><ele>399.25</ele><time>2026-05-03T10:42:21Z</time></trkpt><trkpt lat="44.06104710970556" lon="11.579292506393223"><ele>399.5</ele><time>2026-05-03T10:42:22Z</time></trkpt><trkpt lat="44.06105641087598" lon="11.579458482207832"><ele>399.75</ele><time>2026-05-03T10:42:23Z</time></trkpt><trkpt lat="44.06109827459964" lon="11.579620783542094"><ele>400.0</ele><time>2026-05-03T10:42:24Z</time></trkpt><trkpt lat="44.06117503534184" lon="11.579783986520072"><ele>397.75</ele><time>2026-05-03T10:42:25Z</time></trkpt><trkpt lat="44.061262001505604" lon="11.579938065999045"><ele>395.5</ele><time>2026-05-03T10:42:26Z</time></trkpt><trkpt lat="44.06134087590246" lon="11.580100477259164"><ele>393.25</ele><time>2026-05-03T10:42:27Z</time></trkpt><trkpt lat="44.06140805728357" lon="11.58026670484882"><ele>391.0</ele><time>2026-05-03T10:42:28Z</time></trkpt><trkpt lat="44.061464841010796" lon="11.580434424014799"><ele>390.25</ele><time>2026-05-03T10:42:29Z</time></trkpt><trkpt lat="44.06150222507975" lon="11.58060014857599"><ele>389.5</ele><time>2026-05-03T10:42:30Z</time></trkpt><trkpt lat="44.06152162961029" lon="11.580774285778743"><ele>388.75</ele><time>2026-05-03T10:42:31Z</time></trkpt><trkpt lat="44.06152774346898" lon="11.58094465877868"><ele>388.0</ele><time>2026-05-03T10:42:32Z</time></trkpt><trkpt lat="44.06151873437269" lon="11.581108184120135"><ele>387.75</ele><time>2026-05-03T10:42:33Z</time></trkpt><trkpt lat="44.06150665933903" lon="11.581290886239431"><ele>387.5</ele><time>2026-05-03T10:42:34Z</time></trkpt><trkpt lat="44.06149536148331" lon="11.581455749857083"><ele>387.25</ele><time>2026-05-03T10:42:35Z</time></trkpt><trkpt lat="44.061485090497605" lon="11.581625246659817"><ele>387.0</ele><time>2026-05-03T10:42:36Z</time></trkpt><trkpt lat="44.06146622743905" lon="11.581785419114262"><ele>387.0</ele><time>2026-05-03T10:42:37Z</time></trkpt><trkpt lat="44.061446333009464" lon="11.581943424245361"><ele>387.0</ele><time>2026-05-03T10:42:38Z</time></trkpt><trkpt lat="44.061410615360295" lon="11.582096381549553"><ele>387.0</ele><time>2026-05-03T10:42:39Z</time></trkpt><trkpt lat="44.061364728306586" lon="11.582246170072853"><ele>387.0</ele><time>2026-05-03T10:42:40Z</time></trkpt><trkpt lat="44.061309692279245" lon="11.582390141616793"><ele>386.0</ele><time>2026-05-03T10:42:41Z</time></trkpt><trkpt lat="44.061260310541044" lon="11.582552510325621"><ele>385.0</ele><time>2026-05-03T10:42:42Z</time></trkpt><trkpt lat="44.06119936912582" lon="11.5827002631607"><ele>384.0</ele><time>2026-05-03T10:42:43Z</time></trkpt><trkpt lat="44.061145395927376" lon="11.582852989601296"><ele>383.0</ele><time>2026-05-03T10:42:44Z</time></trkpt><trkpt lat="44.061079450012926" lon="11.582987856861617"><ele>382.5</ele><time>2026-05-03T10:42:45Z</time></trkpt><trkpt lat="44.06100521188655" lon="11.583101309832314"><ele>382.0</ele><time>2026-05-03T10:42:46Z</time></trkpt><trkpt lat="44.06092286594785" lon="11.583211544016937"><ele>381.5</ele><time>2026-05-03T10:42:47Z</time></trkpt><trkpt lat="44.06083296502303" lon="11.58330815780878"><ele>381.0</ele><time>2026-05-03T10:42:48Z</time></trkpt><trkpt lat="44.06073243103622" lon="11.583392326667932"><ele>381.0</ele><time>2026-05-03T10:42:49Z</time></trkpt><trkpt lat="44.060631400113586" lon="11.583471867260437"><ele>381.0</ele><time>2026-05-03T10:42:50Z</time></trkpt><trkpt lat="44.06053029806202" lon="11.583563618061843"><ele>381.0</ele><time>2026-05-03T10:42:51Z</time></trkpt><trkpt lat="44.06043044881521" lon="11.583661052222403"><ele>381.0</ele><time>2026-05-03T10:42:52Z</time></trkpt><trkpt lat="44.060329170124625" lon="11.583763401882557"><ele>381.0</ele><time>2026-05-03T10:42:53Z</time></trkpt><trkpt lat="44.06022328518713" lon="11.58387122008225"><ele>381.0</ele><time>2026-05-03T10:42:54Z</time></trkpt><trkpt lat="44.06011443103078" lon="11.583977875990874"><ele>381.0</ele><time>2026-05-03T10:42:55Z</time></trkpt><trkpt lat="44.060003932703815" lon="11.584085784208781"><ele>381.0</ele><time>2026-05-03T10:42:56Z</time></trkpt><trkpt lat="44.05989175770185" lon="11.584188424636771"><ele>381.0</ele><time>2026-05-03T10:42:57Z</time></trkpt><trkpt lat="44.05978243745675" lon="11.584295199740934"><ele>381.0</ele><time>2026-05-03T10:42:58Z</time></trkpt><trkpt lat="44.05967881690116" lon="11.584400292317644"><ele>381.0</ele><time>2026-05-03T10:42:59Z</time></trkpt><trkpt lat="44.05958506823262" lon="11.584517449190406"><ele>381.0</ele><time>2026-05-03T10:43:00Z</time></trkpt><trkpt lat="44.05949788879246" lon="11.584655744626685"><ele>379.4</ele><time>2026-05-03T10:43:01Z</time></trkpt><trkpt lat="44.05942400387816" lon="11.584795200508093"><ele>377.8</ele><time>2026-05-03T10:43:02Z</time></trkpt><trkpt lat="44.05935645931873" lon="11.584927269974557"><ele>376.2</ele><time>2026-05-03T10:43:03Z</time></trkpt><trkpt lat="44.05930283245885" lon="11.585056143454075"><ele>374.59999999999997</ele><time>2026-05-03T10:43:04Z</time></trkpt><trkpt lat="44.05925584201358" lon="11.58517070711656"><ele>373.0</ele><time>2026-05-03T10:43:05Z</time></trkpt><trkpt lat="44.059253464996594" lon="11.585308539468103"><ele>372.79999999999995</ele><time>2026-05-03T10:43:06Z</time></trkpt><trkpt lat="44.059304696773246" lon="11.585425748773478"><ele>372.6</ele><time>2026-05-03T10:43:07Z</time></trkpt><trkpt lat="44.05937538975259" lon="11.585540392484578"><ele>372.4</ele><time>2026-05-03T10:43:08Z</time></trkpt><trkpt lat="44.05946123204168" lon="11.585622936194277"><ele>372.20000000000005</ele><time>2026-05-03T10:43:09Z</time></trkpt><trkpt lat="44.05956509481326" lon="11.585669997523118"><ele>372.0</ele><time>2026-05-03T10:43:10Z</time></trkpt><trkpt lat="44.05968854967031" lon="11.585675867742319"><ele>372.0</ele><time>2026-05-03T10:43:11Z</time></trkpt><trkpt lat="44.05981809181066" lon="11.585662741715257"><ele>372.0</ele><time>2026-05-03T10:43:12Z</time></trkpt><trkpt lat="44.05993880292186" lon="11.585654447614893"><ele>372.0</ele><time>2026-05-03T10:43:13Z</time></trkpt><trkpt lat="44.06006336422687" lon="11.585649276186732"><ele>372.0</ele><time>2026-05-03T10:43:14Z</time></trkpt><trkpt lat="44.060193564370635" lon="11.585649353957072"><ele>371.0</ele><time>2026-05-03T10:43:15Z</time></trkpt><trkpt lat="44.060322773777294" lon="11.585642847670979"><ele>370.0</ele><time>2026-05-03T10:43:16Z</time></trkpt><trkpt lat="44.06045040972816" lon="11.585634354813534"><ele>369.0</ele><time>2026-05-03T10:43:17Z</time></trkpt><trkpt lat="44.06058054678269" lon="11.585627076404009"><ele>368.0</ele><time>2026-05-03T10:43:18Z</time></trkpt><trkpt lat="44.06071214832786" lon="11.585623485116288"><ele>367.5</ele><time>2026-05-03T10:43:19Z</time></trkpt><trkpt lat="44.060842460440426" lon="11.585621402904057"><ele>367.0</ele><time>2026-05-03T10:43:20Z</time></trkpt><trkpt lat="44.06096603955169" lon="11.585619851488847"><ele>366.5</ele><time>2026-05-03T10:43:21Z</time></trkpt><trkpt lat="44.061086232367494" lon="11.58562193906222"><ele>366.0</ele><time>2026-05-03T10:43:22Z</time></trkpt><trkpt lat="44.061200945717495" lon="11.585629604125073"><ele>366.0</ele><time>2026-05-03T10:43:23Z</time></trkpt><trkpt lat="44.06131018616804" lon="11.585662160672902"><ele>366.0</ele><time>2026-05-03T10:43:24Z</time></trkpt><trkpt lat="44.06141078007133" lon="11.58571797723284"><ele>366.0</ele><time>2026-05-03T10:43:25Z</time></trkpt><trkpt lat="44.06151380248901" lon="11.585781401882507"><ele>366.0</ele><time>2026-05-03T10:43:26Z</time></trkpt><trkpt lat="44.06161489737634" lon="11.585845237966893"><ele>366.0</ele><time>2026-05-03T10:43:27Z</time></trkpt><trkpt lat="44.0617099705515" lon="11.585919010304062"><ele>366.0</ele><time>2026-05-03T10:43:28Z</time></trkpt><trkpt lat="44.061795095215416" lon="11.586004248551266"><ele>366.0</ele><time>2026-05-03T10:43:29Z</time></trkpt><trkpt lat="44.06186380755025" lon="11.586095554239254"><ele>366.0</ele><time>2026-05-03T10:43:30Z</time></trkpt><trkpt lat="44.0619131291422" lon="11.586222004250525"><ele>366.0</ele><time>2026-05-03T10:43:31Z</time></trkpt><trkpt lat="44.06194146642143" lon="11.586370303760662"><ele>366.0</ele><time>2026-05-03T10:43:32Z</time></trkpt><trkpt lat="44.061952933324704" lon="11.586531331630972"><ele>366.0</ele><time>2026-05-03T10:43:33Z</time></trkpt><trkpt lat="44.06194672860433" lon="11.586709726885546"><ele>366.0</ele><time>2026-05-03T10:43:34Z</time></trkpt><trkpt lat="44.06192667966647" lon="11.586895317272454"><ele>366.0</ele><time>2026-05-03T10:43:35Z</time></trkpt><trkpt lat="44.061890026113076" lon="11.587089533335726"><ele>366.0</ele><time>2026-05-03T10:43:36Z</time></trkpt><trkpt lat="44.061852187850064" lon="11.587263778127825"><ele>366.5</ele><time>2026-05-03T10:43:37Z</time></trkpt><trkpt lat="44.06181682316039" lon="11.587433801766279"><ele>367.0</ele><time>2026-05-03T10:43:38Z</time></trkpt><trkpt lat="44.06178250614381" lon="11.58758921470979"><ele>367.5</ele><time>2026-05-03T10:43:39Z</time></trkpt><trkpt lat="44.06174829025904" lon="11.587741916090073"><ele>368.0</ele><time>2026-05-03T10:43:40Z</time></trkpt><trkpt lat="44.0617135252591" lon="11.587889999565064"><ele>368.0</ele><time>2026-05-03T10:43:41Z</time></trkpt><trkpt lat="44.061679481651716" lon="11.5880365824311"><ele>368.0</ele><time>2026-05-03T10:43:42Z</time></trkpt><trkpt lat="44.06164633491445" lon="11.588183515117604"><ele>368.0</ele><time>2026-05-03T10:43:43Z</time></trkpt><trkpt lat="44.06161041354918" lon="11.588329942115244"><ele>368.0</ele><time>2026-05-03T10:43:44Z</time></trkpt><trkpt lat="44.06157769066622" lon="11.588476994241576"><ele>368.0</ele><time>2026-05-03T10:43:45Z</time></trkpt><trkpt lat="44.0615402156385" lon="11.588622862070213"><ele>367.79999999999995</ele><time>2026-05-03T10:43:46Z</time></trkpt><trkpt lat="44.06150521656433" lon="11.588763725939272"><ele>367.6</ele><time>2026-05-03T10:43:47Z</time></trkpt><trkpt lat="44.06147567303305" lon="11.588892237649604"><ele>367.4</ele><time>2026-05-03T10:43:48Z</time></trkpt><trkpt lat="44.06145264715783" lon="11.589024935180667"><ele>367.20000000000005</ele><time>2026-05-03T10:43:49Z</time></trkpt><trkpt lat="44.06145398582502" lon="11.589160745992315"><ele>367.0</ele><time>2026-05-03T10:43:50Z</time></trkpt><trkpt lat="44.061485002642314" lon="11.589300873049595"><ele>367.0</ele><time>2026-05-03T10:43:51Z</time></trkpt><trkpt lat="44.061515621994346" lon="11.589427418650127"><ele>367.0</ele><time>2026-05-03T10:43:52Z</time></trkpt><trkpt lat="44.06154430087335" lon="11.589551415671863"><ele>367.0</ele><time>2026-05-03T10:43:53Z</time></trkpt><trkpt lat="44.061596121000406" lon="11.589664387303301"><ele>367.0</ele><time>2026-05-03T10:43:54Z</time></trkpt><trkpt lat="44.06168032478326" lon="11.58978378931762"><ele>367.0</ele><time>2026-05-03T10:43:55Z</time></trkpt><trkpt lat="44.061785796775" lon="11.589896306647251"><ele>364.66666666666663</ele><time>2026-05-03T10:43:56Z</time></trkpt><trkpt lat="44.061904630272316" lon="11.590025806449049"><ele>362.3333333333333</ele><time>2026-05-03T10:43:57Z</time></trkpt><trkpt lat="44.06203262008233" lon="11.590169889285718"><ele>360.0</ele><time>2026-05-03T10:43:58Z</time></trkpt><trkpt lat="44.06215159309023" lon="11.590312134748903"><ele>359.75</ele><time>2026-05-03T10:43:59Z</time></trkpt><trkpt lat="44.06226624902312" lon="11.590433334895392"><ele>359.5</ele><time>2026-05-03T10:44:00Z</time></trkpt><trkpt lat="44.06237384241555" lon="11.590564203474624"><ele>359.25</ele><time>2026-05-03T10:44:01Z</time></trkpt><trkpt lat="44.06247851614443" lon="11.590679016926861"><ele>359.0</ele><time>2026-05-03T10:44:02Z</time></trkpt><trkpt lat="44.062576210899834" lon="11.590786169559802"><ele>359.0</ele><time>2026-05-03T10:44:03Z</time></trkpt><trkpt lat="44.06266880792664" lon="11.590891609932955"><ele>359.0</ele><time>2026-05-03T10:44:04Z</time></trkpt><trkpt lat="44.06276030490829" lon="11.590998839774109"><ele>359.0</ele><time>2026-05-03T10:44:05Z</time></trkpt><trkpt lat="44.062845325175935" lon="11.591108859535241"><ele>359.0</ele><time>2026-05-03T10:44:06Z</time></trkpt><trkpt lat="44.062927362802476" lon="11.591225719522667"><ele>358.0</ele><time>2026-05-03T10:44:07Z</time></trkpt><trkpt lat="44.062994766627774" lon="11.591353971709726"><ele>357.0</ele><time>2026-05-03T10:44:08Z</time></trkpt><trkpt lat="44.063052406371554" lon="11.591496893816974"><ele>356.0</ele><time>2026-05-03T10:44:09Z</time></trkpt><trkpt lat="44.06309748104634" lon="11.591649456778086"><ele>355.0</ele><time>2026-05-03T10:44:10Z</time></trkpt><trkpt lat="44.06313836448714" lon="11.591811633939304"><ele>355.0</ele><time>2026-05-03T10:44:11Z</time></trkpt><trkpt lat="44.06317063981519" lon="11.591977620992285"><ele>355.0</ele><time>2026-05-03T10:44:12Z</time></trkpt><trkpt lat="44.063197394807574" lon="11.592149079553879"><ele>355.0</ele><time>2026-05-03T10:44:13Z</time></trkpt><trkpt lat="44.06322754238057" lon="11.592323094876503"><ele>355.0</ele><time>2026-05-03T10:44:14Z</time></trkpt><trkpt lat="44.06325407777479" lon="11.592513468839366"><ele>354.0</ele><time>2026-05-03T10:44:15Z</time></trkpt><trkpt lat="44.063277526989786" lon="11.592688643693817"><ele>353.0</ele><time>2026-05-03T10:44:16Z</time></trkpt><trkpt lat="44.06329799785529" lon="11.592864408857816"><ele>352.0</ele><time>2026-05-03T10:44:17Z</time></trkpt><trkpt lat="44.06332005667751" lon="11.593037423033438"><ele>351.0</ele><time>2026-05-03T10:44:18Z</time></trkpt><trkpt lat="44.0633434180213" lon="11.593208555643386"><ele>351.0</ele><time>2026-05-03T10:44:19Z</time></trkpt><trkpt lat="44.06336516552414" lon="11.593382109843992"><ele>351.0</ele><time>2026-05-03T10:44:20Z</time></trkpt><trkpt lat="44.06337932862451" lon="11.593552703637405"><ele>351.0</ele><time>2026-05-03T10:44:21Z</time></trkpt><trkpt lat="44.063388811478596" lon="11.593730167419265"><ele>351.0</ele><time>2026-05-03T10:44:22Z</time></trkpt><trkpt lat="44.06339327241213" lon="11.593900625994461"><ele>351.0</ele><time>2026-05-03T10:44:23Z</time></trkpt><trkpt lat="44.06339309090566" lon="11.594068302450008"><ele>351.0</ele><time>2026-05-03T10:44:24Z</time></trkpt><trkpt lat="44.06339381247453" lon="11.594238033471594"><ele>351.0</ele><time>2026-05-03T10:44:25Z</time></trkpt><trkpt lat="44.06339879277212" lon="11.594405516396302"><ele>351.0</ele><time>2026-05-03T10:44:26Z</time></trkpt><trkpt lat="44.06340480009646" lon="11.594568468818837"><ele>350.0</ele><time>2026-05-03T10:44:27Z</time></trkpt><trkpt lat="44.06341526828355" lon="11.594724490963031"><ele>349.0</ele><time>2026-05-03T10:44:28Z</time></trkpt><trkpt lat="44.06342745220183" lon="11.59488097142805"><ele>348.0</ele><time>2026-05-03T10:44:29Z</time></trkpt><trkpt lat="44.06344153219947" lon="11.595040879352853"><ele>347.0</ele><time>2026-05-03T10:44:30Z</time></trkpt><trkpt lat="44.063452504407664" lon="11.595205184846282"><ele>346.75</ele><time>2026-05-03T10:44:31Z</time></trkpt><trkpt lat="44.063467878698205" lon="11.595368699454363"><ele>346.5</ele><time>2026-05-03T10:44:32Z</time></trkpt><trkpt lat="44.06348903788296" lon="11.595537014812"><ele>346.25</ele><time>2026-05-03T10:44:33Z</time></trkpt><trkpt lat="44.06351983396347" lon="11.59570219064275"><ele>346.0</ele><time>2026-05-03T10:44:34Z</time></trkpt><trkpt lat="44.06356181202226" lon="11.595866656383059"><ele>346.0</ele><time>2026-05-03T10:44:35Z</time></trkpt><trkpt lat="44.063614671449635" lon="11.596028048345628"><ele>346.0</ele><time>2026-05-03T10:44:36Z</time></trkpt><trkpt lat="44.063675704840435" lon="11.596182797953198"><ele>346.0</ele><time>2026-05-03T10:44:37Z</time></trkpt><trkpt lat="44.06375047955419" lon="11.596324825984464"><ele>346.0</ele><time>2026-05-03T10:44:38Z</time></trkpt><trkpt lat="44.06384544593978" lon="11.596455306598813"><ele>346.0</ele><time>2026-05-03T10:44:39Z</time></trkpt><trkpt lat="44.06395286751091" lon="11.596571781570612"><ele>346.0</ele><time>2026-05-03T10:44:40Z</time></trkpt><trkpt lat="44.06406243716872" lon="11.59668102968666"><ele>346.0</ele><time>2026-05-03T10:44:41Z</time></trkpt><trkpt lat="44.06416926289099" lon="11.596796677106875"><ele>346.0</ele><time>2026-05-03T10:44:42Z</time></trkpt><trkpt lat="44.06427307140487" lon="11.59692137675207"><ele>345.75</ele><time>2026-05-03T10:44:43Z</time></trkpt><trkpt lat="44.06437170246177" lon="11.597047599562643"><ele>345.5</ele><time>2026-05-03T10:44:44Z</time></trkpt><trkpt lat="44.0644636480164" lon="11.597176244171907"><ele>345.25</ele><time>2026-05-03T10:44:45Z</time></trkpt><trkpt lat="44.06454618895329" lon="11.597298496234854"><ele>345.0</ele><time>2026-05-03T10:44:46Z</time></trkpt><trkpt lat="44.06462261777473" lon="11.59741857732096"><ele>345.0</ele><time>2026-05-03T10:44:47Z</time></trkpt><trkpt lat="44.06469679164326" lon="11.59754924716683"><ele>345.0</ele><time>2026-05-03T10:44:48Z</time></trkpt><trkpt lat="44.06475737634681" lon="11.597684968419818"><ele>345.0</ele><time>2026-05-03T10:44:49Z</time></trkpt><trkpt lat="44.06480656551122" lon="11.597830956608327"><ele>345.0</ele><time>2026-05-03T10:44:50Z</time></trkpt><trkpt lat="44.06484466014556" lon="11.597983409675793"><ele>344.5</ele><time>2026-05-03T10:44:51Z</time></trkpt><trkpt lat="44.06487309971155" lon="11.598139748293127"><ele>344.0</ele><time>2026-05-03T10:44:52Z</time></trkpt><trkpt lat="44.06489720574436" lon="11.598303165764426"><ele>343.5</ele><time>2026-05-03T10:44:53Z</time></trkpt><trkpt lat="44.06492188145966" lon="11.598468287586167"><ele>343.0</ele><time>2026-05-03T10:44:54Z</time></trkpt><trkpt lat="44.06494694620906" lon="11.598622904581294"><ele>343.2</ele><time>2026-05-03T10:44:55Z</time></trkpt><trkpt lat="44.06497111048798" lon="11.598771775570876"><ele>343.4</ele><time>2026-05-03T10:44:56Z</time></trkpt><trkpt lat="44.06500073349095" lon="11.598918451618166"><ele>343.59999999999997</ele><time>2026-05-03T10:44:57Z</time></trkpt><trkpt lat="44.06502857902451" lon="11.599051092015788"><ele>343.79999999999995</ele><time>2026-05-03T10:44:58Z</time></trkpt><trkpt lat="44.06505435237994" lon="11.599176343684109"><ele>344.0</ele><time>2026-05-03T10:44:59Z</time></trkpt><trkpt lat="44.06508182560054" lon="11.599296600427818"><ele>344.0</ele><time>2026-05-03T10:45:00Z</time></trkpt><trkpt lat="44.06510981664942" lon="11.599431769764964"><ele>344.0</ele><time>2026-05-03T10:45:01Z</time></trkpt><trkpt lat="44.06513791931771" lon="11.59956209699525"><ele>344.0</ele><time>2026-05-03T10:45:02Z</time></trkpt><trkpt lat="44.06516685597031" lon="11.599698032730283"><ele>344.0</ele><time>2026-05-03T10:45:03Z</time></trkpt><trkpt lat="44.06519731231771" lon="11.599828787009226"><ele>344.0</ele><time>2026-05-03T10:45:04Z</time></trkpt><trkpt lat="44.065224126364484" lon="11.599952495302217"><ele>343.2</ele><time>2026-05-03T10:45:05Z</time></trkpt><trkpt lat="44.065251465972196" lon="11.600080085618764"><ele>342.4</ele><time>2026-05-03T10:45:06Z</time></trkpt><trkpt lat="44.06528158834911" lon="11.60020614235459"><ele>341.6</ele><time>2026-05-03T10:45:07Z</time></trkpt><trkpt lat="44.06531137626054" lon="11.600333321874107"><ele>340.8</ele><time>2026-05-03T10:45:08Z</time></trkpt><trkpt lat="44.06534040133501" lon="11.600465286030834"><ele>340.0</ele><time>2026-05-03T10:45:09Z</time></trkpt><trkpt lat="44.06535685540883" lon="11.60060277788985"><ele>339.4</ele><time>2026-05-03T10:45:10Z</time></trkpt><trkpt lat="44.06535337480131" lon="11.600745190841973"><ele>338.8</ele><time>2026-05-03T10:45:11Z</time></trkpt><trkpt lat="44.065339475366585" lon="11.600886511912101"><ele>338.20000000000005</ele><time>2026-05-03T10:45:12Z</time></trkpt><trkpt lat="44.065326076557135" lon="11.601025662683746"><ele>337.6</ele><time>2026-05-03T10:45:13Z</time></trkpt><trkpt lat="44.0653129098511" lon="11.601149046853902"><ele>337.0</ele><time>2026-05-03T10:45:14Z</time></trkpt><trkpt lat="44.06530183742207" lon="11.601258742424152"><ele>336.66666666666663</ele><time>2026-05-03T10:45:15Z</time></trkpt><trkpt lat="44.065294997805935" lon="11.60135097265185"><ele>336.3333333333333</ele><time>2026-05-03T10:45:16Z</time></trkpt><trkpt lat="44.065292232227414" lon="11.601504122740224"><ele>336.0</ele><time>2026-05-03T10:45:18Z</time></trkpt><trkpt lat="44.06524962533953" lon="11.601597162621704"><ele>335.6666666666667</ele><time>2026-05-03T10:45:22Z</time></trkpt><trkpt lat="44.06518662325151" lon="11.601610340236615"><ele>335.33333333333337</ele><time>2026-05-03T10:45:26Z</time></trkpt><trkpt lat="44.0651491724349" lon="11.601524561815504"><ele>335.0</ele><time>2026-05-03T10:45:39Z</time></trkpt><trkpt lat="44.06509819444671" lon="11.60162637011297"><ele>335.0</ele><time>2026-05-03T10:47:36Z</time></trkpt><trkpt lat="44.06489908233687" lon="11.601672805856541"><ele>335.0</ele><time>2026-05-03T10:47:52.019Z</time></trkpt><trkpt lat="44.06511389280972" lon="11.601532523244108"><ele>335.0</ele><time>2026-05-03T10:48:03.02Z</time></trkpt><trkpt lat="44.06505464938286" lon="11.60158458854699"><ele>335.0</ele><time>2026-05-03T10:55:43.999Z</time></trkpt><trkpt lat="44.065111157091884" lon="11.601536452205723"><ele>335.0</ele><time>2026-05-03T10:55:55.997Z</time></trkpt><trkpt lat="44.06519652631667" lon="11.601519149061119"><ele>335.0</ele><time>2026-05-03T11:05:01Z</time></trkpt><trkpt lat="44.06513604374645" lon="11.601548045671883"><ele>335.0</ele><time>2026-05-03T11:05:11Z</time></trkpt><trkpt lat="44.065198524929" lon="11.60161355308968"><ele>335.0</ele><time>2026-05-03T11:28:36.999Z</time></trkpt><trkpt lat="44.06529792187205" lon="11.60163642070473"><ele>335.0</ele><time>2026-05-03T11:28:38.999Z</time></trkpt><trkpt lat="44.06539084106267" lon="11.601697872090291"><ele>335.0</ele><time>2026-05-03T11:28:40.999Z</time></trkpt><trkpt lat="44.06544575021008" lon="11.601749687208684"><ele>335.0</ele><time>2026-05-03T11:28:41.999Z</time></trkpt><trkpt lat="44.06550421014242" lon="11.601823481262928"><ele>335.0</ele><time>2026-05-03T11:28:42.999Z</time></trkpt><trkpt lat="44.065571165474" lon="11.60188929277385"><ele>335.0</ele><time>2026-05-03T11:28:43.999Z</time></trkpt><trkpt lat="44.06564744531007" lon="11.60196649066846"><ele>335.0</ele><time>2026-05-03T11:28:44.999Z</time></trkpt><trkpt lat="44.065720356354525" lon="11.602040795837114"><ele>335.0</ele><time>2026-05-03T11:28:45.999Z</time></trkpt><trkpt lat="44.06578927288158" lon="11.602112328745275"><ele>335.1666666666667</ele><time>2026-05-03T11:28:46.999Z</time></trkpt><trkpt lat="44.06585782027988" lon="11.602190292709409"><ele>335.33333333333337</ele><time>2026-05-03T11:28:47.999Z</time></trkpt><trkpt lat="44.065922884611055" lon="11.602262893355766"><ele>335.5</ele><time>2026-05-03T11:28:48.999Z</time></trkpt><trkpt lat="44.06597641797945" lon="11.602342037160124"><ele>335.6666666666667</ele><time>2026-05-03T11:28:49.999Z</time></trkpt><trkpt lat="44.066044460618706" lon="11.602410832007154"><ele>335.8333333333333</ele><time>2026-05-03T11:28:50.999Z</time></trkpt><trkpt lat="44.066114962375934" lon="11.602503173393266"><ele>336.0</ele><time>2026-05-03T11:28:51.999Z</time></trkpt><trkpt lat="44.06619225218726" lon="11.602572483585721"><ele>336.0</ele><time>2026-05-03T11:28:52.999Z</time></trkpt><trkpt lat="44.066268317379084" lon="11.602661741504825"><ele>336.0</ele><time>2026-05-03T11:28:53.999Z</time></trkpt><trkpt lat="44.06635372983421" lon="11.6027472439071"><ele>336.0</ele><time>2026-05-03T11:28:54.999Z</time></trkpt><trkpt lat="44.066453510655144" lon="11.602878092527542"><ele>336.0</ele><time>2026-05-03T11:28:55.999Z</time></trkpt><trkpt lat="44.06657827351783" lon="11.60301742055111"><ele>336.0</ele><time>2026-05-03T11:28:56.999Z</time></trkpt><trkpt lat="44.06671005216622" lon="11.603167795210576"><ele>336.0</ele><time>2026-05-03T11:28:57.999Z</time></trkpt><trkpt lat="44.0668360975661" lon="11.603290481446122"><ele>336.0</ele><time>2026-05-03T11:28:58.999Z</time></trkpt><trkpt lat="44.066937694043716" lon="11.60341792266187"><ele>336.0</ele><time>2026-05-03T11:28:59.999Z</time></trkpt><trkpt lat="44.0670378391044" lon="11.603533791418174"><ele>336.0</ele><time>2026-05-03T11:29:00.999Z</time></trkpt><trkpt lat="44.0671483676397" lon="11.603650772350283"><ele>336.0</ele><time>2026-05-03T11:29:01.999Z</time></trkpt><trkpt lat="44.06725935095689" lon="11.603749289044217"><ele>336.0</ele><time>2026-05-03T11:29:02.999Z</time></trkpt><trkpt lat="44.067359977636954" lon="11.603869635244981"><ele>335.75</ele><time>2026-05-03T11:29:03.999Z</time></trkpt><trkpt lat="44.0674815111021" lon="11.603952640522037"><ele>335.5</ele><time>2026-05-03T11:29:04.999Z</time></trkpt><trkpt lat="44.06759628696876" lon="11.60405440527624"><ele>335.25</ele><time>2026-05-03T11:29:05.999Z</time></trkpt><trkpt lat="44.06770149035148" lon="11.604149557232386"><ele>335.0</ele><time>2026-05-03T11:29:06.999Z</time></trkpt><trkpt lat="44.06781077501731" lon="11.604241219927367"><ele>335.0</ele><time>2026-05-03T11:29:07.999Z</time></trkpt><trkpt lat="44.06793074690883" lon="11.604338255427002"><ele>335.0</ele><time>2026-05-03T11:29:08.999Z</time></trkpt><trkpt lat="44.068039666267424" lon="11.604464614914702"><ele>335.0</ele><time>2026-05-03T11:29:09.999Z</time></trkpt><trkpt lat="44.068166106626315" lon="11.60456892936008"><ele>335.0</ele><time>2026-05-03T11:29:10.999Z</time></trkpt><trkpt lat="44.06827125242052" lon="11.60469130564874"><ele>335.25</ele><time>2026-05-03T11:29:11.999Z</time></trkpt><trkpt lat="44.06837185616049" lon="11.604785715598126"><ele>335.5</ele><time>2026-05-03T11:29:12.999Z</time></trkpt><trkpt lat="44.068460032231236" lon="11.604864660668966"><ele>335.75</ele><time>2026-05-03T11:29:13.999Z</time></trkpt><trkpt lat="44.06855492740831" lon="11.60495524758494"><ele>336.0</ele><time>2026-05-03T11:29:14.999Z</time></trkpt><trkpt lat="44.06865188038111" lon="11.605047620370968"><ele>336.0</ele><time>2026-05-03T11:29:15.999Z</time></trkpt><trkpt lat="44.068747971586575" lon="11.605133066541125"><ele>336.0</ele><time>2026-05-03T11:29:16.999Z</time></trkpt><trkpt lat="44.068841784652015" lon="11.605214600530594"><ele>336.0</ele><time>2026-05-03T11:29:17.999Z</time></trkpt><trkpt lat="44.06893373020541" lon="11.605310569856949"><ele>336.0</ele><time>2026-05-03T11:29:18.999Z</time></trkpt><trkpt lat="44.06902561661437" lon="11.605402158704615"><ele>336.0</ele><time>2026-05-03T11:29:19.999Z</time></trkpt><trkpt lat="44.06911156439158" lon="11.605497562758709"><ele>336.0</ele><time>2026-05-03T11:29:20.999Z</time></trkpt><trkpt lat="44.06921637293013" lon="11.605582941230296"><ele>336.0</ele><time>2026-05-03T11:29:21.999Z</time></trkpt><trkpt lat="44.06931184342044" lon="11.60566561641035"><ele>336.0</ele><time>2026-05-03T11:29:22.999Z</time></trkpt><trkpt lat="44.06941350431265" lon="11.605743457531558"><ele>336.0</ele><time>2026-05-03T11:29:23.999Z</time></trkpt><trkpt lat="44.06951225053614" lon="11.605832806001409"><ele>336.0</ele><time>2026-05-03T11:29:25Z</time></trkpt><trkpt lat="44.069592696594995" lon="11.605913018787849"><ele>336.0</ele><time>2026-05-03T11:29:26Z</time></trkpt><trkpt lat="44.06968418816389" lon="11.605993886604686"><ele>336.0</ele><time>2026-05-03T11:29:27Z</time></trkpt><trkpt lat="44.069780776957444" lon="11.606069787037915"><ele>336.0</ele><time>2026-05-03T11:29:28Z</time></trkpt><trkpt lat="44.06988089942383" lon="11.606165003669583"><ele>337.0</ele><time>2026-05-03T11:29:29Z</time></trkpt><trkpt lat="44.06999118259643" lon="11.606252165885891"><ele>338.0</ele><time>2026-05-03T11:29:30Z</time></trkpt><trkpt lat="44.07010264291185" lon="11.606344311883577"><ele>339.0</ele><time>2026-05-03T11:29:31Z</time></trkpt><trkpt lat="44.07020473147968" lon="11.606424095172812"><ele>340.0</ele><time>2026-05-03T11:29:32Z</time></trkpt><trkpt lat="44.07029892482762" lon="11.60649529249859"><ele>340.0</ele><time>2026-05-03T11:29:33Z</time></trkpt><trkpt lat="44.07038675765418" lon="11.60657434635772"><ele>340.0</ele><time>2026-05-03T11:29:34Z</time></trkpt><trkpt lat="44.070486343359995" lon="11.606654816908291"><ele>340.0</ele><time>2026-05-03T11:29:35Z</time></trkpt><trkpt lat="44.07059261136584" lon="11.606738451904574"><ele>340.0</ele><time>2026-05-03T11:29:36Z</time></trkpt><trkpt lat="44.07069974340944" lon="11.606850202746498"><ele>338.75</ele><time>2026-05-03T11:29:37Z</time></trkpt><trkpt lat="44.07080653953859" lon="11.6069665876107"><ele>337.5</ele><time>2026-05-03T11:29:38Z</time></trkpt><trkpt lat="44.07091723352477" lon="11.607111805349996"><ele>336.25</ele><time>2026-05-03T11:29:39Z</time></trkpt><trkpt lat="44.07101658549217" lon="11.607264809715806"><ele>335.0</ele><time>2026-05-03T11:29:40Z</time></trkpt><trkpt lat="44.07112108413772" lon="11.607415305010505"><ele>335.0</ele><time>2026-05-03T11:29:41Z</time></trkpt><trkpt lat="44.07120864552322" lon="11.607536919004364"><ele>335.0</ele><time>2026-05-03T11:29:42Z</time></trkpt><trkpt lat="44.07129122315195" lon="11.607660019732975"><ele>335.0</ele><time>2026-05-03T11:29:43Z</time></trkpt><trkpt lat="44.07137705228319" lon="11.607784696852518"><ele>335.0</ele><time>2026-05-03T11:29:44Z</time></trkpt><trkpt lat="44.0714641698338" lon="11.607910995447114"><ele>333.75</ele><time>2026-05-03T11:29:45Z</time></trkpt><trkpt lat="44.07155776775631" lon="11.608042584216522"><ele>332.5</ele><time>2026-05-03T11:29:46Z</time></trkpt><trkpt lat="44.07165207369938" lon="11.608168062636599"><ele>331.25</ele><time>2026-05-03T11:29:47Z</time></trkpt><trkpt lat="44.071754139253905" lon="11.608285862411032"><ele>330.0</ele><time>2026-05-03T11:29:48Z</time></trkpt><trkpt lat="44.07186011016151" lon="11.608405561610558"><ele>330.0</ele><time>2026-05-03T11:29:49Z</time></trkpt><trkpt lat="44.07197294743587" lon="11.608520701060392"><ele>330.0</ele><time>2026-05-03T11:29:50Z</time></trkpt><trkpt lat="44.07209178171457" lon="11.608623415073156"><ele>330.0</ele><time>2026-05-03T11:29:51Z</time></trkpt><trkpt lat="44.072199718396234" lon="11.60870948799721"><ele>330.0</ele><time>2026-05-03T11:29:52Z</time></trkpt><trkpt lat="44.07230042015166" lon="11.608798573900707"><ele>331.25</ele><time>2026-05-03T11:29:53Z</time></trkpt><trkpt lat="44.07241143920107" lon="11.608898249888258"><ele>332.5</ele><time>2026-05-03T11:29:54Z</time></trkpt><trkpt lat="44.07252315047845" lon="11.608997200230181"><ele>333.75</ele><time>2026-05-03T11:29:55Z</time></trkpt><trkpt lat="44.07264369550857" lon="11.609101725686727"><ele>335.0</ele><time>2026-05-03T11:29:56Z</time></trkpt><trkpt lat="44.0727573705683" lon="11.609198899411137"><ele>335.0</ele><time>2026-05-03T11:29:57Z</time></trkpt><trkpt lat="44.07287567566406" lon="11.609297090113234"><ele>335.0</ele><time>2026-05-03T11:29:58Z</time></trkpt><trkpt lat="44.072998829452715" lon="11.609414563439426"><ele>335.0</ele><time>2026-05-03T11:29:59Z</time></trkpt><trkpt lat="44.0731237071794" lon="11.609528784566823"><ele>335.0</ele><time>2026-05-03T11:30:00Z</time></trkpt><trkpt lat="44.07323282991316" lon="11.609640396463849"><ele>334.25</ele><time>2026-05-03T11:30:01Z</time></trkpt><trkpt lat="44.07333738248117" lon="11.60975298784885"><ele>333.5</ele><time>2026-05-03T11:30:02Z</time></trkpt><trkpt lat="44.07343870537231" lon="11.609861764085279"><ele>332.75</ele><time>2026-05-03T11:30:03Z</time></trkpt><trkpt lat="44.07353552267691" lon="11.609969425276805"><ele>332.0</ele><time>2026-05-03T11:30:04Z</time></trkpt><trkpt lat="44.07363261004883" lon="11.610078621582161"><ele>332.0</ele><time>2026-05-03T11:30:05Z</time></trkpt><trkpt lat="44.0737263200882" lon="11.610186988545811"><ele>332.0</ele><time>2026-05-03T11:30:06Z</time></trkpt><trkpt lat="44.0738184066988" lon="11.610286320415181"><ele>332.0</ele><time>2026-05-03T11:30:07Z</time></trkpt><trkpt lat="44.07390936267938" lon="11.610384471218802"><ele>332.0</ele><time>2026-05-03T11:30:08Z</time></trkpt><trkpt lat="44.07400071549662" lon="11.610483706247399"><ele>331.75</ele><time>2026-05-03T11:30:09Z</time></trkpt><trkpt lat="44.07408921820529" lon="11.610583391444457"><ele>331.5</ele><time>2026-05-03T11:30:10Z</time></trkpt><trkpt lat="44.0741861137594" lon="11.610687048131984"><ele>331.25</ele><time>2026-05-03T11:30:11Z</time></trkpt><trkpt lat="44.074274703697014" lon="11.610797501530627"><ele>331.0</ele><time>2026-05-03T11:30:12Z</time></trkpt><trkpt lat="44.074373926628745" lon="11.61090454870751"><ele>331.0</ele><time>2026-05-03T11:30:13Z</time></trkpt><trkpt lat="44.074463469602335" lon="11.611016165747229"><ele>331.0</ele><time>2026-05-03T11:30:14Z</time></trkpt><trkpt lat="44.07455936820928" lon="11.611103892270332"><ele>331.0</ele><time>2026-05-03T11:30:15Z</time></trkpt><trkpt lat="44.07464833954982" lon="11.61120646985258"><ele>331.0</ele><time>2026-05-03T11:30:16Z</time></trkpt><trkpt lat="44.07472904930308" lon="11.611298182580843"><ele>331.20000000000005</ele><time>2026-05-03T11:30:17Z</time></trkpt><trkpt lat="44.074805747146684" lon="11.61138224166873"><ele>331.40000000000003</ele><time>2026-05-03T11:30:18Z</time></trkpt><trkpt lat="44.07488038880153" lon="11.611466874470949"><ele>331.6</ele><time>2026-05-03T11:30:18.999Z</time></trkpt><trkpt lat="44.07495602797813" lon="11.611530076384854"><ele>331.8</ele><time>2026-05-03T11:30:19.999Z</time></trkpt><trkpt lat="44.07505364547356" lon="11.611559439532108"><ele>332.0</ele><time>2026-05-03T11:30:20.999Z</time></trkpt><trkpt lat="44.07516517438935" lon="11.611559835837701"><ele>332.0</ele><time>2026-05-03T11:30:21.999Z</time></trkpt><trkpt lat="44.0752628193254" lon="11.611560756479607"><ele>332.0</ele><time>2026-05-03T11:30:22.999Z</time></trkpt><trkpt lat="44.07536166609572" lon="11.611596996310242"><ele>332.0</ele><time>2026-05-03T11:30:23.999Z</time></trkpt><trkpt lat="44.07546451900302" lon="11.611668559967992"><ele>332.0</ele><time>2026-05-03T11:30:24.999Z</time></trkpt><trkpt lat="44.075548561826" lon="11.611780057238454"><ele>332.0</ele><time>2026-05-03T11:30:25.999Z</time></trkpt><trkpt lat="44.075614431172234" lon="11.61190323918114"><ele>332.0</ele><time>2026-05-03T11:30:26.999Z</time></trkpt><trkpt lat="44.075690468052166" lon="11.612014345565758"><ele>332.0</ele><time>2026-05-03T11:30:27.999Z</time></trkpt><trkpt lat="44.07577939854006" lon="11.612130680010257"><ele>332.0</ele><time>2026-05-03T11:30:28.999Z</time></trkpt><trkpt lat="44.075838994425546" lon="11.61225066241092"><ele>332.0</ele><time>2026-05-03T11:30:29.999Z</time></trkpt><trkpt lat="44.07592333533147" lon="11.612355900368508"><ele>330.75</ele><time>2026-05-03T11:30:30.999Z</time></trkpt><trkpt lat="44.07602013585628" lon="11.612455230744533"><ele>329.5</ele><time>2026-05-03T11:30:31.999Z</time></trkpt><trkpt lat="44.07610938576272" lon="11.612572142911818"><ele>328.25</ele><time>2026-05-03T11:30:32.999Z</time></trkpt><trkpt lat="44.07618887984225" lon="11.612691193100114"><ele>327.0</ele><time>2026-05-03T11:30:33.999Z</time></trkpt><trkpt lat="44.07625473912023" lon="11.612827416384059"><ele>327.0</ele><time>2026-05-03T11:30:34.999Z</time></trkpt><trkpt lat="44.07630429712866" lon="11.612965550590848"><ele>327.0</ele><time>2026-05-03T11:30:35.999Z</time></trkpt><trkpt lat="44.076334470227394" lon="11.61310276001973"><ele>327.0</ele><time>2026-05-03T11:30:36.999Z</time></trkpt><trkpt lat="44.07636019574191" lon="11.613237009226356"><ele>327.0</ele><time>2026-05-03T11:30:37.999Z</time></trkpt><trkpt lat="44.07638118433465" lon="11.613351467544325"><ele>327.0</ele><time>2026-05-03T11:30:38.999Z</time></trkpt><trkpt lat="44.07643172020653" lon="11.613453086216957"><ele>327.0</ele><time>2026-05-03T11:30:39.999Z</time></trkpt><trkpt lat="44.07651425836463" lon="11.613510363117367"><ele>327.0</ele><time>2026-05-03T11:30:40.999Z</time></trkpt><trkpt lat="44.076617875710454" lon="11.613559269552695"><ele>327.0</ele><time>2026-05-03T11:30:41.999Z</time></trkpt><trkpt lat="44.07671731558674" lon="11.61358873540682"><ele>327.0</ele><time>2026-05-03T11:30:42.999Z</time></trkpt><trkpt lat="44.076822089145" lon="11.613622952981808"><ele>327.0</ele><time>2026-05-03T11:30:43.999Z</time></trkpt><trkpt lat="44.076925372433884" lon="11.613671808055324"><ele>326.0</ele><time>2026-05-03T11:30:44.999Z</time></trkpt><trkpt lat="44.077033424122185" lon="11.613703174069723"><ele>325.0</ele><time>2026-05-03T11:30:45.999Z</time></trkpt><trkpt lat="44.077147556145576" lon="11.613729054614437"><ele>324.0</ele><time>2026-05-03T11:30:46.999Z</time></trkpt><trkpt lat="44.07724342041022" lon="11.613767358224049"><ele>323.0</ele><time>2026-05-03T11:30:47.999Z</time></trkpt><trkpt lat="44.077341547994614" lon="11.613810463367109"><ele>322.0</ele><time>2026-05-03T11:30:48.999Z</time></trkpt><trkpt lat="44.07743632910964" lon="11.613858564763918"><ele>320.6</ele><time>2026-05-03T11:30:49.999Z</time></trkpt><trkpt lat="44.077521066268154" lon="11.613897882152935"><ele>319.20000000000005</ele><time>2026-05-03T11:30:50.999Z</time></trkpt><trkpt lat="44.07759952056463" lon="11.61394839124556"><ele>317.8</ele><time>2026-05-03T11:30:51.999Z</time></trkpt><trkpt lat="44.07767178329968" lon="11.614038329688068"><ele>316.4</ele><time>2026-05-03T11:30:52.999Z</time></trkpt><trkpt lat="44.077716343607044" lon="11.614154079529206"><ele>315.0</ele><time>2026-05-03T11:30:53.999Z</time></trkpt><trkpt lat="44.077739017658445" lon="11.614308628707956"><ele>315.0</ele><time>2026-05-03T11:30:54.999Z</time></trkpt><trkpt lat="44.07775806591316" lon="11.614465259627282"><ele>315.0</ele><time>2026-05-03T11:30:55.999Z</time></trkpt><trkpt lat="44.07779190121965" lon="11.614625231020664"><ele>315.0</ele><time>2026-05-03T11:30:56.999Z</time></trkpt><trkpt lat="44.07784231354241" lon="11.614771602251514"><ele>315.0</ele><time>2026-05-03T11:30:57.999Z</time></trkpt><trkpt lat="44.07791200449779" lon="11.614920655854503"><ele>314.8</ele><time>2026-05-03T11:30:58.999Z</time></trkpt><trkpt lat="44.077972602968266" lon="11.615047786304054"><ele>314.6</ele><time>2026-05-03T11:30:59.999Z</time></trkpt><trkpt lat="44.078039516303136" lon="11.61517830204527"><ele>314.4</ele><time>2026-05-03T11:31:00.999Z</time></trkpt><trkpt lat="44.078088621184115" lon="11.615315326326035"><ele>314.2</ele><time>2026-05-03T11:31:01.999Z</time></trkpt><trkpt lat="44.07814201509677" lon="11.615452733390347"><ele>314.0</ele><time>2026-05-03T11:31:02.999Z</time></trkpt><trkpt lat="44.07818076564134" lon="11.615606217415024"><ele>314.0</ele><time>2026-05-03T11:31:03.999Z</time></trkpt><trkpt lat="44.0782277746138" lon="11.615750928670836"><ele>314.0</ele><time>2026-05-03T11:31:04.999Z</time></trkpt><trkpt lat="44.07827470859229" lon="11.615891798363013"><ele>314.0</ele><time>2026-05-03T11:31:05.999Z</time></trkpt><trkpt lat="44.07831634677052" lon="11.616034100118446"><ele>314.0</ele><time>2026-05-03T11:31:06.999Z</time></trkpt><trkpt lat="44.078359061290875" lon="11.616187286926648"><ele>316.25</ele><time>2026-05-03T11:31:07.999Z</time></trkpt><trkpt lat="44.078394219186684" lon="11.616348604017697"><ele>318.5</ele><time>2026-05-03T11:31:08.999Z</time></trkpt><trkpt lat="44.07845873865823" lon="11.616507859788218"><ele>320.75</ele><time>2026-05-03T11:31:09.999Z</time></trkpt><trkpt lat="44.078521272485816" lon="11.616667356820818"><ele>323.0</ele><time>2026-05-03T11:31:10.999Z</time></trkpt><trkpt lat="44.07858128531038" lon="11.616813039560046"><ele>323.0</ele><time>2026-05-03T11:31:11.999Z</time></trkpt><trkpt lat="44.07863406672341" lon="11.616917611423307"><ele>323.0</ele><time>2026-05-03T11:31:12.999Z</time></trkpt><trkpt lat="44.07869122619433" lon="11.61703510914204"><ele>323.0</ele><time>2026-05-03T11:31:13.999Z</time></trkpt><trkpt lat="44.07874098054386" lon="11.617159689853054"><ele>323.0</ele><time>2026-05-03T11:31:14.999Z</time></trkpt><trkpt lat="44.07879747825133" lon="11.617284151834625"><ele>323.0</ele><time>2026-05-03T11:31:15.999Z</time></trkpt><trkpt lat="44.07885484715983" lon="11.617396690272708"><ele>323.0</ele><time>2026-05-03T11:31:16.999Z</time></trkpt><trkpt lat="44.07891533566221" lon="11.617513589846453"><ele>323.0</ele><time>2026-05-03T11:31:17.999Z</time></trkpt><trkpt lat="44.07897869469515" lon="11.617637130619242"><ele>323.0</ele><time>2026-05-03T11:31:18.999Z</time></trkpt><trkpt lat="44.07904432646234" lon="11.617759459640144"><ele>323.0</ele><time>2026-05-03T11:31:19.999Z</time></trkpt><trkpt lat="44.07911682364217" lon="11.617884777494663"><ele>323.0</ele><time>2026-05-03T11:31:20.999Z</time></trkpt><trkpt lat="44.079202371951546" lon="11.61800806222537"><ele>322.75</ele><time>2026-05-03T11:31:21.999Z</time></trkpt><trkpt lat="44.07929349182274" lon="11.618125581562799"><ele>322.5</ele><time>2026-05-03T11:31:22.999Z</time></trkpt><trkpt lat="44.079395504147136" lon="11.618244164842213"><ele>322.25</ele><time>2026-05-03T11:31:23.999Z</time></trkpt><trkpt lat="44.07950555418847" lon="11.618362558880166"><ele>322.0</ele><time>2026-05-03T11:31:24.999Z</time></trkpt><trkpt lat="44.079614337197334" lon="11.618479261412574"><ele>322.0</ele><time>2026-05-03T11:31:25.999Z</time></trkpt><trkpt lat="44.07973271135688" lon="11.618600326469583"><ele>322.0</ele><time>2026-05-03T11:31:26.999Z</time></trkpt><trkpt lat="44.07985636643943" lon="11.618722718487566"><ele>322.0</ele><time>2026-05-03T11:31:27.999Z</time></trkpt><trkpt lat="44.07998540310511" lon="11.618851073540712"><ele>322.5</ele><time>2026-05-03T11:31:28.999Z</time></trkpt><trkpt lat="44.08010524151036" lon="11.618974629564528"><ele>323.0</ele><time>2026-05-03T11:31:29.999Z</time></trkpt><trkpt lat="44.08021841473567" lon="11.619089472872343"><ele>323.5</ele><time>2026-05-03T11:31:31Z</time></trkpt><trkpt lat="44.080319309582976" lon="11.61919092059475"><ele>324.0</ele><time>2026-05-03T11:31:32Z</time></trkpt><trkpt lat="44.08042317676191" lon="11.619290266378535"><ele>324.0</ele><time>2026-05-03T11:31:33Z</time></trkpt><trkpt lat="44.080521745910076" lon="11.619394459407978"><ele>324.0</ele><time>2026-05-03T11:31:34Z</time></trkpt><trkpt lat="44.08062525214465" lon="11.619500215100022"><ele>324.0</ele><time>2026-05-03T11:31:35Z</time></trkpt><trkpt lat="44.080733384157874" lon="11.619608237477708"><ele>324.0</ele><time>2026-05-03T11:31:36Z</time></trkpt><trkpt lat="44.08083944762351" lon="11.61972506362025"><ele>324.0</ele><time>2026-05-03T11:31:37Z</time></trkpt><trkpt lat="44.08094119356808" lon="11.619839431477766"><ele>324.0</ele><time>2026-05-03T11:31:38Z</time></trkpt><trkpt lat="44.08104772147642" lon="11.61995992295362"><ele>324.0</ele><time>2026-05-03T11:31:39Z</time></trkpt><trkpt lat="44.08115442006436" lon="11.620078303828128"><ele>324.0</ele><time>2026-05-03T11:31:40Z</time></trkpt><trkpt lat="44.08125805157619" lon="11.620200874775529"><ele>324.25</ele><time>2026-05-03T11:31:41Z</time></trkpt><trkpt lat="44.08135392811045" lon="11.620321615322181"><ele>324.5</ele><time>2026-05-03T11:31:42Z</time></trkpt><trkpt lat="44.0814549259715" lon="11.620450532319353"><ele>324.75</ele><time>2026-05-03T11:31:43Z</time></trkpt><trkpt lat="44.08156208483279" lon="11.620590871138077"><ele>325.0</ele><time>2026-05-03T11:31:44Z</time></trkpt><trkpt lat="44.08165676759586" lon="11.620706154079997"><ele>325.0</ele><time>2026-05-03T11:31:45Z</time></trkpt><trkpt lat="44.081763243416006" lon="11.620833149272258"><ele>325.0</ele><time>2026-05-03T11:31:46Z</time></trkpt><trkpt lat="44.08185739740355" lon="11.62094766352622"><ele>325.0</ele><time>2026-05-03T11:31:47Z</time></trkpt><trkpt lat="44.08195493270769" lon="11.621067804507382"><ele>325.0</ele><time>2026-05-03T11:31:48Z</time></trkpt><trkpt lat="44.08203872138655" lon="11.621185843294933"><ele>323.5</ele><time>2026-05-03T11:31:49Z</time></trkpt><trkpt lat="44.08212938280133" lon="11.621293795279119"><ele>322.0</ele><time>2026-05-03T11:31:50Z</time></trkpt><trkpt lat="44.08221832516686" lon="11.621400009910003"><ele>320.5</ele><time>2026-05-03T11:31:51Z</time></trkpt><trkpt lat="44.08230473798886" lon="11.621502542930953"><ele>319.0</ele><time>2026-05-03T11:31:52Z</time></trkpt><trkpt lat="44.08238518266471" lon="11.621604634186923"><ele>318.8</ele><time>2026-05-03T11:31:53Z</time></trkpt><trkpt lat="44.08247313292029" lon="11.621701529525238"><ele>318.59999999999997</ele><time>2026-05-03T11:31:54Z</time></trkpt><trkpt lat="44.08254820634101" lon="11.621805319487851"><ele>318.4</ele><time>2026-05-03T11:31:55Z</time></trkpt><trkpt lat="44.08261256768257" lon="11.621895839225825"><ele>318.2</ele><time>2026-05-03T11:31:56Z</time></trkpt><trkpt lat="44.08266388657317" lon="11.621996804221881"><ele>318.0</ele><time>2026-05-03T11:31:57Z</time></trkpt><trkpt lat="44.08269926310526" lon="11.622090033975077"><ele>318.0</ele><time>2026-05-03T11:31:58Z</time></trkpt><trkpt lat="44.0827362280569" lon="11.622196274118737"><ele>318.0</ele><time>2026-05-03T11:31:59Z</time></trkpt><trkpt lat="44.08282517623423" lon="11.62226144051902"><ele>318.0</ele><time>2026-05-03T11:32:00Z</time></trkpt><trkpt lat="44.08290322756144" lon="11.622345087007536"><ele>318.0</ele><time>2026-05-03T11:32:01Z</time></trkpt><trkpt lat="44.082970447179875" lon="11.62245175122089"><ele>318.0</ele><time>2026-05-03T11:32:02Z</time></trkpt><trkpt lat="44.08305390724606" lon="11.622535252008662"><ele>318.0</ele><time>2026-05-03T11:32:03Z</time></trkpt><trkpt lat="44.08314224354124" lon="11.622619619811895"><ele>318.0</ele><time>2026-05-03T11:32:04Z</time></trkpt><trkpt lat="44.083233808552066" lon="11.622704303324255"><ele>318.0</ele><time>2026-05-03T11:32:05Z</time></trkpt><trkpt lat="44.08333087062668" lon="11.622794386110327"><ele>318.0</ele><time>2026-05-03T11:32:06Z</time></trkpt><trkpt lat="44.08343449061073" lon="11.622860014780272"><ele>318.0</ele><time>2026-05-03T11:32:07Z</time></trkpt><trkpt lat="44.083522163766105" lon="11.622934828395376"><ele>318.25</ele><time>2026-05-03T11:32:08Z</time></trkpt><trkpt lat="44.08361524190508" lon="11.62301626812694"><ele>318.5</ele><time>2026-05-03T11:32:09Z</time></trkpt><trkpt lat="44.08371539203029" lon="11.623094977976796"><ele>318.75</ele><time>2026-05-03T11:32:10Z</time></trkpt><trkpt lat="44.083814259596515" lon="11.623171933613559"><ele>319.0</ele><time>2026-05-03T11:32:11Z</time></trkpt><trkpt lat="44.08391546711486" lon="11.623248294253944"><ele>319.0</ele><time>2026-05-03T11:32:12Z</time></trkpt><trkpt lat="44.08402089765434" lon="11.623327747612743"><ele>319.0</ele><time>2026-05-03T11:32:13Z</time></trkpt><trkpt lat="44.08412764396603" lon="11.62339475405497"><ele>319.0</ele><time>2026-05-03T11:32:14Z</time></trkpt><trkpt lat="44.08422367920499" lon="11.623466749203764"><ele>319.0</ele><time>2026-05-03T11:32:15Z</time></trkpt><trkpt lat="44.084302636955485" lon="11.623536288745782"><ele>319.0</ele><time>2026-05-03T11:32:16Z</time></trkpt><trkpt lat="44.08438235567861" lon="11.623625898099608"><ele>319.2</ele><time>2026-05-03T11:32:17Z</time></trkpt><trkpt lat="44.08447232149466" lon="11.623694081720581"><ele>319.4</ele><time>2026-05-03T11:32:18Z</time></trkpt><trkpt lat="44.08455091399036" lon="11.623772614364533"><ele>319.6</ele><time>2026-05-03T11:32:19Z</time></trkpt><trkpt lat="44.08464299382457" lon="11.623844936704945"><ele>319.8</ele><time>2026-05-03T11:32:20Z</time></trkpt><trkpt lat="44.08473631967803" lon="11.623925681230972"><ele>320.0</ele><time>2026-05-03T11:32:21Z</time></trkpt><trkpt lat="44.084829992890896" lon="11.624016555498649"><ele>320.0</ele><time>2026-05-03T11:32:22Z</time></trkpt><trkpt lat="44.0849224946732" lon="11.62410055843783"><ele>320.0</ele><time>2026-05-03T11:32:22.999Z</time></trkpt><trkpt lat="44.0850137785992" lon="11.624172422236766"><ele>320.0</ele><time>2026-05-03T11:32:23.999Z</time></trkpt><trkpt lat="44.085111594866206" lon="11.624244719894827"><ele>320.0</ele><time>2026-05-03T11:32:24.999Z</time></trkpt><trkpt lat="44.085207500624286" lon="11.624335521553107"><ele>320.0</ele><time>2026-05-03T11:32:25.999Z</time></trkpt><trkpt lat="44.08529953321268" lon="11.62441148615813"><ele>320.0</ele><time>2026-05-03T11:32:26.999Z</time></trkpt><trkpt lat="44.08539136381112" lon="11.6244951089963"><ele>320.0</ele><time>2026-05-03T11:32:27.999Z</time></trkpt><trkpt lat="44.0854739171995" lon="11.62456507387488"><ele>320.0</ele><time>2026-05-03T11:32:28.999Z</time></trkpt><trkpt lat="44.085567423290414" lon="11.624632785483662"><ele>320.0</ele><time>2026-05-03T11:32:29.999Z</time></trkpt><trkpt lat="44.08566979372173" lon="11.624697593107665"><ele>320.0</ele><time>2026-05-03T11:32:30.999Z</time></trkpt><trkpt lat="44.08576534859717" lon="11.624763864563922"><ele>321.0</ele><time>2026-05-03T11:32:31.999Z</time></trkpt><trkpt lat="44.08588481242851" lon="11.62480015522294"><ele>322.0</ele><time>2026-05-03T11:32:32.999Z</time></trkpt><trkpt lat="44.08599590544174" lon="11.624838708500144"><ele>323.0</ele><time>2026-05-03T11:32:33.999Z</time></trkpt><trkpt lat="44.08610908312279" lon="11.624876591481407"><ele>324.0</ele><time>2026-05-03T11:32:34.999Z</time></trkpt><trkpt lat="44.08622478261638" lon="11.624912483555656"><ele>324.0</ele><time>2026-05-03T11:32:35.999Z</time></trkpt><trkpt lat="44.08633340129947" lon="11.624958283152512"><ele>324.0</ele><time>2026-05-03T11:32:36.999Z</time></trkpt><trkpt lat="44.08643543390776" lon="11.625017673400125"><ele>324.0</ele><time>2026-05-03T11:32:37.999Z</time></trkpt><trkpt lat="44.086539422049825" lon="11.625097431172149"><ele>324.0</ele><time>2026-05-03T11:32:38.999Z</time></trkpt><trkpt lat="44.08665053327299" lon="11.62518173527655"><ele>325.0</ele><time>2026-05-03T11:32:39.999Z</time></trkpt><trkpt lat="44.086778797007085" lon="11.62526645143065"><ele>326.0</ele><time>2026-05-03T11:32:40.999Z</time></trkpt><trkpt lat="44.086913327320204" lon="11.625357569388678"><ele>327.0</ele><time>2026-05-03T11:32:41.999Z</time></trkpt><trkpt lat="44.08704022544971" lon="11.625451305157858"><ele>328.0</ele><time>2026-05-03T11:32:42.999Z</time></trkpt><trkpt lat="44.08716394560747" lon="11.625535419969488"><ele>327.25</ele><time>2026-05-03T11:32:43.999Z</time></trkpt><trkpt lat="44.08728528333328" lon="11.625624319975273"><ele>326.5</ele><time>2026-05-03T11:32:44.999Z</time></trkpt><trkpt lat="44.08740588014593" lon="11.625718085699457"><ele>325.75</ele><time>2026-05-03T11:32:45.999Z</time></trkpt><trkpt lat="44.08752021844669" lon="11.62581262638098"><ele>325.0</ele><time>2026-05-03T11:32:46.999Z</time></trkpt><trkpt lat="44.0876234969337" lon="11.625919443556537"><ele>325.0</ele><time>2026-05-03T11:32:47.999Z</time></trkpt><trkpt lat="44.08770671732279" lon="11.626027575864288"><ele>325.0</ele><time>2026-05-03T11:32:48.999Z</time></trkpt><trkpt lat="44.087770275227285" lon="11.626139323451039"><ele>325.0</ele><time>2026-05-03T11:32:49.999Z</time></trkpt><trkpt lat="44.087824829966976" lon="11.626260198594936"><ele>325.0</ele><time>2026-05-03T11:32:50.999Z</time></trkpt><trkpt lat="44.0878703629885" lon="11.626390263268844"><ele>325.0</ele><time>2026-05-03T11:32:51.999Z</time></trkpt><trkpt lat="44.087923164503664" lon="11.626521631669238"><ele>325.75</ele><time>2026-05-03T11:32:52.999Z</time></trkpt><trkpt lat="44.088001425237216" lon="11.626637435541046"><ele>326.5</ele><time>2026-05-03T11:32:53.999Z</time></trkpt><trkpt lat="44.08810772764958" lon="11.626713512863592"><ele>327.25</ele><time>2026-05-03T11:32:54.999Z</time></trkpt><trkpt lat="44.08823015538979" lon="11.626757185962314"><ele>328.0</ele><time>2026-05-03T11:32:55.999Z</time></trkpt><trkpt lat="44.08834742689929" lon="11.62679116894669"><ele>328.0</ele><time>2026-05-03T11:32:56.999Z</time></trkpt><trkpt lat="44.08847167996271" lon="11.626769937229247"><ele>328.0</ele><time>2026-05-03T11:32:57.999Z</time></trkpt><trkpt lat="44.08860859358758" lon="11.62672552861991"><ele>328.0</ele><time>2026-05-03T11:32:58.999Z</time></trkpt><trkpt lat="44.08873449396542" lon="11.62668887430297"><ele>328.0</ele><time>2026-05-03T11:32:59.999Z</time></trkpt><trkpt lat="44.088857618905294" lon="11.626690554234932"><ele>328.0</ele><time>2026-05-03T11:33:00.999Z</time></trkpt><trkpt lat="44.088962861677686" lon="11.6267148859514"><ele>328.0</ele><time>2026-05-03T11:33:01.999Z</time></trkpt><trkpt lat="44.08906583850263" lon="11.626738202631481"><ele>328.0</ele><time>2026-05-03T11:33:02.999Z</time></trkpt><trkpt lat="44.089159752056666" lon="11.626763624541857"><ele>328.0</ele><time>2026-05-03T11:33:03.999Z</time></trkpt><trkpt lat="44.0892599766107" lon="11.626784970711036"><ele>328.0</ele><time>2026-05-03T11:33:04.999Z</time></trkpt><trkpt lat="44.089355664768235" lon="11.626808529828088"><ele>329.59999999999997</ele><time>2026-05-03T11:33:05.999Z</time></trkpt><trkpt lat="44.08945049885338" lon="11.626831506923429"><ele>331.2</ele><time>2026-05-03T11:33:06.999Z</time></trkpt><trkpt lat="44.0895513627829" lon="11.62684229699373"><ele>332.8</ele><time>2026-05-03T11:33:07.999Z</time></trkpt><trkpt lat="44.08966085644641" lon="11.626826286450102"><ele>334.4</ele><time>2026-05-03T11:33:08.999Z</time></trkpt><trkpt lat="44.08978190810066" lon="11.626782364709271"><ele>336.0</ele><time>2026-05-03T11:33:09.999Z</time></trkpt><trkpt lat="44.08991414541646" lon="11.62673624617042"><ele>336.75</ele><time>2026-05-03T11:33:10.999Z</time></trkpt><trkpt lat="44.09006514056615" lon="11.626696113535452"><ele>337.5</ele><time>2026-05-03T11:33:11.999Z</time></trkpt><trkpt lat="44.0901876975373" lon="11.626684628805133"><ele>338.25</ele><time>2026-05-03T11:33:12.999Z</time></trkpt><trkpt lat="44.090312295315236" lon="11.626645691915186"><ele>339.0</ele><time>2026-05-03T11:33:13.999Z</time></trkpt><trkpt lat="44.090423047914754" lon="11.626592320950989"><ele>339.0</ele><time>2026-05-03T11:33:14.999Z</time></trkpt><trkpt lat="44.090534487604266" lon="11.626551121549845"><ele>339.0</ele><time>2026-05-03T11:33:15.999Z</time></trkpt><trkpt lat="44.09065499968002" lon="11.62652981023708"><ele>339.0</ele><time>2026-05-03T11:33:16.999Z</time></trkpt><trkpt lat="44.0907682725898" lon="11.626520178444933"><ele>339.0</ele><time>2026-05-03T11:33:17.999Z</time></trkpt><trkpt lat="44.090871129703004" lon="11.626510381395201"><ele>339.0</ele><time>2026-05-03T11:33:18.999Z</time></trkpt><trkpt lat="44.09097859155324" lon="11.626498120249886"><ele>339.0</ele><time>2026-05-03T11:33:19.999Z</time></trkpt><trkpt lat="44.09109261225832" lon="11.62647785039154"><ele>339.0</ele><time>2026-05-03T11:33:20.999Z</time></trkpt><trkpt lat="44.0912159579156" lon="11.626447649507357"><ele>339.0</ele><time>2026-05-03T11:33:21.999Z</time></trkpt><trkpt lat="44.09133303896309" lon="11.626417812068171"><ele>339.0</ele><time>2026-05-03T11:33:22.999Z</time></trkpt><trkpt lat="44.09145330499696" lon="11.626357096198504"><ele>339.0</ele><time>2026-05-03T11:33:23.999Z</time></trkpt><trkpt lat="44.09155913623984" lon="11.626265024992875"><ele>339.0</ele><time>2026-05-03T11:33:24.999Z</time></trkpt><trkpt lat="44.091655999634526" lon="11.626149615691828"><ele>339.0</ele><time>2026-05-03T11:33:25.999Z</time></trkpt><trkpt lat="44.09174210222259" lon="11.626029003138207"><ele>340.25</ele><time>2026-05-03T11:33:26.999Z</time></trkpt><trkpt lat="44.09183356238361" lon="11.625921205501"><ele>341.5</ele><time>2026-05-03T11:33:27.999Z</time></trkpt><trkpt lat="44.09190579303532" lon="11.625794430431151"><ele>342.75</ele><time>2026-05-03T11:33:28.999Z</time></trkpt><trkpt lat="44.091962850530535" lon="11.625638335415521"><ele>344.0</ele><time>2026-05-03T11:33:29.999Z</time></trkpt><trkpt lat="44.092017356141795" lon="11.625464258342923"><ele>349.25</ele><time>2026-05-03T11:33:30.999Z</time></trkpt><trkpt lat="44.09207837030797" lon="11.625270150918022"><ele>354.5</ele><time>2026-05-03T11:33:31.999Z</time></trkpt><trkpt lat="44.09213637090374" lon="11.625085752820665"><ele>359.75</ele><time>2026-05-03T11:33:32.999Z</time></trkpt><trkpt lat="44.09219192364561" lon="11.624917987318648"><ele>365.0</ele><time>2026-05-03T11:33:33.999Z</time></trkpt><trkpt lat="44.0922473184858" lon="11.624761689525883"><ele>365.0</ele><time>2026-05-03T11:33:34.999Z</time></trkpt><trkpt lat="44.09230136391509" lon="11.62461427007875"><ele>365.0</ele><time>2026-05-03T11:33:35.999Z</time></trkpt><trkpt lat="44.092355149839584" lon="11.62448953514428"><ele>365.0</ele><time>2026-05-03T11:33:37Z</time></trkpt><trkpt lat="44.09240534324309" lon="11.624386177926956"><ele>365.0</ele><time>2026-05-03T11:33:38Z</time></trkpt><trkpt lat="44.09246508131523" lon="11.624314327501862"><ele>365.0</ele><time>2026-05-03T11:33:39Z</time></trkpt><trkpt lat="44.09254183909135" lon="11.624251793546891"><ele>363.0</ele><time>2026-05-03T11:33:40Z</time></trkpt><trkpt lat="44.09262281873176" lon="11.624218596283008"><ele>361.0</ele><time>2026-05-03T11:33:41Z</time></trkpt><trkpt lat="44.092699632887495" lon="11.624156910741862"><ele>359.0</ele><time>2026-05-03T11:33:42Z</time></trkpt><trkpt lat="44.09275821662204" lon="11.624046843534392"><ele>357.0</ele><time>2026-05-03T11:33:43Z</time></trkpt><trkpt lat="44.09281403875139" lon="11.623944768568068"><ele>355.0</ele><time>2026-05-03T11:33:44Z</time></trkpt><trkpt lat="44.09288382378906" lon="11.623894638245918"><ele>353.0</ele><time>2026-05-03T11:33:45Z</time></trkpt><trkpt lat="44.092979441657654" lon="11.623912144407367"><ele>353.0</ele><time>2026-05-03T11:33:46Z</time></trkpt><trkpt lat="44.09307421418859" lon="11.62395200291224"><ele>353.0</ele><time>2026-05-03T11:33:47Z</time></trkpt><trkpt lat="44.09317395288226" lon="11.623949107719062"><ele>353.0</ele><time>2026-05-03T11:33:48Z</time></trkpt><trkpt lat="44.09326636601613" lon="11.623904344260904"><ele>353.0</ele><time>2026-05-03T11:33:49Z</time></trkpt><trkpt lat="44.09334568408234" lon="11.623828266887644"><ele>353.0</ele><time>2026-05-03T11:33:50Z</time></trkpt><trkpt lat="44.093412219912274" lon="11.623719052856995"><ele>353.5</ele><time>2026-05-03T11:33:51Z</time></trkpt><trkpt lat="44.09349527349374" lon="11.623614037913539"><ele>354.0</ele><time>2026-05-03T11:33:52Z</time></trkpt><trkpt lat="44.09355171475394" lon="11.623446174198474"><ele>354.5</ele><time>2026-05-03T11:33:53Z</time></trkpt><trkpt lat="44.09362017554018" lon="11.623296437715522"><ele>355.0</ele><time>2026-05-03T11:33:54Z</time></trkpt><trkpt lat="44.093691268689376" lon="11.623154220062144"><ele>355.0</ele><time>2026-05-03T11:33:55Z</time></trkpt><trkpt lat="44.09375571170268" lon="11.623019034951017"><ele>355.0</ele><time>2026-05-03T11:33:56Z</time></trkpt><trkpt lat="44.093816418689215" lon="11.622886369564425"><ele>355.0</ele><time>2026-05-03T11:33:57Z</time></trkpt><trkpt lat="44.09387916701594" lon="11.62274472779695"><ele>355.0</ele><time>2026-05-03T11:33:58Z</time></trkpt><trkpt lat="44.093923714506154" lon="11.622599782836168"><ele>356.5</ele><time>2026-05-03T11:33:59Z</time></trkpt><trkpt lat="44.09398685680815" lon="11.622456232763163"><ele>358.0</ele><time>2026-05-03T11:34:00Z</time></trkpt><trkpt lat="44.09404261148951" lon="11.622304580680636"><ele>359.5</ele><time>2026-05-03T11:34:01Z</time></trkpt><trkpt lat="44.09405429091118" lon="11.622114085864938"><ele>361.0</ele><time>2026-05-03T11:34:02Z</time></trkpt><trkpt lat="44.09405793416035" lon="11.621913171240248"><ele>363.75</ele><time>2026-05-03T11:34:03Z</time></trkpt><trkpt lat="44.09406380686221" lon="11.621711599150164"><ele>366.5</ele><time>2026-05-03T11:34:04Z</time></trkpt><trkpt lat="44.09406849249614" lon="11.621508931058681"><ele>369.25</ele><time>2026-05-03T11:34:05Z</time></trkpt><trkpt lat="44.09407630052078" lon="11.621302654132839"><ele>372.0</ele><time>2026-05-03T11:34:06Z</time></trkpt><trkpt lat="44.09409621789408" lon="11.62109863268103"><ele>372.0</ele><time>2026-05-03T11:34:07Z</time></trkpt><trkpt lat="44.09412850836597" lon="11.620899708943044"><ele>372.0</ele><time>2026-05-03T11:34:08Z</time></trkpt><trkpt lat="44.09415906699256" lon="11.62071501407257"><ele>372.0</ele><time>2026-05-03T11:34:09Z</time></trkpt><trkpt lat="44.094191156636526" lon="11.620521062580718"><ele>372.0</ele><time>2026-05-03T11:34:10Z</time></trkpt><trkpt lat="44.09420506496046" lon="11.620313747796262"><ele>371.75</ele><time>2026-05-03T11:34:11Z</time></trkpt><trkpt lat="44.09421347655671" lon="11.620113733828745"><ele>371.5</ele><time>2026-05-03T11:34:12Z</time></trkpt><trkpt lat="44.09422975890551" lon="11.61991810967709"><ele>371.25</ele><time>2026-05-03T11:34:13Z</time></trkpt><trkpt lat="44.094246386623986" lon="11.619713506455989"><ele>371.0</ele><time>2026-05-03T11:34:14Z</time></trkpt><trkpt lat="44.094253212453744" lon="11.619513262953898"><ele>373.0</ele><time>2026-05-03T11:34:15Z</time></trkpt><trkpt lat="44.094238020159" lon="11.619325981048938"><ele>375.0</ele><time>2026-05-03T11:34:16Z</time></trkpt><trkpt lat="44.0942229661614" lon="11.619161553012146"><ele>377.0</ele><time>2026-05-03T11:34:17Z</time></trkpt><trkpt lat="44.09421429164696" lon="11.619003257929272"><ele>379.0</ele><time>2026-05-03T11:34:18Z</time></trkpt><trkpt lat="44.09421716446947" lon="11.618842533371842"><ele>379.0</ele><time>2026-05-03T11:34:19Z</time></trkpt><trkpt lat="44.094242509361926" lon="11.618685117466423"><ele>379.0</ele><time>2026-05-03T11:34:20Z</time></trkpt><trkpt lat="44.09427040046789" lon="11.618537972206727"><ele>379.0</ele><time>2026-05-03T11:34:21Z</time></trkpt><trkpt lat="44.094303623670626" lon="11.618384506979083"><ele>379.0</ele><time>2026-05-03T11:34:22Z</time></trkpt><trkpt lat="44.094341489978426" lon="11.61824285521659"><ele>379.0</ele><time>2026-05-03T11:34:23Z</time></trkpt><trkpt lat="44.09439750610334" lon="11.61812497881856"><ele>379.25</ele><time>2026-05-03T11:34:24Z</time></trkpt><trkpt lat="44.09447194134184" lon="11.618012288865046"><ele>379.5</ele><time>2026-05-03T11:34:25Z</time></trkpt><trkpt lat="44.09455714875741" lon="11.61788470234579"><ele>379.75</ele><time>2026-05-03T11:34:26Z</time></trkpt><trkpt lat="44.09463693106126" lon="11.617740312608213"><ele>380.0</ele><time>2026-05-03T11:34:27Z</time></trkpt><trkpt lat="44.094709430072044" lon="11.61758514090563"><ele>380.0</ele><time>2026-05-03T11:34:28Z</time></trkpt><trkpt lat="44.094785986770646" lon="11.617444573754625"><ele>380.0</ele><time>2026-05-03T11:34:29Z</time></trkpt><trkpt lat="44.09488671770303" lon="11.617325752626623"><ele>380.0</ele><time>2026-05-03T11:34:29.999Z</time></trkpt><trkpt lat="44.09498101038715" lon="11.61721052144008"><ele>380.0</ele><time>2026-05-03T11:34:30.999Z</time></trkpt><trkpt lat="44.09510055943825" lon="11.617129625433394"><ele>381.25</ele><time>2026-05-03T11:34:31.999Z</time></trkpt><trkpt lat="44.095200593600545" lon="11.617030453054754"><ele>382.5</ele><time>2026-05-03T11:34:32.999Z</time></trkpt><trkpt lat="44.095300442464186" lon="11.616930496503583"><ele>383.75</ele><time>2026-05-03T11:34:33.999Z</time></trkpt><trkpt lat="44.09539679822162" lon="11.616830808473296"><ele>385.0</ele><time>2026-05-03T11:34:34.999Z</time></trkpt><trkpt lat="44.095501230490505" lon="11.616744698502137"><ele>385.0</ele><time>2026-05-03T11:34:35.999Z</time></trkpt><trkpt lat="44.09560164271657" lon="11.616690646276593"><ele>385.0</ele><time>2026-05-03T11:34:36.999Z</time></trkpt><trkpt lat="44.09570773341855" lon="11.616622938758036"><ele>385.0</ele><time>2026-05-03T11:34:37.999Z</time></trkpt><trkpt lat="44.095795171510666" lon="11.616495601834883"><ele>385.0</ele><time>2026-05-03T11:34:38.999Z</time></trkpt><trkpt lat="44.09586796369352" lon="11.616338281034992"><ele>386.6666666666667</ele><time>2026-05-03T11:34:39.999Z</time></trkpt><trkpt lat="44.09592739254864" lon="11.616214641189954"><ele>388.33333333333337</ele><time>2026-05-03T11:34:40.999Z</time></trkpt><trkpt lat="44.09599844747346" lon="11.616113051403383"><ele>390.0</ele><time>2026-05-03T11:34:41.999Z</time></trkpt><trkpt lat="44.096073381524455" lon="11.616050306718586"><ele>391.66666666666663</ele><time>2026-05-03T11:34:42.999Z</time></trkpt><trkpt lat="44.09612110637959" lon="11.615956706238963"><ele>393.3333333333333</ele><time>2026-05-03T11:34:43.999Z</time></trkpt><trkpt lat="44.096139928870286" lon="11.615865793346353"><ele>395.0</ele><time>2026-05-03T11:34:44.999Z</time></trkpt><trkpt lat="44.09611950302702" lon="11.615694250749703"><ele>395.0</ele><time>2026-05-03T11:34:45.999Z</time></trkpt><trkpt lat="44.09609450371458" lon="11.61553896193585"><ele>395.0</ele><time>2026-05-03T11:34:46.999Z</time></trkpt><trkpt lat="44.09608332853026" lon="11.615381865244881"><ele>395.0</ele><time>2026-05-03T11:34:47.999Z</time></trkpt><trkpt lat="44.09607894173065" lon="11.615222241334001"><ele>395.0</ele><time>2026-05-03T11:34:48.999Z</time></trkpt><trkpt lat="44.09607748214115" lon="11.61506885152902"><ele>396.4</ele><time>2026-05-03T11:34:49.999Z</time></trkpt><trkpt lat="44.09608032512508" lon="11.61491772480979"><ele>397.8</ele><time>2026-05-03T11:34:50.999Z</time></trkpt><trkpt lat="44.096094061582455" lon="11.614772613679198"><ele>399.20000000000005</ele><time>2026-05-03T11:34:51.999Z</time></trkpt><trkpt lat="44.0961157298602" lon="11.6146248566966"><ele>400.6</ele><time>2026-05-03T11:34:52.999Z</time></trkpt><trkpt lat="44.096146012417" lon="11.614486058244077"><ele>402.0</ele><time>2026-05-03T11:34:53.999Z</time></trkpt><trkpt lat="44.09618290995253" lon="11.614347643280981"><ele>402.20000000000005</ele><time>2026-05-03T11:34:54.999Z</time></trkpt><trkpt lat="44.09622478883425" lon="11.6142180561755"><ele>402.4</ele><time>2026-05-03T11:34:55.999Z</time></trkpt><trkpt lat="44.09627496485766" lon="11.614084097278848"><ele>402.6</ele><time>2026-05-03T11:34:56.999Z</time></trkpt><trkpt lat="44.096319134602496" lon="11.61393710812511"><ele>402.79999999999995</ele><time>2026-05-03T11:34:57.999Z</time></trkpt><trkpt lat="44.09637966525414" lon="11.61380596997793"><ele>403.0</ele><time>2026-05-03T11:34:58.999Z</time></trkpt><trkpt lat="44.096450861195656" lon="11.61367190291694"><ele>404.4</ele><time>2026-05-03T11:34:59.999Z</time></trkpt><trkpt lat="44.09650864577332" lon="11.613548613243973"><ele>405.79999999999995</ele><time>2026-05-03T11:35:00.999Z</time></trkpt><trkpt lat="44.09658235437597" lon="11.613417300356788"><ele>407.2</ele><time>2026-05-03T11:35:01.999Z</time></trkpt><trkpt lat="44.096657036882924" lon="11.61329458213833"><ele>408.6</ele><time>2026-05-03T11:35:02.999Z</time></trkpt><trkpt lat="44.09673316863795" lon="11.6131897329106"><ele>410.0</ele><time>2026-05-03T11:35:03.999Z</time></trkpt><trkpt lat="44.09681941754407" lon="11.613085765942449"><ele>409.4</ele><time>2026-05-03T11:35:04.999Z</time></trkpt><trkpt lat="44.09690413355259" lon="11.613001805260794"><ele>408.8</ele><time>2026-05-03T11:35:05.999Z</time></trkpt><trkpt lat="44.09697934019023" lon="11.612919886203576"><ele>408.20000000000005</ele><time>2026-05-03T11:35:06.999Z</time></trkpt><trkpt lat="44.0970366013816" lon="11.612812396413883"><ele>407.6</ele><time>2026-05-03T11:35:07.999Z</time></trkpt><trkpt lat="44.09707120261218" lon="11.612647304537184"><ele>407.0</ele><time>2026-05-03T11:35:08.999Z</time></trkpt><trkpt lat="44.097132465834655" lon="11.612529724702586"><ele>407.0</ele><time>2026-05-03T11:35:09.999Z</time></trkpt><trkpt lat="44.09719933918061" lon="11.612405987124916"><ele>407.0</ele><time>2026-05-03T11:35:10.999Z</time></trkpt><trkpt lat="44.09726386515645" lon="11.612255865450152"><ele>407.0</ele><time>2026-05-03T11:35:11.999Z</time></trkpt><trkpt lat="44.09730628472961" lon="11.612085389210623"><ele>407.0</ele><time>2026-05-03T11:35:12.999Z</time></trkpt><trkpt lat="44.09733547308532" lon="11.611905949601077"><ele>408.3333333333333</ele><time>2026-05-03T11:35:13.999Z</time></trkpt><trkpt lat="44.0973563254036" lon="11.611720087447267"><ele>409.66666666666663</ele><time>2026-05-03T11:35:14.999Z</time></trkpt><trkpt lat="44.09736322964981" lon="11.611594146373212"><ele>411.0</ele><time>2026-05-03T11:35:15.999Z</time></trkpt><trkpt lat="44.09737097413934" lon="11.611489078541144"><ele>412.33333333333337</ele><time>2026-05-03T11:35:16.999Z</time></trkpt><trkpt lat="44.097387232041164" lon="11.61139034634512"><ele>413.6666666666667</ele><time>2026-05-03T11:35:17.999Z</time></trkpt><trkpt lat="44.09741822467485" lon="11.61130152041383"><ele>415.0</ele><time>2026-05-03T11:35:18.999Z</time></trkpt><trkpt lat="44.09746522245959" lon="11.61121999679784"><ele>417.8</ele><time>2026-05-03T11:35:19.999Z</time></trkpt><trkpt lat="44.097556760650995" lon="11.611176631095006"><ele>420.6</ele><time>2026-05-03T11:35:20.999Z</time></trkpt><trkpt lat="44.09765806002426" lon="11.611155927688717"><ele>423.4</ele><time>2026-05-03T11:35:21.999Z</time></trkpt><trkpt lat="44.09773632050107" lon="11.611141750728395"><ele>426.2</ele><time>2026-05-03T11:35:22.999Z</time></trkpt><trkpt lat="44.09781033644971" lon="11.61109984704055"><ele>429.0</ele><time>2026-05-03T11:35:23.999Z</time></trkpt><trkpt lat="44.097873379180825" lon="11.610953869820847"><ele>429.0</ele><time>2026-05-03T11:35:25.999Z</time></trkpt><trkpt lat="44.097892896311805" lon="11.610861663887697"><ele>429.0</ele><time>2026-05-03T11:35:26.999Z</time></trkpt><trkpt lat="44.09787773180378" lon="11.610736929226904"><ele>429.0</ele><time>2026-05-03T11:35:27.999Z</time></trkpt><trkpt lat="44.097828834945915" lon="11.610611395340399"><ele>429.0</ele><time>2026-05-03T11:35:28.999Z</time></trkpt><trkpt lat="44.097734758496735" lon="11.610527863078287"><ele>429.0</ele><time>2026-05-03T11:35:29.999Z</time></trkpt><trkpt lat="44.09760296200545" lon="11.610542005557356"><ele>429.0</ele><time>2026-05-03T11:35:30.999Z</time></trkpt><trkpt lat="44.09747050000133" lon="11.610553023608873"><ele>429.0</ele><time>2026-05-03T11:35:31.999Z</time></trkpt><trkpt lat="44.097332928675414" lon="11.6105811987004"><ele>429.0</ele><time>2026-05-03T11:35:32.999Z</time></trkpt><trkpt lat="44.0972106438365" lon="11.610606166804232"><ele>429.0</ele><time>2026-05-03T11:35:33.999Z</time></trkpt><trkpt lat="44.0971221923337" lon="11.610631717478663"><ele>428.0</ele><time>2026-05-03T11:35:34.999Z</time></trkpt><trkpt lat="44.09705606654578" lon="11.61061635329463"><ele>427.0</ele><time>2026-05-03T11:35:35.999Z</time></trkpt><trkpt lat="44.097001558986165" lon="11.610562382886888"><ele>426.0</ele><time>2026-05-03T11:35:36.999Z</time></trkpt><trkpt lat="44.09697131314612" lon="11.610453756463857"><ele>425.0</ele><time>2026-05-03T11:35:37.999Z</time></trkpt><trkpt lat="44.096882803249244" lon="11.61033284831625"><ele>424.0</ele><time>2026-05-03T11:35:38.999Z</time></trkpt><trkpt lat="44.09677780951062" lon="11.610224649288513"><ele>427.25</ele><time>2026-05-03T11:35:39.999Z</time></trkpt><trkpt lat="44.09668402997401" lon="11.610075588917791"><ele>430.5</ele><time>2026-05-03T11:35:40.999Z</time></trkpt><trkpt lat="44.096587659219495" lon="11.609947880646619"><ele>433.75</ele><time>2026-05-03T11:35:41.999Z</time></trkpt><trkpt lat="44.096496458682736" lon="11.609819634958436"><ele>437.0</ele><time>2026-05-03T11:35:43Z</time></trkpt><trkpt lat="44.09641464758942" lon="11.609697816783816"><ele>437.0</ele><time>2026-05-03T11:35:44Z</time></trkpt><trkpt lat="44.0963472795149" lon="11.60958905366727"><ele>437.00000000000006</ele><time>2026-05-03T11:35:45Z</time></trkpt><trkpt lat="44.09628345784427" lon="11.609469048232409"><ele>437.00000000000006</ele><time>2026-05-03T11:35:46Z</time></trkpt><trkpt lat="44.09623426324456" lon="11.609341244325428"><ele>437.0</ele><time>2026-05-03T11:35:47Z</time></trkpt><trkpt lat="44.09621103884589" lon="11.60921850939013"><ele>437.0</ele><time>2026-05-03T11:35:48Z</time></trkpt><trkpt lat="44.096220648405854" lon="11.609094342966204"><ele>437.75</ele><time>2026-05-03T11:35:49Z</time></trkpt><trkpt lat="44.09626809844376" lon="11.60896912206378"><ele>438.5</ele><time>2026-05-03T11:35:50Z</time></trkpt><trkpt lat="44.096320946982324" lon="11.608802569254777"><ele>439.25</ele><time>2026-05-03T11:35:51Z</time></trkpt><trkpt lat="44.0963748245216" lon="11.608647584015225"><ele>440.0</ele><time>2026-05-03T11:35:52Z</time></trkpt><trkpt lat="44.09642574750741" lon="11.60850515247334"><ele>440.6</ele><time>2026-05-03T11:35:53Z</time></trkpt><trkpt lat="44.09646894512714" lon="11.60841307193395"><ele>441.2</ele><time>2026-05-03T11:35:54Z</time></trkpt><trkpt lat="44.096510747628784" lon="11.608298015738448"><ele>441.79999999999995</ele><time>2026-05-03T11:35:55Z</time></trkpt><trkpt lat="44.09658047230306" lon="11.608170899384778"><ele>442.4</ele><time>2026-05-03T11:35:56Z</time></trkpt><trkpt lat="44.09669784974201" lon="11.608107827309144"><ele>443.0</ele><time>2026-05-03T11:35:57Z</time></trkpt><trkpt lat="44.0968239766782" lon="11.608063482734813"><ele>445.5</ele><time>2026-05-03T11:35:58Z</time></trkpt><trkpt lat="44.09696450564094" lon="11.607997928818525"><ele>448.0</ele><time>2026-05-03T11:35:59Z</time></trkpt><trkpt lat="44.097079726144905" lon="11.607949470544495"><ele>450.5</ele><time>2026-05-03T11:36:00Z</time></trkpt><trkpt lat="44.09717963324402" lon="11.607895193775649"><ele>453.0</ele><time>2026-05-03T11:36:01Z</time></trkpt><trkpt lat="44.09728248897886" lon="11.60781899142203"><ele>453.33333333333337</ele><time>2026-05-03T11:36:02Z</time></trkpt><trkpt lat="44.09738207519163" lon="11.607696248304729"><ele>453.6666666666667</ele><time>2026-05-03T11:36:03Z</time></trkpt><trkpt lat="44.097499395579526" lon="11.607554540718532"><ele>454.0</ele><time>2026-05-03T11:36:04Z</time></trkpt><trkpt lat="44.09761233601243" lon="11.607383745074143"><ele>454.75</ele><time>2026-05-03T11:36:05Z</time></trkpt><trkpt lat="44.09770804330177" lon="11.607208081838774"><ele>455.5</ele><time>2026-05-03T11:36:06Z</time></trkpt><trkpt lat="44.097783582200144" lon="11.60704331753908"><ele>456.25</ele><time>2026-05-03T11:36:07Z</time></trkpt><trkpt lat="44.09784843343347" lon="11.606905444328751"><ele>457.0</ele><time>2026-05-03T11:36:08Z</time></trkpt><trkpt lat="44.097920103000014" lon="11.606761943504662"><ele>457.0</ele><time>2026-05-03T11:36:09Z</time></trkpt><trkpt lat="44.098006392950445" lon="11.60662364908945"><ele>457.0</ele><time>2026-05-03T11:36:10Z</time></trkpt><trkpt lat="44.0981043173817" lon="11.606495456307009"><ele>457.0</ele><time>2026-05-03T11:36:11Z</time></trkpt><trkpt lat="44.098193439286455" lon="11.60635893576515"><ele>457.0</ele><time>2026-05-03T11:36:12Z</time></trkpt><trkpt lat="44.09827947139067" lon="11.606218105628786"><ele>459.75</ele><time>2026-05-03T11:36:13Z</time></trkpt><trkpt lat="44.09836156725361" lon="11.606072147372796"><ele>462.5</ele><time>2026-05-03T11:36:14Z</time></trkpt><trkpt lat="44.0984407774042" lon="11.605941173695943"><ele>465.25</ele><time>2026-05-03T11:36:15Z</time></trkpt><trkpt lat="44.09852850770976" lon="11.605808706460065"><ele>468.0</ele><time>2026-05-03T11:36:16Z</time></trkpt><trkpt lat="44.098612227835105" lon="11.605678390080785"><ele>468.0</ele><time>2026-05-03T11:36:17Z</time></trkpt><trkpt lat="44.09870490913802" lon="11.60552739289464"><ele>468.0</ele><time>2026-05-03T11:36:18Z</time></trkpt><trkpt lat="44.09875017059556" lon="11.605323162897802"><ele>468.0</ele><time>2026-05-03T11:36:19Z</time></trkpt><trkpt lat="44.098797517002936" lon="11.605128526815568"><ele>468.0</ele><time>2026-05-03T11:36:20Z</time></trkpt><trkpt lat="44.09886499090468" lon="11.60496837681332"><ele>467.25</ele><time>2026-05-03T11:36:21Z</time></trkpt><trkpt lat="44.098939181203015" lon="11.604828507972064"><ele>466.5</ele><time>2026-05-03T11:36:22Z</time></trkpt><trkpt lat="44.09899941790338" lon="11.604688470873608"><ele>465.75</ele><time>2026-05-03T11:36:23Z</time></trkpt><trkpt lat="44.09907039923439" lon="11.604563236911572"><ele>465.0</ele><time>2026-05-03T11:36:24Z</time></trkpt><trkpt lat="44.099117949842274" lon="11.604440441351077"><ele>470.75</ele><time>2026-05-03T11:36:25Z</time></trkpt><trkpt lat="44.09916797773456" lon="11.604295024040741"><ele>476.5</ele><time>2026-05-03T11:36:26Z</time></trkpt><trkpt lat="44.09920323101286" lon="11.604096340331637"><ele>482.25</ele><time>2026-05-03T11:36:27Z</time></trkpt><trkpt lat="44.09923313115438" lon="11.603904971473996"><ele>488.0</ele><time>2026-05-03T11:36:28Z</time></trkpt><trkpt lat="44.09925795036801" lon="11.603732424659109"><ele>486.75</ele><time>2026-05-03T11:36:29Z</time></trkpt><trkpt lat="44.099279667406016" lon="11.603578794990018"><ele>485.5</ele><time>2026-05-03T11:36:30Z</time></trkpt><trkpt lat="44.09930235222209" lon="11.603426686119455"><ele>484.25</ele><time>2026-05-03T11:36:31Z</time></trkpt><trkpt lat="44.09932624710904" lon="11.60327075239057"><ele>483.0</ele><time>2026-05-03T11:36:32Z</time></trkpt><trkpt lat="44.099352423921076" lon="11.603114956994432"><ele>483.0</ele><time>2026-05-03T11:36:33Z</time></trkpt><trkpt lat="44.09937986079535" lon="11.602985001514448"><ele>482.99999999999994</ele><time>2026-05-03T11:36:34Z</time></trkpt><trkpt lat="44.0993992047489" lon="11.60286221968967"><ele>482.99999999999994</ele><time>2026-05-03T11:36:35Z</time></trkpt><trkpt lat="44.09947016249676" lon="11.602755633495573"><ele>483.0</ele><time>2026-05-03T11:36:36.999Z</time></trkpt><trkpt lat="44.09959005610409" lon="11.602813164453627"><ele>483.0</ele><time>2026-05-03T11:36:38.999Z</time></trkpt><trkpt lat="44.09960033346609" lon="11.602950279104604"><ele>483.0</ele><time>2026-05-03T11:36:39.999Z</time></trkpt><trkpt lat="44.099488180645615" lon="11.603006961039444"><ele>482.99999999999994</ele><time>2026-05-03T11:36:40.999Z</time></trkpt><trkpt lat="44.099440111332555" lon="11.603113352438207"><ele>482.99999999999994</ele><time>2026-05-03T11:36:41.999Z</time></trkpt><trkpt lat="44.09939514512856" lon="11.603225203689195"><ele>483.0</ele><time>2026-05-03T11:36:42.999Z</time></trkpt><trkpt lat="44.09935800639951" lon="11.603408904153502"><ele>483.0</ele><time>2026-05-03T11:36:43.999Z</time></trkpt><trkpt lat="44.09934628737916" lon="11.603628544761245"><ele>484.25</ele><time>2026-05-03T11:36:44.999Z</time></trkpt><trkpt lat="44.09935444622057" lon="11.603825296720665"><ele>485.5</ele><time>2026-05-03T11:36:45.999Z</time></trkpt><trkpt lat="44.09936522464594" lon="11.603973857162968"><ele>486.75</ele><time>2026-05-03T11:36:46.999Z</time></trkpt><trkpt lat="44.0994333525361" lon="11.604114877729963"><ele>488.0</ele><time>2026-05-03T11:36:47.999Z</time></trkpt><trkpt lat="44.09947330413359" lon="11.604261181439544"><ele>488.0</ele><time>2026-05-03T11:36:48.999Z</time></trkpt><trkpt lat="44.09951213832674" lon="11.60440457452565"><ele>488.0</ele><time>2026-05-03T11:36:49.999Z</time></trkpt><trkpt lat="44.09948967815527" lon="11.604549466529262"><ele>488.0</ele><time>2026-05-03T11:36:50.999Z</time></trkpt><trkpt lat="44.09938400611325" lon="11.604632773159416"><ele>488.0</ele><time>2026-05-03T11:36:51.999Z</time></trkpt><trkpt lat="44.0992880849134" lon="11.604736622050252"><ele>489.4</ele><time>2026-05-03T11:36:52.999Z</time></trkpt><trkpt lat="44.099234288311536" lon="11.60488131411104"><ele>490.79999999999995</ele><time>2026-05-03T11:36:53.999Z</time></trkpt><trkpt lat="44.09917781582476" lon="11.605000547231084"><ele>492.2</ele><time>2026-05-03T11:36:54.999Z</time></trkpt><trkpt lat="44.09914407739036" lon="11.605142057803686"><ele>493.6</ele><time>2026-05-03T11:36:55.999Z</time></trkpt><trkpt lat="44.09913275217258" lon="11.605293459884727"><ele>495.0</ele><time>2026-05-03T11:36:56.999Z</time></trkpt><trkpt lat="44.09915403690118" lon="11.605454683192933"><ele>498.25</ele><time>2026-05-03T11:36:57.999Z</time></trkpt><trkpt lat="44.09918462586296" lon="11.605636277082997"><ele>501.5</ele><time>2026-05-03T11:36:58.999Z</time></trkpt><trkpt lat="44.09916184523877" lon="11.605804428421898"><ele>504.75</ele><time>2026-05-03T11:36:59.999Z</time></trkpt><trkpt lat="44.09910830328701" lon="11.605953509516654"><ele>508.0</ele><time>2026-05-03T11:37:00.999Z</time></trkpt><trkpt lat="44.099028471353996" lon="11.606083773195198"><ele>501.5</ele><time>2026-05-03T11:37:01.999Z</time></trkpt><trkpt lat="44.09894795695268" lon="11.606206451917785"><ele>495.0</ele><time>2026-05-03T11:37:02.999Z</time></trkpt><trkpt lat="44.09888687396769" lon="11.606347449071132"><ele>488.5</ele><time>2026-05-03T11:37:03.999Z</time></trkpt><trkpt lat="44.098831596418584" lon="11.60649029952886"><ele>482.0</ele><time>2026-05-03T11:37:04.999Z</time></trkpt><trkpt lat="44.09877765142401" lon="11.606644499603197"><ele>482.0</ele><time>2026-05-03T11:37:05.999Z</time></trkpt><trkpt lat="44.09871569712527" lon="11.6067746260509"><ele>482.00000000000006</ele><time>2026-05-03T11:37:06.999Z</time></trkpt><trkpt lat="44.09869180662338" lon="11.60689561713177"><ele>482.00000000000006</ele><time>2026-05-03T11:37:07.999Z</time></trkpt><trkpt lat="44.098701354849545" lon="11.607005569460204"><ele>482.0</ele><time>2026-05-03T11:37:08.999Z</time></trkpt><trkpt lat="44.09875922449753" lon="11.607154176801558"><ele>482.0</ele><time>2026-05-03T11:37:10.999Z</time></trkpt><trkpt lat="44.098861665989055" lon="11.607144316018163"><ele>483.8</ele><time>2026-05-03T11:37:11.999Z</time></trkpt><trkpt lat="44.09895743008036" lon="11.607102674955714"><ele>485.6</ele><time>2026-05-03T11:37:12.999Z</time></trkpt><trkpt lat="44.09906135455848" lon="11.607084043131248"><ele>487.40000000000003</ele><time>2026-05-03T11:37:13.999Z</time></trkpt><trkpt lat="44.099171487725314" lon="11.607086924154304"><ele>489.20000000000005</ele><time>2026-05-03T11:37:14.999Z</time></trkpt><trkpt lat="44.09927239619049" lon="11.607049719833123"><ele>491.0</ele><time>2026-05-03T11:37:15.999Z</time></trkpt><trkpt lat="44.099356491885246" lon="11.606936633464466"><ele>496.0</ele><time>2026-05-03T11:37:16.999Z</time></trkpt><trkpt lat="44.09944048514218" lon="11.606786266074968"><ele>501.0</ele><time>2026-05-03T11:37:17.999Z</time></trkpt><trkpt lat="44.09954375175976" lon="11.606645539161725"><ele>506.0</ele><time>2026-05-03T11:37:18.999Z</time></trkpt><trkpt lat="44.0996371837525" lon="11.606501253652734"><ele>511.0</ele><time>2026-05-03T11:37:19.999Z</time></trkpt><trkpt lat="44.099720163177444" lon="11.606369214208604"><ele>511.0</ele><time>2026-05-03T11:37:20.999Z</time></trkpt><trkpt lat="44.099793867390744" lon="11.60625614446886"><ele>511.0</ele><time>2026-05-03T11:37:21.999Z</time></trkpt><trkpt lat="44.09987492085428" lon="11.606135393780896"><ele>511.0</ele><time>2026-05-03T11:37:22.999Z</time></trkpt><trkpt lat="44.09994809631896" lon="11.606004429507527"><ele>511.0</ele><time>2026-05-03T11:37:23.999Z</time></trkpt><trkpt lat="44.10005346354447" lon="11.605895731636304"><ele>515.25</ele><time>2026-05-03T11:37:24.999Z</time></trkpt><trkpt lat="44.10016277134817" lon="11.605799979293293"><ele>519.5</ele><time>2026-05-03T11:37:25.999Z</time></trkpt><trkpt lat="44.10028108110556" lon="11.605716136106006"><ele>523.75</ele><time>2026-05-03T11:37:26.999Z</time></trkpt><trkpt lat="44.10040530876219" lon="11.60565674844957"><ele>528.0</ele><time>2026-05-03T11:37:27.999Z</time></trkpt><trkpt lat="44.10052827973719" lon="11.605596260564917"><ele>528.0</ele><time>2026-05-03T11:37:28.999Z</time></trkpt><trkpt lat="44.100625055294415" lon="11.605583479270683"><ele>528.0</ele><time>2026-05-03T11:37:29.999Z</time></trkpt><trkpt lat="44.10070155681497" lon="11.605589414870588"><ele>528.0</ele><time>2026-05-03T11:37:30.999Z</time></trkpt><trkpt lat="44.100748943459756" lon="11.605649751477623"><ele>528.0</ele><time>2026-05-03T11:37:31.999Z</time></trkpt><trkpt lat="44.100813667209664" lon="11.605723525303382"><ele>528.0</ele><time>2026-05-03T11:37:32.999Z</time></trkpt><trkpt lat="44.10081703085472" lon="11.605913178681737"><ele>526.6</ele><time>2026-05-03T11:37:33.999Z</time></trkpt><trkpt lat="44.100835362593685" lon="11.606077221710995"><ele>525.1999999999999</ele><time>2026-05-03T11:37:34.999Z</time></trkpt><trkpt lat="44.10086241420453" lon="11.606236430652887"><ele>523.8</ele><time>2026-05-03T11:37:35.999Z</time></trkpt><trkpt lat="44.100893605701074" lon="11.606390452581508"><ele>522.4</ele><time>2026-05-03T11:37:36.999Z</time></trkpt><trkpt lat="44.10092064497319" lon="11.606518546031761"><ele>521.0</ele><time>2026-05-03T11:37:37.999Z</time></trkpt><trkpt lat="44.10094515376345" lon="11.606626644721183"><ele>521.0</ele><time>2026-05-03T11:37:38.999Z</time></trkpt><trkpt lat="44.100983878808684" lon="11.606716194743022"><ele>521.0</ele><time>2026-05-03T11:37:39.999Z</time></trkpt><trkpt lat="44.10104442477915" lon="11.606761805383858"><ele>521.0</ele><time>2026-05-03T11:37:40.999Z</time></trkpt><trkpt lat="44.101122984787104" lon="11.606759738894734"><ele>521.0</ele><time>2026-05-03T11:37:41.999Z</time></trkpt><trkpt lat="44.10120610580838" lon="11.606704877777375"><ele>521.0</ele><time>2026-05-03T11:37:42.999Z</time></trkpt><trkpt lat="44.10129652394042" lon="11.606618398244894"><ele>521.0</ele><time>2026-05-03T11:37:43.999Z</time></trkpt><trkpt lat="44.10137746890397" lon="11.606523556163802"><ele>521.0</ele><time>2026-05-03T11:37:44.999Z</time></trkpt><trkpt lat="44.101474176241936" lon="11.60642546144948"><ele>521.0</ele><time>2026-05-03T11:37:45.999Z</time></trkpt><trkpt lat="44.101579472160566" lon="11.606357564200673"><ele>521.0</ele><time>2026-05-03T11:37:46.999Z</time></trkpt><trkpt lat="44.101683712020794" lon="11.606318986031"><ele>521.0</ele><time>2026-05-03T11:37:47.999Z</time></trkpt><trkpt lat="44.10177312760015" lon="11.606327646701416"><ele>521.0</ele><time>2026-05-03T11:37:49Z</time></trkpt><trkpt lat="44.101853721590466" lon="11.606387418879551"><ele>523.4</ele><time>2026-05-03T11:37:50Z</time></trkpt><trkpt lat="44.10190763742601" lon="11.606509923750432"><ele>525.8</ele><time>2026-05-03T11:37:51Z</time></trkpt><trkpt lat="44.101970864984004" lon="11.606586466403527"><ele>528.1999999999999</ele><time>2026-05-03T11:37:52Z</time></trkpt><trkpt lat="44.102064564334114" lon="11.60661673653155"><ele>530.6</ele><time>2026-05-03T11:37:54Z</time></trkpt><trkpt lat="44.10213620837585" lon="11.606554729474922"><ele>533.0</ele><time>2026-05-03T11:37:55Z</time></trkpt><trkpt lat="44.10219275322164" lon="11.606417192712424"><ele>533.0</ele><time>2026-05-03T11:37:56Z</time></trkpt><trkpt lat="44.10225926393823" lon="11.606290220308269"><ele>533.0</ele><time>2026-05-03T11:37:57Z</time></trkpt><trkpt lat="44.1023245108045" lon="11.606187344213618"><ele>533.0</ele><time>2026-05-03T11:37:58Z</time></trkpt><trkpt lat="44.10239600018788" lon="11.606107974565319"><ele>533.0</ele><time>2026-05-03T11:37:59Z</time></trkpt><trkpt lat="44.102495634083084" lon="11.606091070849793"><ele>533.0</ele><time>2026-05-03T11:38:00Z</time></trkpt><trkpt lat="44.10259009168315" lon="11.606016845453052"><ele>539.4</ele><time>2026-05-03T11:38:01Z</time></trkpt><trkpt lat="44.10266971111931" lon="11.605907772455717"><ele>545.8</ele><time>2026-05-03T11:38:02Z</time></trkpt><trkpt lat="44.10275272779664" lon="11.605791913861555"><ele>552.2</ele><time>2026-05-03T11:38:03Z</time></trkpt><trkpt lat="44.10282469112467" lon="11.605672976093137"><ele>558.6</ele><time>2026-05-03T11:38:04Z</time></trkpt><trkpt lat="44.10288627811302" lon="11.60559121151567"><ele>565.0</ele><time>2026-05-03T11:38:05Z</time></trkpt><trkpt lat="44.10295836684527" lon="11.605531365150888"><ele>565.0</ele><time>2026-05-03T11:38:06Z</time></trkpt><trkpt lat="44.10304233815822" lon="11.605529487947761"><ele>565.0</ele><time>2026-05-03T11:38:07Z</time></trkpt><trkpt lat="44.10313383371777" lon="11.605580521630039"><ele>565.0</ele><time>2026-05-03T11:38:08Z</time></trkpt><trkpt lat="44.10321122422898" lon="11.605686241063763"><ele>565.0</ele><time>2026-05-03T11:38:09Z</time></trkpt><trkpt lat="44.10326677768336" lon="11.605803821197709"><ele>565.0</ele><time>2026-05-03T11:38:10Z</time></trkpt><trkpt lat="44.1033171808689" lon="11.605897812507076"><ele>563.3333333333334</ele><time>2026-05-03T11:38:11Z</time></trkpt><trkpt lat="44.103373199379924" lon="11.605964937521183"><ele>561.6666666666667</ele><time>2026-05-03T11:38:12Z</time></trkpt><trkpt lat="44.10343262294572" lon="11.605996716644116"><ele>560.0</ele><time>2026-05-03T11:38:13Z</time></trkpt><trkpt lat="44.103544927365654" lon="11.605967313286897"><ele>558.3333333333334</ele><time>2026-05-03T11:38:15Z</time></trkpt><trkpt lat="44.103606190250176" lon="11.605873451733496"><ele>556.6666666666666</ele><time>2026-05-03T11:38:16Z</time></trkpt><trkpt lat="44.10366692986322" lon="11.605755763287203"><ele>555.0</ele><time>2026-05-03T11:38:17Z</time></trkpt><trkpt lat="44.10372684516948" lon="11.605639573044959"><ele>555.0</ele><time>2026-05-03T11:38:18Z</time></trkpt><trkpt lat="44.10378195116939" lon="11.605517010015003"><ele>555.0</ele><time>2026-05-03T11:38:19Z</time></trkpt><trkpt lat="44.10379953891713" lon="11.605349305988698"><ele>555.0</ele><time>2026-05-03T11:38:20Z</time></trkpt><trkpt lat="44.103829678511076" lon="11.605190520951396"><ele>555.0</ele><time>2026-05-03T11:38:21Z</time></trkpt><trkpt lat="44.10384360308517" lon="11.605030170612242"><ele>560.0</ele><time>2026-05-03T11:38:22Z</time></trkpt><trkpt lat="44.1038816067638" lon="11.60491079864995"><ele>565.0</ele><time>2026-05-03T11:38:23Z</time></trkpt><trkpt lat="44.103920627541235" lon="11.60481217871625"><ele>570.0</ele><time>2026-05-03T11:38:24Z</time></trkpt><trkpt lat="44.10394281426662" lon="11.60471917709132"><ele>575.0</ele><time>2026-05-03T11:38:25Z</time></trkpt><trkpt lat="44.103935721576164" lon="11.604618423205208"><ele>580.0</ele><time>2026-05-03T11:38:26Z</time></trkpt><trkpt lat="44.103940704329055" lon="11.604505421555919"><ele>585.0</ele><time>2026-05-03T11:38:27Z</time></trkpt><trkpt lat="44.10395744938894" lon="11.604387565453354"><ele>583.3333333333334</ele><time>2026-05-03T11:38:28Z</time></trkpt><trkpt lat="44.10397547271265" lon="11.604271959350331"><ele>581.6666666666666</ele><time>2026-05-03T11:38:29Z</time></trkpt><trkpt lat="44.10399527989958" lon="11.604158452413271"><ele>580.0</ele><time>2026-05-03T11:38:30Z</time></trkpt><trkpt lat="44.10402189200836" lon="11.604054431550539"><ele>578.3333333333333</ele><time>2026-05-03T11:38:31Z</time></trkpt><trkpt lat="44.10406934252461" lon="11.603953387632487"><ele>576.6666666666666</ele><time>2026-05-03T11:38:32Z</time></trkpt><trkpt lat="44.10414085428416" lon="11.603893954648802"><ele>575.0</ele><time>2026-05-03T11:38:33Z</time></trkpt><trkpt lat="44.10422405791768" lon="11.603854826772805"><ele>575.0</ele><time>2026-05-03T11:38:34Z</time></trkpt><trkpt lat="44.10430264545035" lon="11.603795484611414"><ele>575.0</ele><time>2026-05-03T11:38:35Z</time></trkpt><trkpt lat="44.10436171680937" lon="11.603708730533368"><ele>575.0</ele><time>2026-05-03T11:38:36Z</time></trkpt><trkpt lat="44.104424756253465" lon="11.603618302203518"><ele>575.0</ele><time>2026-05-03T11:38:37Z</time></trkpt><trkpt lat="44.10446516001443" lon="11.603504112720481"><ele>575.0</ele><time>2026-05-03T11:38:38Z</time></trkpt><trkpt lat="44.104485348186564" lon="11.60338970151044"><ele>575.0</ele><time>2026-05-03T11:38:38.999Z</time></trkpt><trkpt lat="44.10450884153889" lon="11.603270513454527"><ele>579.1666666666666</ele><time>2026-05-03T11:38:39.999Z</time></trkpt><trkpt lat="44.10453234934749" lon="11.60315125230817"><ele>583.3333333333333</ele><time>2026-05-03T11:38:40.999Z</time></trkpt><trkpt lat="44.10455636872991" lon="11.60304217723794"><ele>587.5</ele><time>2026-05-03T11:38:41.999Z</time></trkpt><trkpt lat="44.104582196509945" lon="11.602936005774295"><ele>591.6666666666666</ele><time>2026-05-03T11:38:42.999Z</time></trkpt><trkpt lat="44.10460140753256" lon="11.602821151204417"><ele>595.8333333333334</ele><time>2026-05-03T11:38:43.999Z</time></trkpt><trkpt lat="44.104674432635186" lon="11.602740604780307"><ele>600.0</ele><time>2026-05-03T11:38:44.999Z</time></trkpt><trkpt lat="44.10474099322388" lon="11.602657711752673"><ele>600.2</ele><time>2026-05-03T11:38:45.999Z</time></trkpt><trkpt lat="44.10480287822604" lon="11.602556079056287"><ele>600.4</ele><time>2026-05-03T11:38:46.999Z</time></trkpt><trkpt lat="44.10488507217054" lon="11.602482498381358"><ele>600.6</ele><time>2026-05-03T11:38:47.999Z</time></trkpt><trkpt lat="44.104969996823655" lon="11.602429642454165"><ele>600.8</ele><time>2026-05-03T11:38:48.999Z</time></trkpt><trkpt lat="44.105063797530114" lon="11.602399160363769"><ele>601.0</ele><time>2026-05-03T11:38:49.999Z</time></trkpt><trkpt lat="44.105148120047275" lon="11.602388591913181"><ele>601.0</ele><time>2026-05-03T11:38:50.999Z</time></trkpt><trkpt lat="44.10524026595352" lon="11.602399462915734"><ele>601.0</ele><time>2026-05-03T11:38:51.999Z</time></trkpt><trkpt lat="44.10532740794464" lon="11.602436824312772"><ele>601.0</ele><time>2026-05-03T11:38:52.999Z</time></trkpt><trkpt lat="44.10540433639754" lon="11.602548594164732"><ele>601.0</ele><time>2026-05-03T11:38:53.999Z</time></trkpt><trkpt lat="44.105444876932566" lon="11.602666562436548"><ele>601.0</ele><time>2026-05-03T11:38:54.999Z</time></trkpt><trkpt lat="44.10543831062625" lon="11.602800447965913"><ele>595.6</ele><time>2026-05-03T11:38:55.999Z</time></trkpt><trkpt lat="44.105445264130665" lon="11.602928265155112"><ele>590.2</ele><time>2026-05-03T11:38:56.999Z</time></trkpt><trkpt lat="44.105465291366585" lon="11.603062235648327"><ele>584.8</ele><time>2026-05-03T11:38:57.999Z</time></trkpt><trkpt lat="44.10550864785223" lon="11.603166589369112"><ele>579.4</ele><time>2026-05-03T11:38:58.999Z</time></trkpt><trkpt lat="44.105554669057454" lon="11.6032340250948"><ele>574.0</ele><time>2026-05-03T11:38:59.999Z</time></trkpt><trkpt lat="44.10568824617147" lon="11.603217168143335"><ele>576.75</ele><time>2026-05-03T11:39:01.999Z</time></trkpt><trkpt lat="44.10578133896027" lon="11.603157800478442"><ele>579.5</ele><time>2026-05-03T11:39:02.999Z</time></trkpt><trkpt lat="44.10585232622191" lon="11.60303047777021"><ele>582.25</ele><time>2026-05-03T11:39:03.999Z</time></trkpt><trkpt lat="44.1059182551125" lon="11.602876178810297"><ele>585.0</ele><time>2026-05-03T11:39:04.999Z</time></trkpt><trkpt lat="44.105990760344405" lon="11.602726095410818"><ele>590.2</ele><time>2026-05-03T11:39:05.999Z</time></trkpt><trkpt lat="44.10607798775464" lon="11.602600568057024"><ele>595.4</ele><time>2026-05-03T11:39:06.999Z</time></trkpt><trkpt lat="44.106163523005165" lon="11.60250659441928"><ele>600.6</ele><time>2026-05-03T11:39:07.999Z</time></trkpt><trkpt lat="44.10626072266394" lon="11.602449261009331"><ele>605.8</ele><time>2026-05-03T11:39:08.999Z</time></trkpt><trkpt lat="44.1063619110878" lon="11.60245643395343"><ele>611.0</ele><time>2026-05-03T11:39:09.999Z</time></trkpt><trkpt lat="44.10648209386761" lon="11.602571385576786"><ele>613.75</ele><time>2026-05-03T11:39:10.999Z</time></trkpt><trkpt lat="44.106605188804146" lon="11.602646474047763"><ele>616.5</ele><time>2026-05-03T11:39:11.999Z</time></trkpt><trkpt lat="44.10673198348858" lon="11.602737428205671"><ele>619.25</ele><time>2026-05-03T11:39:12.999Z</time></trkpt><trkpt lat="44.10683309219754" lon="11.602804254663942"><ele>622.0</ele><time>2026-05-03T11:39:13.999Z</time></trkpt><trkpt lat="44.10691344852412" lon="11.602842374629125"><ele>622.0</ele><time>2026-05-03T11:39:14.999Z</time></trkpt><trkpt lat="44.10702179029767" lon="11.602817535973589"><ele>622.0</ele><time>2026-05-03T11:39:16.999Z</time></trkpt><trkpt lat="44.10709883922665" lon="11.602674171592765"><ele>622.0</ele><time>2026-05-03T11:39:17.999Z</time></trkpt><trkpt lat="44.10711639719987" lon="11.602488414800522"><ele>622.0</ele><time>2026-05-03T11:39:18.999Z</time></trkpt><trkpt lat="44.107195604570464" lon="11.602351855301436"><ele>622.0</ele><time>2026-05-03T11:39:19.999Z</time></trkpt><trkpt lat="44.10732647831236" lon="11.602279862333097"><ele>622.0</ele><time>2026-05-03T11:39:20.999Z</time></trkpt><trkpt lat="44.107434785183436" lon="11.602164085533797"><ele>622.0</ele><time>2026-05-03T11:39:21.999Z</time></trkpt><trkpt lat="44.10753386651338" lon="11.602089131531358"><ele>622.0</ele><time>2026-05-03T11:39:22.999Z</time></trkpt><trkpt lat="44.107629895815826" lon="11.602054314941435"><ele>621.6</ele><time>2026-05-03T11:39:23.999Z</time></trkpt><trkpt lat="44.107720577714325" lon="11.602044669447121"><ele>621.2</ele><time>2026-05-03T11:39:24.999Z</time></trkpt><trkpt lat="44.10779696912045" lon="11.602092867524952"><ele>620.8</ele><time>2026-05-03T11:39:25.999Z</time></trkpt><trkpt lat="44.1078572778437" lon="11.602159184540959"><ele>620.4</ele><time>2026-05-03T11:39:26.999Z</time></trkpt><trkpt lat="44.1078302359296" lon="11.602320862898944"><ele>620.0</ele><time>2026-05-03T11:39:27.999Z</time></trkpt><trkpt lat="44.10776600744235" lon="11.602432633610686"><ele>620.0</ele><time>2026-05-03T11:39:28.999Z</time></trkpt><trkpt lat="44.107723560093845" lon="11.602563546588884"><ele>620.0</ele><time>2026-05-03T11:39:29.999Z</time></trkpt><trkpt lat="44.10768875552772" lon="11.60271588764636"><ele>620.0</ele><time>2026-05-03T11:39:30.999Z</time></trkpt><trkpt lat="44.107673320475755" lon="11.602887995662517"><ele>620.0</ele><time>2026-05-03T11:39:31.999Z</time></trkpt><trkpt lat="44.10767527603848" lon="11.603069316720653"><ele>618.75</ele><time>2026-05-03T11:39:32.999Z</time></trkpt><trkpt lat="44.107701608651624" lon="11.603260224835909"><ele>617.5</ele><time>2026-05-03T11:39:33.999Z</time></trkpt><trkpt lat="44.10772652645621" lon="11.603463656699292"><ele>616.25</ele><time>2026-05-03T11:39:34.999Z</time></trkpt><trkpt lat="44.107752608847015" lon="11.603660643832317"><ele>615.0</ele><time>2026-05-03T11:39:35.999Z</time></trkpt><trkpt lat="44.10775400971399" lon="11.603819631984168"><ele>615.0</ele><time>2026-05-03T11:39:36.999Z</time></trkpt><trkpt lat="44.107752073601766" lon="11.603969809408678"><ele>615.0</ele><time>2026-05-03T11:39:37.999Z</time></trkpt><trkpt lat="44.10777757184092" lon="11.60412132890737"><ele>615.0</ele><time>2026-05-03T11:39:38.999Z</time></trkpt><trkpt lat="44.10781838353105" lon="11.604280834229414"><ele>615.0</ele><time>2026-05-03T11:39:39.999Z</time></trkpt><trkpt lat="44.10786862396565" lon="11.604438422151906"><ele>616.5</ele><time>2026-05-03T11:39:40.999Z</time></trkpt><trkpt lat="44.107914606914434" lon="11.604599143146727"><ele>618.0</ele><time>2026-05-03T11:39:41.999Z</time></trkpt><trkpt lat="44.10795304142198" lon="11.604759811653448"><ele>619.5</ele><time>2026-05-03T11:39:42.999Z</time></trkpt><trkpt lat="44.10798962635621" lon="11.604907848935138"><ele>621.0</ele><time>2026-05-03T11:39:43.999Z</time></trkpt><trkpt lat="44.1080198200849" lon="11.605046890252643"><ele>621.0</ele><time>2026-05-03T11:39:44.999Z</time></trkpt><trkpt lat="44.108038113383216" lon="11.605189878205351"><ele>621.0</ele><time>2026-05-03T11:39:45.999Z</time></trkpt><trkpt lat="44.10803741578265" lon="11.60533331870643"><ele>621.0</ele><time>2026-05-03T11:39:46.999Z</time></trkpt><trkpt lat="44.10801869099408" lon="11.605474967056905"><ele>621.0</ele><time>2026-05-03T11:39:47.999Z</time></trkpt><trkpt lat="44.10799536882031" lon="11.605626570227027"><ele>621.0</ele><time>2026-05-03T11:39:48.999Z</time></trkpt><trkpt lat="44.107972018076524" lon="11.605758194723668"><ele>622.4</ele><time>2026-05-03T11:39:49.999Z</time></trkpt><trkpt lat="44.10795915500846" lon="11.605859115261927"><ele>623.8</ele><time>2026-05-03T11:39:50.999Z</time></trkpt><trkpt lat="44.107995226322984" lon="11.605990420913741"><ele>625.1999999999999</ele><time>2026-05-03T11:39:52.999Z</time></trkpt><trkpt lat="44.10805532682112" lon="11.606043051182668"><ele>626.6</ele><time>2026-05-03T11:39:53.999Z</time></trkpt><trkpt lat="44.10813771248642" lon="11.606015805000586"><ele>628.0</ele><time>2026-05-03T11:39:55Z</time></trkpt><trkpt lat="44.108202777238375" lon="11.605866584386234"><ele>632.5</ele><time>2026-05-03T11:39:56Z</time></trkpt><trkpt lat="44.10828354247007" lon="11.605717175092732"><ele>637.0</ele><time>2026-05-03T11:39:57Z</time></trkpt><trkpt lat="44.1083629777653" lon="11.605589337013916"><ele>641.5</ele><time>2026-05-03T11:39:58Z</time></trkpt><trkpt lat="44.10846318562353" lon="11.605398813267723"><ele>646.0</ele><time>2026-05-03T11:39:59Z</time></trkpt><trkpt lat="44.1085739801689" lon="11.605233972573735"><ele>646.0</ele><time>2026-05-03T11:40:00Z</time></trkpt><trkpt lat="44.108663067150104" lon="11.605089147927062"><ele>646.0</ele><time>2026-05-03T11:40:01Z</time></trkpt><trkpt lat="44.108741055839886" lon="11.604952902486856"><ele>646.0</ele><time>2026-05-03T11:40:02Z</time></trkpt><trkpt lat="44.108820978023715" lon="11.604838658035264"><ele>646.0</ele><time>2026-05-03T11:40:03Z</time></trkpt><trkpt lat="44.10890809614818" lon="11.604752942951544"><ele>646.0</ele><time>2026-05-03T11:40:04Z</time></trkpt><trkpt lat="44.10900207851873" lon="11.604690605073243"><ele>646.0</ele><time>2026-05-03T11:40:05Z</time></trkpt><trkpt lat="44.109100004515504" lon="11.604647882310905"><ele>646.0</ele><time>2026-05-03T11:40:06Z</time></trkpt><trkpt lat="44.109185638420485" lon="11.604622762753774"><ele>646.0</ele><time>2026-05-03T11:40:07Z</time></trkpt><trkpt lat="44.109254782113304" lon="11.604594475272911"><ele>646.0</ele><time>2026-05-03T11:40:08Z</time></trkpt><trkpt lat="44.109341282566255" lon="11.604583491443085"><ele>650.25</ele><time>2026-05-03T11:40:10Z</time></trkpt><trkpt lat="44.10943120210826" lon="11.60473160555683"><ele>654.5</ele><time>2026-05-03T11:40:12Z</time></trkpt><trkpt lat="44.109489332526984" lon="11.604870277691457"><ele>658.75</ele><time>2026-05-03T11:40:13Z</time></trkpt><trkpt lat="44.10954856843806" lon="11.605012212598384"><ele>663.0</ele><time>2026-05-03T11:40:14Z</time></trkpt><trkpt lat="44.10961631417598" lon="11.605143896821493"><ele>663.0</ele><time>2026-05-03T11:40:15Z</time></trkpt><trkpt lat="44.109687668521204" lon="11.60528691119792"><ele>663.0</ele><time>2026-05-03T11:40:16Z</time></trkpt><trkpt lat="44.10975744561703" lon="11.60543398838042"><ele>663.0</ele><time>2026-05-03T11:40:17Z</time></trkpt><trkpt lat="44.10982141468245" lon="11.605593511690554"><ele>663.0</ele><time>2026-05-03T11:40:18Z</time></trkpt><trkpt lat="44.109867007871735" lon="11.605730734086181"><ele>663.8</ele><time>2026-05-03T11:40:19Z</time></trkpt><trkpt lat="44.10991470227175" lon="11.605848067108134"><ele>664.5999999999999</ele><time>2026-05-03T11:40:20Z</time></trkpt><trkpt lat="44.109978747747675" lon="11.60593772024954"><ele>665.4000000000001</ele><time>2026-05-03T11:40:21Z</time></trkpt><trkpt lat="44.11003889896553" lon="11.60600185853774"><ele>666.2</ele><time>2026-05-03T11:40:22Z</time></trkpt><trkpt lat="44.110117096005006" lon="11.606088809602644"><ele>667.0</ele><time>2026-05-03T11:40:24Z</time></trkpt><trkpt lat="44.11015259942766" lon="11.606217883001682"><ele>667.8</ele><time>2026-05-03T11:40:37Z</time></trkpt><trkpt lat="44.11019700807342" lon="11.606345732810011"><ele>668.6</ele><time>2026-05-03T11:40:38Z</time></trkpt><trkpt lat="44.110262211876574" lon="11.606483777910876"><ele>669.4</ele><time>2026-05-03T11:40:39Z</time></trkpt><trkpt lat="44.11031323644145" lon="11.606588835088996"><ele>670.1999999999999</ele><time>2026-05-03T11:40:40Z</time></trkpt><trkpt lat="44.110384501708744" lon="11.606636973310763"><ele>671.0</ele><time>2026-05-03T11:40:41Z</time></trkpt><trkpt lat="44.11048313288713" lon="11.60665188728987"><ele>671.0</ele><time>2026-05-03T11:40:42Z</time></trkpt><trkpt lat="44.11060856781348" lon="11.606687494027424"><ele>671.0</ele><time>2026-05-03T11:40:43Z</time></trkpt><trkpt lat="44.110746823007446" lon="11.606709039635726"><ele>671.0</ele><time>2026-05-03T11:40:44Z</time></trkpt><trkpt lat="44.11086481667359" lon="11.606754177835963"><ele>671.0</ele><time>2026-05-03T11:40:45Z</time></trkpt><trkpt lat="44.1109535729211" lon="11.60677937225267"><ele>672.4</ele><time>2026-05-03T11:40:46Z</time></trkpt><trkpt lat="44.111028162026635" lon="11.606777235269309"><ele>673.8</ele><time>2026-05-03T11:40:46.999Z</time></trkpt><trkpt lat="44.11110791670676" lon="11.606743889531906"><ele>675.1999999999999</ele><time>2026-05-03T11:40:47.999Z</time></trkpt><trkpt lat="44.111213213618164" lon="11.606687443742139"><ele>676.5999999999999</ele><time>2026-05-03T11:40:48.999Z</time></trkpt><trkpt lat="44.11131954244122" lon="11.606651166727048"><ele>678.0</ele><time>2026-05-03T11:40:49.999Z</time></trkpt><trkpt lat="44.11140517236401" lon="11.606670707725991"><ele>678.0</ele><time>2026-05-03T11:40:50.999Z</time></trkpt><trkpt lat="44.11145636772777" lon="11.606741736976492"><ele>678.0</ele><time>2026-05-03T11:40:51.999Z</time></trkpt><trkpt lat="44.11149872058676" lon="11.60687291967624"><ele>678.0</ele><time>2026-05-03T11:40:52.999Z</time></trkpt><trkpt lat="44.1115561326776" lon="11.607001972035292"><ele>678.0</ele><time>2026-05-03T11:40:53.999Z</time></trkpt><trkpt lat="44.11160328832568" lon="11.6070890686154"><ele>678.0</ele><time>2026-05-03T11:40:54.999Z</time></trkpt><trkpt lat="44.11168169294737" lon="11.60710645225048"><ele>678.0</ele><time>2026-05-03T11:40:55.999Z</time></trkpt><trkpt lat="44.11175612285092" lon="11.607041515372927"><ele>680.4</ele><time>2026-05-03T11:40:56.999Z</time></trkpt><trkpt lat="44.11180735513487" lon="11.606934775524794"><ele>682.8</ele><time>2026-05-03T11:40:57.999Z</time></trkpt><trkpt lat="44.1118565927789" lon="11.60683887887842"><ele>685.2</ele><time>2026-05-03T11:40:58.999Z</time></trkpt><trkpt lat="44.11194623748636" lon="11.606792543970819"><ele>687.6</ele><time>2026-05-03T11:40:59.999Z</time></trkpt><trkpt lat="44.1120745417733" lon="11.606733460193846"><ele>690.0</ele><time>2026-05-03T11:41:00.999Z</time></trkpt><trkpt lat="44.11220392630008" lon="11.606694028515724"><ele>690.0</ele><time>2026-05-03T11:41:01.999Z</time></trkpt><trkpt lat="44.11230627215169" lon="11.606641326237886"><ele>690.0</ele><time>2026-05-03T11:41:02.999Z</time></trkpt><trkpt lat="44.112370323944376" lon="11.606563605913506"><ele>690.0</ele><time>2026-05-03T11:41:03.999Z</time></trkpt><trkpt lat="44.11244179896214" lon="11.606527039200857"><ele>690.0</ele><time>2026-05-03T11:41:05.999Z</time></trkpt><trkpt lat="44.11251644075158" lon="11.606677472712123"><ele>690.0</ele><time>2026-05-03T11:41:07.999Z</time></trkpt><trkpt lat="44.11254626115538" lon="11.606802646140961"><ele>688.8</ele><time>2026-05-03T11:41:08.999Z</time></trkpt><trkpt lat="44.112563563076606" lon="11.606924525650722"><ele>687.6</ele><time>2026-05-03T11:41:10.999Z</time></trkpt><trkpt lat="44.11266764011163" lon="11.607003914772848"><ele>686.4000000000001</ele><time>2026-05-03T11:41:12.999Z</time></trkpt><trkpt lat="44.11270139246194" lon="11.607136617848845"><ele>685.2</ele><time>2026-05-03T11:41:14.999Z</time></trkpt><trkpt lat="44.11276898471257" lon="11.607143812887523"><ele>684.0</ele><time>2026-05-03T11:41:16.999Z</time></trkpt><trkpt lat="44.11296863867693" lon="11.607159751849267"><ele>684.0</ele><time>2026-05-03T11:41:17.999Z</time></trkpt><trkpt lat="44.11307632448435" lon="11.607175801818025"><ele>684.0</ele><time>2026-05-03T11:41:19.999Z</time></trkpt><trkpt lat="44.11315493681284" lon="11.607200656752267"><ele>684.0</ele><time>2026-05-03T11:41:21.999Z</time></trkpt><trkpt lat="44.11321911866005" lon="11.607190585882066"><ele>684.0</ele><time>2026-05-03T11:41:23.999Z</time></trkpt><trkpt lat="44.113296482464044" lon="11.607197960894158"><ele>684.0</ele><time>2026-05-03T11:41:25.999Z</time></trkpt><trkpt lat="44.11336624544488" lon="11.607216295614895"><ele>684.0</ele><time>2026-05-03T11:41:26.999Z</time></trkpt><trkpt lat="44.11344261844932" lon="11.60717026447794"><ele>689.6</ele><time>2026-05-03T11:41:27.999Z</time></trkpt><trkpt lat="44.11354610349876" lon="11.607146705044013"><ele>695.2</ele><time>2026-05-03T11:41:29.999Z</time></trkpt><trkpt lat="44.113663069325874" lon="11.607117716582732"><ele>700.8000000000001</ele><time>2026-05-03T11:41:31.999Z</time></trkpt><trkpt lat="44.11376089897861" lon="11.60716958903862"><ele>706.4000000000001</ele><time>2026-05-03T11:41:33.999Z</time></trkpt><trkpt lat="44.113805663218145" lon="11.607273479891745"><ele>712.0</ele><time>2026-05-03T11:41:34.999Z</time></trkpt><trkpt lat="44.11386143466052" lon="11.60731894103525"><ele>712.0</ele><time>2026-05-03T11:41:35.999Z</time></trkpt><trkpt lat="44.11390851400079" lon="11.607393622264775"><ele>712.0</ele><time>2026-05-03T11:41:36.999Z</time></trkpt><trkpt lat="44.11398914760663" lon="11.607505400821658"><ele>712.0</ele><time>2026-05-03T11:41:38.999Z</time></trkpt><trkpt lat="44.11399469129528" lon="11.60763014183679"><ele>712.0</ele><time>2026-05-03T11:41:39.999Z</time></trkpt><trkpt lat="44.11397883997833" lon="11.60776437199397"><ele>712.0</ele><time>2026-05-03T11:41:40.999Z</time></trkpt><trkpt lat="44.11400334527236" lon="11.607870692768236"><ele>710.8333333333334</ele><time>2026-05-03T11:41:41.999Z</time></trkpt><trkpt lat="44.114016625543435" lon="11.60797965459976"><ele>709.6666666666667</ele><time>2026-05-03T11:41:42.999Z</time></trkpt><trkpt lat="44.11401904089032" lon="11.608082728722156"><ele>708.5</ele><time>2026-05-03T11:41:43.999Z</time></trkpt><trkpt lat="44.11403592000743" lon="11.60818606804303"><ele>707.3333333333334</ele><time>2026-05-03T11:41:44.999Z</time></trkpt><trkpt lat="44.114042725565916" lon="11.608287560822813"><ele>706.1666666666666</ele><time>2026-05-03T11:41:45.999Z</time></trkpt><trkpt lat="44.11408976575181" lon="11.608349003475029"><ele>705.0</ele><time>2026-05-03T11:41:46.999Z</time></trkpt><trkpt lat="44.11416419459787" lon="11.608428774282435"><ele>711.6</ele><time>2026-05-03T11:41:48.999Z</time></trkpt><trkpt lat="44.11422995176096" lon="11.608540110783903"><ele>718.2</ele><time>2026-05-03T11:41:50.999Z</time></trkpt><trkpt lat="44.11422709615732" lon="11.608671641974214"><ele>724.8</ele><time>2026-05-03T11:41:52.999Z</time></trkpt><trkpt lat="44.114243705739156" lon="11.608828597587946"><ele>731.4</ele><time>2026-05-03T11:41:54.999Z</time></trkpt><trkpt lat="44.11428695300068" lon="11.60898343699557"><ele>738.0</ele><time>2026-05-03T11:41:56.999Z</time></trkpt><trkpt lat="44.11437238149299" lon="11.609002663059266"><ele>738.0</ele><time>2026-05-03T11:41:58.999Z</time></trkpt><trkpt lat="44.11442518042809" lon="11.60893201604732"><ele>738.0</ele><time>2026-05-03T11:42:01Z</time></trkpt><trkpt lat="44.11444775073319" lon="11.608601883501596"><ele>738.0</ele><time>2026-05-03T11:42:03Z</time></trkpt><trkpt lat="44.11448101218311" lon="11.60849395030779"><ele>738.0</ele><time>2026-05-03T11:42:04Z</time></trkpt><trkpt lat="44.114522840899276" lon="11.608402642276952"><ele>738.1666666666666</ele><time>2026-05-03T11:42:05Z</time></trkpt><trkpt lat="44.11455281392611" lon="11.608290927574016"><ele>738.3333333333334</ele><time>2026-05-03T11:42:06Z</time></trkpt><trkpt lat="44.11460459775056" lon="11.60821276274093"><ele>738.5</ele><time>2026-05-03T11:42:07Z</time></trkpt><trkpt lat="44.11465707367557" lon="11.608160760222296"><ele>738.6666666666667</ele><time>2026-05-03T11:42:08Z</time></trkpt><trkpt lat="44.11470808082079" lon="11.608093573162316"><ele>738.8333333333334</ele><time>2026-05-03T11:42:09Z</time></trkpt><trkpt lat="44.11477860567876" lon="11.60804982757222"><ele>739.0</ele><time>2026-05-03T11:42:10Z</time></trkpt><trkpt lat="44.11489265293899" lon="11.607961068897035"><ele>742.4000000000001</ele><time>2026-05-03T11:42:12Z</time></trkpt><trkpt lat="44.11500196954664" lon="11.607963306484635"><ele>745.8</ele><time>2026-05-03T11:42:14Z</time></trkpt><trkpt lat="44.115117906445995" lon="11.608007815810526"><ele>749.2</ele><time>2026-05-03T11:42:16Z</time></trkpt><trkpt lat="44.11520132822011" lon="11.608029470647995"><ele>752.5999999999999</ele><time>2026-05-03T11:42:17Z</time></trkpt><trkpt lat="44.11528521339535" lon="11.608051123871169"><ele>756.0</ele><time>2026-05-03T11:42:18Z</time></trkpt><trkpt lat="44.115367427353085" lon="11.608094766984038"><ele>756.0</ele><time>2026-05-03T11:42:19Z</time></trkpt><trkpt lat="44.115447275340344" lon="11.60813549156579"><ele>756.0</ele><time>2026-05-03T11:42:20Z</time></trkpt><trkpt lat="44.11553425536019" lon="11.608189813191638"><ele>756.0</ele><time>2026-05-03T11:42:21Z</time></trkpt><trkpt lat="44.11560488320061" lon="11.608237216676486"><ele>756.0</ele><time>2026-05-03T11:42:22Z</time></trkpt><trkpt lat="44.1156742002375" lon="11.608275639330097"><ele>756.0</ele><time>2026-05-03T11:42:23Z</time></trkpt><trkpt lat="44.11574218554642" lon="11.608358285954765"><ele>756.0</ele><time>2026-05-03T11:42:25Z</time></trkpt><trkpt lat="44.11582360175164" lon="11.608435180229495"><ele>759.0</ele><time>2026-05-03T11:42:27Z</time></trkpt><trkpt lat="44.115913583808634" lon="11.608467069925418"><ele>762.0</ele><time>2026-05-03T11:42:29Z</time></trkpt><trkpt lat="44.116027232443415" lon="11.608490657874354"><ele>765.0</ele><time>2026-05-03T11:42:31Z</time></trkpt><trkpt lat="44.11613955301319" lon="11.608469033972696"><ele>768.0</ele><time>2026-05-03T11:42:33Z</time></trkpt><trkpt lat="44.11620573819788" lon="11.608479539994539"><ele>771.0</ele><time>2026-05-03T11:42:34Z</time></trkpt><trkpt lat="44.11627912628182" lon="11.608475724087892"><ele>771.0</ele><time>2026-05-03T11:42:35Z</time></trkpt><trkpt lat="44.116353376731894" lon="11.60848820536207"><ele>771.0</ele><time>2026-05-03T11:42:36Z</time></trkpt><trkpt lat="44.11642018515468" lon="11.608500642969705"><ele>771.0</ele><time>2026-05-03T11:42:37Z</time></trkpt><trkpt lat="44.1165331306996" lon="11.60843979746936"><ele>771.0</ele><time>2026-05-03T11:42:39Z</time></trkpt><trkpt lat="44.11659489321972" lon="11.608390140029117"><ele>771.0</ele><time>2026-05-03T11:42:40Z</time></trkpt><trkpt lat="44.11665653257923" lon="11.608342420152042"><ele>771.0</ele><time>2026-05-03T11:42:41Z</time></trkpt><trkpt lat="44.11671501331" lon="11.608293832777507"><ele>770.0</ele><time>2026-05-03T11:42:42Z</time></trkpt><trkpt lat="44.11678144877075" lon="11.608232592239597"><ele>769.0</ele><time>2026-05-03T11:42:43Z</time></trkpt><trkpt lat="44.116853713659594" lon="11.608188841298844"><ele>768.0</ele><time>2026-05-03T11:42:44Z</time></trkpt><trkpt lat="44.11692198061796" lon="11.608155202638763"><ele>767.0</ele><time>2026-05-03T11:42:45Z</time></trkpt><trkpt lat="44.11700210069225" lon="11.608134703371796"><ele>766.0</ele><time>2026-05-03T11:42:46Z</time></trkpt><trkpt lat="44.11708015842949" lon="11.60810251955017"><ele>765.0</ele><time>2026-05-03T11:42:47Z</time></trkpt><trkpt lat="44.11718085868501" lon="11.608139331390337"><ele>765.0</ele><time>2026-05-03T11:42:48Z</time></trkpt><trkpt lat="44.117263894540095" lon="11.60820637229662"><ele>765.0</ele><time>2026-05-03T11:42:49Z</time></trkpt><trkpt lat="44.117328002513844" lon="11.608268509670143"><ele>765.0</ele><time>2026-05-03T11:42:50Z</time></trkpt><trkpt lat="44.11739016245614" lon="11.608356378188953"><ele>765.0</ele><time>2026-05-03T11:42:51Z</time></trkpt><trkpt lat="44.11745575008399" lon="11.608424827996057"><ele>765.0</ele><time>2026-05-03T11:42:52Z</time></trkpt><trkpt lat="44.11753463050591" lon="11.608516047553262"><ele>765.0</ele><time>2026-05-03T11:42:53Z</time></trkpt><trkpt lat="44.11756856317009" lon="11.608629618499412"><ele>763.4285714285714</ele><time>2026-05-03T11:42:54Z</time></trkpt><trkpt lat="44.11760763529329" lon="11.60871439691748"><ele>761.8571428571429</ele><time>2026-05-03T11:42:55Z</time></trkpt><trkpt lat="44.11766175946288" lon="11.608773010625246"><ele>760.2857142857142</ele><time>2026-05-03T11:42:56Z</time></trkpt><trkpt lat="44.117705411732146" lon="11.608844692587258"><ele>758.7142857142858</ele><time>2026-05-03T11:42:57Z</time></trkpt><trkpt lat="44.117745869003166" lon="11.608924014401762"><ele>757.1428571428571</ele><time>2026-05-03T11:42:58Z</time></trkpt><trkpt lat="44.11778683968679" lon="11.60900904833907"><ele>755.5714285714286</ele><time>2026-05-03T11:42:59Z</time></trkpt><trkpt lat="44.11782857959249" lon="11.60908604132675"><ele>754.0</ele><time>2026-05-03T11:43:00Z</time></trkpt><trkpt lat="44.117869025727096" lon="11.6091805546087"><ele>753.9999999999999</ele><time>2026-05-03T11:43:00.999Z</time></trkpt><trkpt lat="44.11793064628236" lon="11.60926061509208"><ele>754.0</ele><time>2026-05-03T11:43:01.999Z</time></trkpt><trkpt lat="44.11797268048532" lon="11.609345793606694"><ele>754.0</ele><time>2026-05-03T11:43:02.999Z</time></trkpt><trkpt lat="44.118000769894124" lon="11.609433693870457"><ele>754.0</ele><time>2026-05-03T11:43:03.999Z</time></trkpt><trkpt lat="44.118037494129794" lon="11.60951623823816"><ele>754.0</ele><time>2026-05-03T11:43:04.999Z</time></trkpt><trkpt lat="44.118075248323" lon="11.609593316525531"><ele>753.9999999999999</ele><time>2026-05-03T11:43:05.999Z</time></trkpt><trkpt lat="44.11810073197939" lon="11.609683104959291"><ele>754.0</ele><time>2026-05-03T11:43:06.999Z</time></trkpt><trkpt lat="44.118147187506594" lon="11.609837913693331"><ele>755.0</ele><time>2026-05-03T11:43:08.999Z</time></trkpt><trkpt lat="44.11820251894491" lon="11.609911051603351"><ele>756.0</ele><time>2026-05-03T11:43:09.999Z</time></trkpt><trkpt lat="44.11826248059024" lon="11.609991316661892"><ele>757.0</ele><time>2026-05-03T11:43:10.999Z</time></trkpt><trkpt lat="44.11829757279117" lon="11.610092646714673"><ele>758.0</ele><time>2026-05-03T11:43:11.999Z</time></trkpt><trkpt lat="44.11833742798336" lon="11.61017549699479"><ele>759.0</ele><time>2026-05-03T11:43:12.999Z</time></trkpt><trkpt lat="44.11837174603495" lon="11.610250946321926"><ele>760.0</ele><time>2026-05-03T11:43:13.999Z</time></trkpt><trkpt lat="44.1184250755475" lon="11.610326453578013"><ele>760.0</ele><time>2026-05-03T11:43:14.999Z</time></trkpt><trkpt lat="44.1184908325671" lon="11.610385855513462"><ele>760.0</ele><time>2026-05-03T11:43:15.999Z</time></trkpt><trkpt lat="44.11855026879305" lon="11.610454289039735"><ele>760.0</ele><time>2026-05-03T11:43:16.999Z</time></trkpt><trkpt lat="44.11860951790519" lon="11.610525678081785"><ele>760.0</ele><time>2026-05-03T11:43:17.999Z</time></trkpt><trkpt lat="44.11866312135225" lon="11.610580082283931"><ele>760.0</ele><time>2026-05-03T11:43:18.999Z</time></trkpt><trkpt lat="44.11871872923431" lon="11.610641535886987"><ele>760.0</ele><time>2026-05-03T11:43:19.999Z</time></trkpt><trkpt lat="44.11877691682929" lon="11.61069951106937"><ele>760.0</ele><time>2026-05-03T11:43:20.999Z</time></trkpt><trkpt lat="44.118838611546664" lon="11.610764851071124"><ele>760.0</ele><time>2026-05-03T11:43:21.999Z</time></trkpt><trkpt lat="44.11889764519608" lon="11.610829252738865"><ele>760.0</ele><time>2026-05-03T11:43:22.999Z</time></trkpt><trkpt lat="44.1189619036111" lon="11.610901474256204"><ele>760.0</ele><time>2026-05-03T11:43:23.999Z</time></trkpt><trkpt lat="44.11902488364755" lon="11.610979880715883"><ele>760.0</ele><time>2026-05-03T11:43:24.999Z</time></trkpt><trkpt lat="44.11908615376257" lon="11.611043945366037"><ele>760.0</ele><time>2026-05-03T11:43:25.999Z</time></trkpt><trkpt lat="44.1191475110074" lon="11.611107090154983"><ele>760.0</ele><time>2026-05-03T11:43:26.999Z</time></trkpt><trkpt lat="44.11921168364779" lon="11.611169625185957"><ele>761.6666666666667</ele><time>2026-05-03T11:43:27.999Z</time></trkpt><trkpt lat="44.11927371042742" lon="11.611229891008726"><ele>763.3333333333334</ele><time>2026-05-03T11:43:28.999Z</time></trkpt><trkpt lat="44.11931650078368" lon="11.611311052018909"><ele>765.0</ele><time>2026-05-03T11:43:29.999Z</time></trkpt><trkpt lat="44.119340216885334" lon="11.61141872953042"><ele>766.6666666666667</ele><time>2026-05-03T11:43:30.999Z</time></trkpt><trkpt lat="44.11935793891992" lon="11.611545015777054"><ele>768.3333333333334</ele><time>2026-05-03T11:43:31.999Z</time></trkpt><trkpt lat="44.11938039640872" lon="11.611672481718143"><ele>770.0</ele><time>2026-05-03T11:43:32.999Z</time></trkpt><trkpt lat="44.11940373079024" lon="11.61178959983568"><ele>770.0000000000001</ele><time>2026-05-03T11:43:33.999Z</time></trkpt><trkpt lat="44.119426215413924" lon="11.61189700397129"><ele>770.0</ele><time>2026-05-03T11:43:34.999Z</time></trkpt><trkpt lat="44.11944760855902" lon="11.611982594845362"><ele>770.0</ele><time>2026-05-03T11:43:35.999Z</time></trkpt><trkpt lat="44.11947517737805" lon="11.612064473095932"><ele>770.0</ele><time>2026-05-03T11:43:36.999Z</time></trkpt><trkpt lat="44.11952427381178" lon="11.612159944245716"><ele>770.0000000000001</ele><time>2026-05-03T11:43:37.999Z</time></trkpt><trkpt lat="44.11958747419301" lon="11.612236061611203"><ele>770.0</ele><time>2026-05-03T11:43:38.999Z</time></trkpt><trkpt lat="44.119652791547644" lon="11.61228134796037"><ele>770.3333333333334</ele><time>2026-05-03T11:43:39.999Z</time></trkpt><trkpt lat="44.119726412667184" lon="11.612334984040322"><ele>770.6666666666667</ele><time>2026-05-03T11:43:40.999Z</time></trkpt><trkpt lat="44.11975544639696" lon="11.612443960860794"><ele>771.0</ele><time>2026-05-03T11:43:41.999Z</time></trkpt><trkpt lat="44.11981453310604" lon="11.612530253867268"><ele>771.3333333333333</ele><time>2026-05-03T11:43:42.999Z</time></trkpt><trkpt lat="44.11987796508623" lon="11.612600925321855"><ele>771.6666666666666</ele><time>2026-05-03T11:43:43.999Z</time></trkpt><trkpt lat="44.11992911461061" lon="11.612658288612733"><ele>772.0</ele><time>2026-05-03T11:43:44.999Z</time></trkpt><trkpt lat="44.11999323441369" lon="11.612710885708685"><ele>771.9999999999999</ele><time>2026-05-03T11:43:45.999Z</time></trkpt><trkpt lat="44.12005598457946" lon="11.612760234687325"><ele>772.0</ele><time>2026-05-03T11:43:46.999Z</time></trkpt><trkpt lat="44.12011815998964" lon="11.612796705118614"><ele>772.0</ele><time>2026-05-03T11:43:47.999Z</time></trkpt><trkpt lat="44.12021072133962" lon="11.61289338070484"><ele>772.0</ele><time>2026-05-03T11:43:49.999Z</time></trkpt><trkpt lat="44.120265640381255" lon="11.612953615349623"><ele>771.9999999999999</ele><time>2026-05-03T11:43:50.999Z</time></trkpt><trkpt lat="44.12032118571107" lon="11.613015421951289"><ele>772.0</ele><time>2026-05-03T11:43:51.999Z</time></trkpt><trkpt lat="44.120378126160595" lon="11.613078272825835"><ele>771.5714285714287</ele><time>2026-05-03T11:43:52.999Z</time></trkpt><trkpt lat="44.12043814338639" lon="11.613139849389077"><ele>771.1428571428571</ele><time>2026-05-03T11:43:53.999Z</time></trkpt><trkpt lat="44.120497178417054" lon="11.613197103968139"><ele>770.7142857142858</ele><time>2026-05-03T11:43:54.999Z</time></trkpt><trkpt lat="44.120564307253815" lon="11.613230877520596"><ele>770.2857142857143</ele><time>2026-05-03T11:43:55.999Z</time></trkpt><trkpt lat="44.12062536872815" lon="11.613271730232015"><ele>769.8571428571429</ele><time>2026-05-03T11:43:56.999Z</time></trkpt><trkpt lat="44.12069445928335" lon="11.613318572732695"><ele>769.4285714285714</ele><time>2026-05-03T11:43:57.999Z</time></trkpt><trkpt lat="44.120765428094266" lon="11.61334570186944"><ele>769.0</ele><time>2026-05-03T11:43:58.999Z</time></trkpt><trkpt lat="44.120841506805036" lon="11.613350574539501"><ele>767.1666666666666</ele><time>2026-05-03T11:43:59.999Z</time></trkpt><trkpt lat="44.12090186274509" lon="11.613389455439114"><ele>765.3333333333333</ele><time>2026-05-03T11:44:00.999Z</time></trkpt><trkpt lat="44.12101706793349" lon="11.613439695900476"><ele>763.5</ele><time>2026-05-03T11:44:02.999Z</time></trkpt><trkpt lat="44.12107581694416" lon="11.613477090873781"><ele>761.6666666666666</ele><time>2026-05-03T11:44:03.999Z</time></trkpt><trkpt lat="44.12115551744364" lon="11.613590864001939"><ele>759.8333333333333</ele><time>2026-05-03T11:44:05.999Z</time></trkpt><trkpt lat="44.121168367162525" lon="11.613676714771778"><ele>758.0</ele><time>2026-05-03T11:44:07Z</time></trkpt><trkpt lat="44.12117782035432" lon="11.613765949138836"><ele>756.8333333333333</ele><time>2026-05-03T11:44:08Z</time></trkpt><trkpt lat="44.1212010714327" lon="11.613879133480975"><ele>755.6666666666666</ele><time>2026-05-03T11:44:09Z</time></trkpt><trkpt lat="44.12123515270864" lon="11.613963093474611"><ele>754.5</ele><time>2026-05-03T11:44:10Z</time></trkpt><trkpt lat="44.121288529513095" lon="11.61407694981233"><ele>753.3333333333334</ele><time>2026-05-03T11:44:11Z</time></trkpt><trkpt lat="44.121332126897386" lon="11.614157856309166"><ele>752.1666666666667</ele><time>2026-05-03T11:44:12Z</time></trkpt><trkpt lat="44.121388880942035" lon="11.61424498303446"><ele>751.0</ele><time>2026-05-03T11:44:13Z</time></trkpt><trkpt lat="44.12149458071429" lon="11.614346894903466"><ele>750.6666666666667</ele><time>2026-05-03T11:44:15Z</time></trkpt><trkpt lat="44.121567957041755" lon="11.614418940721286"><ele>750.3333333333334</ele><time>2026-05-03T11:44:16Z</time></trkpt><trkpt lat="44.121636415279596" lon="11.614474412656731"><ele>750.0</ele><time>2026-05-03T11:44:17Z</time></trkpt><trkpt lat="44.121684291904444" lon="11.614534442465054"><ele>749.6666666666666</ele><time>2026-05-03T11:44:18Z</time></trkpt><trkpt lat="44.12175800992836" lon="11.614576054452012"><ele>749.3333333333333</ele><time>2026-05-03T11:44:19Z</time></trkpt><trkpt lat="44.12183318598231" lon="11.614605851319688"><ele>749.0</ele><time>2026-05-03T11:44:20Z</time></trkpt><trkpt lat="44.12190362436328" lon="11.614667520362163"><ele>749.0</ele><time>2026-05-03T11:44:21Z</time></trkpt><trkpt lat="44.12197692503383" lon="11.614719674629812"><ele>749.0</ele><time>2026-05-03T11:44:22Z</time></trkpt><trkpt lat="44.12205977703638" lon="11.614773743306092"><ele>749.0</ele><time>2026-05-03T11:44:23Z</time></trkpt><trkpt lat="44.12214613160289" lon="11.614827261843136"><ele>749.0</ele><time>2026-05-03T11:44:24Z</time></trkpt><trkpt lat="44.12223376113602" lon="11.614880077410833"><ele>749.0</ele><time>2026-05-03T11:44:25Z</time></trkpt><trkpt lat="44.12231321222591" lon="11.614927963700364"><ele>745.1666666666666</ele><time>2026-05-03T11:44:26Z</time></trkpt><trkpt lat="44.122400604966266" lon="11.614952919144203"><ele>741.3333333333333</ele><time>2026-05-03T11:44:27Z</time></trkpt><trkpt lat="44.12248238941405" lon="11.615003339800968"><ele>737.5</ele><time>2026-05-03T11:44:28Z</time></trkpt><trkpt lat="44.12255244269197" lon="11.615068449962846"><ele>733.6666666666666</ele><time>2026-05-03T11:44:29Z</time></trkpt><trkpt lat="44.122626395985364" lon="11.615117147078175"><ele>729.8333333333334</ele><time>2026-05-03T11:44:30Z</time></trkpt><trkpt lat="44.12269701713471" lon="11.615168544227057"><ele>726.0</ele><time>2026-05-03T11:44:31Z</time></trkpt><trkpt lat="44.12276259805618" lon="11.615229351183478"><ele>726.0</ele><time>2026-05-03T11:44:32Z</time></trkpt><trkpt lat="44.12284217217519" lon="11.615284885213088"><ele>726.0</ele><time>2026-05-03T11:44:33Z</time></trkpt><trkpt lat="44.122909451679305" lon="11.615345462959722"><ele>726.0</ele><time>2026-05-03T11:44:34Z</time></trkpt><trkpt lat="44.12297342983551" lon="11.615413304170279"><ele>726.0</ele><time>2026-05-03T11:44:35Z</time></trkpt><trkpt lat="44.12303184598795" lon="11.615454911629621"><ele>726.0</ele><time>2026-05-03T11:44:36Z</time></trkpt><trkpt lat="44.12310140521466" lon="11.615482278236493"><ele>726.0</ele><time>2026-05-03T11:44:37Z</time></trkpt><trkpt lat="44.123155679535806" lon="11.615545159076483"><ele>722.5</ele><time>2026-05-03T11:44:38Z</time></trkpt><trkpt lat="44.12321467498364" lon="11.615606315438876"><ele>719.0</ele><time>2026-05-03T11:44:39Z</time></trkpt><trkpt lat="44.12327680421455" lon="11.615658560709498"><ele>715.5</ele><time>2026-05-03T11:44:40Z</time></trkpt><trkpt lat="44.12334884054396" lon="11.615705594762066"><ele>712.0</ele><time>2026-05-03T11:44:41Z</time></trkpt><trkpt lat="44.12341999865448" lon="11.615745439019616"><ele>708.5</ele><time>2026-05-03T11:44:42Z</time></trkpt><trkpt lat="44.12347479741746" lon="11.615793652073126"><ele>705.0</ele><time>2026-05-03T11:44:43Z</time></trkpt><trkpt lat="44.123566720810196" lon="11.615933931604602"><ele>705.0</ele><time>2026-05-03T11:44:45Z</time></trkpt><trkpt lat="44.12360854824868" lon="11.616010570042208"><ele>705.0</ele><time>2026-05-03T11:44:46Z</time></trkpt><trkpt lat="44.123659775892435" lon="11.616098135244345"><ele>705.0</ele><time>2026-05-03T11:44:47Z</time></trkpt><trkpt lat="44.12370622429563" lon="11.616194901462785"><ele>705.0</ele><time>2026-05-03T11:44:48Z</time></trkpt><trkpt lat="44.1237551712055" lon="11.616294517802245"><ele>705.0</ele><time>2026-05-03T11:44:49Z</time></trkpt><trkpt lat="44.123815900180226" lon="11.616373405525513"><ele>705.0</ele><time>2026-05-03T11:44:50Z</time></trkpt><trkpt lat="44.12390858256575" lon="11.616418749761745"><ele>703.4</ele><time>2026-05-03T11:44:51Z</time></trkpt><trkpt lat="44.12399531258061" lon="11.616520114429198"><ele>701.8</ele><time>2026-05-03T11:44:52Z</time></trkpt><trkpt lat="44.12407724257967" lon="11.61663003951891"><ele>700.2</ele><time>2026-05-03T11:44:53Z</time></trkpt><trkpt lat="44.12413252062053" lon="11.616773354090773"><ele>698.6</ele><time>2026-05-03T11:44:54Z</time></trkpt><trkpt lat="44.12421390606254" lon="11.616856218209312"><ele>697.0</ele><time>2026-05-03T11:44:55Z</time></trkpt><trkpt lat="44.124279770195166" lon="11.616913381936797"><ele>697.0</ele><time>2026-05-03T11:44:56Z</time></trkpt><trkpt lat="44.12434831720281" lon="11.616969526514362"><ele>697.0</ele><time>2026-05-03T11:44:57Z</time></trkpt><trkpt lat="44.12443100767597" lon="11.616977728741977"><ele>697.0</ele><time>2026-05-03T11:44:58Z</time></trkpt><trkpt lat="44.124506722252704" lon="11.61699111300691"><ele>697.0</ele><time>2026-05-03T11:44:59Z</time></trkpt><trkpt lat="44.124569504660585" lon="11.617007192770668"><ele>697.0</ele><time>2026-05-03T11:45:00Z</time></trkpt><trkpt lat="44.124628576213965" lon="11.617055048881433"><ele>697.0</ele><time>2026-05-03T11:45:01Z</time></trkpt><trkpt lat="44.124684058974026" lon="11.61716816988847"><ele>694.0</ele><time>2026-05-03T11:45:02Z</time></trkpt><trkpt lat="44.12473064640908" lon="11.617316159169354"><ele>691.0</ele><time>2026-05-03T11:45:03Z</time></trkpt><trkpt lat="44.124766845882334" lon="11.617473813410871"><ele>688.0</ele><time>2026-05-03T11:45:04Z</time></trkpt><trkpt lat="44.12479583542776" lon="11.617642749830084"><ele>685.0</ele><time>2026-05-03T11:45:05Z</time></trkpt><trkpt lat="44.124823292056966" lon="11.617796942636334"><ele>682.0</ele><time>2026-05-03T11:45:06Z</time></trkpt><trkpt lat="44.124860163934486" lon="11.617920843590824"><ele>679.0</ele><time>2026-05-03T11:45:07Z</time></trkpt><trkpt lat="44.12490904923322" lon="11.618032773905254"><ele>676.0</ele><time>2026-05-03T11:45:08Z</time></trkpt><trkpt lat="44.12497447635564" lon="11.618144666295814"><ele>673.0</ele><time>2026-05-03T11:45:09Z</time></trkpt><trkpt lat="44.12505110779906" lon="11.618249473684244"><ele>670.0</ele><time>2026-05-03T11:45:10Z</time></trkpt><trkpt lat="44.125122065365126" lon="11.618340303897156"><ele>675.0</ele><time>2026-05-03T11:45:11Z</time></trkpt><trkpt lat="44.12519891841789" lon="11.61844037317368"><ele>680.0</ele><time>2026-05-03T11:45:11.999Z</time></trkpt><trkpt lat="44.12527878015802" lon="11.618540741501345"><ele>685.0</ele><time>2026-05-03T11:45:12.999Z</time></trkpt><trkpt lat="44.12534053448372" lon="11.61861840708791"><ele>690.0</ele><time>2026-05-03T11:45:13.999Z</time></trkpt><trkpt lat="44.125376838318104" lon="11.618692900138866"><ele>695.0</ele><time>2026-05-03T11:45:14.999Z</time></trkpt><trkpt lat="44.12539054149151" lon="11.618794221920345"><ele>700.0</ele><time>2026-05-03T11:45:15.999Z</time></trkpt><trkpt lat="44.125359197640556" lon="11.618897556612078"><ele>700.0</ele><time>2026-05-03T11:45:16.999Z</time></trkpt><trkpt lat="44.125299111664035" lon="11.61896969709748"><ele>700.0</ele><time>2026-05-03T11:45:17.999Z</time></trkpt><trkpt lat="44.12523138841819" lon="11.619119316207037"><ele>700.0</ele><time>2026-05-03T11:45:18.999Z</time></trkpt><trkpt lat="44.1252241479541" lon="11.619280152288649"><ele>700.0</ele><time>2026-05-03T11:45:19.999Z</time></trkpt><trkpt lat="44.12530955210133" lon="11.619449951765375"><ele>699.8333333333334</ele><time>2026-05-03T11:45:20.999Z</time></trkpt><trkpt lat="44.12538243477647" lon="11.619588159480468"><ele>699.6666666666667</ele><time>2026-05-03T11:45:22.999Z</time></trkpt><trkpt lat="44.125393873897835" lon="11.619683175999516"><ele>699.5</ele><time>2026-05-03T11:45:23.999Z</time></trkpt><trkpt lat="44.125427900317845" lon="11.619785181902769"><ele>699.3333333333334</ele><time>2026-05-03T11:45:24.999Z</time></trkpt><trkpt lat="44.12545602118861" lon="11.619893206186315"><ele>699.1666666666666</ele><time>2026-05-03T11:45:25.999Z</time></trkpt><trkpt lat="44.12544771417684" lon="11.620016589660358"><ele>699.0</ele><time>2026-05-03T11:45:26.999Z</time></trkpt><trkpt lat="44.125466250945514" lon="11.620140013148713"><ele>699.0</ele><time>2026-05-03T11:45:27.999Z</time></trkpt><trkpt lat="44.12550357288746" lon="11.620257652889466"><ele>699.0</ele><time>2026-05-03T11:45:28.999Z</time></trkpt><trkpt lat="44.125547863008336" lon="11.620360988523002"><ele>699.0</ele><time>2026-05-03T11:45:29.999Z</time></trkpt><trkpt lat="44.12561077556369" lon="11.620436803725296"><ele>699.0</ele><time>2026-05-03T11:45:30.999Z</time></trkpt><trkpt lat="44.125661594026894" lon="11.620513067033452"><ele>699.0</ele><time>2026-05-03T11:45:31.999Z</time></trkpt><trkpt lat="44.12571977716586" lon="11.620587480257454"><ele>699.0</ele><time>2026-05-03T11:45:32.999Z</time></trkpt><trkpt lat="44.125777119084184" lon="11.620661686649226"><ele>700.6</ele><time>2026-05-03T11:45:33.999Z</time></trkpt><trkpt lat="44.12584515126316" lon="11.620707205650357"><ele>702.2</ele><time>2026-05-03T11:45:34.999Z</time></trkpt><trkpt lat="44.12591417767769" lon="11.620785176638908"><ele>703.8000000000001</ele><time>2026-05-03T11:45:35.999Z</time></trkpt><trkpt lat="44.125969621693706" lon="11.620872298141785"><ele>705.4000000000001</ele><time>2026-05-03T11:45:36.999Z</time></trkpt><trkpt lat="44.12593026913113" lon="11.621039075923179"><ele>707.0</ele><time>2026-05-03T11:45:37.999Z</time></trkpt><trkpt lat="44.1259380970905" lon="11.621157532984158"><ele>707.0</ele><time>2026-05-03T11:45:38.999Z</time></trkpt><trkpt lat="44.125920678335945" lon="11.621301019381768"><ele>707.0</ele><time>2026-05-03T11:45:39.999Z</time></trkpt><trkpt lat="44.12590568816061" lon="11.621458578566306"><ele>707.0</ele><time>2026-05-03T11:45:40.999Z</time></trkpt><trkpt lat="44.12590350261731" lon="11.621600872730609"><ele>707.0</ele><time>2026-05-03T11:45:41.999Z</time></trkpt><trkpt lat="44.12587750486116" lon="11.621721205498176"><ele>707.0</ele><time>2026-05-03T11:45:42.999Z</time></trkpt><trkpt lat="44.12583475921655" lon="11.62181947705913"><ele>707.0</ele><time>2026-05-03T11:45:43.999Z</time></trkpt><trkpt lat="44.12577205074349" lon="11.621914527519898"><ele>707.0</ele><time>2026-05-03T11:45:44.999Z</time></trkpt><trkpt lat="44.12571274861839" lon="11.622006972908883"><ele>707.0</ele><time>2026-05-03T11:45:45.999Z</time></trkpt><trkpt lat="44.12568025203564" lon="11.62210982663058"><ele>707.0</ele><time>2026-05-03T11:45:46.999Z</time></trkpt><trkpt lat="44.12566510236048" lon="11.622232924093483"><ele>707.0</ele><time>2026-05-03T11:45:47.999Z</time></trkpt><trkpt lat="44.12566399761042" lon="11.622354278872828"><ele>707.0</ele><time>2026-05-03T11:45:48.999Z</time></trkpt><trkpt lat="44.125684905245436" lon="11.622484633595421"><ele>706.0</ele><time>2026-05-03T11:45:49.999Z</time></trkpt><trkpt lat="44.12572660571347" lon="11.62262139121989"><ele>705.0</ele><time>2026-05-03T11:45:50.999Z</time></trkpt><trkpt lat="44.12576229057665" lon="11.62279217025757"><ele>704.0</ele><time>2026-05-03T11:45:51.999Z</time></trkpt><trkpt lat="44.12580505731952" lon="11.622970289497868"><ele>703.0</ele><time>2026-05-03T11:45:52.999Z</time></trkpt><trkpt lat="44.12584488525726" lon="11.623140883589247"><ele>703.0</ele><time>2026-05-03T11:45:53.999Z</time></trkpt><trkpt lat="44.12588056254692" lon="11.623293707493767"><ele>703.0</ele><time>2026-05-03T11:45:54.999Z</time></trkpt><trkpt lat="44.12590655887673" lon="11.623420728097821"><ele>703.0</ele><time>2026-05-03T11:45:55.999Z</time></trkpt><trkpt lat="44.1259354214944" lon="11.623530110225289"><ele>703.0</ele><time>2026-05-03T11:45:56.999Z</time></trkpt><trkpt lat="44.12594249322366" lon="11.623633071111396"><ele>703.0</ele><time>2026-05-03T11:45:57.999Z</time></trkpt><trkpt lat="44.125951626358734" lon="11.623731403629746"><ele>703.0</ele><time>2026-05-03T11:45:58.999Z</time></trkpt><trkpt lat="44.125997925192216" lon="11.623826932580716"><ele>703.0</ele><time>2026-05-03T11:45:59.999Z</time></trkpt><trkpt lat="44.12609783845246" lon="11.62389452834215"><ele>703.0</ele><time>2026-05-03T11:46:00.999Z</time></trkpt><trkpt lat="44.1262013468821" lon="11.624005822989227"><ele>703.0</ele><time>2026-05-03T11:46:01.999Z</time></trkpt><trkpt lat="44.12631885575871" lon="11.624149406760727"><ele>703.0</ele><time>2026-05-03T11:46:02.999Z</time></trkpt><trkpt lat="44.126434748354605" lon="11.62430328456868"><ele>703.0</ele><time>2026-05-03T11:46:03.999Z</time></trkpt><trkpt lat="44.12652874330184" lon="11.624454077765616"><ele>703.0</ele><time>2026-05-03T11:46:04.999Z</time></trkpt><trkpt lat="44.12664835733474" lon="11.624578460751488"><ele>703.0</ele><time>2026-05-03T11:46:05.999Z</time></trkpt><trkpt lat="44.126774420431815" lon="11.62469980417607"><ele>703.0</ele><time>2026-05-03T11:46:06.999Z</time></trkpt><trkpt lat="44.12690226734414" lon="11.624827622187203"><ele>701.0</ele><time>2026-05-03T11:46:07.999Z</time></trkpt><trkpt lat="44.12702074318044" lon="11.624945901250143"><ele>699.0</ele><time>2026-05-03T11:46:08.999Z</time></trkpt><trkpt lat="44.12712977936744" lon="11.625053788466468"><ele>697.0</ele><time>2026-05-03T11:46:09.999Z</time></trkpt><trkpt lat="44.12723659195916" lon="11.625133314268233"><ele>695.0</ele><time>2026-05-03T11:46:10.999Z</time></trkpt><trkpt lat="44.127303173637856" lon="11.625258115336836"><ele>696.0</ele><time>2026-05-03T11:46:11.999Z</time></trkpt><trkpt lat="44.12735995692091" lon="11.625371887906981"><ele>697.0</ele><time>2026-05-03T11:46:13Z</time></trkpt><trkpt lat="44.127419421825145" lon="11.625499602606473"><ele>698.0</ele><time>2026-05-03T11:46:14Z</time></trkpt><trkpt lat="44.12748650715727" lon="11.625607316262617"><ele>699.0</ele><time>2026-05-03T11:46:15Z</time></trkpt><trkpt lat="44.12756795300116" lon="11.62569357113944"><ele>700.0</ele><time>2026-05-03T11:46:16Z</time></trkpt><trkpt lat="44.12765548507793" lon="11.625785723857945"><ele>700.0</ele><time>2026-05-03T11:46:17Z</time></trkpt><trkpt lat="44.12773680686303" lon="11.625867777126068"><ele>700.0</ele><time>2026-05-03T11:46:18Z</time></trkpt><trkpt lat="44.127832372937185" lon="11.625960572119627"><ele>700.0</ele><time>2026-05-03T11:46:19Z</time></trkpt><trkpt lat="44.12793303650722" lon="11.62605704346449"><ele>700.0</ele><time>2026-05-03T11:46:20Z</time></trkpt><trkpt lat="44.12803600485617" lon="11.626146710445214"><ele>701.6</ele><time>2026-05-03T11:46:21Z</time></trkpt><trkpt lat="44.12812101106404" lon="11.626282440974137"><ele>703.2</ele><time>2026-05-03T11:46:22Z</time></trkpt><trkpt lat="44.12821036034916" lon="11.626366957374461"><ele>704.8</ele><time>2026-05-03T11:46:23Z</time></trkpt><trkpt lat="44.12828349058463" lon="11.626440581193059"><ele>706.4</ele><time>2026-05-03T11:46:24Z</time></trkpt><trkpt lat="44.128339265052816" lon="11.626518013564965"><ele>708.0</ele><time>2026-05-03T11:46:25Z</time></trkpt><trkpt lat="44.12841574241674" lon="11.626578693281205"><ele>708.0</ele><time>2026-05-03T11:46:26Z</time></trkpt><trkpt lat="44.12850769249589" lon="11.62664146557538"><ele>708.0</ele><time>2026-05-03T11:46:27Z</time></trkpt><trkpt lat="44.12859481179411" lon="11.626715348948437"><ele>708.0</ele><time>2026-05-03T11:46:28Z</time></trkpt><trkpt lat="44.12868183536112" lon="11.626798146422768"><ele>708.0</ele><time>2026-05-03T11:46:29Z</time></trkpt><trkpt lat="44.12877144616228" lon="11.626897773158179"><ele>708.0</ele><time>2026-05-03T11:46:30Z</time></trkpt><trkpt lat="44.12885132997442" lon="11.627023124630208"><ele>706.75</ele><time>2026-05-03T11:46:31Z</time></trkpt><trkpt lat="44.12892496151802" lon="11.627154279712386"><ele>705.5</ele><time>2026-05-03T11:46:32Z</time></trkpt><trkpt lat="44.1290128329082" lon="11.62728305724699"><ele>704.25</ele><time>2026-05-03T11:46:33Z</time></trkpt><trkpt lat="44.1290950514933" lon="11.627386051369802"><ele>703.0</ele><time>2026-05-03T11:46:34Z</time></trkpt><trkpt lat="44.12918754484933" lon="11.627465687015517"><ele>703.0</ele><time>2026-05-03T11:46:35Z</time></trkpt><trkpt lat="44.12927990450459" lon="11.627541346249624"><ele>703.0</ele><time>2026-05-03T11:46:36Z</time></trkpt><trkpt lat="44.129356725920225" lon="11.627612844349441"><ele>703.0</ele><time>2026-05-03T11:46:37Z</time></trkpt><trkpt lat="44.12942130997946" lon="11.627722527973521"><ele>703.0</ele><time>2026-05-03T11:46:38Z</time></trkpt><trkpt lat="44.12945834167961" lon="11.627849337307504"><ele>703.0</ele><time>2026-05-03T11:46:39Z</time></trkpt><trkpt lat="44.1294802661705" lon="11.628008646777934"><ele>701.2</ele><time>2026-05-03T11:46:40Z</time></trkpt><trkpt lat="44.12950704028696" lon="11.628155293550106"><ele>699.4</ele><time>2026-05-03T11:46:41Z</time></trkpt><trkpt lat="44.12955683441802" lon="11.628267105270913"><ele>697.6</ele><time>2026-05-03T11:46:42Z</time></trkpt><trkpt lat="44.12963746640423" lon="11.628377002786252"><ele>695.8000000000001</ele><time>2026-05-03T11:46:43Z</time></trkpt><trkpt lat="44.129715738914705" lon="11.628488892819822"><ele>694.0</ele><time>2026-05-03T11:46:44Z</time></trkpt><trkpt lat="44.12978652591811" lon="11.628610329882427"><ele>694.4000000000001</ele><time>2026-05-03T11:46:45Z</time></trkpt><trkpt lat="44.12983535533332" lon="11.628749239197973"><ele>694.8</ele><time>2026-05-03T11:46:46Z</time></trkpt><trkpt lat="44.12988555440321" lon="11.62888037471086"><ele>695.2</ele><time>2026-05-03T11:46:47Z</time></trkpt><trkpt lat="44.12994018646444" lon="11.628989745523578"><ele>695.5999999999999</ele><time>2026-05-03T11:46:48Z</time></trkpt><trkpt lat="44.13001496976731" lon="11.629094951450131"><ele>696.0</ele><time>2026-05-03T11:46:49Z</time></trkpt><trkpt lat="44.13007590699792" lon="11.629210800783005"><ele>698.6666666666666</ele><time>2026-05-03T11:46:50Z</time></trkpt><trkpt lat="44.1301263396639" lon="11.629313994320373"><ele>701.3333333333334</ele><time>2026-05-03T11:46:51Z</time></trkpt><trkpt lat="44.13016141316641" lon="11.629417017644728"><ele>704.0</ele><time>2026-05-03T11:46:52Z</time></trkpt><trkpt lat="44.13019473464337" lon="11.629529022544586"><ele>706.6666666666667</ele><time>2026-05-03T11:46:53Z</time></trkpt><trkpt lat="44.130241241321926" lon="11.629635276863297"><ele>709.3333333333334</ele><time>2026-05-03T11:46:54Z</time></trkpt><trkpt lat="44.13027218314993" lon="11.6297510776406"><ele>712.0</ele><time>2026-05-03T11:46:55Z</time></trkpt><trkpt lat="44.130294708267215" lon="11.629854507813214"><ele>712.0</ele><time>2026-05-03T11:46:56Z</time></trkpt><trkpt lat="44.13035056905141" lon="11.629952975947473"><ele>712.0</ele><time>2026-05-03T11:46:57Z</time></trkpt><trkpt lat="44.130433919664924" lon="11.630032395350709"><ele>712.0</ele><time>2026-05-03T11:46:58Z</time></trkpt><trkpt lat="44.13050112722865" lon="11.630100073887574"><ele>712.0</ele><time>2026-05-03T11:46:59Z</time></trkpt><trkpt lat="44.13056361165858" lon="11.630160058848142"><ele>712.0</ele><time>2026-05-03T11:47:00Z</time></trkpt><trkpt lat="44.13066590858041" lon="11.630258262985373"><ele>709.6666666666667</ele><time>2026-05-03T11:47:02Z</time></trkpt><trkpt lat="44.130719046618815" lon="11.630323201389414"><ele>707.3333333333334</ele><time>2026-05-03T11:47:07Z</time></trkpt><trkpt lat="44.13072788546141" lon="11.630229873618084"><ele>705.0</ele><time>2026-05-03T11:51:20Z</time></trkpt><trkpt lat="44.130753478167186" lon="11.630329475202771"><ele>702.6666666666666</ele><time>2026-05-03T11:51:22Z</time></trkpt><trkpt lat="44.13081929680071" lon="11.630445599581217"><ele>700.3333333333333</ele><time>2026-05-03T11:51:24Z</time></trkpt><trkpt lat="44.13087252255091" lon="11.630523815084718"><ele>698.0</ele><time>2026-05-03T11:51:25Z</time></trkpt><trkpt lat="44.13090382243705" lon="11.630612776427743"><ele>698.0</ele><time>2026-05-03T11:51:26Z</time></trkpt><trkpt lat="44.130921925863575" lon="11.630727504738823"><ele>698.0</ele><time>2026-05-03T11:51:27Z</time></trkpt><trkpt lat="44.130976716121495" lon="11.630810494062048"><ele>698.0</ele><time>2026-05-03T11:51:28Z</time></trkpt><trkpt lat="44.131072747560864" lon="11.630951296634677"><ele>698.0</ele><time>2026-05-03T11:51:30Z</time></trkpt><trkpt lat="44.131127934586644" lon="11.631032212888153"><ele>698.0</ele><time>2026-05-03T11:51:30.999Z</time></trkpt><trkpt lat="44.13119625240784" lon="11.631130826546359"><ele>696.5</ele><time>2026-05-03T11:51:31.999Z</time></trkpt><trkpt lat="44.13126330812799" lon="11.631221040648402"><ele>695.0</ele><time>2026-05-03T11:51:32.999Z</time></trkpt><trkpt lat="44.131325905450865" lon="11.631299430290413"><ele>693.5</ele><time>2026-05-03T11:51:33.999Z</time></trkpt><trkpt lat="44.131396091051855" lon="11.631377517102226"><ele>692.0</ele><time>2026-05-03T11:51:34.999Z</time></trkpt><trkpt lat="44.13146044888039" lon="11.631445522953971"><ele>690.5</ele><time>2026-05-03T11:51:35.999Z</time></trkpt><trkpt lat="44.131527858553945" lon="11.63151332130444"><ele>689.0</ele><time>2026-05-03T11:51:36.999Z</time></trkpt><trkpt lat="44.13159424924317" lon="11.631580094539004"><ele>689.0</ele><time>2026-05-03T11:51:37.999Z</time></trkpt><trkpt lat="44.13165573191258" lon="11.631642284322675"><ele>689.0</ele><time>2026-05-03T11:51:38.999Z</time></trkpt><trkpt lat="44.13177185373297" lon="11.631759682359053"><ele>689.0</ele><time>2026-05-03T11:51:40.999Z</time></trkpt><trkpt lat="44.131837963223894" lon="11.631822895302928"><ele>689.0</ele><time>2026-05-03T11:51:41.999Z</time></trkpt><trkpt lat="44.131897076191585" lon="11.631877417080881"><ele>689.0</ele><time>2026-05-03T11:51:42.999Z</time></trkpt><trkpt lat="44.13200460122367" lon="11.631963025487732"><ele>688.2857142857142</ele><time>2026-05-03T11:51:44.999Z</time></trkpt><trkpt lat="44.132060055636565" lon="11.632009863918604"><ele>687.5714285714286</ele><time>2026-05-03T11:51:45.999Z</time></trkpt><trkpt lat="44.13212616024461" lon="11.632072368548538"><ele>686.8571428571429</ele><time>2026-05-03T11:51:46.999Z</time></trkpt><trkpt lat="44.132193364680965" lon="11.632120296382183"><ele>686.1428571428571</ele><time>2026-05-03T11:51:47.999Z</time></trkpt><trkpt lat="44.13224458516171" lon="11.632199013089584"><ele>685.4285714285714</ele><time>2026-05-03T11:51:48.999Z</time></trkpt><trkpt lat="44.132299853843826" lon="11.632260546453129"><ele>684.7142857142857</ele><time>2026-05-03T11:51:49.999Z</time></trkpt><trkpt lat="44.13235684944904" lon="11.632317744282428"><ele>684.0</ele><time>2026-05-03T11:51:50.999Z</time></trkpt><trkpt lat="44.13241945149753" lon="11.63236448335518"><ele>684.0</ele><time>2026-05-03T11:51:51.999Z</time></trkpt><trkpt lat="44.13247912335519" lon="11.632411453821582"><ele>684.0</ele><time>2026-05-03T11:51:52.999Z</time></trkpt><trkpt lat="44.132568212875725" lon="11.632515960929558"><ele>684.0</ele><time>2026-05-03T11:51:54.999Z</time></trkpt><trkpt lat="44.13256209467553" lon="11.63267932730093"><ele>684.0</ele><time>2026-05-03T11:51:56.999Z</time></trkpt><trkpt lat="44.1325263297941" lon="11.632776654855322"><ele>684.0</ele><time>2026-05-03T11:51:57.999Z</time></trkpt><trkpt lat="44.13250233330382" lon="11.632897672894664"><ele>682.0</ele><time>2026-05-03T11:51:58.999Z</time></trkpt><trkpt lat="44.13252489617414" lon="11.63303601523789"><ele>680.0</ele><time>2026-05-03T11:51:59.999Z</time></trkpt><trkpt lat="44.13254229145003" lon="11.633188401353674"><ele>678.0</ele><time>2026-05-03T11:52:00.999Z</time></trkpt><trkpt lat="44.13255312466951" lon="11.633329265423585"><ele>676.0</ele><time>2026-05-03T11:52:01.999Z</time></trkpt><trkpt lat="44.13257227037441" lon="11.633442774100383"><ele>674.0</ele><time>2026-05-03T11:52:02.999Z</time></trkpt><trkpt lat="44.132588780487175" lon="11.633542425961362"><ele>674.0</ele><time>2026-05-03T11:52:03.999Z</time></trkpt><trkpt lat="44.1326199615133" lon="11.63363031396935"><ele>674.0</ele><time>2026-05-03T11:52:04.999Z</time></trkpt><trkpt lat="44.13265416009028" lon="11.63371654626688"><ele>674.0</ele><time>2026-05-03T11:52:05.999Z</time></trkpt><trkpt lat="44.132721258414655" lon="11.633806717648552"><ele>674.0</ele><time>2026-05-03T11:52:06.999Z</time></trkpt><trkpt lat="44.13280309378613" lon="11.63388113692875"><ele>674.0</ele><time>2026-05-03T11:52:07.999Z</time></trkpt><trkpt lat="44.13289711239109" lon="11.63394562502082"><ele>674.0</ele><time>2026-05-03T11:52:08.999Z</time></trkpt><trkpt lat="44.13299522908565" lon="11.634003439070337"><ele>675.4000000000001</ele><time>2026-05-03T11:52:09.999Z</time></trkpt><trkpt lat="44.13309361855386" lon="11.634064062858904"><ele>676.8</ele><time>2026-05-03T11:52:10.999Z</time></trkpt><trkpt lat="44.1331778962867" lon="11.63413203645345"><ele>678.2</ele><time>2026-05-03T11:52:11.999Z</time></trkpt><trkpt lat="44.133251851052115" lon="11.634194270016868"><ele>679.5999999999999</ele><time>2026-05-03T11:52:12.999Z</time></trkpt><trkpt lat="44.13331439715057" lon="11.634267802940059"><ele>681.0</ele><time>2026-05-03T11:52:13.999Z</time></trkpt><trkpt lat="44.133374666669425" lon="11.634362312172364"><ele>675.5999999999999</ele><time>2026-05-03T11:52:14.999Z</time></trkpt><trkpt lat="44.1334180824664" lon="11.634473972432907"><ele>670.2</ele><time>2026-05-03T11:52:15.999Z</time></trkpt><trkpt lat="44.13348034327186" lon="11.63457931733016"><ele>664.8</ele><time>2026-05-03T11:52:16.999Z</time></trkpt><trkpt lat="44.13354588715695" lon="11.63467240209492"><ele>659.4000000000001</ele><time>2026-05-03T11:52:17.999Z</time></trkpt><trkpt lat="44.133621150524014" lon="11.634752198866074"><ele>654.0</ele><time>2026-05-03T11:52:18.999Z</time></trkpt><trkpt lat="44.13370914248911" lon="11.634820050173031"><ele>654.0</ele><time>2026-05-03T11:52:19.999Z</time></trkpt><trkpt lat="44.13379637365631" lon="11.634873637026859"><ele>654.0</ele><time>2026-05-03T11:52:20.999Z</time></trkpt><trkpt lat="44.13388646952683" lon="11.634907985430008"><ele>654.0</ele><time>2026-05-03T11:52:21.999Z</time></trkpt><trkpt lat="44.13397630270444" lon="11.634940330530247"><ele>654.0</ele><time>2026-05-03T11:52:22.999Z</time></trkpt><trkpt lat="44.13405339385925" lon="11.634999729165553"><ele>654.0</ele><time>2026-05-03T11:52:23.999Z</time></trkpt><trkpt lat="44.134115540197506" lon="11.635085151711277"><ele>657.2</ele><time>2026-05-03T11:52:24.999Z</time></trkpt><trkpt lat="44.134160366838145" lon="11.635192041946539"><ele>660.4000000000001</ele><time>2026-05-03T11:52:25.999Z</time></trkpt><trkpt lat="44.13420398723501" lon="11.635303476352616"><ele>663.6</ele><time>2026-05-03T11:52:26.999Z</time></trkpt><trkpt lat="44.13424750441946" lon="11.635416259898525"><ele>666.8</ele><time>2026-05-03T11:52:27.999Z</time></trkpt><trkpt lat="44.13429400155195" lon="11.635523459403872"><ele>670.0</ele><time>2026-05-03T11:52:28.999Z</time></trkpt><trkpt lat="44.13433655918795" lon="11.635638480264365"><ele>670.0</ele><time>2026-05-03T11:52:29.999Z</time></trkpt><trkpt lat="44.13436691598048" lon="11.635768878122498"><ele>670.0</ele><time>2026-05-03T11:52:31Z</time></trkpt><trkpt lat="44.13438377913973" lon="11.635907714428873"><ele>670.0</ele><time>2026-05-03T11:52:32Z</time></trkpt><trkpt lat="44.134404258077325" lon="11.636033724877349"><ele>670.0</ele><time>2026-05-03T11:52:33Z</time></trkpt><trkpt lat="44.13443930555593" lon="11.636149477783073"><ele>670.0</ele><time>2026-05-03T11:52:34Z</time></trkpt><trkpt lat="44.13448461390483" lon="11.636241047213986"><ele>667.4</ele><time>2026-05-03T11:52:35Z</time></trkpt><trkpt lat="44.1345968613093" lon="11.63635010214628"><ele>664.8</ele><time>2026-05-03T11:52:37Z</time></trkpt><trkpt lat="44.13466111843974" lon="11.63642823853636"><ele>662.2</ele><time>2026-05-03T11:52:38Z</time></trkpt><trkpt lat="44.13473171468988" lon="11.636489215370137"><ele>659.6</ele><time>2026-05-03T11:52:39Z</time></trkpt><trkpt lat="44.13480112685339" lon="11.636559734011616"><ele>657.0</ele><time>2026-05-03T11:52:40Z</time></trkpt><trkpt lat="44.1348780680076" lon="11.6366381523045"><ele>661.6</ele><time>2026-05-03T11:52:41Z</time></trkpt><trkpt lat="44.13494649077624" lon="11.636746201933745"><ele>666.2</ele><time>2026-05-03T11:52:42Z</time></trkpt><trkpt lat="44.135004848056994" lon="11.636856471971441"><ele>670.8</ele><time>2026-05-03T11:52:43Z</time></trkpt><trkpt lat="44.135063231257014" lon="11.636980915648836"><ele>675.4</ele><time>2026-05-03T11:52:44Z</time></trkpt><trkpt lat="44.13510667532632" lon="11.637115154024626"><ele>680.0</ele><time>2026-05-03T11:52:45Z</time></trkpt><trkpt lat="44.1351653191714" lon="11.637232699524668"><ele>680.0</ele><time>2026-05-03T11:52:46Z</time></trkpt><trkpt lat="44.135216449446865" lon="11.63735179610141"><ele>680.0</ele><time>2026-05-03T11:52:47Z</time></trkpt><trkpt lat="44.135257783374726" lon="11.637477700854161"><ele>680.0</ele><time>2026-05-03T11:52:48Z</time></trkpt><trkpt lat="44.13529558308729" lon="11.637601937575058"><ele>680.0</ele><time>2026-05-03T11:52:49Z</time></trkpt><trkpt lat="44.13533427304241" lon="11.637733565437197"><ele>680.0</ele><time>2026-05-03T11:52:50Z</time></trkpt><trkpt lat="44.13535943419267" lon="11.637842093345393"><ele>679.5</ele><time>2026-05-03T11:52:51Z</time></trkpt><trkpt lat="44.1353827557016" lon="11.637943738469517"><ele>679.0</ele><time>2026-05-03T11:52:52Z</time></trkpt><trkpt lat="44.13542641063296" lon="11.638018697836882"><ele>678.5</ele><time>2026-05-03T11:52:53Z</time></trkpt><trkpt lat="44.13547932757818" lon="11.638103474391835"><ele>678.0</ele><time>2026-05-03T11:52:54Z</time></trkpt><trkpt lat="44.13554460381638" lon="11.638173276893742"><ele>677.5</ele><time>2026-05-03T11:52:55Z</time></trkpt><trkpt lat="44.13561040628229" lon="11.638258140465583"><ele>677.0</ele><time>2026-05-03T11:52:56Z</time></trkpt><trkpt lat="44.13566945030661" lon="11.638354519022512"><ele>678.4000000000001</ele><time>2026-05-03T11:52:57Z</time></trkpt><trkpt lat="44.135721759945305" lon="11.638468705979989"><ele>679.8000000000001</ele><time>2026-05-03T11:52:58Z</time></trkpt><trkpt lat="44.1357479425817" lon="11.638585172773485"><ele>681.2</ele><time>2026-05-03T11:52:59Z</time></trkpt><trkpt lat="44.13572709766821" lon="11.63870828443004"><ele>682.6</ele><time>2026-05-03T11:53:00Z</time></trkpt><trkpt lat="44.13567614507052" lon="11.638818840600653"><ele>684.0</ele><time>2026-05-03T11:53:01Z</time></trkpt><trkpt lat="44.135632186852305" lon="11.638941881327485"><ele>684.0</ele><time>2026-05-03T11:53:02Z</time></trkpt><trkpt lat="44.13558845161361" lon="11.639085523845964"><ele>684.0</ele><time>2026-05-03T11:53:03Z</time></trkpt><trkpt lat="44.13555261301807" lon="11.639238253446896"><ele>684.0</ele><time>2026-05-03T11:53:04Z</time></trkpt><trkpt lat="44.13550774689306" lon="11.639393617364329"><ele>684.0</ele><time>2026-05-03T11:53:05Z</time></trkpt><trkpt lat="44.13544389969951" lon="11.639526540582667"><ele>685.6</ele><time>2026-05-03T11:53:06Z</time></trkpt><trkpt lat="44.1353626659869" lon="11.639605233646353"><ele>687.2</ele><time>2026-05-03T11:53:07Z</time></trkpt><trkpt lat="44.13528102651253" lon="11.639695436557371"><ele>688.8000000000001</ele><time>2026-05-03T11:53:08Z</time></trkpt><trkpt lat="44.135215143512774" lon="11.639778177165674"><ele>690.4000000000001</ele><time>2026-05-03T11:53:09Z</time></trkpt><trkpt lat="44.135157791349755" lon="11.639875973436043"><ele>692.0</ele><time>2026-05-03T11:53:10Z</time></trkpt><trkpt lat="44.135137169338705" lon="11.640001656079878"><ele>692.0</ele><time>2026-05-03T11:53:11Z</time></trkpt><trkpt lat="44.13511666101079" lon="11.640138646576261"><ele>692.0</ele><time>2026-05-03T11:53:12Z</time></trkpt><trkpt lat="44.135095995372794" lon="11.640282626352501"><ele>692.0</ele><time>2026-05-03T11:53:13Z</time></trkpt><trkpt lat="44.13507026524952" lon="11.640409575534196"><ele>692.0</ele><time>2026-05-03T11:53:14Z</time></trkpt><trkpt lat="44.13502405335978" lon="11.640516050352568"><ele>692.0</ele><time>2026-05-03T11:53:15Z</time></trkpt><trkpt lat="44.13495323906794" lon="11.640609716154271"><ele>691.2</ele><time>2026-05-03T11:53:16Z</time></trkpt><trkpt lat="44.1348625882113" lon="11.640685231301369"><ele>690.4000000000001</ele><time>2026-05-03T11:53:17Z</time></trkpt><trkpt lat="44.134794772279434" lon="11.640794428094743"><ele>689.5999999999999</ele><time>2026-05-03T11:53:18Z</time></trkpt><trkpt lat="44.134742171456" lon="11.640910266684836"><ele>688.8</ele><time>2026-05-03T11:53:19Z</time></trkpt><trkpt lat="44.13469183528473" lon="11.641039085736818"><ele>688.0</ele><time>2026-05-03T11:53:20Z</time></trkpt><trkpt lat="44.13461770158359" lon="11.641116565571814"><ele>688.3333333333334</ele><time>2026-05-03T11:53:21Z</time></trkpt><trkpt lat="44.13454407215063" lon="11.641173262151893"><ele>688.6666666666667</ele><time>2026-05-03T11:53:22Z</time></trkpt><trkpt lat="44.134477352033855" lon="11.641250669890024"><ele>689.0</ele><time>2026-05-03T11:53:23Z</time></trkpt><trkpt lat="44.13442471903195" lon="11.641326057090517"><ele>689.3333333333334</ele><time>2026-05-03T11:53:24Z</time></trkpt><trkpt lat="44.134395078627676" lon="11.641427990944532"><ele>689.6666666666666</ele><time>2026-05-03T11:53:25Z</time></trkpt><trkpt lat="44.13439342841837" lon="11.64160016246245"><ele>690.0</ele><time>2026-05-03T11:53:27Z</time></trkpt><trkpt lat="44.134425835657204" lon="11.641708904801337"><ele>690.0</ele><time>2026-05-03T11:53:28Z</time></trkpt><trkpt lat="44.134474204286576" lon="11.641826009288415"><ele>690.0</ele><time>2026-05-03T11:53:29Z</time></trkpt><trkpt lat="44.1345364060396" lon="11.641947600728429"><ele>690.0</ele><time>2026-05-03T11:53:30Z</time></trkpt><trkpt lat="44.13458774498022" lon="11.642067184205407"><ele>690.0</ele><time>2026-05-03T11:53:31Z</time></trkpt><trkpt lat="44.134633586405435" lon="11.64221174295018"><ele>690.0</ele><time>2026-05-03T11:53:32Z</time></trkpt><trkpt lat="44.13467519743214" lon="11.642356258972542"><ele>690.4</ele><time>2026-05-03T11:53:32.999Z</time></trkpt><trkpt lat="44.134710606705056" lon="11.64249472635787"><ele>690.8</ele><time>2026-05-03T11:53:33.999Z</time></trkpt><trkpt lat="44.13474095019906" lon="11.642631349533403"><ele>691.2</ele><time>2026-05-03T11:53:34.999Z</time></trkpt><trkpt lat="44.13476474472316" lon="11.642771263517902"><ele>691.6</ele><time>2026-05-03T11:53:35.999Z</time></trkpt><trkpt lat="44.13478058586886" lon="11.642914361738905"><ele>692.0</ele><time>2026-05-03T11:53:36.999Z</time></trkpt><trkpt lat="44.13477990297306" lon="11.64305750154319"><ele>692.0</ele><time>2026-05-03T11:53:37.999Z</time></trkpt><trkpt lat="44.134769685156996" lon="11.643207788827041"><ele>692.0</ele><time>2026-05-03T11:53:38.999Z</time></trkpt><trkpt lat="44.13476556152707" lon="11.643353039890389"><ele>692.0</ele><time>2026-05-03T11:53:39.999Z</time></trkpt><trkpt lat="44.13476182912537" lon="11.643494717220012"><ele>692.0</ele><time>2026-05-03T11:53:40.999Z</time></trkpt><trkpt lat="44.134760101530475" lon="11.643632579514366"><ele>692.0</ele><time>2026-05-03T11:53:41.999Z</time></trkpt><trkpt lat="44.13476447154855" lon="11.643770113005331"><ele>694.0</ele><time>2026-05-03T11:53:42.999Z</time></trkpt><trkpt lat="44.13480298381949" lon="11.64390851166392"><ele>696.0</ele><time>2026-05-03T11:53:43.999Z</time></trkpt><trkpt lat="44.13481574170884" lon="11.644055893543879"><ele>698.0</ele><time>2026-05-03T11:53:44.999Z</time></trkpt><trkpt lat="44.134843861451856" lon="11.644206271929752"><ele>700.0</ele><time>2026-05-03T11:53:45.999Z</time></trkpt><trkpt lat="44.13486574902309" lon="11.644362064525113"><ele>702.0</ele><time>2026-05-03T11:53:46.999Z</time></trkpt><trkpt lat="44.13488553261096" lon="11.64452421753241"><ele>705.4000000000001</ele><time>2026-05-03T11:53:47.999Z</time></trkpt><trkpt lat="44.134907513532816" lon="11.644686959317504"><ele>708.8000000000001</ele><time>2026-05-03T11:53:48.999Z</time></trkpt><trkpt lat="44.13492816548623" lon="11.644831842124239"><ele>712.2</ele><time>2026-05-03T11:53:49.999Z</time></trkpt><trkpt lat="44.13494862746998" lon="11.644973948444223"><ele>715.6</ele><time>2026-05-03T11:53:50.999Z</time></trkpt><trkpt lat="44.134969447230354" lon="11.645115147404166"><ele>719.0</ele><time>2026-05-03T11:53:51.999Z</time></trkpt><trkpt lat="44.13499201144181" lon="11.645260005358006"><ele>719.6</ele><time>2026-05-03T11:53:52.999Z</time></trkpt><trkpt lat="44.13501480959453" lon="11.645407827866846"><ele>720.2</ele><time>2026-05-03T11:53:53.999Z</time></trkpt><trkpt lat="44.13503473772834" lon="11.645550612065426"><ele>720.8000000000001</ele><time>2026-05-03T11:53:54.999Z</time></trkpt><trkpt lat="44.13505144863252" lon="11.645684778481044"><ele>721.4000000000001</ele><time>2026-05-03T11:53:55.999Z</time></trkpt><trkpt lat="44.13506590702424" lon="11.645809293770824"><ele>722.0</ele><time>2026-05-03T11:53:56.999Z</time></trkpt><trkpt lat="44.135073899983055" lon="11.64591637182161"><ele>722.0</ele><time>2026-05-03T11:53:57.999Z</time></trkpt><trkpt lat="44.135085036603506" lon="11.646004402088922"><ele>722.0</ele><time>2026-05-03T11:53:58.999Z</time></trkpt><trkpt lat="44.13521921162546" lon="11.645960132312021"><ele>722.0</ele><time>2026-05-03T11:54:02.999Z</time></trkpt><trkpt lat="44.13525563441076" lon="11.645838930060206"><ele>722.0</ele><time>2026-05-03T11:54:03.999Z</time></trkpt><trkpt lat="44.13530617577264" lon="11.645712220853913"><ele>722.0</ele><time>2026-05-03T11:54:04.999Z</time></trkpt><trkpt lat="44.13534827171267" lon="11.645554421942364"><ele>722.0</ele><time>2026-05-03T11:54:05.999Z</time></trkpt><trkpt lat="44.135393574765324" lon="11.645381015189827"><ele>722.0</ele><time>2026-05-03T11:54:06.999Z</time></trkpt><trkpt lat="44.135450893826544" lon="11.645159792305684"><ele>722.0</ele><time>2026-05-03T11:54:07.999Z</time></trkpt><trkpt lat="44.135511493649865" lon="11.645005653583981"><ele>722.0</ele><time>2026-05-03T11:54:08.999Z</time></trkpt><trkpt lat="44.13558503710359" lon="11.644870764652172"><ele>721.25</ele><time>2026-05-03T11:54:09.999Z</time></trkpt><trkpt lat="44.13568092437102" lon="11.644751941310064"><ele>720.5</ele><time>2026-05-03T11:54:10.999Z</time></trkpt><trkpt lat="44.135806717715255" lon="11.644629530679808"><ele>719.75</ele><time>2026-05-03T11:54:11.999Z</time></trkpt><trkpt lat="44.13593415995378" lon="11.644510480524826"><ele>719.0</ele><time>2026-05-03T11:54:12.999Z</time></trkpt><trkpt lat="44.13606708539342" lon="11.64438667632487"><ele>721.25</ele><time>2026-05-03T11:54:13.999Z</time></trkpt><trkpt lat="44.13619634368237" lon="11.644266287320052"><ele>723.5</ele><time>2026-05-03T11:54:14.999Z</time></trkpt><trkpt lat="44.136309865454926" lon="11.644160487776317"><ele>725.75</ele><time>2026-05-03T11:54:15.999Z</time></trkpt><trkpt lat="44.13640800221629" lon="11.644067104955173"><ele>728.0</ele><time>2026-05-03T11:54:16.999Z</time></trkpt><trkpt lat="44.1365014251613" lon="11.643973790957261"><ele>729.25</ele><time>2026-05-03T11:54:17.999Z</time></trkpt><trkpt lat="44.13658453749325" lon="11.643848597509185"><ele>730.5</ele><time>2026-05-03T11:54:18.999Z</time></trkpt><trkpt lat="44.13667518269511" lon="11.643708535682578"><ele>731.75</ele><time>2026-05-03T11:54:19.999Z</time></trkpt><trkpt lat="44.13675710754663" lon="11.643550721688452"><ele>733.0</ele><time>2026-05-03T11:54:20.999Z</time></trkpt><trkpt lat="44.136845053246965" lon="11.64340362175742"><ele>733.5999999999999</ele><time>2026-05-03T11:54:21.999Z</time></trkpt><trkpt lat="44.136912242648826" lon="11.64326256019728"><ele>734.1999999999999</ele><time>2026-05-03T11:54:22.999Z</time></trkpt><trkpt lat="44.13696713309318" lon="11.643147458080074"><ele>734.8</ele><time>2026-05-03T11:54:23.999Z</time></trkpt><trkpt lat="44.137013204601864" lon="11.643050848685759"><ele>735.4</ele><time>2026-05-03T11:54:24.999Z</time></trkpt><trkpt lat="44.13705860259054" lon="11.642953425818474"><ele>736.0</ele><time>2026-05-03T11:54:25.999Z</time></trkpt><trkpt lat="44.13710030964941" lon="11.642863289943623"><ele>736.8</ele><time>2026-05-03T11:54:26.999Z</time></trkpt><trkpt lat="44.13715082613227" lon="11.642754114689618"><ele>737.5999999999999</ele><time>2026-05-03T11:54:27.999Z</time></trkpt><trkpt lat="44.13720382510549" lon="11.642640746522368"><ele>738.4</ele><time>2026-05-03T11:54:28.999Z</time></trkpt><trkpt lat="44.13725867574789" lon="11.642522636785356"><ele>739.2</ele><time>2026-05-03T11:54:29.999Z</time></trkpt><trkpt lat="44.13731679877919" lon="11.642396961384222"><ele>740.0</ele><time>2026-05-03T11:54:30.999Z</time></trkpt><trkpt lat="44.13737809085037" lon="11.642264433735788"><ele>740.4</ele><time>2026-05-03T11:54:31.999Z</time></trkpt><trkpt lat="44.13743905036307" lon="11.642132601299068"><ele>740.8</ele><time>2026-05-03T11:54:32.999Z</time></trkpt><trkpt lat="44.13750012362441" lon="11.64200039712275"><ele>741.2</ele><time>2026-05-03T11:54:33.999Z</time></trkpt><trkpt lat="44.137555519075676" lon="11.641880483657312"><ele>741.6</ele><time>2026-05-03T11:54:34.999Z</time></trkpt><trkpt lat="44.13760671357412" lon="11.64176966380393"><ele>742.0</ele><time>2026-05-03T11:54:35.999Z</time></trkpt><trkpt lat="44.13765902573554" lon="11.641656424672037"><ele>742.0</ele><time>2026-05-03T11:54:37Z</time></trkpt><trkpt lat="44.137715213318145" lon="11.641533043502825"><ele>742.0</ele><time>2026-05-03T11:54:38Z</time></trkpt><trkpt lat="44.13777634578767" lon="11.641398181517166"><ele>742.0</ele><time>2026-05-03T11:54:39Z</time></trkpt><trkpt lat="44.1378369914014" lon="11.641248998823174"><ele>742.0</ele><time>2026-05-03T11:54:40Z</time></trkpt><trkpt lat="44.13789174664262" lon="11.64109023212627"><ele>740.5</ele><time>2026-05-03T11:54:41Z</time></trkpt><trkpt lat="44.13793295099844" lon="11.640915076378926"><ele>739.0</ele><time>2026-05-03T11:54:42Z</time></trkpt><trkpt lat="44.13795920815789" lon="11.64072577791048"><ele>737.5</ele><time>2026-05-03T11:54:43Z</time></trkpt><trkpt lat="44.13797617673406" lon="11.640526413330445"><ele>736.0</ele><time>2026-05-03T11:54:44Z</time></trkpt><trkpt lat="44.13799415073838" lon="11.640328661832948"><ele>735.0</ele><time>2026-05-03T11:54:45Z</time></trkpt><trkpt lat="44.13801030301791" lon="11.640127085076482"><ele>734.0</ele><time>2026-05-03T11:54:46Z</time></trkpt><trkpt lat="44.138025644474034" lon="11.639933863082948"><ele>733.0</ele><time>2026-05-03T11:54:47Z</time></trkpt><trkpt lat="44.13803041689329" lon="11.639741770852925"><ele>732.0</ele><time>2026-05-03T11:54:48Z</time></trkpt><trkpt lat="44.138020353777165" lon="11.639547289575289"><ele>732.25</ele><time>2026-05-03T11:54:49Z</time></trkpt><trkpt lat="44.13799957324534" lon="11.639347201820108"><ele>732.5</ele><time>2026-05-03T11:54:50Z</time></trkpt><trkpt lat="44.13797147775573" lon="11.639156539145091"><ele>732.75</ele><time>2026-05-03T11:54:51Z</time></trkpt><trkpt lat="44.13794813474786" lon="11.638965378473909"><ele>733.0</ele><time>2026-05-03T11:54:52Z</time></trkpt><trkpt lat="44.13793007706895" lon="11.638794490834094"><ele>734.25</ele><time>2026-05-03T11:54:53Z</time></trkpt><trkpt lat="44.13792133387595" lon="11.638631102984245"><ele>735.5</ele><time>2026-05-03T11:54:54Z</time></trkpt><trkpt lat="44.137924626665686" lon="11.638468450884956"><ele>736.75</ele><time>2026-05-03T11:54:55Z</time></trkpt><trkpt lat="44.13793706132677" lon="11.638310449867683"><ele>738.0</ele><time>2026-05-03T11:54:56Z</time></trkpt><trkpt lat="44.13795398045873" lon="11.63814525147341"><ele>738.0</ele><time>2026-05-03T11:54:57Z</time></trkpt><trkpt lat="44.13796991172466" lon="11.637983907283214"><ele>738.0</ele><time>2026-05-03T11:54:58Z</time></trkpt><trkpt lat="44.1379851496389" lon="11.637827077313515"><ele>738.0</ele><time>2026-05-03T11:54:59Z</time></trkpt><trkpt lat="44.13800243052164" lon="11.637648686782095"><ele>738.0</ele><time>2026-05-03T11:55:00Z</time></trkpt><trkpt lat="44.13802108694777" lon="11.637474637857702"><ele>739.5</ele><time>2026-05-03T11:55:01Z</time></trkpt><trkpt lat="44.1380416776816" lon="11.637316833799028"><ele>741.0</ele><time>2026-05-03T11:55:02Z</time></trkpt><trkpt lat="44.138079176492994" lon="11.637172311517087"><ele>742.5</ele><time>2026-05-03T11:55:03Z</time></trkpt><trkpt lat="44.13813833997803" lon="11.637030518593388"><ele>744.0</ele><time>2026-05-03T11:55:04Z</time></trkpt><trkpt lat="44.138234852705324" lon="11.636915495021736"><ele>746.25</ele><time>2026-05-03T11:55:05Z</time></trkpt><trkpt lat="44.13834777453946" lon="11.636809158484342"><ele>748.5</ele><time>2026-05-03T11:55:06Z</time></trkpt><trkpt lat="44.13847385021263" lon="11.636698967897988"><ele>750.75</ele><time>2026-05-03T11:55:07Z</time></trkpt><trkpt lat="44.13860961424753" lon="11.63660382510434"><ele>753.0</ele><time>2026-05-03T11:55:08Z</time></trkpt><trkpt lat="44.13872141396846" lon="11.636520353225942"><ele>753.0</ele><time>2026-05-03T11:55:09Z</time></trkpt><trkpt lat="44.13881864026284" lon="11.63644599149283"><ele>753.0</ele><time>2026-05-03T11:55:10Z</time></trkpt><trkpt lat="44.13891346855817" lon="11.636374006021718"><ele>753.0</ele><time>2026-05-03T11:55:11Z</time></trkpt><trkpt lat="44.13900553583654" lon="11.636297732015732"><ele>753.0</ele><time>2026-05-03T11:55:12Z</time></trkpt><trkpt lat="44.1390821745597" lon="11.636214849152786"><ele>753.0</ele><time>2026-05-03T11:55:13Z</time></trkpt><trkpt lat="44.13914569366738" lon="11.636107516512439"><ele>753.0</ele><time>2026-05-03T11:55:14Z</time></trkpt><trkpt lat="44.13919574400101" lon="11.63596668875039"><ele>753.0</ele><time>2026-05-03T11:55:15Z</time></trkpt><trkpt lat="44.13925788479261" lon="11.635827379041467"><ele>753.0</ele><time>2026-05-03T11:55:16Z</time></trkpt><trkpt lat="44.13931092989942" lon="11.635675698321368"><ele>753.0</ele><time>2026-05-03T11:55:17Z</time></trkpt><trkpt lat="44.13936768002224" lon="11.635527357822399"><ele>753.0</ele><time>2026-05-03T11:55:18Z</time></trkpt><trkpt lat="44.13942728569206" lon="11.635404670858744"><ele>753.0</ele><time>2026-05-03T11:55:19Z</time></trkpt><trkpt lat="44.13950359963722" lon="11.635306687912012"><ele>753.0</ele><time>2026-05-03T11:55:20Z</time></trkpt><trkpt lat="44.13959595605391" lon="11.635217581543873"><ele>753.0</ele><time>2026-05-03T11:55:21Z</time></trkpt><trkpt lat="44.13970231792882" lon="11.635123631664943"><ele>753.0</ele><time>2026-05-03T11:55:22Z</time></trkpt><trkpt lat="44.139805358969134" lon="11.635034549268452"><ele>751.5</ele><time>2026-05-03T11:55:23Z</time></trkpt><trkpt lat="44.13991050446494" lon="11.634944434565455"><ele>750.0</ele><time>2026-05-03T11:55:24Z</time></trkpt><trkpt lat="44.140005286302824" lon="11.63486442122127"><ele>748.5</ele><time>2026-05-03T11:55:25Z</time></trkpt><trkpt lat="44.14010419662761" lon="11.634784421786577"><ele>747.0</ele><time>2026-05-03T11:55:26Z</time></trkpt><trkpt lat="44.14020973948058" lon="11.634711192255653"><ele>747.0</ele><time>2026-05-03T11:55:27Z</time></trkpt><trkpt lat="44.140327360289554" lon="11.634651440223031"><ele>747.0</ele><time>2026-05-03T11:55:28Z</time></trkpt><trkpt lat="44.14045778156235" lon="11.634631414356932"><ele>747.0</ele><time>2026-05-03T11:55:29Z</time></trkpt><trkpt lat="44.14057120939881" lon="11.634580440358206"><ele>747.0</ele><time>2026-05-03T11:55:30Z</time></trkpt><trkpt lat="44.140675104313644" lon="11.63456855691266"><ele>743.75</ele><time>2026-05-03T11:55:31Z</time></trkpt><trkpt lat="44.14077110748893" lon="11.634525856703723"><ele>740.5</ele><time>2026-05-03T11:55:32Z</time></trkpt><trkpt lat="44.140876951095926" lon="11.634504863160798"><ele>737.25</ele><time>2026-05-03T11:55:33Z</time></trkpt><trkpt lat="44.140993268327186" lon="11.634528773291176"><ele>734.0</ele><time>2026-05-03T11:55:34Z</time></trkpt><trkpt lat="44.14110724231102" lon="11.634597766517386"><ele>734.0</ele><time>2026-05-03T11:55:35Z</time></trkpt><trkpt lat="44.14123481716544" lon="11.634663616566534"><ele>734.0</ele><time>2026-05-03T11:55:35.999Z</time></trkpt><trkpt lat="44.141363533174534" lon="11.634736263846454"><ele>734.0</ele><time>2026-05-03T11:55:36.999Z</time></trkpt><trkpt lat="44.14148829186697" lon="11.63482510130817"><ele>734.0</ele><time>2026-05-03T11:55:37.999Z</time></trkpt><trkpt lat="44.14161445734109" lon="11.634889293145983"><ele>732.75</ele><time>2026-05-03T11:55:38.999Z</time></trkpt><trkpt lat="44.141740515032836" lon="11.634938399504408"><ele>731.5</ele><time>2026-05-03T11:55:39.999Z</time></trkpt><trkpt lat="44.14185648114847" lon="11.634999364503932"><ele>730.25</ele><time>2026-05-03T11:55:40.999Z</time></trkpt><trkpt lat="44.14197199387467" lon="11.635062085888576"><ele>729.0</ele><time>2026-05-03T11:55:41.999Z</time></trkpt><trkpt lat="44.14208248524971" lon="11.635132603228268"><ele>729.0</ele><time>2026-05-03T11:55:42.999Z</time></trkpt><trkpt lat="44.142187704750974" lon="11.635208611945261"><ele>729.0</ele><time>2026-05-03T11:55:43.999Z</time></trkpt><trkpt lat="44.1423023626752" lon="11.63527946857016"><ele>729.0</ele><time>2026-05-03T11:55:44.999Z</time></trkpt><trkpt lat="44.1424339841353" lon="11.635327096252837"><ele>729.0</ele><time>2026-05-03T11:55:45.999Z</time></trkpt><trkpt lat="44.14256958833279" lon="11.635359703866515"><ele>723.75</ele><time>2026-05-03T11:55:46.999Z</time></trkpt><trkpt lat="44.14269619890539" lon="11.635393402467603"><ele>718.5</ele><time>2026-05-03T11:55:47.999Z</time></trkpt><trkpt lat="44.142823581515245" lon="11.635453353480285"><ele>713.25</ele><time>2026-05-03T11:55:48.999Z</time></trkpt><trkpt lat="44.142950644602614" lon="11.635474899035977"><ele>708.0</ele><time>2026-05-03T11:55:49.999Z</time></trkpt><trkpt lat="44.14307092461909" lon="11.635530960616874"><ele>708.0</ele><time>2026-05-03T11:55:50.999Z</time></trkpt><trkpt lat="44.14318804975856" lon="11.635568097142862"><ele>708.0</ele><time>2026-05-03T11:55:51.999Z</time></trkpt><trkpt lat="44.143300030336086" lon="11.63559470391986"><ele>708.0</ele><time>2026-05-03T11:55:52.999Z</time></trkpt><trkpt lat="44.14341983208138" lon="11.635591480231243"><ele>708.0</ele><time>2026-05-03T11:55:53.999Z</time></trkpt><trkpt lat="44.14353707573275" lon="11.635567777386575"><ele>707.5999999999999</ele><time>2026-05-03T11:55:54.999Z</time></trkpt><trkpt lat="44.143650102027884" lon="11.63552623436265"><ele>707.1999999999999</ele><time>2026-05-03T11:55:55.999Z</time></trkpt><trkpt lat="44.143737358756006" lon="11.635498876332152"><ele>706.8</ele><time>2026-05-03T11:55:56.999Z</time></trkpt><trkpt lat="44.143832240340316" lon="11.635501247385386"><ele>706.4</ele><time>2026-05-03T11:55:57.999Z</time></trkpt><trkpt lat="44.14391608658498" lon="11.635591593517711"><ele>706.0</ele><time>2026-05-03T11:55:58.999Z</time></trkpt><trkpt lat="44.144030485295694" lon="11.635691367437987"><ele>702.0</ele><time>2026-05-03T11:55:59.999Z</time></trkpt><trkpt lat="44.14413319261308" lon="11.635777626684343"><ele>698.0</ele><time>2026-05-03T11:56:00.999Z</time></trkpt><trkpt lat="44.144634995650634" lon="11.636285455908288"><ele>692.75</ele><time>2026-05-03T11:56:06.468Z</time></trkpt><trkpt lat="44.14477408787861" lon="11.636401490175594"><ele>687.5</ele><time>2026-05-03T11:56:07.999Z</time></trkpt><trkpt lat="44.14486933571055" lon="11.636422201679872"><ele>682.25</ele><time>2026-05-03T11:56:08.999Z</time></trkpt><trkpt lat="44.14496801479092" lon="11.636439755257186"><ele>677.0</ele><time>2026-05-03T11:56:09.999Z</time></trkpt><trkpt lat="44.145069620198605" lon="11.63639800670891"><ele>676.5</ele><time>2026-05-03T11:56:10.999Z</time></trkpt><trkpt lat="44.14514468106401" lon="11.636271439156019"><ele>676.0</ele><time>2026-05-03T11:56:12Z</time></trkpt><trkpt lat="44.14519391551469" lon="11.636184662781423"><ele>675.5</ele><time>2026-05-03T11:56:13Z</time></trkpt><trkpt lat="44.145247605592054" lon="11.636105822542719"><ele>675.0</ele><time>2026-05-03T11:56:14Z</time></trkpt><trkpt lat="44.14529507503288" lon="11.636043935363633"><ele>674.5</ele><time>2026-05-03T11:56:15Z</time></trkpt><trkpt lat="44.14534893499136" lon="11.635980372969346"><ele>674.0</ele><time>2026-05-03T11:56:16Z</time></trkpt><trkpt lat="44.14542513447482" lon="11.635931396984226"><ele>675.1666666666666</ele><time>2026-05-03T11:56:17Z</time></trkpt><trkpt lat="44.145502203041175" lon="11.63589243764974"><ele>676.3333333333333</ele><time>2026-05-03T11:56:18Z</time></trkpt><trkpt lat="44.14557325632919" lon="11.63585840541533"><ele>677.5</ele><time>2026-05-03T11:56:19Z</time></trkpt><trkpt lat="44.14566414469686" lon="11.635843768037148"><ele>678.6666666666666</ele><time>2026-05-03T11:56:20Z</time></trkpt><trkpt lat="44.14574762201273" lon="11.635853640178178"><ele>679.8333333333334</ele><time>2026-05-03T11:56:21Z</time></trkpt><trkpt lat="44.145834064678134" lon="11.635861660561407"><ele>681.0</ele><time>2026-05-03T11:56:22Z</time></trkpt><trkpt lat="44.145917885105085" lon="11.635870638928907"><ele>681.0</ele><time>2026-05-03T11:56:23Z</time></trkpt><trkpt lat="44.14600825498809" lon="11.635862179104338"><ele>681.0</ele><time>2026-05-03T11:56:24Z</time></trkpt><trkpt lat="44.14611205008507" lon="11.635875807255065"><ele>681.0</ele><time>2026-05-03T11:56:25Z</time></trkpt><trkpt lat="44.146215903421215" lon="11.63590083042936"><ele>681.0</ele><time>2026-05-03T11:56:26Z</time></trkpt><trkpt lat="44.146304205512074" lon="11.635944213383361"><ele>681.0</ele><time>2026-05-03T11:56:27Z</time></trkpt><trkpt lat="44.146412829527456" lon="11.635988126358209"><ele>681.0</ele><time>2026-05-03T11:56:28Z</time></trkpt><trkpt lat="44.1465348275078" lon="11.636030863376256"><ele>681.0</ele><time>2026-05-03T11:56:29Z</time></trkpt><trkpt lat="44.14665315518871" lon="11.636063428205341"><ele>681.0</ele><time>2026-05-03T11:56:30Z</time></trkpt><trkpt lat="44.14676719244329" lon="11.63608748107196"><ele>681.0</ele><time>2026-05-03T11:56:31Z</time></trkpt><trkpt lat="44.146891582033" lon="11.636074218243554"><ele>682.1999999999999</ele><time>2026-05-03T11:56:32Z</time></trkpt><trkpt lat="44.14699964226091" lon="11.63605680671338"><ele>683.4</ele><time>2026-05-03T11:56:33Z</time></trkpt><trkpt lat="44.14709585175395" lon="11.636077244919656"><ele>684.6</ele><time>2026-05-03T11:56:34Z</time></trkpt><trkpt lat="44.14716634200302" lon="11.636064891053486"><ele>685.8</ele><time>2026-05-03T11:56:35Z</time></trkpt><trkpt lat="44.147255734382085" lon="11.636096352915368"><ele>687.0</ele><time>2026-05-03T11:56:36Z</time></trkpt><trkpt lat="44.14733823508914" lon="11.636183764333826"><ele>683.6</ele><time>2026-05-03T11:56:37Z</time></trkpt><trkpt lat="44.14742257957751" lon="11.636303259808194"><ele>680.2</ele><time>2026-05-03T11:56:38Z</time></trkpt><trkpt lat="44.14747808726726" lon="11.636420189339756"><ele>676.8</ele><time>2026-05-03T11:56:39Z</time></trkpt><trkpt lat="44.147532036916616" lon="11.636546230438242"><ele>673.4</ele><time>2026-05-03T11:56:40Z</time></trkpt><trkpt lat="44.14757875342537" lon="11.636671064260224"><ele>670.0</ele><time>2026-05-03T11:56:41Z</time></trkpt><trkpt lat="44.147623685720625" lon="11.636798696361712"><ele>670.0</ele><time>2026-05-03T11:56:42Z</time></trkpt><trkpt lat="44.14766711481591" lon="11.636909059681479"><ele>670.0</ele><time>2026-05-03T11:56:43Z</time></trkpt><trkpt lat="44.1477131515608" lon="11.637027007374806"><ele>670.0</ele><time>2026-05-03T11:56:44Z</time></trkpt><trkpt lat="44.147768102756075" lon="11.637161201973516"><ele>670.0</ele><time>2026-05-03T11:56:45Z</time></trkpt><trkpt lat="44.14781051965917" lon="11.637293323612454"><ele>670.0</ele><time>2026-05-03T11:56:46Z</time></trkpt><trkpt lat="44.14783257988977" lon="11.637423565034936"><ele>666.0</ele><time>2026-05-03T11:56:47Z</time></trkpt><trkpt lat="44.14784312432426" lon="11.637553179361058"><ele>662.0</ele><time>2026-05-03T11:56:48Z</time></trkpt><trkpt lat="44.147849528343414" lon="11.637674826946178"><ele>658.0</ele><time>2026-05-03T11:56:49Z</time></trkpt><trkpt lat="44.14786386543615" lon="11.637780940824253"><ele>654.0</ele><time>2026-05-03T11:56:50Z</time></trkpt><trkpt lat="44.14789677147992" lon="11.637890653739541"><ele>650.0</ele><time>2026-05-03T11:56:51Z</time></trkpt><trkpt lat="44.147937657968974" lon="11.637992361830397"><ele>646.0</ele><time>2026-05-03T11:56:52Z</time></trkpt><trkpt lat="44.14797380513288" lon="11.638091478104228"><ele>645.1666666666667</ele><time>2026-05-03T11:56:53Z</time></trkpt><trkpt lat="44.14799436319034" lon="11.638196228152289"><ele>644.3333333333334</ele><time>2026-05-03T11:56:54Z</time></trkpt><trkpt lat="44.14797036339279" lon="11.638305735250402"><ele>643.5</ele><time>2026-05-03T11:56:55Z</time></trkpt><trkpt lat="44.14797563958339" lon="11.638422041920997"><ele>642.6666666666666</ele><time>2026-05-03T11:56:56Z</time></trkpt><trkpt lat="44.14795689005357" lon="11.638507149427925"><ele>641.8333333333333</ele><time>2026-05-03T11:56:57Z</time></trkpt><trkpt lat="44.147950246581026" lon="11.63862940641855"><ele>641.0</ele><time>2026-05-03T11:56:58Z</time></trkpt><trkpt lat="44.14792198215128" lon="11.63872818684662"><ele>640.4</ele><time>2026-05-03T11:56:59Z</time></trkpt><trkpt lat="44.14788128259616" lon="11.638837664035607"><ele>639.8</ele><time>2026-05-03T11:57:00Z</time></trkpt><trkpt lat="44.14783021929178" lon="11.638966684445746"><ele>639.1999999999999</ele><time>2026-05-03T11:57:01Z</time></trkpt><trkpt lat="44.14777246660117" lon="11.63905737804211"><ele>638.5999999999999</ele><time>2026-05-03T11:57:02Z</time></trkpt><trkpt lat="44.14772265678643" lon="11.639168509778859"><ele>638.0</ele><time>2026-05-03T11:57:03Z</time></trkpt><trkpt lat="44.147685540390576" lon="11.63929661801284"><ele>638.0</ele><time>2026-05-03T11:57:04Z</time></trkpt><trkpt lat="44.14766614919221" lon="11.639447596414161"><ele>638.0</ele><time>2026-05-03T11:57:05Z</time></trkpt><trkpt lat="44.14764725999197" lon="11.63958936152889"><ele>638.0</ele><time>2026-05-03T11:57:05.999Z</time></trkpt><trkpt lat="44.14763146313458" lon="11.63972687044832"><ele>638.0</ele><time>2026-05-03T11:57:06.999Z</time></trkpt><trkpt lat="44.1476125799596" lon="11.639859912974948"><ele>638.0</ele><time>2026-05-03T11:57:07.999Z</time></trkpt><trkpt lat="44.147618462060606" lon="11.639981738040953"><ele>636.8333333333333</ele><time>2026-05-03T11:57:08.999Z</time></trkpt><trkpt lat="44.14765696159188" lon="11.640072923448278"><ele>635.6666666666666</ele><time>2026-05-03T11:57:09.999Z</time></trkpt><trkpt lat="44.14772775652012" lon="11.6401276756825"><ele>634.5</ele><time>2026-05-03T11:57:10.999Z</time></trkpt><trkpt lat="44.14779225210948" lon="11.640137603857069"><ele>633.3333333333334</ele><time>2026-05-03T11:57:11.999Z</time></trkpt><trkpt lat="44.14787616155141" lon="11.640129941718154"><ele>632.1666666666667</ele><time>2026-05-03T11:57:12.999Z</time></trkpt><trkpt lat="44.14796860768329" lon="11.640108401374462"><ele>631.0</ele><time>2026-05-03T11:57:13.999Z</time></trkpt><trkpt lat="44.14805017780195" lon="11.640081099103888"><ele>631.0</ele><time>2026-05-03T11:57:14.999Z</time></trkpt><trkpt lat="44.14813720332137" lon="11.64001290992731"><ele>631.0</ele><time>2026-05-03T11:57:15.999Z</time></trkpt><trkpt lat="44.14821816171447" lon="11.639937510610519"><ele>631.0</ele><time>2026-05-03T11:57:16.999Z</time></trkpt><trkpt lat="44.14829349900131" lon="11.639857961066047"><ele>631.0</ele><time>2026-05-03T11:57:17.999Z</time></trkpt><trkpt lat="44.14836100299596" lon="11.639774432824517"><ele>631.0</ele><time>2026-05-03T11:57:18.999Z</time></trkpt><trkpt lat="44.14842042948627" lon="11.639667850015277"><ele>631.6</ele><time>2026-05-03T11:57:19.999Z</time></trkpt><trkpt lat="44.14847509920104" lon="11.639537036249868"><ele>632.2</ele><time>2026-05-03T11:57:20.999Z</time></trkpt><trkpt lat="44.14851857082192" lon="11.63941447475407"><ele>632.8</ele><time>2026-05-03T11:57:21.999Z</time></trkpt><trkpt lat="44.148566657639954" lon="11.639305282009635"><ele>633.4</ele><time>2026-05-03T11:57:22.999Z</time></trkpt><trkpt lat="44.14860585318182" lon="11.63919717463721"><ele>634.0</ele><time>2026-05-03T11:57:23.999Z</time></trkpt><trkpt lat="44.148646370661396" lon="11.639091522970405"><ele>636.2</ele><time>2026-05-03T11:57:24.999Z</time></trkpt><trkpt lat="44.14869252670404" lon="11.638990369497874"><ele>638.4</ele><time>2026-05-03T11:57:25.999Z</time></trkpt><trkpt lat="44.148746724628175" lon="11.63891084277419"><ele>640.6</ele><time>2026-05-03T11:57:26.999Z</time></trkpt><trkpt lat="44.14883342865204" lon="11.638832815883573"><ele>642.8</ele><time>2026-05-03T11:57:27.999Z</time></trkpt><trkpt lat="44.148925409574424" lon="11.638790249488462"><ele>645.0</ele><time>2026-05-03T11:57:28.999Z</time></trkpt><trkpt lat="44.14900842839084" lon="11.638732336210145"><ele>642.6</ele><time>2026-05-03T11:57:29.999Z</time></trkpt><trkpt lat="44.1490790401377" lon="11.638660783802449"><ele>640.2</ele><time>2026-05-03T11:57:30.999Z</time></trkpt><trkpt lat="44.14912893946164" lon="11.638557771758691"><ele>637.8</ele><time>2026-05-03T11:57:31.999Z</time></trkpt><trkpt lat="44.14920450037551" lon="11.638446889986945"><ele>635.4</ele><time>2026-05-03T11:57:32.999Z</time></trkpt><trkpt lat="44.14925764486483" lon="11.63830883628117"><ele>633.0</ele><time>2026-05-03T11:57:33.999Z</time></trkpt><trkpt lat="44.149305146081815" lon="11.6381676753392"><ele>633.0</ele><time>2026-05-03T11:57:34.999Z</time></trkpt><trkpt lat="44.14935078851258" lon="11.638043984330004"><ele>633.0</ele><time>2026-05-03T11:57:35.999Z</time></trkpt><trkpt lat="44.14940147032369" lon="11.637922800063592"><ele>633.0</ele><time>2026-05-03T11:57:36.999Z</time></trkpt><trkpt lat="44.14947078205002" lon="11.637837871197833"><ele>633.0</ele><time>2026-05-03T11:57:37.999Z</time></trkpt><trkpt lat="44.14953498069356" lon="11.63776387274906"><ele>633.0</ele><time>2026-05-03T11:57:38.999Z</time></trkpt><trkpt lat="44.149635688151626" lon="11.637691968017293"><ele>633.0</ele><time>2026-05-03T11:57:40.999Z</time></trkpt><trkpt lat="44.14970057430426" lon="11.637700276689243"><ele>633.0</ele><time>2026-05-03T11:57:41.999Z</time></trkpt><trkpt lat="44.14977076727471" lon="11.637770910295027"><ele>633.0</ele><time>2026-05-03T11:57:42.999Z</time></trkpt><trkpt lat="44.149826887351104" lon="11.637859623776615"><ele>633.0</ele><time>2026-05-03T11:57:43.999Z</time></trkpt><trkpt lat="44.149896058892715" lon="11.637930868359081"><ele>633.0</ele><time>2026-05-03T11:57:44.999Z</time></trkpt><trkpt lat="44.149970914151304" lon="11.637993266637691"><ele>633.0</ele><time>2026-05-03T11:57:45.999Z</time></trkpt><trkpt lat="44.150065108839314" lon="11.638059520354867"><ele>627.5</ele><time>2026-05-03T11:57:46.999Z</time></trkpt><trkpt lat="44.15017990782827" lon="11.638089488235815"><ele>622.0</ele><time>2026-05-03T11:57:47.999Z</time></trkpt><trkpt lat="44.1503279630924" lon="11.638103162833124"><ele>616.5</ele><time>2026-05-03T11:57:48.999Z</time></trkpt><trkpt lat="44.15047332595295" lon="11.638097404288473"><ele>611.0</ele><time>2026-05-03T11:57:49.999Z</time></trkpt><trkpt lat="44.15059208626224" lon="11.63810007444782"><ele>613.0</ele><time>2026-05-03T11:57:50.999Z</time></trkpt><trkpt lat="44.150715369114124" lon="11.638119086445732"><ele>615.0</ele><time>2026-05-03T11:57:51.999Z</time></trkpt><trkpt lat="44.150815669772285" lon="11.638160164736343"><ele>617.0</ele><time>2026-05-03T11:57:52.999Z</time></trkpt><trkpt lat="44.15091352833587" lon="11.638205512581917"><ele>619.0</ele><time>2026-05-03T11:57:53.999Z</time></trkpt><trkpt lat="44.15098633825537" lon="11.638260299322793"><ele>621.0</ele><time>2026-05-03T11:57:54.999Z</time></trkpt><trkpt lat="44.15103628352071" lon="11.63833849202437"><ele>621.0</ele><time>2026-05-03T11:57:55.999Z</time></trkpt><trkpt lat="44.15108507706661" lon="11.638397414360112"><ele>621.0</ele><time>2026-05-03T11:57:56.999Z</time></trkpt><trkpt lat="44.15112211619489" lon="11.638474972788975"><ele>621.0</ele><time>2026-05-03T11:57:57.999Z</time></trkpt><trkpt lat="44.151133541201226" lon="11.638581530491201"><ele>621.0</ele><time>2026-05-03T11:57:58.999Z</time></trkpt><trkpt lat="44.1511640882344" lon="11.638700693061667"><ele>621.0</ele><time>2026-05-03T11:58:00.999Z</time></trkpt><trkpt lat="44.151191190633796" lon="11.638828704792173"><ele>621.0</ele><time>2026-05-03T11:58:08.999Z</time></trkpt><trkpt lat="44.151234375779396" lon="11.638927313517957"><ele>617.2</ele><time>2026-05-03T11:58:20Z</time></trkpt><trkpt lat="44.15126887584852" lon="11.639000744887728"><ele>613.4000000000001</ele><time>2026-05-03T11:58:21Z</time></trkpt><trkpt lat="44.15130983420892" lon="11.639074471186351"><ele>609.6</ele><time>2026-05-03T11:58:23Z</time></trkpt><trkpt lat="44.15137217387069" lon="11.639275711526075"><ele>605.8000000000001</ele><time>2026-05-03T11:58:28Z</time></trkpt><trkpt lat="44.151521663542475" lon="11.639296495492022"><ele>602.0</ele><time>2026-05-03T11:58:30Z</time></trkpt><trkpt lat="44.15150783283556" lon="11.639402997836996"><ele>600.6666666666666</ele><time>2026-05-03T11:58:32Z</time></trkpt><trkpt lat="44.15149299762708" lon="11.639522748324305"><ele>599.3333333333333</ele><time>2026-05-03T11:58:34Z</time></trkpt><trkpt lat="44.15145774255748" lon="11.639604376603648"><ele>598.0</ele><time>2026-05-03T11:58:36Z</time></trkpt><trkpt lat="44.151442694923524" lon="11.639718836709893"><ele>596.6666666666666</ele><time>2026-05-03T11:58:38Z</time></trkpt><trkpt lat="44.15143597542442" lon="11.639821024782169"><ele>595.3333333333334</ele><time>2026-05-03T11:58:40Z</time></trkpt><trkpt lat="44.15145715326269" lon="11.639923628124844"><ele>594.0</ele><time>2026-05-03T11:58:43Z</time></trkpt><trkpt lat="44.1515200494632" lon="11.639951990338878"><ele>600.6666666666666</ele><time>2026-05-03T11:58:47Z</time></trkpt><trkpt lat="44.151600955805385" lon="11.639919046449087"><ele>607.3333333333334</ele><time>2026-05-03T11:59:18.999Z</time></trkpt><trkpt lat="44.15166763867356" lon="11.639907868033257"><ele>614.0</ele><time>2026-05-03T11:59:40.999Z</time></trkpt><trkpt lat="44.151737824038705" lon="11.639891851224275"><ele>620.6666666666667</ele><time>2026-05-03T11:59:43.999Z</time></trkpt><trkpt lat="44.1518036977068" lon="11.639806066678652"><ele>627.3333333333334</ele><time>2026-05-03T11:59:47.999Z</time></trkpt><trkpt lat="44.151898238776866" lon="11.639816536529755"><ele>634.0</ele><time>2026-05-03T11:59:51.999Z</time></trkpt><trkpt lat="44.151984162076744" lon="11.639796972608263"><ele>634.0</ele><time>2026-05-03T11:59:54.999Z</time></trkpt><trkpt lat="44.152040351209585" lon="11.639703309968148"><ele>634.0</ele><time>2026-05-03T11:59:57.999Z</time></trkpt><trkpt lat="44.15210354125308" lon="11.639633019944187"><ele>634.0</ele><time>2026-05-03T12:00:01.999Z</time></trkpt><trkpt lat="44.15215692561902" lon="11.639551621947717"><ele>634.0</ele><time>2026-05-03T12:00:04.999Z</time></trkpt><trkpt lat="44.15222286466597" lon="11.639511216953588"><ele>634.0</ele><time>2026-05-03T12:00:07.999Z</time></trkpt><trkpt lat="44.15229953619503" lon="11.639511225750685"><ele>634.0</ele><time>2026-05-03T12:00:10.999Z</time></trkpt><trkpt lat="44.15237120089092" lon="11.639541990510981"><ele>633.3333333333334</ele><time>2026-05-03T12:00:13.999Z</time></trkpt><trkpt lat="44.1524334902564" lon="11.639517217215282"><ele>632.6666666666667</ele><time>2026-05-03T12:00:15.999Z</time></trkpt><trkpt lat="44.152502632625726" lon="11.639482158872177"><ele>632.0</ele><time>2026-05-03T12:00:17.999Z</time></trkpt><trkpt lat="44.15260215233895" lon="11.639390053968102"><ele>631.3333333333334</ele><time>2026-05-03T12:00:19.999Z</time></trkpt><trkpt lat="44.152681784940924" lon="11.639336633113524"><ele>630.6666666666666</ele><time>2026-05-03T12:00:22.999Z</time></trkpt><trkpt lat="44.15275239907085" lon="11.639359983471609"><ele>630.0</ele><time>2026-05-03T12:00:25Z</time></trkpt><trkpt lat="44.15295193688318" lon="11.639250544710364"><ele>630.0</ele><time>2026-05-03T12:00:26Z</time></trkpt><trkpt lat="44.15303324242095" lon="11.639329538807837"><ele>630.0</ele><time>2026-05-03T12:00:28Z</time></trkpt><trkpt lat="44.15306312366169" lon="11.639422255190263"><ele>630.0</ele><time>2026-05-03T12:00:30Z</time></trkpt><trkpt lat="44.153031270201375" lon="11.639548222332904"><ele>630.0</ele><time>2026-05-03T12:00:32Z</time></trkpt><trkpt lat="44.153024028464536" lon="11.63964295423428"><ele>630.0</ele><time>2026-05-03T12:00:33Z</time></trkpt><trkpt lat="44.15303761656794" lon="11.639739687463372"><ele>630.0</ele><time>2026-05-03T12:01:50.999Z</time></trkpt><trkpt lat="44.15309938241758" lon="11.63979295268634"><ele>630.0</ele><time>2026-05-03T12:01:57.999Z</time></trkpt><trkpt lat="44.15315995912652" lon="11.639735532572951"><ele>630.0</ele><time>2026-05-03T12:02:00.999Z</time></trkpt><trkpt lat="44.15326044512008" lon="11.639783192738127"><ele>630.0</ele><time>2026-05-03T12:05:44.999Z</time></trkpt><trkpt lat="44.153325479782296" lon="11.639725962154497"><ele>630.0</ele><time>2026-05-03T12:05:47.999Z</time></trkpt><trkpt lat="44.15338795526308" lon="11.63965308133876"><ele>630.0</ele><time>2026-05-03T12:05:49.999Z</time></trkpt><trkpt lat="44.15346680481427" lon="11.639621611256114"><ele>630.0</ele><time>2026-05-03T12:05:54.999Z</time></trkpt><trkpt lat="44.15354104144579" lon="11.63957613959314"><ele>636.25</ele><time>2026-05-03T12:05:57.999Z</time></trkpt><trkpt lat="44.15363374479178" lon="11.639540815210314"><ele>642.5</ele><time>2026-05-03T12:06:00.999Z</time></trkpt><trkpt lat="44.15370246488069" lon="11.639543316195166"><ele>648.75</ele><time>2026-05-03T12:06:03.999Z</time></trkpt><trkpt lat="44.153793952495995" lon="11.639520752734324"><ele>655.0</ele><time>2026-05-03T12:06:05.999Z</time></trkpt><trkpt lat="44.15399575544925" lon="11.639442036122162"><ele>658.0</ele><time>2026-05-03T12:06:06.999Z</time></trkpt><trkpt lat="44.15410641826621" lon="11.639523716420758"><ele>661.0</ele><time>2026-05-03T12:06:08.999Z</time></trkpt><trkpt lat="44.154165858353025" lon="11.639557517422057"><ele>664.0</ele><time>2026-05-03T12:06:09.999Z</time></trkpt><trkpt lat="44.154164996367506" lon="11.639669050734543"><ele>667.0</ele><time>2026-05-03T12:06:12.999Z</time></trkpt><trkpt lat="44.15410709871933" lon="11.639708706938906"><ele>670.0</ele><time>2026-05-03T12:06:13.999Z</time></trkpt><trkpt lat="44.154182249414234" lon="11.639815435360557"><ele>673.0</ele><time>2026-05-03T12:06:21.999Z</time></trkpt><trkpt lat="44.154236047927434" lon="11.639887151747919"><ele>673.0</ele><time>2026-05-03T12:06:23.999Z</time></trkpt><trkpt lat="44.15430311574149" lon="11.639911714381965"><ele>673.0</ele><time>2026-05-03T12:06:25.999Z</time></trkpt><trkpt lat="44.154364090113624" lon="11.6398690440354"><ele>673.0</ele><time>2026-05-03T12:06:28.999Z</time></trkpt><trkpt lat="44.15443887895312" lon="11.639906980591963"><ele>673.0</ele><time>2026-05-03T12:06:30.999Z</time></trkpt><trkpt lat="44.154509413098964" lon="11.639921662899331"><ele>673.0</ele><time>2026-05-03T12:06:34.999Z</time></trkpt><trkpt lat="44.15455589384436" lon="11.64005025552233"><ele>673.0</ele><time>2026-05-03T12:06:38.999Z</time></trkpt><trkpt lat="44.1546138415115" lon="11.640100409748143"><ele>673.0</ele><time>2026-05-03T12:06:40.999Z</time></trkpt><trkpt lat="44.15468979653997" lon="11.640163097777068"><ele>673.0</ele><time>2026-05-03T12:06:44Z</time></trkpt><trkpt lat="44.15479600229633" lon="11.640210411918451"><ele>673.0</ele><time>2026-05-03T12:06:46Z</time></trkpt><trkpt lat="44.155009094684395" lon="11.640212738948827"><ele>673.0</ele><time>2026-05-03T12:06:48Z</time></trkpt><trkpt lat="44.15508396969824" lon="11.64020479849766"><ele>675.8333333333334</ele><time>2026-05-03T12:06:49Z</time></trkpt><trkpt lat="44.15515544836919" lon="11.640200010759779"><ele>678.6666666666667</ele><time>2026-05-03T12:06:50Z</time></trkpt><trkpt lat="44.15527929290487" lon="11.64019908597152"><ele>681.5</ele><time>2026-05-03T12:06:52Z</time></trkpt><trkpt lat="44.15534974183157" lon="11.64016571454508"><ele>684.3333333333334</ele><time>2026-05-03T12:06:53Z</time></trkpt><trkpt lat="44.155418465693046" lon="11.64016915118748"><ele>687.1666666666666</ele><time>2026-05-03T12:06:55Z</time></trkpt><trkpt lat="44.15547883323185" lon="11.640242653540897"><ele>690.0</ele><time>2026-05-03T12:06:57Z</time></trkpt><trkpt lat="44.15557412633102" lon="11.64028633386674"><ele>684.6</ele><time>2026-05-03T12:06:59Z</time></trkpt><trkpt lat="44.15565386451913" lon="11.640321072379555"><ele>679.2</ele><time>2026-05-03T12:07:02Z</time></trkpt><trkpt lat="44.15564847246922" lon="11.640463885349245"><ele>673.8</ele><time>2026-05-03T12:07:05Z</time></trkpt><trkpt lat="44.15561857595256" lon="11.64056220054275"><ele>668.4</ele><time>2026-05-03T12:07:06Z</time></trkpt><trkpt lat="44.15558720165826" lon="11.640640811987769"><ele>663.0</ele><time>2026-05-03T12:07:07Z</time></trkpt><trkpt lat="44.15540112829394" lon="11.640696949154387"><ele>663.0</ele><time>2026-05-03T12:07:08Z</time></trkpt><trkpt lat="44.15532535997692" lon="11.640842664751801"><ele>663.0</ele><time>2026-05-03T12:07:11Z</time></trkpt><trkpt lat="44.155315976093675" lon="11.640971750215316"><ele>663.0</ele><time>2026-05-03T12:07:13Z</time></trkpt><trkpt lat="44.15531352291878" lon="11.641061096810814"><ele>663.0</ele><time>2026-05-03T12:07:16Z</time></trkpt><trkpt lat="44.15528492922413" lon="11.641148120337258"><ele>663.0</ele><time>2026-05-03T12:07:18Z</time></trkpt><trkpt lat="44.15524257983598" lon="11.641301200359012"><ele>663.8333333333334</ele><time>2026-05-03T12:07:20Z</time></trkpt><trkpt lat="44.155197397985" lon="11.64136465382343"><ele>664.6666666666666</ele><time>2026-05-03T12:07:21Z</time></trkpt><trkpt lat="44.155190034128125" lon="11.641468634413435"><ele>665.5</ele><time>2026-05-03T12:07:23Z</time></trkpt><trkpt lat="44.15516652349643" lon="11.641618684700724"><ele>666.3333333333333</ele><time>2026-05-03T12:07:25Z</time></trkpt><trkpt lat="44.15514234392254" lon="11.641717420885135"><ele>667.1666666666666</ele><time>2026-05-03T12:07:26Z</time></trkpt><trkpt lat="44.15514352879073" lon="11.641879085734518"><ele>668.0</ele><time>2026-05-03T12:07:27Z</time></trkpt><trkpt lat="44.1550553921265" lon="11.641994534090843"><ele>670.0</ele><time>2026-05-03T12:07:28Z</time></trkpt><trkpt lat="44.15500364282259" lon="11.642102832536425"><ele>672.0</ele><time>2026-05-03T12:07:29Z</time></trkpt><trkpt lat="44.15498754005886" lon="11.642217239770245"><ele>674.0</ele><time>2026-05-03T12:07:31Z</time></trkpt><trkpt lat="44.15502960094962" lon="11.642320120752393"><ele>676.0</ele><time>2026-05-03T12:07:33Z</time></trkpt><trkpt lat="44.155134786550434" lon="11.64231859494517"><ele>678.0</ele><time>2026-05-03T12:07:34Z</time></trkpt><trkpt lat="44.15522103708215" lon="11.642254422687301"><ele>678.0</ele><time>2026-05-03T12:07:35Z</time></trkpt><trkpt lat="44.155314460150635" lon="11.642145556891576"><ele>678.0</ele><time>2026-05-03T12:07:36Z</time></trkpt><trkpt lat="44.155384325295046" lon="11.642015571572543"><ele>678.0</ele><time>2026-05-03T12:07:37Z</time></trkpt><trkpt lat="44.155471106124025" lon="11.641936294710815"><ele>678.0</ele><time>2026-05-03T12:07:38Z</time></trkpt><trkpt lat="44.15557440788911" lon="11.641911932137715"><ele>678.0</ele><time>2026-05-03T12:07:39Z</time></trkpt><trkpt lat="44.15568878424282" lon="11.641943413733516"><ele>683.0</ele><time>2026-05-03T12:07:39.999Z</time></trkpt><trkpt lat="44.155787663191646" lon="11.641941473136699"><ele>688.0</ele><time>2026-05-03T12:07:40.999Z</time></trkpt><trkpt lat="44.15585159903029" lon="11.641890541750257"><ele>693.0</ele><time>2026-05-03T12:07:41.999Z</time></trkpt><trkpt lat="44.15592290564688" lon="11.641810716793895"><ele>698.0</ele><time>2026-05-03T12:07:42.999Z</time></trkpt><trkpt lat="44.156001149925096" lon="11.64172146774018"><ele>703.0</ele><time>2026-05-03T12:07:43.999Z</time></trkpt><trkpt lat="44.156081561313194" lon="11.641645093144376"><ele>703.0</ele><time>2026-05-03T12:07:44.999Z</time></trkpt><trkpt lat="44.15616702274608" lon="11.64157565128559"><ele>703.0</ele><time>2026-05-03T12:07:45.999Z</time></trkpt><trkpt lat="44.15624905144716" lon="11.641509059034211"><ele>703.0</ele><time>2026-05-03T12:07:46.999Z</time></trkpt><trkpt lat="44.156330887268254" lon="11.641469429971517"><ele>703.0</ele><time>2026-05-03T12:07:47.999Z</time></trkpt><trkpt lat="44.15638555782049" lon="11.64140359018719"><ele>703.0</ele><time>2026-05-03T12:07:48.999Z</time></trkpt><trkpt lat="44.15645049792263" lon="11.641355022497516"><ele>703.0</ele><time>2026-05-03T12:07:49.999Z</time></trkpt><trkpt lat="44.156516349595506" lon="11.641316123504275"><ele>703.1666666666667</ele><time>2026-05-03T12:07:50.999Z</time></trkpt><trkpt lat="44.15658764861978" lon="11.64128964303607"><ele>703.3333333333334</ele><time>2026-05-03T12:07:51.999Z</time></trkpt><trkpt lat="44.15666370474169" lon="11.64127496510175"><ele>703.5</ele><time>2026-05-03T12:07:52.999Z</time></trkpt><trkpt lat="44.15674158047817" lon="11.641221810562678"><ele>703.6666666666666</ele><time>2026-05-03T12:07:53.999Z</time></trkpt><trkpt lat="44.15683048338964" lon="11.64119411594254"><ele>703.8333333333333</ele><time>2026-05-03T12:07:54.999Z</time></trkpt><trkpt lat="44.15691684008693" lon="11.64117223001243"><ele>704.0</ele><time>2026-05-03T12:07:55.999Z</time></trkpt><trkpt lat="44.157005327398124" lon="11.641142137390695"><ele>705.1666666666666</ele><time>2026-05-03T12:07:56.999Z</time></trkpt><trkpt lat="44.157078888783396" lon="11.64111178556076"><ele>706.3333333333333</ele><time>2026-05-03T12:07:57.999Z</time></trkpt><trkpt lat="44.15714817267559" lon="11.64107665504717"><ele>707.5</ele><time>2026-05-03T12:07:58.999Z</time></trkpt><trkpt lat="44.157250905424064" lon="11.641011840365032"><ele>708.6666666666666</ele><time>2026-05-03T12:08:00.999Z</time></trkpt><trkpt lat="44.15731541341467" lon="11.640984296465808"><ele>709.8333333333334</ele><time>2026-05-03T12:08:01.999Z</time></trkpt><trkpt lat="44.157410107468635" lon="11.640988619969326"><ele>711.0</ele><time>2026-05-03T12:08:02.999Z</time></trkpt><trkpt lat="44.15750960661864" lon="11.641024837071862"><ele>711.0</ele><time>2026-05-03T12:08:03.999Z</time></trkpt><trkpt lat="44.157593912585476" lon="11.641060109423709"><ele>711.0</ele><time>2026-05-03T12:08:04.999Z</time></trkpt><trkpt lat="44.1576848146742" lon="11.64109559859976"><ele>711.0</ele><time>2026-05-03T12:08:05.999Z</time></trkpt><trkpt lat="44.157779029641624" lon="11.641131634947122"><ele>711.0</ele><time>2026-05-03T12:08:06.999Z</time></trkpt><trkpt lat="44.15787459254613" lon="11.641166904880466"><ele>711.0</ele><time>2026-05-03T12:08:07.999Z</time></trkpt><trkpt lat="44.15796842640184" lon="11.641195016678955"><ele>708.8</ele><time>2026-05-03T12:08:08.999Z</time></trkpt><trkpt lat="44.15805553956169" lon="11.641204741048554"><ele>706.5999999999999</ele><time>2026-05-03T12:08:09.999Z</time></trkpt><trkpt lat="44.158145412232514" lon="11.641199533798165"><ele>704.4</ele><time>2026-05-03T12:08:10.999Z</time></trkpt><trkpt lat="44.158244096268305" lon="11.641229446361658"><ele>702.2</ele><time>2026-05-03T12:08:11.999Z</time></trkpt><trkpt lat="44.1583351302048" lon="11.641300974179497"><ele>700.0</ele><time>2026-05-03T12:08:12.999Z</time></trkpt><trkpt lat="44.15841703670003" lon="11.641410928729394"><ele>700.0</ele><time>2026-05-03T12:08:13.999Z</time></trkpt><trkpt lat="44.15847568392234" lon="11.64151568896443"><ele>700.0</ele><time>2026-05-03T12:08:14.999Z</time></trkpt><trkpt lat="44.158531160803165" lon="11.641608466919017"><ele>700.0</ele><time>2026-05-03T12:08:15.999Z</time></trkpt><trkpt lat="44.15858396658707" lon="11.641695318555087"><ele>700.0</ele><time>2026-05-03T12:08:16.999Z</time></trkpt></trkseg></trk></gpx>